<?xml version="1.0" encoding="UTF-8" standalone="no" ?>
<gpx xmlns="http://www.topografix.com/GPX/1/1" xmlns:xsi="http://www.w3.org/2001/XMLSchema-instance" xsi:schemaLocation="http://www.topografix.com/GPX/1/1 http://www.topografix.com/GPX/1/1/gpx.xsd" version="1.1" creator="VisuGPX - https://www.visugpx.com">
  <metadata>
    <name>POINTE DE VELAN</name>
    <desc><![CDATA[Ballade dans les Bauges donc sauvage et pas forcement évidente pour se retrouver]]></desc>
  </metadata>
  <trk>
    <name><![CDATA[POINTE DE VELAN_1]]></name>
    <trkseg>
      <trkpt lat="45.71974" lon="6.2752">
        <ele>898.6</ele>
        <time>2013-08-11T08:54:16Z</time>
      </trkpt>
      <trkpt lat="45.71973" lon="6.27521">
        <ele>898.6</ele>
        <time>2013-08-11T08:54:21Z</time>
      </trkpt>
      <trkpt lat="45.71973" lon="6.27524">
        <ele>898.6</ele>
        <time>2013-08-11T08:54:26Z</time>
      </trkpt>
      <trkpt lat="45.71976" lon="6.27523">
        <ele>898.6</ele>
        <time>2013-08-11T08:54:31Z</time>
      </trkpt>
      <trkpt lat="45.71976" lon="6.27521">
        <ele>898.6</ele>
        <time>2013-08-11T08:54:36Z</time>
      </trkpt>
      <trkpt lat="45.71976" lon="6.27521">
        <ele>898.6</ele>
        <time>2013-08-11T08:54:41Z</time>
      </trkpt>
      <trkpt lat="45.71976" lon="6.27521">
        <ele>898.6</ele>
        <time>2013-08-11T08:54:46Z</time>
      </trkpt>
      <trkpt lat="45.71976" lon="6.27521">
        <ele>898.6</ele>
        <time>2013-08-11T08:54:51Z</time>
      </trkpt>
      <trkpt lat="45.71976" lon="6.27521">
        <ele>898.6</ele>
        <time>2013-08-11T08:54:58Z</time>
      </trkpt>
      <trkpt lat="45.71976" lon="6.27521">
        <ele>898.6</ele>
        <time>2013-08-11T08:55:02Z</time>
      </trkpt>
      <trkpt lat="45.71976" lon="6.27521">
        <ele>898.6</ele>
        <time>2013-08-11T08:55:06Z</time>
      </trkpt>
      <trkpt lat="45.71976" lon="6.27521">
        <ele>898.6</ele>
        <time>2013-08-11T08:55:11Z</time>
      </trkpt>
      <trkpt lat="45.71976" lon="6.27521">
        <ele>898.6</ele>
        <time>2013-08-11T08:55:20Z</time>
      </trkpt>
      <trkpt lat="45.71976" lon="6.27521">
        <ele>898.6</ele>
        <time>2013-08-11T08:55:21Z</time>
      </trkpt>
      <trkpt lat="45.71971" lon="6.27518">
        <ele>910.92584</ele>
        <time>2013-08-11T08:55:26Z</time>
      </trkpt>
      <trkpt lat="45.71965" lon="6.27517">
        <ele>910.92584</ele>
        <time>2013-08-11T08:55:34Z</time>
      </trkpt>
      <trkpt lat="45.71965" lon="6.27517">
        <ele>910.92584</ele>
        <time>2013-08-11T08:55:37Z</time>
      </trkpt>
      <trkpt lat="45.71965" lon="6.27517">
        <ele>910.92584</ele>
        <time>2013-08-11T08:55:41Z</time>
      </trkpt>
      <trkpt lat="45.71964" lon="6.27517">
        <ele>910.92584</ele>
        <time>2013-08-11T08:55:46Z</time>
      </trkpt>
      <trkpt lat="45.71965" lon="6.27517">
        <ele>910.92584</ele>
        <time>2013-08-11T08:55:55Z</time>
      </trkpt>
      <trkpt lat="45.71965" lon="6.27518">
        <ele>910.92584</ele>
        <time>2013-08-11T08:55:56Z</time>
      </trkpt>
      <trkpt lat="45.71965" lon="6.27516">
        <ele>910.92584</ele>
        <time>2013-08-11T08:56:01Z</time>
      </trkpt>
      <trkpt lat="45.71965" lon="6.27516">
        <ele>916.6535</ele>
        <time>2013-08-11T08:56:11Z</time>
      </trkpt>
      <trkpt lat="45.71965" lon="6.27516">
        <ele>916.6535</ele>
        <time>2013-08-11T08:56:11Z</time>
      </trkpt>
      <trkpt lat="45.71965" lon="6.27516">
        <ele>916.6535</ele>
        <time>2013-08-11T08:56:16Z</time>
      </trkpt>
      <trkpt lat="45.71965" lon="6.27516">
        <ele>916.6535</ele>
        <time>2013-08-11T08:56:23Z</time>
      </trkpt>
      <trkpt lat="45.71964" lon="6.27516">
        <ele>916.6535</ele>
        <time>2013-08-11T08:56:31Z</time>
      </trkpt>
      <trkpt lat="45.71964" lon="6.27516">
        <ele>916.6535</ele>
        <time>2013-08-11T08:56:36Z</time>
      </trkpt>
      <trkpt lat="45.71964" lon="6.27516">
        <ele>916.6535</ele>
        <time>2013-08-11T08:56:45Z</time>
      </trkpt>
      <trkpt lat="45.71963" lon="6.27516">
        <ele>916.6535</ele>
        <time>2013-08-11T08:56:46Z</time>
      </trkpt>
      <trkpt lat="45.71963" lon="6.27516">
        <ele>916.6535</ele>
        <time>2013-08-11T08:56:51Z</time>
      </trkpt>
      <trkpt lat="45.71963" lon="6.27516">
        <ele>916.6535</ele>
        <time>2013-08-11T08:56:59Z</time>
      </trkpt>
      <trkpt lat="45.71963" lon="6.27516">
        <ele>916.6535</ele>
        <time>2013-08-11T08:57:01Z</time>
      </trkpt>
      <trkpt lat="45.71963" lon="6.27516">
        <ele>916.6535</ele>
        <time>2013-08-11T08:57:06Z</time>
      </trkpt>
      <trkpt lat="45.71963" lon="6.27516">
        <ele>916.6535</ele>
        <time>2013-08-11T08:57:14Z</time>
      </trkpt>
      <trkpt lat="45.71963" lon="6.27516">
        <ele>916.6535</ele>
        <time>2013-08-11T08:57:16Z</time>
      </trkpt>
      <trkpt lat="45.71963" lon="6.27516">
        <ele>916.6535</ele>
        <time>2013-08-11T08:57:21Z</time>
      </trkpt>
      <trkpt lat="45.71963" lon="6.27516">
        <ele>916.6535</ele>
        <time>2013-08-11T08:57:27Z</time>
      </trkpt>
      <trkpt lat="45.71963" lon="6.27516">
        <ele>916.6535</ele>
        <time>2013-08-11T08:57:32Z</time>
      </trkpt>
      <trkpt lat="45.71963" lon="6.27516">
        <ele>916.6535</ele>
        <time>2013-08-11T08:57:36Z</time>
      </trkpt>
      <trkpt lat="45.71963" lon="6.27516">
        <ele>916.6535</ele>
        <time>2013-08-11T08:57:41Z</time>
      </trkpt>
      <trkpt lat="45.71963" lon="6.27516">
        <ele>916.6535</ele>
        <time>2013-08-11T08:57:47Z</time>
      </trkpt>
      <trkpt lat="45.71961" lon="6.27511">
        <ele>916.6535</ele>
        <time>2013-08-11T08:57:51Z</time>
      </trkpt>
      <trkpt lat="45.71961" lon="6.27511">
        <ele>916.6535</ele>
        <time>2013-08-11T08:57:57Z</time>
      </trkpt>
      <trkpt lat="45.71961" lon="6.2751">
        <ele>916.6535</ele>
        <time>2013-08-11T08:58:01Z</time>
      </trkpt>
      <trkpt lat="45.71961" lon="6.2751">
        <ele>916.6535</ele>
        <time>2013-08-11T08:58:06Z</time>
      </trkpt>
      <trkpt lat="45.71961" lon="6.2751">
        <ele>916.6535</ele>
        <time>2013-08-11T08:58:12Z</time>
      </trkpt>
      <trkpt lat="45.71961" lon="6.2751">
        <ele>916.6535</ele>
        <time>2013-08-11T08:58:17Z</time>
      </trkpt>
      <trkpt lat="45.71961" lon="6.2751">
        <ele>916.6535</ele>
        <time>2013-08-11T08:58:21Z</time>
      </trkpt>
      <trkpt lat="45.71961" lon="6.2751">
        <ele>916.6535</ele>
        <time>2013-08-11T08:58:26Z</time>
      </trkpt>
      <trkpt lat="45.71961" lon="6.2751">
        <ele>916.6535</ele>
        <time>2013-08-11T08:58:32Z</time>
      </trkpt>
      <trkpt lat="45.71962" lon="6.27509">
        <ele>916.6535</ele>
        <time>2013-08-11T08:58:37Z</time>
      </trkpt>
      <trkpt lat="45.71961" lon="6.27507">
        <ele>920.5668</ele>
        <time>2013-08-11T08:58:41Z</time>
      </trkpt>
      <trkpt lat="45.71961" lon="6.27507">
        <ele>920.5668</ele>
        <time>2013-08-11T08:58:46Z</time>
      </trkpt>
      <trkpt lat="45.71961" lon="6.27507">
        <ele>920.5668</ele>
        <time>2013-08-11T08:58:53Z</time>
      </trkpt>
      <trkpt lat="45.71961" lon="6.27506">
        <ele>920.5668</ele>
        <time>2013-08-11T08:58:56Z</time>
      </trkpt>
      <trkpt lat="45.71961" lon="6.27505">
        <ele>920.5668</ele>
        <time>2013-08-11T08:59:01Z</time>
      </trkpt>
      <trkpt lat="45.71962" lon="6.27504">
        <ele>920.5668</ele>
        <time>2013-08-11T08:59:08Z</time>
      </trkpt>
      <trkpt lat="45.71963" lon="6.27504">
        <ele>920.5668</ele>
        <time>2013-08-11T08:59:11Z</time>
      </trkpt>
      <trkpt lat="45.71964" lon="6.27505">
        <ele>920.5668</ele>
        <time>2013-08-11T08:59:16Z</time>
      </trkpt>
      <trkpt lat="45.71967" lon="6.27507">
        <ele>920.5668</ele>
        <time>2013-08-11T08:59:24Z</time>
      </trkpt>
      <trkpt lat="45.71967" lon="6.27508">
        <ele>920.5668</ele>
        <time>2013-08-11T08:59:26Z</time>
      </trkpt>
      <trkpt lat="45.71967" lon="6.27508">
        <ele>920.5668</ele>
        <time>2013-08-11T08:59:31Z</time>
      </trkpt>
      <trkpt lat="45.71968" lon="6.27508">
        <ele>920.5668</ele>
        <time>2013-08-11T08:59:36Z</time>
      </trkpt>
      <trkpt lat="45.71968" lon="6.27508">
        <ele>920.5668</ele>
        <time>2013-08-11T08:59:43Z</time>
      </trkpt>
      <trkpt lat="45.71968" lon="6.27508">
        <ele>920.5668</ele>
        <time>2013-08-11T08:59:46Z</time>
      </trkpt>
      <trkpt lat="45.71968" lon="6.27508">
        <ele>920.5668</ele>
        <time>2013-08-11T08:59:52Z</time>
      </trkpt>
      <trkpt lat="45.71968" lon="6.27508">
        <ele>920.5668</ele>
        <time>2013-08-11T08:59:57Z</time>
      </trkpt>
      <trkpt lat="45.71968" lon="6.27508">
        <ele>920.5668</ele>
        <time>2013-08-11T09:00:02Z</time>
      </trkpt>
      <trkpt lat="45.71968" lon="6.27508">
        <ele>920.5668</ele>
        <time>2013-08-11T09:00:06Z</time>
      </trkpt>
      <trkpt lat="45.71968" lon="6.27508">
        <ele>920.5668</ele>
        <time>2013-08-11T09:00:13Z</time>
      </trkpt>
      <trkpt lat="45.71967" lon="6.27506">
        <ele>922.9857</ele>
        <time>2013-08-11T09:00:16Z</time>
      </trkpt>
      <trkpt lat="45.71967" lon="6.27506">
        <ele>922.9857</ele>
        <time>2013-08-11T09:00:21Z</time>
      </trkpt>
      <trkpt lat="45.71967" lon="6.27505">
        <ele>922.9857</ele>
        <time>2013-08-11T09:00:27Z</time>
      </trkpt>
      <trkpt lat="45.71967" lon="6.27505">
        <ele>922.9857</ele>
        <time>2013-08-11T09:00:32Z</time>
      </trkpt>
      <trkpt lat="45.71967" lon="6.27502">
        <ele>922.9857</ele>
        <time>2013-08-11T09:00:36Z</time>
      </trkpt>
      <trkpt lat="45.71968" lon="6.27501">
        <ele>922.9857</ele>
        <time>2013-08-11T09:00:41Z</time>
      </trkpt>
      <trkpt lat="45.71968" lon="6.27502">
        <ele>922.9857</ele>
        <time>2013-08-11T09:00:48Z</time>
      </trkpt>
      <trkpt lat="45.71968" lon="6.27502">
        <ele>922.9857</ele>
        <time>2013-08-11T09:00:51Z</time>
      </trkpt>
      <trkpt lat="45.71968" lon="6.27502">
        <ele>922.9857</ele>
        <time>2013-08-11T09:00:56Z</time>
      </trkpt>
      <trkpt lat="45.71968" lon="6.27502">
        <ele>922.9857</ele>
        <time>2013-08-11T09:01:01Z</time>
      </trkpt>
      <trkpt lat="45.71968" lon="6.27502">
        <ele>922.9857</ele>
        <time>2013-08-11T09:01:06Z</time>
      </trkpt>
      <trkpt lat="45.71968" lon="6.27502">
        <ele>922.9857</ele>
        <time>2013-08-11T09:01:12Z</time>
      </trkpt>
      <trkpt lat="45.71968" lon="6.27502">
        <ele>922.9857</ele>
        <time>2013-08-11T09:01:16Z</time>
      </trkpt>
      <trkpt lat="45.71968" lon="6.27502">
        <ele>922.9857</ele>
        <time>2013-08-11T09:01:21Z</time>
      </trkpt>
      <trkpt lat="45.71968" lon="6.27502">
        <ele>922.9857</ele>
        <time>2013-08-11T09:01:28Z</time>
      </trkpt>
      <trkpt lat="45.71968" lon="6.27502">
        <ele>922.9857</ele>
        <time>2013-08-11T09:01:31Z</time>
      </trkpt>
      <trkpt lat="45.71968" lon="6.27502">
        <ele>922.9857</ele>
        <time>2013-08-11T09:01:36Z</time>
      </trkpt>
      <trkpt lat="45.71968" lon="6.27502">
        <ele>922.9857</ele>
        <time>2013-08-11T09:01:43Z</time>
      </trkpt>
      <trkpt lat="45.71968" lon="6.27502">
        <ele>922.9857</ele>
        <time>2013-08-11T09:01:46Z</time>
      </trkpt>
      <trkpt lat="45.71968" lon="6.27502">
        <ele>922.9857</ele>
        <time>2013-08-11T09:01:51Z</time>
      </trkpt>
      <trkpt lat="45.71968" lon="6.27502">
        <ele>922.9857</ele>
        <time>2013-08-11T09:01:58Z</time>
      </trkpt>
      <trkpt lat="45.71968" lon="6.27502">
        <ele>922.9857</ele>
        <time>2013-08-11T09:02:01Z</time>
      </trkpt>
      <trkpt lat="45.71968" lon="6.27502">
        <ele>922.9857</ele>
        <time>2013-08-11T09:02:06Z</time>
      </trkpt>
      <trkpt lat="45.71968" lon="6.27499">
        <ele>922.9857</ele>
        <time>2013-08-11T09:02:11Z</time>
      </trkpt>
      <trkpt lat="45.71968" lon="6.27495">
        <ele>925.5137</ele>
        <time>2013-08-11T09:02:19Z</time>
      </trkpt>
      <trkpt lat="45.71968" lon="6.27494">
        <ele>925.5137</ele>
        <time>2013-08-11T09:02:21Z</time>
      </trkpt>
      <trkpt lat="45.7197" lon="6.27492">
        <ele>925.5137</ele>
        <time>2013-08-11T09:02:26Z</time>
      </trkpt>
      <trkpt lat="45.71973" lon="6.27486">
        <ele>925.5137</ele>
        <time>2013-08-11T09:02:33Z</time>
      </trkpt>
      <trkpt lat="45.71976" lon="6.27484">
        <ele>927.5413</ele>
        <time>2013-08-11T09:02:36Z</time>
      </trkpt>
      <trkpt lat="45.71977" lon="6.27482">
        <ele>927.5413</ele>
        <time>2013-08-11T09:02:41Z</time>
      </trkpt>
      <trkpt lat="45.71978" lon="6.2748">
        <ele>927.5413</ele>
        <time>2013-08-11T09:02:49Z</time>
      </trkpt>
      <trkpt lat="45.71978" lon="6.2748">
        <ele>927.5413</ele>
        <time>2013-08-11T09:02:51Z</time>
      </trkpt>
      <trkpt lat="45.71978" lon="6.27479">
        <ele>927.5413</ele>
        <time>2013-08-11T09:02:56Z</time>
      </trkpt>
      <trkpt lat="45.71978" lon="6.27478">
        <ele>927.5413</ele>
        <time>2013-08-11T09:03:02Z</time>
      </trkpt>
      <trkpt lat="45.71979" lon="6.27477">
        <ele>927.5413</ele>
        <time>2013-08-11T09:03:06Z</time>
      </trkpt>
      <trkpt lat="45.71979" lon="6.27477">
        <ele>927.5413</ele>
        <time>2013-08-11T09:03:11Z</time>
      </trkpt>
      <trkpt lat="45.71979" lon="6.27477">
        <ele>927.5413</ele>
        <time>2013-08-11T09:03:18Z</time>
      </trkpt>
      <trkpt lat="45.71982" lon="6.27476">
        <ele>930.4851</ele>
        <time>2013-08-11T09:03:21Z</time>
      </trkpt>
      <trkpt lat="45.71983" lon="6.27474">
        <ele>930.4851</ele>
        <time>2013-08-11T09:03:26Z</time>
      </trkpt>
      <trkpt lat="45.71984" lon="6.27473">
        <ele>930.4851</ele>
        <time>2013-08-11T09:03:32Z</time>
      </trkpt>
      <trkpt lat="45.71991" lon="6.2747">
        <ele>933.4629</ele>
        <time>2013-08-11T09:03:36Z</time>
      </trkpt>
      <trkpt lat="45.71993" lon="6.27467">
        <ele>933.4629</ele>
        <time>2013-08-11T09:03:41Z</time>
      </trkpt>
      <trkpt lat="45.71994" lon="6.27465">
        <ele>933.4629</ele>
        <time>2013-08-11T09:03:46Z</time>
      </trkpt>
      <trkpt lat="45.71994" lon="6.27465">
        <ele>933.4629</ele>
        <time>2013-08-11T09:03:51Z</time>
      </trkpt>
      <trkpt lat="45.71995" lon="6.27465">
        <ele>933.4629</ele>
        <time>2013-08-11T09:03:57Z</time>
      </trkpt>
      <trkpt lat="45.71998" lon="6.27464">
        <ele>933.4629</ele>
        <time>2013-08-11T09:04:01Z</time>
      </trkpt>
      <trkpt lat="45.72008" lon="6.27461">
        <ele>934.4997</ele>
        <time>2013-08-11T09:04:06Z</time>
      </trkpt>
      <trkpt lat="45.72016" lon="6.27457">
        <ele>934.4997</ele>
        <time>2013-08-11T09:04:11Z</time>
      </trkpt>
      <trkpt lat="45.72017" lon="6.27457">
        <ele>934.6561</ele>
        <time>2013-08-11T09:04:19Z</time>
      </trkpt>
      <trkpt lat="45.72017" lon="6.27457">
        <ele>934.6561</ele>
        <time>2013-08-11T09:04:21Z</time>
      </trkpt>
      <trkpt lat="45.72017" lon="6.27457">
        <ele>934.6561</ele>
        <time>2013-08-11T09:04:26Z</time>
      </trkpt>
      <trkpt lat="45.72017" lon="6.27457">
        <ele>934.6561</ele>
        <time>2013-08-11T09:04:33Z</time>
      </trkpt>
      <trkpt lat="45.72017" lon="6.27457">
        <ele>934.6561</ele>
        <time>2013-08-11T09:04:36Z</time>
      </trkpt>
      <trkpt lat="45.72017" lon="6.27457">
        <ele>934.6561</ele>
        <time>2013-08-11T09:04:41Z</time>
      </trkpt>
      <trkpt lat="45.72017" lon="6.27457">
        <ele>934.6561</ele>
        <time>2013-08-11T09:04:48Z</time>
      </trkpt>
      <trkpt lat="45.72025" lon="6.2746">
        <ele>934.6561</ele>
        <time>2013-08-11T09:04:51Z</time>
      </trkpt>
      <trkpt lat="45.72032" lon="6.2746">
        <ele>935.49194</ele>
        <time>2013-08-11T09:04:56Z</time>
      </trkpt>
      <trkpt lat="45.72041" lon="6.2746">
        <ele>935.49194</ele>
        <time>2013-08-11T09:05:04Z</time>
      </trkpt>
      <trkpt lat="45.72042" lon="6.2746">
        <ele>936.9639</ele>
        <time>2013-08-11T09:05:06Z</time>
      </trkpt>
      <trkpt lat="45.72044" lon="6.27461">
        <ele>936.9639</ele>
        <time>2013-08-11T09:05:11Z</time>
      </trkpt>
      <trkpt lat="45.72046" lon="6.27462">
        <ele>936.9639</ele>
        <time>2013-08-11T09:05:18Z</time>
      </trkpt>
      <trkpt lat="45.72052" lon="6.27469">
        <ele>939.30493</ele>
        <time>2013-08-11T09:05:21Z</time>
      </trkpt>
      <trkpt lat="45.72053" lon="6.27472">
        <ele>939.30493</ele>
        <time>2013-08-11T09:05:26Z</time>
      </trkpt>
      <trkpt lat="45.72054" lon="6.27473">
        <ele>939.30493</ele>
        <time>2013-08-11T09:05:33Z</time>
      </trkpt>
      <trkpt lat="45.72056" lon="6.2748">
        <ele>939.30493</ele>
        <time>2013-08-11T09:05:36Z</time>
      </trkpt>
      <trkpt lat="45.72056" lon="6.27479">
        <ele>942.09186</ele>
        <time>2013-08-11T09:05:41Z</time>
      </trkpt>
      <trkpt lat="45.72057" lon="6.2748">
        <ele>942.09186</ele>
        <time>2013-08-11T09:05:46Z</time>
      </trkpt>
      <trkpt lat="45.72057" lon="6.27481">
        <ele>942.09186</ele>
        <time>2013-08-11T09:05:52Z</time>
      </trkpt>
      <trkpt lat="45.72056" lon="6.27483">
        <ele>942.09186</ele>
        <time>2013-08-11T09:05:56Z</time>
      </trkpt>
      <trkpt lat="45.72054" lon="6.27485">
        <ele>942.09186</ele>
        <time>2013-08-11T09:06:01Z</time>
      </trkpt>
      <trkpt lat="45.72054" lon="6.27486">
        <ele>942.09186</ele>
        <time>2013-08-11T09:06:08Z</time>
      </trkpt>
      <trkpt lat="45.72054" lon="6.27486">
        <ele>942.09186</ele>
        <time>2013-08-11T09:06:11Z</time>
      </trkpt>
      <trkpt lat="45.72054" lon="6.27486">
        <ele>942.09186</ele>
        <time>2013-08-11T09:06:16Z</time>
      </trkpt>
      <trkpt lat="45.72054" lon="6.27486">
        <ele>942.09186</ele>
        <time>2013-08-11T09:06:23Z</time>
      </trkpt>
      <trkpt lat="45.72053" lon="6.27493">
        <ele>946.0598</ele>
        <time>2013-08-11T09:06:26Z</time>
      </trkpt>
      <trkpt lat="45.72052" lon="6.27505">
        <ele>946.0598</ele>
        <time>2013-08-11T09:06:31Z</time>
      </trkpt>
      <trkpt lat="45.72052" lon="6.27508">
        <ele>949.3611</ele>
        <time>2013-08-11T09:06:36Z</time>
      </trkpt>
      <trkpt lat="45.72052" lon="6.27508">
        <ele>949.3611</ele>
        <time>2013-08-11T09:06:44Z</time>
      </trkpt>
      <trkpt lat="45.72052" lon="6.27518">
        <ele>949.3611</ele>
        <time>2013-08-11T09:06:46Z</time>
      </trkpt>
      <trkpt lat="45.72053" lon="6.27527">
        <ele>951.7046</ele>
        <time>2013-08-11T09:06:51Z</time>
      </trkpt>
      <trkpt lat="45.72053" lon="6.27531">
        <ele>951.7046</ele>
        <time>2013-08-11T09:06:58Z</time>
      </trkpt>
      <trkpt lat="45.72055" lon="6.27541">
        <ele>953.0852</ele>
        <time>2013-08-11T09:07:01Z</time>
      </trkpt>
      <trkpt lat="45.72059" lon="6.27544">
        <ele>953.0852</ele>
        <time>2013-08-11T09:07:06Z</time>
      </trkpt>
      <trkpt lat="45.72059" lon="6.27544">
        <ele>953.0852</ele>
        <time>2013-08-11T09:07:13Z</time>
      </trkpt>
      <trkpt lat="45.72062" lon="6.27544">
        <ele>953.0852</ele>
        <time>2013-08-11T09:07:16Z</time>
      </trkpt>
      <trkpt lat="45.72064" lon="6.27544">
        <ele>954.5092</ele>
        <time>2013-08-11T09:07:21Z</time>
      </trkpt>
      <trkpt lat="45.72064" lon="6.27545">
        <ele>954.5092</ele>
        <time>2013-08-11T09:07:28Z</time>
      </trkpt>
      <trkpt lat="45.72064" lon="6.27545">
        <ele>954.5092</ele>
        <time>2013-08-11T09:07:31Z</time>
      </trkpt>
      <trkpt lat="45.72064" lon="6.27545">
        <ele>954.5092</ele>
        <time>2013-08-11T09:07:36Z</time>
      </trkpt>
      <trkpt lat="45.72064" lon="6.27545">
        <ele>954.5092</ele>
        <time>2013-08-11T09:07:44Z</time>
      </trkpt>
      <trkpt lat="45.72064" lon="6.27545">
        <ele>954.5092</ele>
        <time>2013-08-11T09:07:46Z</time>
      </trkpt>
      <trkpt lat="45.72064" lon="6.27545">
        <ele>954.5092</ele>
        <time>2013-08-11T09:07:51Z</time>
      </trkpt>
      <trkpt lat="45.72066" lon="6.27545">
        <ele>954.5092</ele>
        <time>2013-08-11T09:07:58Z</time>
      </trkpt>
      <trkpt lat="45.72078" lon="6.27543">
        <ele>956.00574</ele>
        <time>2013-08-11T09:08:01Z</time>
      </trkpt>
      <trkpt lat="45.72082" lon="6.27543">
        <ele>956.00574</ele>
        <time>2013-08-11T09:08:06Z</time>
      </trkpt>
      <trkpt lat="45.72084" lon="6.27543">
        <ele>956.00574</ele>
        <time>2013-08-11T09:08:13Z</time>
      </trkpt>
      <trkpt lat="45.7209" lon="6.27543">
        <ele>957.3479</ele>
        <time>2013-08-11T09:08:16Z</time>
      </trkpt>
      <trkpt lat="45.72093" lon="6.27543">
        <ele>957.3479</ele>
        <time>2013-08-11T09:08:21Z</time>
      </trkpt>
      <trkpt lat="45.72096" lon="6.27544">
        <ele>957.3479</ele>
        <time>2013-08-11T09:08:26Z</time>
      </trkpt>
      <trkpt lat="45.72099" lon="6.27547">
        <ele>959.9936</ele>
        <time>2013-08-11T09:08:33Z</time>
      </trkpt>
      <trkpt lat="45.721" lon="6.27546">
        <ele>959.9936</ele>
        <time>2013-08-11T09:08:36Z</time>
      </trkpt>
      <trkpt lat="45.72102" lon="6.27545">
        <ele>959.9936</ele>
        <time>2013-08-11T09:08:42Z</time>
      </trkpt>
      <trkpt lat="45.72104" lon="6.27547">
        <ele>959.9936</ele>
        <time>2013-08-11T09:08:51Z</time>
      </trkpt>
      <trkpt lat="45.72105" lon="6.27547">
        <ele>959.9936</ele>
        <time>2013-08-11T09:08:58Z</time>
      </trkpt>
      <trkpt lat="45.72105" lon="6.27547">
        <ele>959.9936</ele>
        <time>2013-08-11T09:09:02Z</time>
      </trkpt>
      <trkpt lat="45.72107" lon="6.27547">
        <ele>963.7977</ele>
        <time>2013-08-11T09:09:06Z</time>
      </trkpt>
      <trkpt lat="45.72108" lon="6.27549">
        <ele>963.7977</ele>
        <time>2013-08-11T09:09:11Z</time>
      </trkpt>
      <trkpt lat="45.72109" lon="6.2755">
        <ele>963.7977</ele>
        <time>2013-08-11T09:09:18Z</time>
      </trkpt>
      <trkpt lat="45.72109" lon="6.2755">
        <ele>963.7977</ele>
        <time>2013-08-11T09:09:21Z</time>
      </trkpt>
      <trkpt lat="45.72109" lon="6.2755">
        <ele>963.7977</ele>
        <time>2013-08-11T09:09:26Z</time>
      </trkpt>
      <trkpt lat="45.72111" lon="6.27556">
        <ele>963.7977</ele>
        <time>2013-08-11T09:09:33Z</time>
      </trkpt>
      <trkpt lat="45.72112" lon="6.27557">
        <ele>963.7977</ele>
        <time>2013-08-11T09:09:36Z</time>
      </trkpt>
      <trkpt lat="45.72113" lon="6.27558">
        <ele>967.15326</ele>
        <time>2013-08-11T09:09:41Z</time>
      </trkpt>
      <trkpt lat="45.72113" lon="6.27558">
        <ele>967.15326</ele>
        <time>2013-08-11T09:09:48Z</time>
      </trkpt>
      <trkpt lat="45.72113" lon="6.27558">
        <ele>967.15326</ele>
        <time>2013-08-11T09:09:51Z</time>
      </trkpt>
      <trkpt lat="45.72112" lon="6.27557">
        <ele>967.15326</ele>
        <time>2013-08-11T09:09:56Z</time>
      </trkpt>
      <trkpt lat="45.72122" lon="6.27565">
        <ele>969.87506</ele>
        <time>2013-08-11T09:10:03Z</time>
      </trkpt>
      <trkpt lat="45.72127" lon="6.27568">
        <ele>969.87506</ele>
        <time>2013-08-11T09:10:06Z</time>
      </trkpt>
      <trkpt lat="45.72132" lon="6.27574">
        <ele>972.46075</ele>
        <time>2013-08-11T09:10:11Z</time>
      </trkpt>
      <trkpt lat="45.72137" lon="6.2758">
        <ele>972.46075</ele>
        <time>2013-08-11T09:10:18Z</time>
      </trkpt>
      <trkpt lat="45.72139" lon="6.27583">
        <ele>974.46686</ele>
        <time>2013-08-11T09:10:21Z</time>
      </trkpt>
      <trkpt lat="45.72139" lon="6.27585">
        <ele>974.46686</ele>
        <time>2013-08-11T09:10:26Z</time>
      </trkpt>
      <trkpt lat="45.72139" lon="6.27585">
        <ele>974.46686</ele>
        <time>2013-08-11T09:10:33Z</time>
      </trkpt>
      <trkpt lat="45.72139" lon="6.27585">
        <ele>974.46686</ele>
        <time>2013-08-11T09:10:36Z</time>
      </trkpt>
      <trkpt lat="45.72139" lon="6.27585">
        <ele>974.46686</ele>
        <time>2013-08-11T09:10:41Z</time>
      </trkpt>
      <trkpt lat="45.72139" lon="6.27585">
        <ele>974.46686</ele>
        <time>2013-08-11T09:10:48Z</time>
      </trkpt>
      <trkpt lat="45.72143" lon="6.27585">
        <ele>974.46686</ele>
        <time>2013-08-11T09:10:51Z</time>
      </trkpt>
      <trkpt lat="45.72147" lon="6.27586">
        <ele>974.46686</ele>
        <time>2013-08-11T09:10:56Z</time>
      </trkpt>
      <trkpt lat="45.72147" lon="6.27587">
        <ele>976.42706</ele>
        <time>2013-08-11T09:11:03Z</time>
      </trkpt>
      <trkpt lat="45.72148" lon="6.27587">
        <ele>976.42706</ele>
        <time>2013-08-11T09:11:06Z</time>
      </trkpt>
      <trkpt lat="45.72148" lon="6.27587">
        <ele>976.42706</ele>
        <time>2013-08-11T09:11:11Z</time>
      </trkpt>
      <trkpt lat="45.72148" lon="6.27587">
        <ele>976.42706</ele>
        <time>2013-08-11T09:11:18Z</time>
      </trkpt>
      <trkpt lat="45.72152" lon="6.27587">
        <ele>976.42706</ele>
        <time>2013-08-11T09:11:21Z</time>
      </trkpt>
      <trkpt lat="45.72157" lon="6.27585">
        <ele>979.5063</ele>
        <time>2013-08-11T09:11:26Z</time>
      </trkpt>
      <trkpt lat="45.72159" lon="6.27584">
        <ele>979.5063</ele>
        <time>2013-08-11T09:11:33Z</time>
      </trkpt>
      <trkpt lat="45.72161" lon="6.27583">
        <ele>979.5063</ele>
        <time>2013-08-11T09:11:36Z</time>
      </trkpt>
      <trkpt lat="45.72161" lon="6.27582">
        <ele>979.5063</ele>
        <time>2013-08-11T09:11:41Z</time>
      </trkpt>
      <trkpt lat="45.72161" lon="6.27582">
        <ele>979.5063</ele>
        <time>2013-08-11T09:11:48Z</time>
      </trkpt>
      <trkpt lat="45.72169" lon="6.27579">
        <ele>983.0467</ele>
        <time>2013-08-11T09:11:51Z</time>
      </trkpt>
      <trkpt lat="45.72177" lon="6.27578">
        <ele>983.0467</ele>
        <time>2013-08-11T09:11:56Z</time>
      </trkpt>
      <trkpt lat="45.72179" lon="6.27581">
        <ele>986.75757</ele>
        <time>2013-08-11T09:12:03Z</time>
      </trkpt>
      <trkpt lat="45.72177" lon="6.27584">
        <ele>986.75757</ele>
        <time>2013-08-11T09:12:06Z</time>
      </trkpt>
      <trkpt lat="45.72178" lon="6.27583">
        <ele>986.75757</ele>
        <time>2013-08-11T09:12:11Z</time>
      </trkpt>
      <trkpt lat="45.72179" lon="6.27583">
        <ele>986.75757</ele>
        <time>2013-08-11T09:12:19Z</time>
      </trkpt>
      <trkpt lat="45.72185" lon="6.27582">
        <ele>991.0948</ele>
        <time>2013-08-11T09:12:21Z</time>
      </trkpt>
      <trkpt lat="45.72188" lon="6.27581">
        <ele>991.0948</ele>
        <time>2013-08-11T09:12:26Z</time>
      </trkpt>
      <trkpt lat="45.72189" lon="6.27582">
        <ele>991.0948</ele>
        <time>2013-08-11T09:12:33Z</time>
      </trkpt>
      <trkpt lat="45.7219" lon="6.2759">
        <ele>995.2742</ele>
        <time>2013-08-11T09:12:36Z</time>
      </trkpt>
      <trkpt lat="45.72189" lon="6.2759">
        <ele>995.2742</ele>
        <time>2013-08-11T09:12:41Z</time>
      </trkpt>
      <trkpt lat="45.72189" lon="6.27589">
        <ele>995.2742</ele>
        <time>2013-08-11T09:12:48Z</time>
      </trkpt>
      <trkpt lat="45.7219" lon="6.27589">
        <ele>995.2742</ele>
        <time>2013-08-11T09:12:51Z</time>
      </trkpt>
      <trkpt lat="45.7219" lon="6.27589">
        <ele>995.2742</ele>
        <time>2013-08-11T09:12:56Z</time>
      </trkpt>
      <trkpt lat="45.72189" lon="6.27589">
        <ele>995.2742</ele>
        <time>2013-08-11T09:13:03Z</time>
      </trkpt>
      <trkpt lat="45.7219" lon="6.27589">
        <ele>995.2742</ele>
        <time>2013-08-11T09:13:06Z</time>
      </trkpt>
      <trkpt lat="45.72189" lon="6.27589">
        <ele>995.2742</ele>
        <time>2013-08-11T09:13:11Z</time>
      </trkpt>
      <trkpt lat="45.72189" lon="6.27589">
        <ele>995.2742</ele>
        <time>2013-08-11T09:13:16Z</time>
      </trkpt>
      <trkpt lat="45.72189" lon="6.27589">
        <ele>995.2742</ele>
        <time>2013-08-11T09:13:21Z</time>
      </trkpt>
      <trkpt lat="45.7219" lon="6.27589">
        <ele>995.2742</ele>
        <time>2013-08-11T09:13:27Z</time>
      </trkpt>
      <trkpt lat="45.7219" lon="6.27589">
        <ele>995.2742</ele>
        <time>2013-08-11T09:13:33Z</time>
      </trkpt>
      <trkpt lat="45.7219" lon="6.27589">
        <ele>995.2742</ele>
        <time>2013-08-11T09:13:36Z</time>
      </trkpt>
      <trkpt lat="45.7219" lon="6.27589">
        <ele>995.2742</ele>
        <time>2013-08-11T09:13:43Z</time>
      </trkpt>
      <trkpt lat="45.7219" lon="6.27589">
        <ele>995.2742</ele>
        <time>2013-08-11T09:13:46Z</time>
      </trkpt>
      <trkpt lat="45.72197" lon="6.27594">
        <ele>999.4288</ele>
        <time>2013-08-11T09:13:51Z</time>
      </trkpt>
      <trkpt lat="45.72204" lon="6.27598">
        <ele>999.4288</ele>
        <time>2013-08-11T09:13:58Z</time>
      </trkpt>
      <trkpt lat="45.72211" lon="6.27601">
        <ele>1002.88715</ele>
        <time>2013-08-11T09:14:01Z</time>
      </trkpt>
      <trkpt lat="45.72212" lon="6.27601">
        <ele>1002.88715</ele>
        <time>2013-08-11T09:14:06Z</time>
      </trkpt>
      <trkpt lat="45.72213" lon="6.27601">
        <ele>1002.88715</ele>
        <time>2013-08-11T09:14:12Z</time>
      </trkpt>
      <trkpt lat="45.72216" lon="6.27599">
        <ele>1002.88715</ele>
        <time>2013-08-11T09:14:21Z</time>
      </trkpt>
      <trkpt lat="45.72218" lon="6.27601">
        <ele>1002.88715</ele>
        <time>2013-08-11T09:14:27Z</time>
      </trkpt>
      <trkpt lat="45.72219" lon="6.27601">
        <ele>1002.88715</ele>
        <time>2013-08-11T09:14:31Z</time>
      </trkpt>
      <trkpt lat="45.7222" lon="6.27601">
        <ele>1007.17584</ele>
        <time>2013-08-11T09:14:36Z</time>
      </trkpt>
      <trkpt lat="45.72221" lon="6.27602">
        <ele>1007.17584</ele>
        <time>2013-08-11T09:14:42Z</time>
      </trkpt>
      <trkpt lat="45.72222" lon="6.27598">
        <ele>1007.17584</ele>
        <time>2013-08-11T09:14:46Z</time>
      </trkpt>
      <trkpt lat="45.72224" lon="6.27594">
        <ele>1007.17584</ele>
        <time>2013-08-11T09:14:51Z</time>
      </trkpt>
      <trkpt lat="45.72225" lon="6.27594">
        <ele>1007.17584</ele>
        <time>2013-08-11T09:14:57Z</time>
      </trkpt>
      <trkpt lat="45.72224" lon="6.27594">
        <ele>1007.17584</ele>
        <time>2013-08-11T09:15:02Z</time>
      </trkpt>
      <trkpt lat="45.72222" lon="6.27593">
        <ele>1012.5942</ele>
        <time>2013-08-11T09:15:06Z</time>
      </trkpt>
      <trkpt lat="45.72225" lon="6.2759">
        <ele>1012.5942</ele>
        <time>2013-08-11T09:15:11Z</time>
      </trkpt>
      <trkpt lat="45.72226" lon="6.27592">
        <ele>1012.5942</ele>
        <time>2013-08-11T09:15:17Z</time>
      </trkpt>
      <trkpt lat="45.72227" lon="6.27596">
        <ele>1012.5942</ele>
        <time>2013-08-11T09:15:21Z</time>
      </trkpt>
      <trkpt lat="45.72228" lon="6.27596">
        <ele>1018.1346</ele>
        <time>2013-08-11T09:15:27Z</time>
      </trkpt>
      <trkpt lat="45.72228" lon="6.27597">
        <ele>1018.1346</ele>
        <time>2013-08-11T09:15:36Z</time>
      </trkpt>
      <trkpt lat="45.72228" lon="6.27597">
        <ele>1018.1346</ele>
        <time>2013-08-11T09:15:41Z</time>
      </trkpt>
      <trkpt lat="45.72228" lon="6.27597">
        <ele>1018.1346</ele>
        <time>2013-08-11T09:15:46Z</time>
      </trkpt>
      <trkpt lat="45.72231" lon="6.27601">
        <ele>1018.1346</ele>
        <time>2013-08-11T09:15:52Z</time>
      </trkpt>
      <trkpt lat="45.72234" lon="6.27607">
        <ele>1023.5118</ele>
        <time>2013-08-11T09:15:56Z</time>
      </trkpt>
      <trkpt lat="45.72236" lon="6.27609">
        <ele>1023.5118</ele>
        <time>2013-08-11T09:16:01Z</time>
      </trkpt>
      <trkpt lat="45.72236" lon="6.2761">
        <ele>1023.5118</ele>
        <time>2013-08-11T09:16:06Z</time>
      </trkpt>
      <trkpt lat="45.72236" lon="6.2761">
        <ele>1023.5118</ele>
        <time>2013-08-11T09:16:11Z</time>
      </trkpt>
      <trkpt lat="45.72236" lon="6.2761">
        <ele>1023.5118</ele>
        <time>2013-08-11T09:16:16Z</time>
      </trkpt>
      <trkpt lat="45.72236" lon="6.2761">
        <ele>1023.5118</ele>
        <time>2013-08-11T09:16:23Z</time>
      </trkpt>
      <trkpt lat="45.72236" lon="6.27611">
        <ele>1023.5118</ele>
        <time>2013-08-11T09:16:26Z</time>
      </trkpt>
      <trkpt lat="45.72235" lon="6.27619">
        <ele>1029.9064</ele>
        <time>2013-08-11T09:16:31Z</time>
      </trkpt>
      <trkpt lat="45.72236" lon="6.27624">
        <ele>1029.9064</ele>
        <time>2013-08-11T09:16:36Z</time>
      </trkpt>
      <trkpt lat="45.72238" lon="6.27638">
        <ele>1036.3961</ele>
        <time>2013-08-11T09:16:43Z</time>
      </trkpt>
      <trkpt lat="45.7224" lon="6.27642">
        <ele>1036.3961</ele>
        <time>2013-08-11T09:16:46Z</time>
      </trkpt>
      <trkpt lat="45.7224" lon="6.2765">
        <ele>1042.585</ele>
        <time>2013-08-11T09:16:51Z</time>
      </trkpt>
      <trkpt lat="45.72241" lon="6.27651">
        <ele>1042.585</ele>
        <time>2013-08-11T09:16:58Z</time>
      </trkpt>
      <trkpt lat="45.72241" lon="6.27652">
        <ele>1042.585</ele>
        <time>2013-08-11T09:17:01Z</time>
      </trkpt>
      <trkpt lat="45.72241" lon="6.27655">
        <ele>1042.585</ele>
        <time>2013-08-11T09:17:06Z</time>
      </trkpt>
      <trkpt lat="45.72243" lon="6.2766">
        <ele>1042.585</ele>
        <time>2013-08-11T09:17:13Z</time>
      </trkpt>
      <trkpt lat="45.72243" lon="6.2766">
        <ele>1042.585</ele>
        <time>2013-08-11T09:17:16Z</time>
      </trkpt>
      <trkpt lat="45.72243" lon="6.2766">
        <ele>1042.585</ele>
        <time>2013-08-11T09:17:21Z</time>
      </trkpt>
      <trkpt lat="45.72243" lon="6.2766">
        <ele>1042.585</ele>
        <time>2013-08-11T09:17:28Z</time>
      </trkpt>
      <trkpt lat="45.72243" lon="6.2766">
        <ele>1042.585</ele>
        <time>2013-08-11T09:17:31Z</time>
      </trkpt>
      <trkpt lat="45.72243" lon="6.2766">
        <ele>1042.585</ele>
        <time>2013-08-11T09:17:36Z</time>
      </trkpt>
      <trkpt lat="45.72243" lon="6.2766">
        <ele>1042.585</ele>
        <time>2013-08-11T09:17:42Z</time>
      </trkpt>
      <trkpt lat="45.72243" lon="6.2766">
        <ele>1042.585</ele>
        <time>2013-08-11T09:17:46Z</time>
      </trkpt>
      <trkpt lat="45.72243" lon="6.2766">
        <ele>1042.585</ele>
        <time>2013-08-11T09:17:51Z</time>
      </trkpt>
      <trkpt lat="45.72245" lon="6.27662">
        <ele>1047.9374</ele>
        <time>2013-08-11T09:17:58Z</time>
      </trkpt>
      <trkpt lat="45.72247" lon="6.27664">
        <ele>1047.9374</ele>
        <time>2013-08-11T09:18:01Z</time>
      </trkpt>
      <trkpt lat="45.7225" lon="6.27666">
        <ele>1047.9374</ele>
        <time>2013-08-11T09:18:06Z</time>
      </trkpt>
      <trkpt lat="45.72251" lon="6.27667">
        <ele>1047.9374</ele>
        <time>2013-08-11T09:18:13Z</time>
      </trkpt>
      <trkpt lat="45.72252" lon="6.27668">
        <ele>1047.9374</ele>
        <time>2013-08-11T09:18:16Z</time>
      </trkpt>
      <trkpt lat="45.72253" lon="6.27669">
        <ele>1052.7174</ele>
        <time>2013-08-11T09:18:21Z</time>
      </trkpt>
      <trkpt lat="45.72256" lon="6.27671">
        <ele>1052.7174</ele>
        <time>2013-08-11T09:18:28Z</time>
      </trkpt>
      <trkpt lat="45.72268" lon="6.27679">
        <ele>1057.2975</ele>
        <time>2013-08-11T09:18:31Z</time>
      </trkpt>
      <trkpt lat="45.72269" lon="6.27686">
        <ele>1057.2975</ele>
        <time>2013-08-11T09:18:36Z</time>
      </trkpt>
      <trkpt lat="45.7227" lon="6.27689">
        <ele>1057.2975</ele>
        <time>2013-08-11T09:18:42Z</time>
      </trkpt>
      <trkpt lat="45.72271" lon="6.27691">
        <ele>1057.2975</ele>
        <time>2013-08-11T09:18:46Z</time>
      </trkpt>
      <trkpt lat="45.72272" lon="6.2769">
        <ele>1061.6732</ele>
        <time>2013-08-11T09:18:51Z</time>
      </trkpt>
      <trkpt lat="45.72272" lon="6.2769">
        <ele>1061.6732</ele>
        <time>2013-08-11T09:18:56Z</time>
      </trkpt>
      <trkpt lat="45.72272" lon="6.2769">
        <ele>1061.6732</ele>
        <time>2013-08-11T09:19:02Z</time>
      </trkpt>
      <trkpt lat="45.72272" lon="6.2769">
        <ele>1061.6732</ele>
        <time>2013-08-11T09:19:06Z</time>
      </trkpt>
      <trkpt lat="45.72274" lon="6.27691">
        <ele>1061.6732</ele>
        <time>2013-08-11T09:19:11Z</time>
      </trkpt>
      <trkpt lat="45.72276" lon="6.27694">
        <ele>1061.6732</ele>
        <time>2013-08-11T09:19:18Z</time>
      </trkpt>
      <trkpt lat="45.72281" lon="6.27696">
        <ele>1065.9463</ele>
        <time>2013-08-11T09:19:21Z</time>
      </trkpt>
      <trkpt lat="45.72282" lon="6.27696">
        <ele>1065.9463</ele>
        <time>2013-08-11T09:19:26Z</time>
      </trkpt>
      <trkpt lat="45.72282" lon="6.27696">
        <ele>1065.9463</ele>
        <time>2013-08-11T09:19:33Z</time>
      </trkpt>
      <trkpt lat="45.72282" lon="6.27696">
        <ele>1065.9463</ele>
        <time>2013-08-11T09:19:36Z</time>
      </trkpt>
      <trkpt lat="45.72282" lon="6.27695">
        <ele>1065.9463</ele>
        <time>2013-08-11T09:19:41Z</time>
      </trkpt>
      <trkpt lat="45.72282" lon="6.27695">
        <ele>1065.9463</ele>
        <time>2013-08-11T09:19:47Z</time>
      </trkpt>
      <trkpt lat="45.72285" lon="6.27697">
        <ele>1065.9463</ele>
        <time>2013-08-11T09:19:51Z</time>
      </trkpt>
      <trkpt lat="45.72292" lon="6.27703">
        <ele>1070.2288</ele>
        <time>2013-08-11T09:19:56Z</time>
      </trkpt>
      <trkpt lat="45.72296" lon="6.27704">
        <ele>1070.2288</ele>
        <time>2013-08-11T09:20:02Z</time>
      </trkpt>
      <trkpt lat="45.72302" lon="6.27705">
        <ele>1072.8948</ele>
        <time>2013-08-11T09:20:06Z</time>
      </trkpt>
      <trkpt lat="45.72302" lon="6.27706">
        <ele>1072.8948</ele>
        <time>2013-08-11T09:20:11Z</time>
      </trkpt>
      <trkpt lat="45.72302" lon="6.27706">
        <ele>1072.8948</ele>
        <time>2013-08-11T09:20:17Z</time>
      </trkpt>
      <trkpt lat="45.72305" lon="6.27708">
        <ele>1072.8948</ele>
        <time>2013-08-11T09:20:21Z</time>
      </trkpt>
      <trkpt lat="45.72309" lon="6.27712">
        <ele>1076.282</ele>
        <time>2013-08-11T09:20:26Z</time>
      </trkpt>
      <trkpt lat="45.7231" lon="6.27713">
        <ele>1076.282</ele>
        <time>2013-08-11T09:20:32Z</time>
      </trkpt>
      <trkpt lat="45.7231" lon="6.27715">
        <ele>1076.282</ele>
        <time>2013-08-11T09:20:36Z</time>
      </trkpt>
      <trkpt lat="45.7231" lon="6.27715">
        <ele>1076.282</ele>
        <time>2013-08-11T09:20:41Z</time>
      </trkpt>
      <trkpt lat="45.72314" lon="6.27717">
        <ele>1076.282</ele>
        <time>2013-08-11T09:20:46Z</time>
      </trkpt>
      <trkpt lat="45.72315" lon="6.27718">
        <ele>1076.282</ele>
        <time>2013-08-11T09:20:53Z</time>
      </trkpt>
      <trkpt lat="45.72317" lon="6.27721">
        <ele>1080.6587</ele>
        <time>2013-08-11T09:20:56Z</time>
      </trkpt>
      <trkpt lat="45.72318" lon="6.27722">
        <ele>1080.6587</ele>
        <time>2013-08-11T09:21:01Z</time>
      </trkpt>
      <trkpt lat="45.72318" lon="6.27724">
        <ele>1080.6587</ele>
        <time>2013-08-11T09:21:07Z</time>
      </trkpt>
      <trkpt lat="45.7232" lon="6.27724">
        <ele>1080.6587</ele>
        <time>2013-08-11T09:21:11Z</time>
      </trkpt>
      <trkpt lat="45.72321" lon="6.27724">
        <ele>1080.6587</ele>
        <time>2013-08-11T09:21:16Z</time>
      </trkpt>
      <trkpt lat="45.72322" lon="6.27723">
        <ele>1080.6587</ele>
        <time>2013-08-11T09:21:23Z</time>
      </trkpt>
      <trkpt lat="45.72326" lon="6.27721">
        <ele>1084.3654</ele>
        <time>2013-08-11T09:21:26Z</time>
      </trkpt>
      <trkpt lat="45.72329" lon="6.2772">
        <ele>1084.3654</ele>
        <time>2013-08-11T09:21:31Z</time>
      </trkpt>
      <trkpt lat="45.7233" lon="6.27718">
        <ele>1084.3654</ele>
        <time>2013-08-11T09:21:36Z</time>
      </trkpt>
      <trkpt lat="45.72331" lon="6.27714">
        <ele>1084.3654</ele>
        <time>2013-08-11T09:21:42Z</time>
      </trkpt>
      <trkpt lat="45.72333" lon="6.27712">
        <ele>1087.9836</ele>
        <time>2013-08-11T09:21:46Z</time>
      </trkpt>
      <trkpt lat="45.72334" lon="6.27708">
        <ele>1087.9836</ele>
        <time>2013-08-11T09:21:51Z</time>
      </trkpt>
      <trkpt lat="45.72334" lon="6.27707">
        <ele>1087.9836</ele>
        <time>2013-08-11T09:21:56Z</time>
      </trkpt>
      <trkpt lat="45.72334" lon="6.27705">
        <ele>1087.9836</ele>
        <time>2013-08-11T09:22:01Z</time>
      </trkpt>
      <trkpt lat="45.72333" lon="6.27703">
        <ele>1087.9836</ele>
        <time>2013-08-11T09:22:06Z</time>
      </trkpt>
      <trkpt lat="45.72334" lon="6.27695">
        <ele>1091.1006</ele>
        <time>2013-08-11T09:22:12Z</time>
      </trkpt>
      <trkpt lat="45.72334" lon="6.27694">
        <ele>1091.1006</ele>
        <time>2013-08-11T09:22:16Z</time>
      </trkpt>
      <trkpt lat="45.72333" lon="6.27693">
        <ele>1091.1006</ele>
        <time>2013-08-11T09:22:21Z</time>
      </trkpt>
      <trkpt lat="45.72333" lon="6.27693">
        <ele>1091.1006</ele>
        <time>2013-08-11T09:22:27Z</time>
      </trkpt>
      <trkpt lat="45.72333" lon="6.27693">
        <ele>1091.1006</ele>
        <time>2013-08-11T09:22:31Z</time>
      </trkpt>
      <trkpt lat="45.72333" lon="6.27693">
        <ele>1091.1006</ele>
        <time>2013-08-11T09:22:36Z</time>
      </trkpt>
      <trkpt lat="45.72333" lon="6.27693">
        <ele>1091.1006</ele>
        <time>2013-08-11T09:22:42Z</time>
      </trkpt>
      <trkpt lat="45.72335" lon="6.27687">
        <ele>1091.1006</ele>
        <time>2013-08-11T09:22:46Z</time>
      </trkpt>
      <trkpt lat="45.72334" lon="6.27683">
        <ele>1094.3627</ele>
        <time>2013-08-11T09:22:51Z</time>
      </trkpt>
      <trkpt lat="45.72334" lon="6.27679">
        <ele>1094.3627</ele>
        <time>2013-08-11T09:22:56Z</time>
      </trkpt>
      <trkpt lat="45.72334" lon="6.27677">
        <ele>1094.3627</ele>
        <time>2013-08-11T09:23:02Z</time>
      </trkpt>
      <trkpt lat="45.72335" lon="6.27674">
        <ele>1094.3627</ele>
        <time>2013-08-11T09:23:06Z</time>
      </trkpt>
      <trkpt lat="45.72335" lon="6.27671">
        <ele>1094.3627</ele>
        <time>2013-08-11T09:23:12Z</time>
      </trkpt>
      <trkpt lat="45.72335" lon="6.27665">
        <ele>1097.3556</ele>
        <time>2013-08-11T09:23:16Z</time>
      </trkpt>
      <trkpt lat="45.72337" lon="6.27663">
        <ele>1097.3556</ele>
        <time>2013-08-11T09:23:21Z</time>
      </trkpt>
      <trkpt lat="45.72337" lon="6.27662">
        <ele>1097.3556</ele>
        <time>2013-08-11T09:23:27Z</time>
      </trkpt>
      <trkpt lat="45.72339" lon="6.27657">
        <ele>1097.3556</ele>
        <time>2013-08-11T09:23:31Z</time>
      </trkpt>
      <trkpt lat="45.7234" lon="6.27653">
        <ele>1099.8197</ele>
        <time>2013-08-11T09:23:36Z</time>
      </trkpt>
      <trkpt lat="45.72342" lon="6.2765">
        <ele>1099.8197</ele>
        <time>2013-08-11T09:23:41Z</time>
      </trkpt>
      <trkpt lat="45.72341" lon="6.27647">
        <ele>1099.8197</ele>
        <time>2013-08-11T09:23:46Z</time>
      </trkpt>
      <trkpt lat="45.72341" lon="6.27647">
        <ele>1099.8197</ele>
        <time>2013-08-11T09:23:51Z</time>
      </trkpt>
      <trkpt lat="45.72341" lon="6.27646">
        <ele>1099.8197</ele>
        <time>2013-08-11T09:23:57Z</time>
      </trkpt>
      <trkpt lat="45.72341" lon="6.27644">
        <ele>1099.8197</ele>
        <time>2013-08-11T09:24:01Z</time>
      </trkpt>
      <trkpt lat="45.72337" lon="6.2764">
        <ele>1102.7784</ele>
        <time>2013-08-11T09:24:06Z</time>
      </trkpt>
      <trkpt lat="45.72337" lon="6.2764">
        <ele>1102.7784</ele>
        <time>2013-08-11T09:24:12Z</time>
      </trkpt>
      <trkpt lat="45.72341" lon="6.27637">
        <ele>1102.7784</ele>
        <time>2013-08-11T09:24:16Z</time>
      </trkpt>
      <trkpt lat="45.7234" lon="6.27635">
        <ele>1102.7784</ele>
        <time>2013-08-11T09:24:21Z</time>
      </trkpt>
      <trkpt lat="45.72341" lon="6.27635">
        <ele>1102.7784</ele>
        <time>2013-08-11T09:24:28Z</time>
      </trkpt>
      <trkpt lat="45.72343" lon="6.27624">
        <ele>1106.3</ele>
        <time>2013-08-11T09:24:31Z</time>
      </trkpt>
      <trkpt lat="45.72344" lon="6.27611">
        <ele>1106.3</ele>
        <time>2013-08-11T09:24:36Z</time>
      </trkpt>
      <trkpt lat="45.72344" lon="6.27602">
        <ele>1109.654</ele>
        <time>2013-08-11T09:24:41Z</time>
      </trkpt>
      <trkpt lat="45.72342" lon="6.27598">
        <ele>1109.654</ele>
        <time>2013-08-11T09:24:46Z</time>
      </trkpt>
      <trkpt lat="45.72342" lon="6.27596">
        <ele>1109.654</ele>
        <time>2013-08-11T09:24:52Z</time>
      </trkpt>
      <trkpt lat="45.72342" lon="6.27595">
        <ele>1109.654</ele>
        <time>2013-08-11T09:24:56Z</time>
      </trkpt>
      <trkpt lat="45.72342" lon="6.27594">
        <ele>1109.654</ele>
        <time>2013-08-11T09:25:01Z</time>
      </trkpt>
      <trkpt lat="45.72342" lon="6.27594">
        <ele>1109.654</ele>
        <time>2013-08-11T09:25:06Z</time>
      </trkpt>
      <trkpt lat="45.72342" lon="6.27589">
        <ele>1113.3776</ele>
        <time>2013-08-11T09:25:11Z</time>
      </trkpt>
      <trkpt lat="45.72341" lon="6.27583">
        <ele>1113.3776</ele>
        <time>2013-08-11T09:25:16Z</time>
      </trkpt>
      <trkpt lat="45.72344" lon="6.27574">
        <ele>1117.2931</ele>
        <time>2013-08-11T09:25:21Z</time>
      </trkpt>
      <trkpt lat="45.72344" lon="6.27573">
        <ele>1117.2931</ele>
        <time>2013-08-11T09:25:27Z</time>
      </trkpt>
      <trkpt lat="45.72345" lon="6.27572">
        <ele>1117.2931</ele>
        <time>2013-08-11T09:25:31Z</time>
      </trkpt>
      <trkpt lat="45.72345" lon="6.27572">
        <ele>1117.2931</ele>
        <time>2013-08-11T09:25:36Z</time>
      </trkpt>
      <trkpt lat="45.72346" lon="6.2757">
        <ele>1117.2931</ele>
        <time>2013-08-11T09:25:42Z</time>
      </trkpt>
      <trkpt lat="45.72352" lon="6.2756">
        <ele>1121.1486</ele>
        <time>2013-08-11T09:25:46Z</time>
      </trkpt>
      <trkpt lat="45.72356" lon="6.2755">
        <ele>1121.1486</ele>
        <time>2013-08-11T09:25:51Z</time>
      </trkpt>
      <trkpt lat="45.72354" lon="6.27544">
        <ele>1124.3877</ele>
        <time>2013-08-11T09:25:57Z</time>
      </trkpt>
      <trkpt lat="45.7235" lon="6.27543">
        <ele>1124.3877</ele>
        <time>2013-08-11T09:26:01Z</time>
      </trkpt>
      <trkpt lat="45.72351" lon="6.27539">
        <ele>1124.3877</ele>
        <time>2013-08-11T09:26:06Z</time>
      </trkpt>
      <trkpt lat="45.72351" lon="6.27536">
        <ele>1124.3877</ele>
        <time>2013-08-11T09:26:12Z</time>
      </trkpt>
      <trkpt lat="45.72349" lon="6.27536">
        <ele>1128.0659</ele>
        <time>2013-08-11T09:26:16Z</time>
      </trkpt>
      <trkpt lat="45.72349" lon="6.27536">
        <ele>1128.0659</ele>
        <time>2013-08-11T09:26:21Z</time>
      </trkpt>
      <trkpt lat="45.72349" lon="6.27536">
        <ele>1128.0659</ele>
        <time>2013-08-11T09:26:27Z</time>
      </trkpt>
      <trkpt lat="45.72349" lon="6.27535">
        <ele>1128.0659</ele>
        <time>2013-08-11T09:26:31Z</time>
      </trkpt>
      <trkpt lat="45.72349" lon="6.27535">
        <ele>1128.0659</ele>
        <time>2013-08-11T09:26:36Z</time>
      </trkpt>
      <trkpt lat="45.72349" lon="6.27535">
        <ele>1128.0659</ele>
        <time>2013-08-11T09:26:42Z</time>
      </trkpt>
      <trkpt lat="45.72346" lon="6.27523">
        <ele>1131.4132</ele>
        <time>2013-08-11T09:26:46Z</time>
      </trkpt>
      <trkpt lat="45.72347" lon="6.27514">
        <ele>1131.4132</ele>
        <time>2013-08-11T09:26:51Z</time>
      </trkpt>
      <trkpt lat="45.72348" lon="6.27508">
        <ele>1134.6051</ele>
        <time>2013-08-11T09:26:57Z</time>
      </trkpt>
      <trkpt lat="45.72345" lon="6.27503">
        <ele>1134.6051</ele>
        <time>2013-08-11T09:27:01Z</time>
      </trkpt>
      <trkpt lat="45.72344" lon="6.27502">
        <ele>1134.6051</ele>
        <time>2013-08-11T09:27:06Z</time>
      </trkpt>
      <trkpt lat="45.72344" lon="6.27502">
        <ele>1134.6051</ele>
        <time>2013-08-11T09:27:14Z</time>
      </trkpt>
      <trkpt lat="45.72344" lon="6.27502">
        <ele>1134.6051</ele>
        <time>2013-08-11T09:27:16Z</time>
      </trkpt>
      <trkpt lat="45.72344" lon="6.27498">
        <ele>1134.6051</ele>
        <time>2013-08-11T09:27:21Z</time>
      </trkpt>
      <trkpt lat="45.72344" lon="6.27496">
        <ele>1138.7549</ele>
        <time>2013-08-11T09:27:27Z</time>
      </trkpt>
      <trkpt lat="45.72345" lon="6.2749">
        <ele>1138.7549</ele>
        <time>2013-08-11T09:27:31Z</time>
      </trkpt>
      <trkpt lat="45.72348" lon="6.2748">
        <ele>1142.4558</ele>
        <time>2013-08-11T09:27:36Z</time>
      </trkpt>
      <trkpt lat="45.72348" lon="6.27477">
        <ele>1142.4558</ele>
        <time>2013-08-11T09:27:42Z</time>
      </trkpt>
      <trkpt lat="45.72348" lon="6.27476">
        <ele>1142.4558</ele>
        <time>2013-08-11T09:27:46Z</time>
      </trkpt>
      <trkpt lat="45.72348" lon="6.27475">
        <ele>1142.4558</ele>
        <time>2013-08-11T09:27:51Z</time>
      </trkpt>
      <trkpt lat="45.72349" lon="6.27472">
        <ele>1142.4558</ele>
        <time>2013-08-11T09:27:56Z</time>
      </trkpt>
      <trkpt lat="45.72347" lon="6.27471">
        <ele>1142.4558</ele>
        <time>2013-08-11T09:28:03Z</time>
      </trkpt>
      <trkpt lat="45.72346" lon="6.27472">
        <ele>1142.4558</ele>
        <time>2013-08-11T09:28:06Z</time>
      </trkpt>
      <trkpt lat="45.72346" lon="6.27472">
        <ele>1142.4558</ele>
        <time>2013-08-11T09:28:11Z</time>
      </trkpt>
      <trkpt lat="45.72346" lon="6.27472">
        <ele>1146.6931</ele>
        <time>2013-08-11T09:28:16Z</time>
      </trkpt>
      <trkpt lat="45.72345" lon="6.27471">
        <ele>1146.6931</ele>
        <time>2013-08-11T09:28:21Z</time>
      </trkpt>
      <trkpt lat="45.72346" lon="6.2747">
        <ele>1146.6931</ele>
        <time>2013-08-11T09:28:27Z</time>
      </trkpt>
      <trkpt lat="45.72346" lon="6.2747">
        <ele>1146.6931</ele>
        <time>2013-08-11T09:28:31Z</time>
      </trkpt>
      <trkpt lat="45.72346" lon="6.2747">
        <ele>1146.6931</ele>
        <time>2013-08-11T09:28:36Z</time>
      </trkpt>
      <trkpt lat="45.72346" lon="6.2747">
        <ele>1146.6931</ele>
        <time>2013-08-11T09:28:42Z</time>
      </trkpt>
      <trkpt lat="45.72346" lon="6.2747">
        <ele>1146.6931</ele>
        <time>2013-08-11T09:28:46Z</time>
      </trkpt>
      <trkpt lat="45.7235" lon="6.27468">
        <ele>1146.6931</ele>
        <time>2013-08-11T09:28:51Z</time>
      </trkpt>
      <trkpt lat="45.72353" lon="6.27469">
        <ele>1150.885</ele>
        <time>2013-08-11T09:29:01Z</time>
      </trkpt>
      <trkpt lat="45.72354" lon="6.27469">
        <ele>1150.885</ele>
        <time>2013-08-11T09:29:06Z</time>
      </trkpt>
      <trkpt lat="45.72354" lon="6.27469">
        <ele>1150.885</ele>
        <time>2013-08-11T09:29:16Z</time>
      </trkpt>
      <trkpt lat="45.72354" lon="6.27469">
        <ele>1150.885</ele>
        <time>2013-08-11T09:29:21Z</time>
      </trkpt>
      <trkpt lat="45.72354" lon="6.27469">
        <ele>1150.885</ele>
        <time>2013-08-11T09:29:31Z</time>
      </trkpt>
      <trkpt lat="45.72354" lon="6.27469">
        <ele>1150.885</ele>
        <time>2013-08-11T09:29:36Z</time>
      </trkpt>
      <trkpt lat="45.72354" lon="6.27469">
        <ele>1150.885</ele>
        <time>2013-08-11T09:29:42Z</time>
      </trkpt>
      <trkpt lat="45.72354" lon="6.27469">
        <ele>1150.885</ele>
        <time>2013-08-11T09:29:46Z</time>
      </trkpt>
      <trkpt lat="45.72354" lon="6.27469">
        <ele>1150.885</ele>
        <time>2013-08-11T09:29:51Z</time>
      </trkpt>
      <trkpt lat="45.72354" lon="6.27469">
        <ele>1150.885</ele>
        <time>2013-08-11T09:30:01Z</time>
      </trkpt>
      <trkpt lat="45.72354" lon="6.27469">
        <ele>1150.885</ele>
        <time>2013-08-11T09:30:06Z</time>
      </trkpt>
      <trkpt lat="45.72354" lon="6.27469">
        <ele>1150.885</ele>
        <time>2013-08-11T09:30:16Z</time>
      </trkpt>
      <trkpt lat="45.72354" lon="6.27469">
        <ele>1150.885</ele>
        <time>2013-08-11T09:30:21Z</time>
      </trkpt>
      <trkpt lat="45.72354" lon="6.27469">
        <ele>1150.885</ele>
        <time>2013-08-11T09:30:31Z</time>
      </trkpt>
      <trkpt lat="45.72353" lon="6.27468">
        <ele>1150.885</ele>
        <time>2013-08-11T09:30:36Z</time>
      </trkpt>
      <trkpt lat="45.72355" lon="6.27467">
        <ele>1150.885</ele>
        <time>2013-08-11T09:30:42Z</time>
      </trkpt>
      <trkpt lat="45.72357" lon="6.27466">
        <ele>1150.885</ele>
        <time>2013-08-11T09:30:46Z</time>
      </trkpt>
      <trkpt lat="45.72358" lon="6.27465">
        <ele>1150.885</ele>
        <time>2013-08-11T09:30:51Z</time>
      </trkpt>
      <trkpt lat="45.72358" lon="6.27465">
        <ele>1150.885</ele>
        <time>2013-08-11T09:30:56Z</time>
      </trkpt>
      <trkpt lat="45.72358" lon="6.27465">
        <ele>1150.885</ele>
        <time>2013-08-11T09:31:01Z</time>
      </trkpt>
      <trkpt lat="45.72358" lon="6.27465">
        <ele>1150.885</ele>
        <time>2013-08-11T09:31:06Z</time>
      </trkpt>
      <trkpt lat="45.72362" lon="6.27462">
        <ele>1155.6602</ele>
        <time>2013-08-11T09:31:12Z</time>
      </trkpt>
      <trkpt lat="45.72364" lon="6.27458">
        <ele>1155.6602</ele>
        <time>2013-08-11T09:31:16Z</time>
      </trkpt>
      <trkpt lat="45.72364" lon="6.27458">
        <ele>1155.6602</ele>
        <time>2013-08-11T09:31:22Z</time>
      </trkpt>
      <trkpt lat="45.72363" lon="6.27456">
        <ele>1155.6602</ele>
        <time>2013-08-11T09:31:26Z</time>
      </trkpt>
      <trkpt lat="45.72364" lon="6.27456">
        <ele>1155.6602</ele>
        <time>2013-08-11T09:31:31Z</time>
      </trkpt>
      <trkpt lat="45.72365" lon="6.27456">
        <ele>1155.6602</ele>
        <time>2013-08-11T09:31:36Z</time>
      </trkpt>
      <trkpt lat="45.72369" lon="6.27447">
        <ele>1160.6521</ele>
        <time>2013-08-11T09:31:42Z</time>
      </trkpt>
      <trkpt lat="45.7237" lon="6.27439">
        <ele>1160.6521</ele>
        <time>2013-08-11T09:31:46Z</time>
      </trkpt>
      <trkpt lat="45.72372" lon="6.27432">
        <ele>1164.9714</ele>
        <time>2013-08-11T09:31:51Z</time>
      </trkpt>
      <trkpt lat="45.72373" lon="6.27431">
        <ele>1164.9714</ele>
        <time>2013-08-11T09:31:57Z</time>
      </trkpt>
      <trkpt lat="45.72373" lon="6.2743">
        <ele>1164.9714</ele>
        <time>2013-08-11T09:32:01Z</time>
      </trkpt>
      <trkpt lat="45.72372" lon="6.2743">
        <ele>1164.9714</ele>
        <time>2013-08-11T09:32:06Z</time>
      </trkpt>
      <trkpt lat="45.72372" lon="6.2743">
        <ele>1164.9714</ele>
        <time>2013-08-11T09:32:12Z</time>
      </trkpt>
      <trkpt lat="45.72371" lon="6.27426">
        <ele>1164.9714</ele>
        <time>2013-08-11T09:32:16Z</time>
      </trkpt>
      <trkpt lat="45.72371" lon="6.27422">
        <ele>1164.9714</ele>
        <time>2013-08-11T09:32:21Z</time>
      </trkpt>
      <trkpt lat="45.72372" lon="6.27418">
        <ele>1170.0312</ele>
        <time>2013-08-11T09:32:31Z</time>
      </trkpt>
      <trkpt lat="45.72373" lon="6.27415">
        <ele>1170.0312</ele>
        <time>2013-08-11T09:32:36Z</time>
      </trkpt>
      <trkpt lat="45.72374" lon="6.27413">
        <ele>1170.0312</ele>
        <time>2013-08-11T09:32:42Z</time>
      </trkpt>
      <trkpt lat="45.7237" lon="6.27406">
        <ele>1174.8895</ele>
        <time>2013-08-11T09:32:46Z</time>
      </trkpt>
      <trkpt lat="45.72371" lon="6.27404">
        <ele>1174.8895</ele>
        <time>2013-08-11T09:32:51Z</time>
      </trkpt>
      <trkpt lat="45.72372" lon="6.27403">
        <ele>1174.8895</ele>
        <time>2013-08-11T09:33:01Z</time>
      </trkpt>
      <trkpt lat="45.72372" lon="6.27402">
        <ele>1174.8895</ele>
        <time>2013-08-11T09:33:06Z</time>
      </trkpt>
      <trkpt lat="45.72372" lon="6.27387">
        <ele>1180.2391</ele>
        <time>2013-08-11T09:33:16Z</time>
      </trkpt>
      <trkpt lat="45.72377" lon="6.27382">
        <ele>1180.2391</ele>
        <time>2013-08-11T09:33:21Z</time>
      </trkpt>
      <trkpt lat="45.72377" lon="6.27379">
        <ele>1180.2391</ele>
        <time>2013-08-11T09:33:31Z</time>
      </trkpt>
      <trkpt lat="45.72377" lon="6.27379">
        <ele>1180.2391</ele>
        <time>2013-08-11T09:33:36Z</time>
      </trkpt>
      <trkpt lat="45.72377" lon="6.27379">
        <ele>1180.2391</ele>
        <time>2013-08-11T09:33:42Z</time>
      </trkpt>
      <trkpt lat="45.72377" lon="6.27376">
        <ele>1185.2449</ele>
        <time>2013-08-11T09:33:46Z</time>
      </trkpt>
      <trkpt lat="45.72377" lon="6.27362">
        <ele>1189.2659</ele>
        <time>2013-08-11T09:33:51Z</time>
      </trkpt>
      <trkpt lat="45.72379" lon="6.27352">
        <ele>1189.2659</ele>
        <time>2013-08-11T09:33:58Z</time>
      </trkpt>
      <trkpt lat="45.72378" lon="6.27348">
        <ele>1193.3143</ele>
        <time>2013-08-11T09:34:01Z</time>
      </trkpt>
      <trkpt lat="45.72377" lon="6.27348">
        <ele>1193.3143</ele>
        <time>2013-08-11T09:34:06Z</time>
      </trkpt>
      <trkpt lat="45.72377" lon="6.27348">
        <ele>1193.3143</ele>
        <time>2013-08-11T09:34:12Z</time>
      </trkpt>
      <trkpt lat="45.7238" lon="6.27349">
        <ele>1193.3143</ele>
        <time>2013-08-11T09:34:16Z</time>
      </trkpt>
      <trkpt lat="45.7238" lon="6.2735">
        <ele>1193.3143</ele>
        <time>2013-08-11T09:34:21Z</time>
      </trkpt>
      <trkpt lat="45.72379" lon="6.2735">
        <ele>1193.3143</ele>
        <time>2013-08-11T09:34:28Z</time>
      </trkpt>
      <trkpt lat="45.7238" lon="6.27354">
        <ele>1193.3143</ele>
        <time>2013-08-11T09:34:31Z</time>
      </trkpt>
      <trkpt lat="45.72382" lon="6.27354">
        <ele>1193.3143</ele>
        <time>2013-08-11T09:34:36Z</time>
      </trkpt>
      <trkpt lat="45.72382" lon="6.27355">
        <ele>1198.1389</ele>
        <time>2013-08-11T09:34:42Z</time>
      </trkpt>
      <trkpt lat="45.72382" lon="6.27355">
        <ele>1198.1389</ele>
        <time>2013-08-11T09:34:46Z</time>
      </trkpt>
      <trkpt lat="45.72382" lon="6.27355">
        <ele>1198.1389</ele>
        <time>2013-08-11T09:34:51Z</time>
      </trkpt>
      <trkpt lat="45.72382" lon="6.27355">
        <ele>1198.1389</ele>
        <time>2013-08-11T09:34:57Z</time>
      </trkpt>
      <trkpt lat="45.72382" lon="6.27355">
        <ele>1198.1389</ele>
        <time>2013-08-11T09:35:01Z</time>
      </trkpt>
      <trkpt lat="45.72382" lon="6.27355">
        <ele>1198.1389</ele>
        <time>2013-08-11T09:35:06Z</time>
      </trkpt>
      <trkpt lat="45.72382" lon="6.27355">
        <ele>1198.1389</ele>
        <time>2013-08-11T09:35:11Z</time>
      </trkpt>
      <trkpt lat="45.72382" lon="6.27355">
        <ele>1198.1389</ele>
        <time>2013-08-11T09:35:17Z</time>
      </trkpt>
      <trkpt lat="45.72382" lon="6.27355">
        <ele>1198.1389</ele>
        <time>2013-08-11T09:35:21Z</time>
      </trkpt>
      <trkpt lat="45.72382" lon="6.27355">
        <ele>1198.1389</ele>
        <time>2013-08-11T09:35:26Z</time>
      </trkpt>
      <trkpt lat="45.72382" lon="6.27355">
        <ele>1198.1389</ele>
        <time>2013-08-11T09:35:36Z</time>
      </trkpt>
      <trkpt lat="45.72382" lon="6.27355">
        <ele>1198.1389</ele>
        <time>2013-08-11T09:35:41Z</time>
      </trkpt>
      <trkpt lat="45.72382" lon="6.27355">
        <ele>1198.1389</ele>
        <time>2013-08-11T09:35:47Z</time>
      </trkpt>
      <trkpt lat="45.72382" lon="6.27352">
        <ele>1198.1389</ele>
        <time>2013-08-11T09:35:51Z</time>
      </trkpt>
      <trkpt lat="45.72387" lon="6.27341">
        <ele>1203.0016</ele>
        <time>2013-08-11T09:35:56Z</time>
      </trkpt>
      <trkpt lat="45.72389" lon="6.27339">
        <ele>1203.0016</ele>
        <time>2013-08-11T09:36:02Z</time>
      </trkpt>
      <trkpt lat="45.7239" lon="6.27337">
        <ele>1203.0016</ele>
        <time>2013-08-11T09:36:06Z</time>
      </trkpt>
      <trkpt lat="45.72389" lon="6.27337">
        <ele>1203.0016</ele>
        <time>2013-08-11T09:36:11Z</time>
      </trkpt>
      <trkpt lat="45.72392" lon="6.27323">
        <ele>1208.0276</ele>
        <time>2013-08-11T09:36:21Z</time>
      </trkpt>
      <trkpt lat="45.72392" lon="6.27317">
        <ele>1208.0276</ele>
        <time>2013-08-11T09:36:26Z</time>
      </trkpt>
      <trkpt lat="45.72392" lon="6.27316">
        <ele>1208.0276</ele>
        <time>2013-08-11T09:36:32Z</time>
      </trkpt>
      <trkpt lat="45.72392" lon="6.27301">
        <ele>1213.1444</ele>
        <time>2013-08-11T09:36:36Z</time>
      </trkpt>
      <trkpt lat="45.7239" lon="6.27296">
        <ele>1213.1444</ele>
        <time>2013-08-11T09:36:41Z</time>
      </trkpt>
      <trkpt lat="45.7239" lon="6.27294">
        <ele>1213.1444</ele>
        <time>2013-08-11T09:36:47Z</time>
      </trkpt>
      <trkpt lat="45.72393" lon="6.27287">
        <ele>1219.309</ele>
        <time>2013-08-11T09:36:51Z</time>
      </trkpt>
      <trkpt lat="45.72391" lon="6.27283">
        <ele>1219.309</ele>
        <time>2013-08-11T09:36:56Z</time>
      </trkpt>
      <trkpt lat="45.72391" lon="6.27281">
        <ele>1219.309</ele>
        <time>2013-08-11T09:37:02Z</time>
      </trkpt>
      <trkpt lat="45.72393" lon="6.27277">
        <ele>1219.309</ele>
        <time>2013-08-11T09:37:06Z</time>
      </trkpt>
      <trkpt lat="45.72396" lon="6.27273">
        <ele>1224.8524</ele>
        <time>2013-08-11T09:37:11Z</time>
      </trkpt>
      <trkpt lat="45.724" lon="6.27271">
        <ele>1224.8524</ele>
        <time>2013-08-11T09:37:16Z</time>
      </trkpt>
      <trkpt lat="45.72402" lon="6.27267">
        <ele>1224.8524</ele>
        <time>2013-08-11T09:37:23Z</time>
      </trkpt>
      <trkpt lat="45.72405" lon="6.27265">
        <ele>1226.565</ele>
        <time>2013-08-11T09:37:26Z</time>
      </trkpt>
      <trkpt lat="45.72408" lon="6.27263">
        <ele>1228.2773</ele>
        <time>2013-08-11T09:37:31Z</time>
      </trkpt>
      <trkpt lat="45.7241" lon="6.27261">
        <ele>1229.9897</ele>
        <time>2013-08-11T09:37:36Z</time>
      </trkpt>
      <trkpt lat="45.72409" lon="6.27258">
        <ele>1229.9897</ele>
        <time>2013-08-11T09:37:41Z</time>
      </trkpt>
      <trkpt lat="45.72411" lon="6.27257">
        <ele>1229.9897</ele>
        <time>2013-08-11T09:37:46Z</time>
      </trkpt>
      <trkpt lat="45.72411" lon="6.27256">
        <ele>1229.9897</ele>
        <time>2013-08-11T09:37:52Z</time>
      </trkpt>
      <trkpt lat="45.72412" lon="6.27256">
        <ele>1229.9897</ele>
        <time>2013-08-11T09:38:02Z</time>
      </trkpt>
      <trkpt lat="45.7241" lon="6.27254">
        <ele>1231.7538</ele>
        <time>2013-08-11T09:38:06Z</time>
      </trkpt>
      <trkpt lat="45.72414" lon="6.27251">
        <ele>1233.5177</ele>
        <time>2013-08-11T09:38:12Z</time>
      </trkpt>
      <trkpt lat="45.72414" lon="6.27249">
        <ele>1235.2817</ele>
        <time>2013-08-11T09:38:21Z</time>
      </trkpt>
      <trkpt lat="45.72414" lon="6.27249">
        <ele>1235.2817</ele>
        <time>2013-08-11T09:38:26Z</time>
      </trkpt>
      <trkpt lat="45.72414" lon="6.27249">
        <ele>1235.2817</ele>
        <time>2013-08-11T09:38:34Z</time>
      </trkpt>
      <trkpt lat="45.72414" lon="6.27249">
        <ele>1235.2817</ele>
        <time>2013-08-11T09:38:36Z</time>
      </trkpt>
      <trkpt lat="45.72414" lon="6.27249">
        <ele>1235.2817</ele>
        <time>2013-08-11T09:38:41Z</time>
      </trkpt>
      <trkpt lat="45.72413" lon="6.27249">
        <ele>1235.2817</ele>
        <time>2013-08-11T09:38:49Z</time>
      </trkpt>
      <trkpt lat="45.72413" lon="6.27249">
        <ele>1235.2817</ele>
        <time>2013-08-11T09:38:51Z</time>
      </trkpt>
      <trkpt lat="45.72413" lon="6.27249">
        <ele>1235.2817</ele>
        <time>2013-08-11T09:38:56Z</time>
      </trkpt>
      <trkpt lat="45.72411" lon="6.27248">
        <ele>1235.2817</ele>
        <time>2013-08-11T09:39:04Z</time>
      </trkpt>
      <trkpt lat="45.72412" lon="6.27248">
        <ele>1235.2817</ele>
        <time>2013-08-11T09:39:06Z</time>
      </trkpt>
      <trkpt lat="45.72413" lon="6.27247">
        <ele>1235.2817</ele>
        <time>2013-08-11T09:39:11Z</time>
      </trkpt>
      <trkpt lat="45.72416" lon="6.27245">
        <ele>1235.2817</ele>
        <time>2013-08-11T09:39:19Z</time>
      </trkpt>
      <trkpt lat="45.72419" lon="6.27234">
        <ele>1240.4255</ele>
        <time>2013-08-11T09:39:21Z</time>
      </trkpt>
      <trkpt lat="45.72414" lon="6.27226">
        <ele>1240.4255</ele>
        <time>2013-08-11T09:39:26Z</time>
      </trkpt>
      <trkpt lat="45.72412" lon="6.27223">
        <ele>1245.3286</ele>
        <time>2013-08-11T09:39:34Z</time>
      </trkpt>
      <trkpt lat="45.72411" lon="6.27216">
        <ele>1245.3286</ele>
        <time>2013-08-11T09:39:36Z</time>
      </trkpt>
      <trkpt lat="45.72409" lon="6.27213">
        <ele>1245.3286</ele>
        <time>2013-08-11T09:39:41Z</time>
      </trkpt>
      <trkpt lat="45.72406" lon="6.27208">
        <ele>1250.4249</ele>
        <time>2013-08-11T09:39:46Z</time>
      </trkpt>
      <trkpt lat="45.72404" lon="6.27201">
        <ele>1250.4249</ele>
        <time>2013-08-11T09:39:52Z</time>
      </trkpt>
      <trkpt lat="45.724" lon="6.27194">
        <ele>1255.0205</ele>
        <time>2013-08-11T09:39:56Z</time>
      </trkpt>
      <trkpt lat="45.724" lon="6.27193">
        <ele>1255.0205</ele>
        <time>2013-08-11T09:40:02Z</time>
      </trkpt>
      <trkpt lat="45.724" lon="6.27192">
        <ele>1255.0205</ele>
        <time>2013-08-11T09:40:06Z</time>
      </trkpt>
      <trkpt lat="45.724" lon="6.27193">
        <ele>1255.0205</ele>
        <time>2013-08-11T09:40:12Z</time>
      </trkpt>
      <trkpt lat="45.72401" lon="6.27192">
        <ele>1255.0205</ele>
        <time>2013-08-11T09:40:16Z</time>
      </trkpt>
      <trkpt lat="45.72402" lon="6.27192">
        <ele>1255.0205</ele>
        <time>2013-08-11T09:40:24Z</time>
      </trkpt>
      <trkpt lat="45.72409" lon="6.27185">
        <ele>1259.3098</ele>
        <time>2013-08-11T09:40:26Z</time>
      </trkpt>
      <trkpt lat="45.72408" lon="6.27182">
        <ele>1259.3098</ele>
        <time>2013-08-11T09:40:31Z</time>
      </trkpt>
      <trkpt lat="45.72409" lon="6.27179">
        <ele>1259.3098</ele>
        <time>2013-08-11T09:40:37Z</time>
      </trkpt>
      <trkpt lat="45.72409" lon="6.27177">
        <ele>1259.3098</ele>
        <time>2013-08-11T09:40:43Z</time>
      </trkpt>
      <trkpt lat="45.72408" lon="6.27176">
        <ele>1259.3098</ele>
        <time>2013-08-11T09:40:46Z</time>
      </trkpt>
      <trkpt lat="45.72411" lon="6.27175">
        <ele>1263.33</ele>
        <time>2013-08-11T09:40:51Z</time>
      </trkpt>
      <trkpt lat="45.72412" lon="6.27175">
        <ele>1263.33</ele>
        <time>2013-08-11T09:41:00Z</time>
      </trkpt>
      <trkpt lat="45.72414" lon="6.27175">
        <ele>1263.33</ele>
        <time>2013-08-11T09:41:02Z</time>
      </trkpt>
      <trkpt lat="45.72415" lon="6.27175">
        <ele>1263.33</ele>
        <time>2013-08-11T09:41:07Z</time>
      </trkpt>
      <trkpt lat="45.72415" lon="6.27175">
        <ele>1263.33</ele>
        <time>2013-08-11T09:41:16Z</time>
      </trkpt>
      <trkpt lat="45.72415" lon="6.27175">
        <ele>1263.33</ele>
        <time>2013-08-11T09:41:21Z</time>
      </trkpt>
      <trkpt lat="45.72415" lon="6.27175">
        <ele>1263.33</ele>
        <time>2013-08-11T09:41:31Z</time>
      </trkpt>
      <trkpt lat="45.72414" lon="6.27175">
        <ele>1263.33</ele>
        <time>2013-08-11T09:41:36Z</time>
      </trkpt>
      <trkpt lat="45.72416" lon="6.27174">
        <ele>1263.33</ele>
        <time>2013-08-11T09:41:41Z</time>
      </trkpt>
      <trkpt lat="45.7242" lon="6.27175">
        <ele>1267.1306</ele>
        <time>2013-08-11T09:41:47Z</time>
      </trkpt>
      <trkpt lat="45.72428" lon="6.27174">
        <ele>1267.1306</ele>
        <time>2013-08-11T09:41:51Z</time>
      </trkpt>
      <trkpt lat="45.72434" lon="6.27176">
        <ele>1270.2533</ele>
        <time>2013-08-11T09:41:56Z</time>
      </trkpt>
      <trkpt lat="45.72438" lon="6.27176">
        <ele>1270.2533</ele>
        <time>2013-08-11T09:42:02Z</time>
      </trkpt>
      <trkpt lat="45.72444" lon="6.27173">
        <ele>1273.2566</ele>
        <time>2013-08-11T09:42:06Z</time>
      </trkpt>
      <trkpt lat="45.72447" lon="6.2717">
        <ele>1273.2566</ele>
        <time>2013-08-11T09:42:11Z</time>
      </trkpt>
      <trkpt lat="45.7245" lon="6.27169">
        <ele>1273.2566</ele>
        <time>2013-08-11T09:42:18Z</time>
      </trkpt>
      <trkpt lat="45.7246" lon="6.27171">
        <ele>1275.9078</ele>
        <time>2013-08-11T09:42:21Z</time>
      </trkpt>
      <trkpt lat="45.72463" lon="6.27173">
        <ele>1275.9078</ele>
        <time>2013-08-11T09:42:26Z</time>
      </trkpt>
      <trkpt lat="45.72465" lon="6.27174">
        <ele>1275.9078</ele>
        <time>2013-08-11T09:42:33Z</time>
      </trkpt>
      <trkpt lat="45.7247" lon="6.27179">
        <ele>1278.613</ele>
        <time>2013-08-11T09:42:36Z</time>
      </trkpt>
      <trkpt lat="45.7247" lon="6.27179">
        <ele>1278.613</ele>
        <time>2013-08-11T09:42:41Z</time>
      </trkpt>
      <trkpt lat="45.7247" lon="6.27177">
        <ele>1278.613</ele>
        <time>2013-08-11T09:42:46Z</time>
      </trkpt>
      <trkpt lat="45.7247" lon="6.27177">
        <ele>1278.613</ele>
        <time>2013-08-11T09:42:53Z</time>
      </trkpt>
      <trkpt lat="45.72471" lon="6.27176">
        <ele>1278.613</ele>
        <time>2013-08-11T09:42:56Z</time>
      </trkpt>
      <trkpt lat="45.72474" lon="6.27174">
        <ele>1278.613</ele>
        <time>2013-08-11T09:43:01Z</time>
      </trkpt>
      <trkpt lat="45.72476" lon="6.27173">
        <ele>1278.613</ele>
        <time>2013-08-11T09:43:07Z</time>
      </trkpt>
      <trkpt lat="45.72476" lon="6.27172">
        <ele>1280.7817</ele>
        <time>2013-08-11T09:43:11Z</time>
      </trkpt>
      <trkpt lat="45.7248" lon="6.27172">
        <ele>1280.7817</ele>
        <time>2013-08-11T09:43:16Z</time>
      </trkpt>
      <trkpt lat="45.72484" lon="6.27171">
        <ele>1280.7817</ele>
        <time>2013-08-11T09:43:21Z</time>
      </trkpt>
      <trkpt lat="45.72486" lon="6.27166">
        <ele>1283.0942</ele>
        <time>2013-08-11T09:43:26Z</time>
      </trkpt>
      <trkpt lat="45.72486" lon="6.27166">
        <ele>1283.0942</ele>
        <time>2013-08-11T09:43:31Z</time>
      </trkpt>
      <trkpt lat="45.72487" lon="6.27166">
        <ele>1283.0942</ele>
        <time>2013-08-11T09:43:36Z</time>
      </trkpt>
      <trkpt lat="45.7249" lon="6.27168">
        <ele>1283.0942</ele>
        <time>2013-08-11T09:43:41Z</time>
      </trkpt>
      <trkpt lat="45.72495" lon="6.27169">
        <ele>1285.647</ele>
        <time>2013-08-11T09:43:46Z</time>
      </trkpt>
      <trkpt lat="45.72501" lon="6.2717">
        <ele>1285.647</ele>
        <time>2013-08-11T09:43:51Z</time>
      </trkpt>
      <trkpt lat="45.72505" lon="6.27172">
        <ele>1288.211</ele>
        <time>2013-08-11T09:43:56Z</time>
      </trkpt>
      <trkpt lat="45.72508" lon="6.27175">
        <ele>1288.211</ele>
        <time>2013-08-11T09:44:01Z</time>
      </trkpt>
      <trkpt lat="45.72513" lon="6.27176">
        <ele>1288.211</ele>
        <time>2013-08-11T09:44:06Z</time>
      </trkpt>
      <trkpt lat="45.72516" lon="6.27177">
        <ele>1290.8773</ele>
        <time>2013-08-11T09:44:13Z</time>
      </trkpt>
      <trkpt lat="45.72526" lon="6.27181">
        <ele>1293.4697</ele>
        <time>2013-08-11T09:44:16Z</time>
      </trkpt>
      <trkpt lat="45.7253" lon="6.27185">
        <ele>1293.4697</ele>
        <time>2013-08-11T09:44:21Z</time>
      </trkpt>
      <trkpt lat="45.72531" lon="6.27186">
        <ele>1293.4697</ele>
        <time>2013-08-11T09:44:28Z</time>
      </trkpt>
      <trkpt lat="45.72537" lon="6.27181">
        <ele>1295.97</ele>
        <time>2013-08-11T09:44:31Z</time>
      </trkpt>
      <trkpt lat="45.72541" lon="6.27179">
        <ele>1295.97</ele>
        <time>2013-08-11T09:44:36Z</time>
      </trkpt>
      <trkpt lat="45.72542" lon="6.27179">
        <ele>1295.97</ele>
        <time>2013-08-11T09:44:43Z</time>
      </trkpt>
      <trkpt lat="45.72552" lon="6.27172">
        <ele>1297.9138</ele>
        <time>2013-08-11T09:44:46Z</time>
      </trkpt>
      <trkpt lat="45.72557" lon="6.27172">
        <ele>1297.9138</ele>
        <time>2013-08-11T09:44:51Z</time>
      </trkpt>
      <trkpt lat="45.7256" lon="6.27171">
        <ele>1297.9138</ele>
        <time>2013-08-11T09:44:58Z</time>
      </trkpt>
      <trkpt lat="45.72566" lon="6.27159">
        <ele>1299.839</ele>
        <time>2013-08-11T09:45:01Z</time>
      </trkpt>
      <trkpt lat="45.72569" lon="6.27154">
        <ele>1299.839</ele>
        <time>2013-08-11T09:45:06Z</time>
      </trkpt>
      <trkpt lat="45.72572" lon="6.27152">
        <ele>1299.839</ele>
        <time>2013-08-11T09:45:12Z</time>
      </trkpt>
      <trkpt lat="45.72578" lon="6.2715">
        <ele>1300.8882</ele>
        <time>2013-08-11T09:45:16Z</time>
      </trkpt>
      <trkpt lat="45.72583" lon="6.27152">
        <ele>1300.8882</ele>
        <time>2013-08-11T09:45:21Z</time>
      </trkpt>
      <trkpt lat="45.72586" lon="6.27153">
        <ele>1300.8882</ele>
        <time>2013-08-11T09:45:28Z</time>
      </trkpt>
      <trkpt lat="45.72593" lon="6.27147">
        <ele>1301.2787</ele>
        <time>2013-08-11T09:45:31Z</time>
      </trkpt>
      <trkpt lat="45.72596" lon="6.27142">
        <ele>1301.2787</ele>
        <time>2013-08-11T09:45:36Z</time>
      </trkpt>
      <trkpt lat="45.726" lon="6.27136">
        <ele>1301.9779</ele>
        <time>2013-08-11T09:45:43Z</time>
      </trkpt>
      <trkpt lat="45.72604" lon="6.27125">
        <ele>1301.9779</ele>
        <time>2013-08-11T09:45:46Z</time>
      </trkpt>
      <trkpt lat="45.72604" lon="6.27122">
        <ele>1302.194</ele>
        <time>2013-08-11T09:45:52Z</time>
      </trkpt>
      <trkpt lat="45.72604" lon="6.27121">
        <ele>1302.194</ele>
        <time>2013-08-11T09:45:56Z</time>
      </trkpt>
      <trkpt lat="45.72603" lon="6.27121">
        <ele>1302.194</ele>
        <time>2013-08-11T09:46:01Z</time>
      </trkpt>
      <trkpt lat="45.72603" lon="6.27121">
        <ele>1302.194</ele>
        <time>2013-08-11T09:46:06Z</time>
      </trkpt>
      <trkpt lat="45.72603" lon="6.27121">
        <ele>1302.194</ele>
        <time>2013-08-11T09:46:12Z</time>
      </trkpt>
      <trkpt lat="45.72603" lon="6.27121">
        <ele>1302.194</ele>
        <time>2013-08-11T09:46:17Z</time>
      </trkpt>
      <trkpt lat="45.72603" lon="6.27121">
        <ele>1302.194</ele>
        <time>2013-08-11T09:46:21Z</time>
      </trkpt>
      <trkpt lat="45.72603" lon="6.27121">
        <ele>1302.194</ele>
        <time>2013-08-11T09:46:26Z</time>
      </trkpt>
      <trkpt lat="45.72603" lon="6.27121">
        <ele>1302.194</ele>
        <time>2013-08-11T09:46:32Z</time>
      </trkpt>
      <trkpt lat="45.72603" lon="6.27121">
        <ele>1302.194</ele>
        <time>2013-08-11T09:46:36Z</time>
      </trkpt>
      <trkpt lat="45.72603" lon="6.27121">
        <ele>1302.194</ele>
        <time>2013-08-11T09:46:41Z</time>
      </trkpt>
      <trkpt lat="45.72603" lon="6.27121">
        <ele>1302.194</ele>
        <time>2013-08-11T09:46:47Z</time>
      </trkpt>
      <trkpt lat="45.72604" lon="6.27121">
        <ele>1302.194</ele>
        <time>2013-08-11T09:46:51Z</time>
      </trkpt>
      <trkpt lat="45.72607" lon="6.27119">
        <ele>1302.194</ele>
        <time>2013-08-11T09:46:56Z</time>
      </trkpt>
      <trkpt lat="45.72616" lon="6.27109">
        <ele>1299.4501</ele>
        <time>2013-08-11T09:47:02Z</time>
      </trkpt>
      <trkpt lat="45.7262" lon="6.27105">
        <ele>1299.4501</ele>
        <time>2013-08-11T09:47:06Z</time>
      </trkpt>
      <trkpt lat="45.72627" lon="6.27106">
        <ele>1296.7218</ele>
        <time>2013-08-11T09:47:11Z</time>
      </trkpt>
      <trkpt lat="45.72634" lon="6.27106">
        <ele>1296.7218</ele>
        <time>2013-08-11T09:47:18Z</time>
      </trkpt>
      <trkpt lat="45.72636" lon="6.27106">
        <ele>1296.7218</ele>
        <time>2013-08-11T09:47:21Z</time>
      </trkpt>
      <trkpt lat="45.72641" lon="6.27106">
        <ele>1294.4878</ele>
        <time>2013-08-11T09:47:26Z</time>
      </trkpt>
      <trkpt lat="45.72647" lon="6.27106">
        <ele>1294.4878</ele>
        <time>2013-08-11T09:47:33Z</time>
      </trkpt>
      <trkpt lat="45.72651" lon="6.27104">
        <ele>1292.2672</ele>
        <time>2013-08-11T09:47:36Z</time>
      </trkpt>
      <trkpt lat="45.72655" lon="6.27105">
        <ele>1292.2672</ele>
        <time>2013-08-11T09:47:41Z</time>
      </trkpt>
      <trkpt lat="45.72656" lon="6.27106">
        <ele>1292.2672</ele>
        <time>2013-08-11T09:47:48Z</time>
      </trkpt>
      <trkpt lat="45.72662" lon="6.27106">
        <ele>1290.1185</ele>
        <time>2013-08-11T09:47:51Z</time>
      </trkpt>
      <trkpt lat="45.72667" lon="6.27105">
        <ele>1290.1185</ele>
        <time>2013-08-11T09:47:56Z</time>
      </trkpt>
      <trkpt lat="45.72666" lon="6.27099">
        <ele>1290.1185</ele>
        <time>2013-08-11T09:48:02Z</time>
      </trkpt>
      <trkpt lat="45.72665" lon="6.27095">
        <ele>1288.3839</ele>
        <time>2013-08-11T09:48:06Z</time>
      </trkpt>
      <trkpt lat="45.72666" lon="6.27096">
        <ele>1288.3839</ele>
        <time>2013-08-11T09:48:11Z</time>
      </trkpt>
      <trkpt lat="45.72665" lon="6.27096">
        <ele>1288.3839</ele>
        <time>2013-08-11T09:48:17Z</time>
      </trkpt>
      <trkpt lat="45.72665" lon="6.27097">
        <ele>1288.3839</ele>
        <time>2013-08-11T09:48:22Z</time>
      </trkpt>
      <trkpt lat="45.72665" lon="6.27097">
        <ele>1288.3839</ele>
        <time>2013-08-11T09:48:26Z</time>
      </trkpt>
      <trkpt lat="45.72665" lon="6.27097">
        <ele>1288.3839</ele>
        <time>2013-08-11T09:48:31Z</time>
      </trkpt>
      <trkpt lat="45.72665" lon="6.27097">
        <ele>1288.3839</ele>
        <time>2013-08-11T09:48:36Z</time>
      </trkpt>
      <trkpt lat="45.72665" lon="6.27097">
        <ele>1288.3839</ele>
        <time>2013-08-11T09:48:41Z</time>
      </trkpt>
      <trkpt lat="45.72665" lon="6.27097">
        <ele>1288.3839</ele>
        <time>2013-08-11T09:48:46Z</time>
      </trkpt>
      <trkpt lat="45.72665" lon="6.27097">
        <ele>1288.3839</ele>
        <time>2013-08-11T09:48:53Z</time>
      </trkpt>
      <trkpt lat="45.72665" lon="6.27097">
        <ele>1288.3839</ele>
        <time>2013-08-11T09:48:56Z</time>
      </trkpt>
      <trkpt lat="45.72665" lon="6.27097">
        <ele>1288.3839</ele>
        <time>2013-08-11T09:49:01Z</time>
      </trkpt>
      <trkpt lat="45.72665" lon="6.27097">
        <ele>1288.3839</ele>
        <time>2013-08-11T09:49:07Z</time>
      </trkpt>
      <trkpt lat="45.72665" lon="6.27097">
        <ele>1288.3839</ele>
        <time>2013-08-11T09:49:11Z</time>
      </trkpt>
      <trkpt lat="45.72665" lon="6.27097">
        <ele>1288.3839</ele>
        <time>2013-08-11T09:49:16Z</time>
      </trkpt>
      <trkpt lat="45.72665" lon="6.27097">
        <ele>1288.3839</ele>
        <time>2013-08-11T09:49:21Z</time>
      </trkpt>
      <trkpt lat="45.72665" lon="6.27097">
        <ele>1288.3839</ele>
        <time>2013-08-11T09:49:28Z</time>
      </trkpt>
      <trkpt lat="45.72665" lon="6.27097">
        <ele>1288.3839</ele>
        <time>2013-08-11T09:49:36Z</time>
      </trkpt>
      <trkpt lat="45.72665" lon="6.27097">
        <ele>1288.3839</ele>
        <time>2013-08-11T09:49:41Z</time>
      </trkpt>
      <trkpt lat="45.72665" lon="6.27097">
        <ele>1288.3839</ele>
        <time>2013-08-11T09:49:46Z</time>
      </trkpt>
      <trkpt lat="45.72665" lon="6.27097">
        <ele>1288.3839</ele>
        <time>2013-08-11T09:49:52Z</time>
      </trkpt>
      <trkpt lat="45.72665" lon="6.27097">
        <ele>1288.3839</ele>
        <time>2013-08-11T09:49:56Z</time>
      </trkpt>
      <trkpt lat="45.72665" lon="6.27097">
        <ele>1288.3839</ele>
        <time>2013-08-11T09:50:01Z</time>
      </trkpt>
      <trkpt lat="45.72665" lon="6.27097">
        <ele>1288.3839</ele>
        <time>2013-08-11T09:50:06Z</time>
      </trkpt>
      <trkpt lat="45.72665" lon="6.27097">
        <ele>1288.3839</ele>
        <time>2013-08-11T09:50:12Z</time>
      </trkpt>
      <trkpt lat="45.72665" lon="6.27097">
        <ele>1288.3839</ele>
        <time>2013-08-11T09:50:16Z</time>
      </trkpt>
      <trkpt lat="45.72665" lon="6.27097">
        <ele>1288.3839</ele>
        <time>2013-08-11T09:50:22Z</time>
      </trkpt>
      <trkpt lat="45.72665" lon="6.27097">
        <ele>1288.3839</ele>
        <time>2013-08-11T09:50:27Z</time>
      </trkpt>
      <trkpt lat="45.72664" lon="6.27093">
        <ele>1288.3839</ele>
        <time>2013-08-11T09:50:31Z</time>
      </trkpt>
      <trkpt lat="45.72663" lon="6.27091">
        <ele>1288.3839</ele>
        <time>2013-08-11T09:50:36Z</time>
      </trkpt>
      <trkpt lat="45.72662" lon="6.2709">
        <ele>1288.3839</ele>
        <time>2013-08-11T09:50:42Z</time>
      </trkpt>
      <trkpt lat="45.72662" lon="6.2709">
        <ele>1286.9177</ele>
        <time>2013-08-11T09:50:46Z</time>
      </trkpt>
      <trkpt lat="45.72662" lon="6.27087">
        <ele>1286.9177</ele>
        <time>2013-08-11T09:50:51Z</time>
      </trkpt>
      <trkpt lat="45.72661" lon="6.27086">
        <ele>1286.9177</ele>
        <time>2013-08-11T09:50:58Z</time>
      </trkpt>
      <trkpt lat="45.72661" lon="6.27083">
        <ele>1286.9177</ele>
        <time>2013-08-11T09:51:01Z</time>
      </trkpt>
      <trkpt lat="45.72661" lon="6.27082">
        <ele>1286.9177</ele>
        <time>2013-08-11T09:51:06Z</time>
      </trkpt>
      <trkpt lat="45.72661" lon="6.27082">
        <ele>1286.9177</ele>
        <time>2013-08-11T09:51:13Z</time>
      </trkpt>
      <trkpt lat="45.72661" lon="6.27083">
        <ele>1286.9177</ele>
        <time>2013-08-11T09:51:16Z</time>
      </trkpt>
      <trkpt lat="45.72661" lon="6.27083">
        <ele>1286.9177</ele>
        <time>2013-08-11T09:51:21Z</time>
      </trkpt>
      <trkpt lat="45.72662" lon="6.27083">
        <ele>1286.9177</ele>
        <time>2013-08-11T09:51:28Z</time>
      </trkpt>
      <trkpt lat="45.72662" lon="6.27083">
        <ele>1286.9177</ele>
        <time>2013-08-11T09:51:31Z</time>
      </trkpt>
      <trkpt lat="45.72662" lon="6.27083">
        <ele>1286.9177</ele>
        <time>2013-08-11T09:51:36Z</time>
      </trkpt>
      <trkpt lat="45.72662" lon="6.27083">
        <ele>1286.9177</ele>
        <time>2013-08-11T09:51:41Z</time>
      </trkpt>
      <trkpt lat="45.72662" lon="6.27083">
        <ele>1286.9177</ele>
        <time>2013-08-11T09:51:47Z</time>
      </trkpt>
      <trkpt lat="45.72662" lon="6.27082">
        <ele>1286.9177</ele>
        <time>2013-08-11T09:51:51Z</time>
      </trkpt>
      <trkpt lat="45.72668" lon="6.27091">
        <ele>1285.4395</ele>
        <time>2013-08-11T09:51:58Z</time>
      </trkpt>
      <trkpt lat="45.72672" lon="6.27096">
        <ele>1285.4395</ele>
        <time>2013-08-11T09:52:01Z</time>
      </trkpt>
      <trkpt lat="45.72675" lon="6.27092">
        <ele>1284.2944</ele>
        <time>2013-08-11T09:52:06Z</time>
      </trkpt>
      <trkpt lat="45.72677" lon="6.2709">
        <ele>1284.2944</ele>
        <time>2013-08-11T09:52:11Z</time>
      </trkpt>
      <trkpt lat="45.72678" lon="6.27087">
        <ele>1284.2944</ele>
        <time>2013-08-11T09:52:17Z</time>
      </trkpt>
      <trkpt lat="45.7268" lon="6.27083">
        <ele>1284.2944</ele>
        <time>2013-08-11T09:52:21Z</time>
      </trkpt>
      <trkpt lat="45.72682" lon="6.27078">
        <ele>1283.268</ele>
        <time>2013-08-11T09:52:27Z</time>
      </trkpt>
      <trkpt lat="45.72682" lon="6.27068">
        <ele>1283.268</ele>
        <time>2013-08-11T09:52:36Z</time>
      </trkpt>
      <trkpt lat="45.72682" lon="6.27067">
        <ele>1283.268</ele>
        <time>2013-08-11T09:52:43Z</time>
      </trkpt>
      <trkpt lat="45.72682" lon="6.27067">
        <ele>1283.268</ele>
        <time>2013-08-11T09:52:46Z</time>
      </trkpt>
      <trkpt lat="45.72682" lon="6.27067">
        <ele>1283.268</ele>
        <time>2013-08-11T09:52:51Z</time>
      </trkpt>
      <trkpt lat="45.72682" lon="6.27067">
        <ele>1283.268</ele>
        <time>2013-08-11T09:52:56Z</time>
      </trkpt>
      <trkpt lat="45.72682" lon="6.27067">
        <ele>1283.268</ele>
        <time>2013-08-11T09:53:02Z</time>
      </trkpt>
      <trkpt lat="45.72682" lon="6.27067">
        <ele>1283.268</ele>
        <time>2013-08-11T09:53:06Z</time>
      </trkpt>
      <trkpt lat="45.72682" lon="6.27067">
        <ele>1283.268</ele>
        <time>2013-08-11T09:53:11Z</time>
      </trkpt>
      <trkpt lat="45.72688" lon="6.27065">
        <ele>1281.6128</ele>
        <time>2013-08-11T09:53:16Z</time>
      </trkpt>
      <trkpt lat="45.72698" lon="6.27063">
        <ele>1279.4017</ele>
        <time>2013-08-11T09:53:21Z</time>
      </trkpt>
      <trkpt lat="45.72708" lon="6.27064">
        <ele>1276.963</ele>
        <time>2013-08-11T09:53:27Z</time>
      </trkpt>
      <trkpt lat="45.72713" lon="6.27063">
        <ele>1276.963</ele>
        <time>2013-08-11T09:53:31Z</time>
      </trkpt>
      <trkpt lat="45.72719" lon="6.27062">
        <ele>1275.3788</ele>
        <time>2013-08-11T09:53:36Z</time>
      </trkpt>
      <trkpt lat="45.72722" lon="6.27062">
        <ele>1275.3788</ele>
        <time>2013-08-11T09:53:42Z</time>
      </trkpt>
      <trkpt lat="45.72729" lon="6.27056">
        <ele>1274.1361</ele>
        <time>2013-08-11T09:53:46Z</time>
      </trkpt>
      <trkpt lat="45.72733" lon="6.27052">
        <ele>1274.1361</ele>
        <time>2013-08-11T09:53:51Z</time>
      </trkpt>
      <trkpt lat="45.72735" lon="6.27051">
        <ele>1274.1361</ele>
        <time>2013-08-11T09:53:59Z</time>
      </trkpt>
      <trkpt lat="45.72739" lon="6.27042">
        <ele>1273.0605</ele>
        <time>2013-08-11T09:54:01Z</time>
      </trkpt>
      <trkpt lat="45.72742" lon="6.27033">
        <ele>1273.0605</ele>
        <time>2013-08-11T09:54:06Z</time>
      </trkpt>
      <trkpt lat="45.72744" lon="6.2703">
        <ele>1271.6874</ele>
        <time>2013-08-11T09:54:12Z</time>
      </trkpt>
      <trkpt lat="45.72753" lon="6.27026">
        <ele>1270.1915</ele>
        <time>2013-08-11T09:54:16Z</time>
      </trkpt>
      <trkpt lat="45.72758" lon="6.27023">
        <ele>1270.1915</ele>
        <time>2013-08-11T09:54:21Z</time>
      </trkpt>
      <trkpt lat="45.72759" lon="6.27021">
        <ele>1270.1915</ele>
        <time>2013-08-11T09:54:28Z</time>
      </trkpt>
      <trkpt lat="45.72767" lon="6.27013">
        <ele>1268.4899</ele>
        <time>2013-08-11T09:54:31Z</time>
      </trkpt>
      <trkpt lat="45.72773" lon="6.2701">
        <ele>1268.4899</ele>
        <time>2013-08-11T09:54:36Z</time>
      </trkpt>
      <trkpt lat="45.72774" lon="6.2701">
        <ele>1268.4899</ele>
        <time>2013-08-11T09:54:42Z</time>
      </trkpt>
      <trkpt lat="45.72777" lon="6.27009">
        <ele>1266.9525</ele>
        <time>2013-08-11T09:54:46Z</time>
      </trkpt>
      <trkpt lat="45.72786" lon="6.27007">
        <ele>1265.7341</ele>
        <time>2013-08-11T09:54:51Z</time>
      </trkpt>
      <trkpt lat="45.7279" lon="6.27008">
        <ele>1265.7341</ele>
        <time>2013-08-11T09:54:58Z</time>
      </trkpt>
      <trkpt lat="45.72806" lon="6.27005">
        <ele>1264.6597</ele>
        <time>2013-08-11T09:55:01Z</time>
      </trkpt>
      <trkpt lat="45.72811" lon="6.27006">
        <ele>1264.6597</ele>
        <time>2013-08-11T09:55:06Z</time>
      </trkpt>
      <trkpt lat="45.72817" lon="6.27004">
        <ele>1263.5085</ele>
        <time>2013-08-11T09:55:11Z</time>
      </trkpt>
      <trkpt lat="45.7282" lon="6.27004">
        <ele>1263.5085</ele>
        <time>2013-08-11T09:55:17Z</time>
      </trkpt>
      <trkpt lat="45.72827" lon="6.27007">
        <ele>1262.6094</ele>
        <time>2013-08-11T09:55:21Z</time>
      </trkpt>
      <trkpt lat="45.72834" lon="6.27009">
        <ele>1262.6094</ele>
        <time>2013-08-11T09:55:26Z</time>
      </trkpt>
      <trkpt lat="45.72839" lon="6.27019">
        <ele>1261.5305</ele>
        <time>2013-08-11T09:55:32Z</time>
      </trkpt>
      <trkpt lat="45.72842" lon="6.2702">
        <ele>1261.5305</ele>
        <time>2013-08-11T09:55:36Z</time>
      </trkpt>
      <trkpt lat="45.72846" lon="6.27019">
        <ele>1261.5305</ele>
        <time>2013-08-11T09:55:41Z</time>
      </trkpt>
      <trkpt lat="45.72849" lon="6.27017">
        <ele>1260.5496</ele>
        <time>2013-08-11T09:55:47Z</time>
      </trkpt>
      <trkpt lat="45.72853" lon="6.27018">
        <ele>1260.5496</ele>
        <time>2013-08-11T09:55:52Z</time>
      </trkpt>
      <trkpt lat="45.72865" lon="6.27021">
        <ele>1259.2028</ele>
        <time>2013-08-11T09:55:56Z</time>
      </trkpt>
      <trkpt lat="45.72872" lon="6.2702">
        <ele>1259.2028</ele>
        <time>2013-08-11T09:56:01Z</time>
      </trkpt>
      <trkpt lat="45.72874" lon="6.27018">
        <ele>1258.2715</ele>
        <time>2013-08-11T09:56:08Z</time>
      </trkpt>
      <trkpt lat="45.72879" lon="6.27015">
        <ele>1258.2715</ele>
        <time>2013-08-11T09:56:11Z</time>
      </trkpt>
      <trkpt lat="45.72885" lon="6.27016">
        <ele>1257.5558</ele>
        <time>2013-08-11T09:56:16Z</time>
      </trkpt>
      <trkpt lat="45.7289" lon="6.27011">
        <ele>1257.5558</ele>
        <time>2013-08-11T09:56:22Z</time>
      </trkpt>
      <trkpt lat="45.72895" lon="6.27006">
        <ele>1256.4949</ele>
        <time>2013-08-11T09:56:26Z</time>
      </trkpt>
      <trkpt lat="45.72901" lon="6.27008">
        <ele>1256.4949</ele>
        <time>2013-08-11T09:56:31Z</time>
      </trkpt>
      <trkpt lat="45.72903" lon="6.27009">
        <ele>1256.4949</ele>
        <time>2013-08-11T09:56:36Z</time>
      </trkpt>
      <trkpt lat="45.72903" lon="6.2701">
        <ele>1256.4949</ele>
        <time>2013-08-11T09:56:42Z</time>
      </trkpt>
      <trkpt lat="45.72903" lon="6.2701">
        <ele>1256.4949</ele>
        <time>2013-08-11T09:56:46Z</time>
      </trkpt>
      <trkpt lat="45.72903" lon="6.2701">
        <ele>1256.4949</ele>
        <time>2013-08-11T09:56:51Z</time>
      </trkpt>
      <trkpt lat="45.72903" lon="6.2701">
        <ele>1256.4949</ele>
        <time>2013-08-11T09:56:58Z</time>
      </trkpt>
      <trkpt lat="45.72904" lon="6.2701">
        <ele>1256.4949</ele>
        <time>2013-08-11T09:57:01Z</time>
      </trkpt>
      <trkpt lat="45.72904" lon="6.2701">
        <ele>1256.4949</ele>
        <time>2013-08-11T09:57:06Z</time>
      </trkpt>
      <trkpt lat="45.72904" lon="6.2701">
        <ele>1256.4949</ele>
        <time>2013-08-11T09:57:12Z</time>
      </trkpt>
      <trkpt lat="45.72914" lon="6.27016">
        <ele>1255.1177</ele>
        <time>2013-08-11T09:57:16Z</time>
      </trkpt>
      <trkpt lat="45.72923" lon="6.27018">
        <ele>1254.5034</ele>
        <time>2013-08-11T09:57:21Z</time>
      </trkpt>
      <trkpt lat="45.72933" lon="6.2702">
        <ele>1254.0499</ele>
        <time>2013-08-11T09:57:27Z</time>
      </trkpt>
      <trkpt lat="45.72938" lon="6.2702">
        <ele>1254.0499</ele>
        <time>2013-08-11T09:57:31Z</time>
      </trkpt>
      <trkpt lat="45.72944" lon="6.27021">
        <ele>1253.4869</ele>
        <time>2013-08-11T09:57:36Z</time>
      </trkpt>
      <trkpt lat="45.72951" lon="6.2702">
        <ele>1253.4869</ele>
        <time>2013-08-11T09:57:41Z</time>
      </trkpt>
      <trkpt lat="45.72957" lon="6.2702">
        <ele>1253.1694</ele>
        <time>2013-08-11T09:57:46Z</time>
      </trkpt>
      <trkpt lat="45.72962" lon="6.27019">
        <ele>1253.1694</ele>
        <time>2013-08-11T09:57:51Z</time>
      </trkpt>
      <trkpt lat="45.72965" lon="6.27019">
        <ele>1253.1694</ele>
        <time>2013-08-11T09:57:56Z</time>
      </trkpt>
      <trkpt lat="45.72974" lon="6.27025">
        <ele>1252.9207</ele>
        <time>2013-08-11T09:58:02Z</time>
      </trkpt>
      <trkpt lat="45.72979" lon="6.27025">
        <ele>1252.9207</ele>
        <time>2013-08-11T09:58:06Z</time>
      </trkpt>
      <trkpt lat="45.72985" lon="6.27021">
        <ele>1252.8364</ele>
        <time>2013-08-11T09:58:12Z</time>
      </trkpt>
      <trkpt lat="45.7299" lon="6.2702">
        <ele>1252.8364</ele>
        <time>2013-08-11T09:58:16Z</time>
      </trkpt>
      <trkpt lat="45.72992" lon="6.2702">
        <ele>1252.8364</ele>
        <time>2013-08-11T09:58:21Z</time>
      </trkpt>
      <trkpt lat="45.72997" lon="6.27022">
        <ele>1252.9323</ele>
        <time>2013-08-11T09:58:27Z</time>
      </trkpt>
      <trkpt lat="45.73002" lon="6.27022">
        <ele>1252.9323</ele>
        <time>2013-08-11T09:58:31Z</time>
      </trkpt>
      <trkpt lat="45.73007" lon="6.27023">
        <ele>1252.9628</ele>
        <time>2013-08-11T09:58:36Z</time>
      </trkpt>
      <trkpt lat="45.73015" lon="6.27024">
        <ele>1252.9628</ele>
        <time>2013-08-11T09:58:41Z</time>
      </trkpt>
      <trkpt lat="45.73022" lon="6.27024">
        <ele>1252.9744</ele>
        <time>2013-08-11T09:58:46Z</time>
      </trkpt>
      <trkpt lat="45.73028" lon="6.27028">
        <ele>1252.9744</ele>
        <time>2013-08-11T09:58:51Z</time>
      </trkpt>
      <trkpt lat="45.73032" lon="6.27029">
        <ele>1253.0532</ele>
        <time>2013-08-11T09:58:58Z</time>
      </trkpt>
      <trkpt lat="45.73042" lon="6.27024">
        <ele>1253.1777</ele>
        <time>2013-08-11T09:59:06Z</time>
      </trkpt>
      <trkpt lat="45.73047" lon="6.2702">
        <ele>1253.1777</ele>
        <time>2013-08-11T09:59:11Z</time>
      </trkpt>
      <trkpt lat="45.73048" lon="6.27021">
        <ele>1253.1777</ele>
        <time>2013-08-11T09:59:17Z</time>
      </trkpt>
      <trkpt lat="45.73053" lon="6.27026">
        <ele>1252.5067</ele>
        <time>2013-08-11T09:59:21Z</time>
      </trkpt>
      <trkpt lat="45.73059" lon="6.27027">
        <ele>1252.5067</ele>
        <time>2013-08-11T09:59:26Z</time>
      </trkpt>
      <trkpt lat="45.73066" lon="6.27025">
        <ele>1251.3866</ele>
        <time>2013-08-11T09:59:33Z</time>
      </trkpt>
      <trkpt lat="45.73067" lon="6.27024">
        <ele>1251.3866</ele>
        <time>2013-08-11T09:59:36Z</time>
      </trkpt>
      <trkpt lat="45.73068" lon="6.27024">
        <ele>1251.3866</ele>
        <time>2013-08-11T09:59:41Z</time>
      </trkpt>
      <trkpt lat="45.73069" lon="6.27024">
        <ele>1251.3866</ele>
        <time>2013-08-11T09:59:48Z</time>
      </trkpt>
      <trkpt lat="45.73075" lon="6.27026">
        <ele>1251.3866</ele>
        <time>2013-08-11T09:59:51Z</time>
      </trkpt>
      <trkpt lat="45.73083" lon="6.27031">
        <ele>1250.2117</ele>
        <time>2013-08-11T09:59:56Z</time>
      </trkpt>
      <trkpt lat="45.73087" lon="6.27033">
        <ele>1250.2117</ele>
        <time>2013-08-11T10:00:02Z</time>
      </trkpt>
      <trkpt lat="45.73095" lon="6.27034">
        <ele>1248.3674</ele>
        <time>2013-08-11T10:00:06Z</time>
      </trkpt>
      <trkpt lat="45.73103" lon="6.27031">
        <ele>1248.3674</ele>
        <time>2013-08-11T10:00:11Z</time>
      </trkpt>
      <trkpt lat="45.73109" lon="6.27029">
        <ele>1245.9635</ele>
        <time>2013-08-11T10:00:17Z</time>
      </trkpt>
      <trkpt lat="45.73115" lon="6.27028">
        <ele>1245.9635</ele>
        <time>2013-08-11T10:00:21Z</time>
      </trkpt>
      <trkpt lat="45.73121" lon="6.27026">
        <ele>1242.7285</ele>
        <time>2013-08-11T10:00:26Z</time>
      </trkpt>
      <trkpt lat="45.7312" lon="6.27023">
        <ele>1242.7285</ele>
        <time>2013-08-11T10:00:32Z</time>
      </trkpt>
      <trkpt lat="45.7312" lon="6.27021">
        <ele>1242.7285</ele>
        <time>2013-08-11T10:00:36Z</time>
      </trkpt>
      <trkpt lat="45.7312" lon="6.27021">
        <ele>1242.7285</ele>
        <time>2013-08-11T10:00:41Z</time>
      </trkpt>
      <trkpt lat="45.73119" lon="6.27021">
        <ele>1242.7285</ele>
        <time>2013-08-11T10:00:48Z</time>
      </trkpt>
      <trkpt lat="45.73119" lon="6.27022">
        <ele>1242.7285</ele>
        <time>2013-08-11T10:00:51Z</time>
      </trkpt>
      <trkpt lat="45.73119" lon="6.27022">
        <ele>1242.7285</ele>
        <time>2013-08-11T10:00:56Z</time>
      </trkpt>
      <trkpt lat="45.73119" lon="6.27022">
        <ele>1242.7285</ele>
        <time>2013-08-11T10:01:03Z</time>
      </trkpt>
      <trkpt lat="45.73119" lon="6.27022">
        <ele>1242.7285</ele>
        <time>2013-08-11T10:01:06Z</time>
      </trkpt>
      <trkpt lat="45.73119" lon="6.27022">
        <ele>1242.7285</ele>
        <time>2013-08-11T10:01:11Z</time>
      </trkpt>
      <trkpt lat="45.73119" lon="6.27022">
        <ele>1242.7285</ele>
        <time>2013-08-11T10:01:18Z</time>
      </trkpt>
      <trkpt lat="45.73119" lon="6.27022">
        <ele>1242.7285</ele>
        <time>2013-08-11T10:01:21Z</time>
      </trkpt>
      <trkpt lat="45.73119" lon="6.27022">
        <ele>1242.7285</ele>
        <time>2013-08-11T10:01:26Z</time>
      </trkpt>
      <trkpt lat="45.73119" lon="6.27022">
        <ele>1242.7285</ele>
        <time>2013-08-11T10:01:32Z</time>
      </trkpt>
      <trkpt lat="45.73119" lon="6.27022">
        <ele>1242.7285</ele>
        <time>2013-08-11T10:01:36Z</time>
      </trkpt>
      <trkpt lat="45.73119" lon="6.27022">
        <ele>1242.7285</ele>
        <time>2013-08-11T10:01:41Z</time>
      </trkpt>
      <trkpt lat="45.73119" lon="6.27022">
        <ele>1242.7285</ele>
        <time>2013-08-11T10:01:47Z</time>
      </trkpt>
      <trkpt lat="45.73119" lon="6.27022">
        <ele>1242.7285</ele>
        <time>2013-08-11T10:01:51Z</time>
      </trkpt>
      <trkpt lat="45.73119" lon="6.27022">
        <ele>1242.7285</ele>
        <time>2013-08-11T10:01:56Z</time>
      </trkpt>
      <trkpt lat="45.73119" lon="6.27022">
        <ele>1242.7285</ele>
        <time>2013-08-11T10:02:02Z</time>
      </trkpt>
      <trkpt lat="45.7312" lon="6.27021">
        <ele>1242.7285</ele>
        <time>2013-08-11T10:02:06Z</time>
      </trkpt>
      <trkpt lat="45.73125" lon="6.2702">
        <ele>1239.0328</ele>
        <time>2013-08-11T10:02:11Z</time>
      </trkpt>
      <trkpt lat="45.73132" lon="6.27016">
        <ele>1239.0328</ele>
        <time>2013-08-11T10:02:17Z</time>
      </trkpt>
      <trkpt lat="45.73144" lon="6.27016">
        <ele>1235.9412</ele>
        <time>2013-08-11T10:02:21Z</time>
      </trkpt>
      <trkpt lat="45.73149" lon="6.27011">
        <ele>1235.9412</ele>
        <time>2013-08-11T10:02:26Z</time>
      </trkpt>
      <trkpt lat="45.73153" lon="6.27009">
        <ele>1234.1646</ele>
        <time>2013-08-11T10:02:31Z</time>
      </trkpt>
      <trkpt lat="45.73162" lon="6.27008">
        <ele>1232.283</ele>
        <time>2013-08-11T10:02:36Z</time>
      </trkpt>
      <trkpt lat="45.73167" lon="6.27008">
        <ele>1232.283</ele>
        <time>2013-08-11T10:02:42Z</time>
      </trkpt>
      <trkpt lat="45.73174" lon="6.27007">
        <ele>1229.211</ele>
        <time>2013-08-11T10:02:46Z</time>
      </trkpt>
      <trkpt lat="45.73178" lon="6.27009">
        <ele>1229.211</ele>
        <time>2013-08-11T10:02:51Z</time>
      </trkpt>
      <trkpt lat="45.73178" lon="6.2701">
        <ele>1229.211</ele>
        <time>2013-08-11T10:02:58Z</time>
      </trkpt>
      <trkpt lat="45.7318" lon="6.27018">
        <ele>1226.238</ele>
        <time>2013-08-11T10:03:01Z</time>
      </trkpt>
      <trkpt lat="45.7318" lon="6.27023">
        <ele>1226.238</ele>
        <time>2013-08-11T10:03:06Z</time>
      </trkpt>
      <trkpt lat="45.73182" lon="6.27024">
        <ele>1226.238</ele>
        <time>2013-08-11T10:03:12Z</time>
      </trkpt>
      <trkpt lat="45.73188" lon="6.27032">
        <ele>1223.8951</ele>
        <time>2013-08-11T10:03:16Z</time>
      </trkpt>
      <trkpt lat="45.73192" lon="6.27034">
        <ele>1223.8951</ele>
        <time>2013-08-11T10:03:21Z</time>
      </trkpt>
      <trkpt lat="45.73192" lon="6.27035">
        <ele>1223.8951</ele>
        <time>2013-08-11T10:03:28Z</time>
      </trkpt>
      <trkpt lat="45.73199" lon="6.27053">
        <ele>1222.4564</ele>
        <time>2013-08-11T10:03:36Z</time>
      </trkpt>
      <trkpt lat="45.73205" lon="6.2706">
        <ele>1222.4564</ele>
        <time>2013-08-11T10:03:41Z</time>
      </trkpt>
      <trkpt lat="45.73216" lon="6.27071">
        <ele>1220.8472</ele>
        <time>2013-08-11T10:03:51Z</time>
      </trkpt>
      <trkpt lat="45.7322" lon="6.27075">
        <ele>1220.8472</ele>
        <time>2013-08-11T10:03:56Z</time>
      </trkpt>
      <trkpt lat="45.73223" lon="6.27075">
        <ele>1220.8472</ele>
        <time>2013-08-11T10:04:01Z</time>
      </trkpt>
      <trkpt lat="45.73228" lon="6.27072">
        <ele>1219.2107</ele>
        <time>2013-08-11T10:04:06Z</time>
      </trkpt>
      <trkpt lat="45.73232" lon="6.27074">
        <ele>1219.2107</ele>
        <time>2013-08-11T10:04:11Z</time>
      </trkpt>
      <trkpt lat="45.73233" lon="6.27073">
        <ele>1219.2107</ele>
        <time>2013-08-11T10:04:17Z</time>
      </trkpt>
      <trkpt lat="45.73235" lon="6.27074">
        <ele>1219.2107</ele>
        <time>2013-08-11T10:04:21Z</time>
      </trkpt>
      <trkpt lat="45.73238" lon="6.27073">
        <ele>1218.4867</ele>
        <time>2013-08-11T10:04:26Z</time>
      </trkpt>
      <trkpt lat="45.73243" lon="6.27074">
        <ele>1218.4867</ele>
        <time>2013-08-11T10:04:32Z</time>
      </trkpt>
      <trkpt lat="45.73253" lon="6.27075">
        <ele>1218.664</ele>
        <time>2013-08-11T10:04:36Z</time>
      </trkpt>
      <trkpt lat="45.73261" lon="6.27074">
        <ele>1218.664</ele>
        <time>2013-08-11T10:04:41Z</time>
      </trkpt>
      <trkpt lat="45.7327" lon="6.27072">
        <ele>1218.8074</ele>
        <time>2013-08-11T10:04:46Z</time>
      </trkpt>
      <trkpt lat="45.73278" lon="6.27073">
        <ele>1218.8074</ele>
        <time>2013-08-11T10:04:52Z</time>
      </trkpt>
      <trkpt lat="45.73282" lon="6.27077">
        <ele>1219.2465</ele>
        <time>2013-08-11T10:04:56Z</time>
      </trkpt>
      <trkpt lat="45.73288" lon="6.27075">
        <ele>1219.2465</ele>
        <time>2013-08-11T10:05:02Z</time>
      </trkpt>
      <trkpt lat="45.73291" lon="6.27075">
        <ele>1219.4789</ele>
        <time>2013-08-11T10:05:06Z</time>
      </trkpt>
      <trkpt lat="45.73295" lon="6.27074">
        <ele>1219.4789</ele>
        <time>2013-08-11T10:05:11Z</time>
      </trkpt>
      <trkpt lat="45.73297" lon="6.27072">
        <ele>1219.4789</ele>
        <time>2013-08-11T10:05:16Z</time>
      </trkpt>
      <trkpt lat="45.73297" lon="6.27072">
        <ele>1219.4789</ele>
        <time>2013-08-11T10:05:22Z</time>
      </trkpt>
      <trkpt lat="45.733" lon="6.27073">
        <ele>1219.7023</ele>
        <time>2013-08-11T10:05:26Z</time>
      </trkpt>
      <trkpt lat="45.73304" lon="6.27066">
        <ele>1219.7023</ele>
        <time>2013-08-11T10:05:31Z</time>
      </trkpt>
      <trkpt lat="45.73305" lon="6.27064">
        <ele>1219.7023</ele>
        <time>2013-08-11T10:05:37Z</time>
      </trkpt>
      <trkpt lat="45.73306" lon="6.27064">
        <ele>1219.8551</ele>
        <time>2013-08-11T10:05:41Z</time>
      </trkpt>
      <trkpt lat="45.73306" lon="6.27064">
        <ele>1219.8551</ele>
        <time>2013-08-11T10:05:46Z</time>
      </trkpt>
      <trkpt lat="45.73306" lon="6.27065">
        <ele>1219.8551</ele>
        <time>2013-08-11T10:05:53Z</time>
      </trkpt>
      <trkpt lat="45.73306" lon="6.27065">
        <ele>1219.8551</ele>
        <time>2013-08-11T10:06:01Z</time>
      </trkpt>
      <trkpt lat="45.73306" lon="6.27065">
        <ele>1219.8551</ele>
        <time>2013-08-11T10:06:06Z</time>
      </trkpt>
      <trkpt lat="45.73318" lon="6.2707">
        <ele>1219.5632</ele>
        <time>2013-08-11T10:06:11Z</time>
      </trkpt>
      <trkpt lat="45.73333" lon="6.27083">
        <ele>1219.0149</ele>
        <time>2013-08-11T10:06:16Z</time>
      </trkpt>
      <trkpt lat="45.73341" lon="6.27091">
        <ele>1218.2118</ele>
        <time>2013-08-11T10:06:22Z</time>
      </trkpt>
      <trkpt lat="45.7335" lon="6.27093">
        <ele>1218.2118</ele>
        <time>2013-08-11T10:06:31Z</time>
      </trkpt>
      <trkpt lat="45.73353" lon="6.2709">
        <ele>1217.3871</ele>
        <time>2013-08-11T10:06:36Z</time>
      </trkpt>
      <trkpt lat="45.7336" lon="6.2709">
        <ele>1217.3871</ele>
        <time>2013-08-11T10:06:41Z</time>
      </trkpt>
      <trkpt lat="45.73365" lon="6.27093">
        <ele>1216.4542</ele>
        <time>2013-08-11T10:06:47Z</time>
      </trkpt>
      <trkpt lat="45.73367" lon="6.27094">
        <ele>1216.4542</ele>
        <time>2013-08-11T10:06:51Z</time>
      </trkpt>
      <trkpt lat="45.73374" lon="6.27092">
        <ele>1216.4542</ele>
        <time>2013-08-11T10:06:57Z</time>
      </trkpt>
      <trkpt lat="45.73379" lon="6.27092">
        <ele>1215.7368</ele>
        <time>2013-08-11T10:07:01Z</time>
      </trkpt>
      <trkpt lat="45.73384" lon="6.2709">
        <ele>1215.7368</ele>
        <time>2013-08-11T10:07:06Z</time>
      </trkpt>
      <trkpt lat="45.73386" lon="6.2709">
        <ele>1215.7368</ele>
        <time>2013-08-11T10:07:12Z</time>
      </trkpt>
      <trkpt lat="45.73391" lon="6.27092">
        <ele>1215.0299</ele>
        <time>2013-08-11T10:07:16Z</time>
      </trkpt>
      <trkpt lat="45.73397" lon="6.27091">
        <ele>1215.0299</ele>
        <time>2013-08-11T10:07:21Z</time>
      </trkpt>
      <trkpt lat="45.73398" lon="6.27091">
        <ele>1215.0299</ele>
        <time>2013-08-11T10:07:27Z</time>
      </trkpt>
      <trkpt lat="45.73405" lon="6.27093">
        <ele>1214.3019</ele>
        <time>2013-08-11T10:07:31Z</time>
      </trkpt>
      <trkpt lat="45.73416" lon="6.27084">
        <ele>1213.2931</ele>
        <time>2013-08-11T10:07:36Z</time>
      </trkpt>
      <trkpt lat="45.73418" lon="6.27085">
        <ele>1213.2931</ele>
        <time>2013-08-11T10:07:41Z</time>
      </trkpt>
      <trkpt lat="45.73419" lon="6.27086">
        <ele>1213.2931</ele>
        <time>2013-08-11T10:07:46Z</time>
      </trkpt>
      <trkpt lat="45.73419" lon="6.27087">
        <ele>1213.2931</ele>
        <time>2013-08-11T10:07:51Z</time>
      </trkpt>
      <trkpt lat="45.73419" lon="6.27087">
        <ele>1213.2931</ele>
        <time>2013-08-11T10:07:56Z</time>
      </trkpt>
      <trkpt lat="45.73419" lon="6.27087">
        <ele>1213.2931</ele>
        <time>2013-08-11T10:08:01Z</time>
      </trkpt>
      <trkpt lat="45.73421" lon="6.27095">
        <ele>1212.6862</ele>
        <time>2013-08-11T10:08:06Z</time>
      </trkpt>
      <trkpt lat="45.73427" lon="6.27096">
        <ele>1212.6862</ele>
        <time>2013-08-11T10:08:11Z</time>
      </trkpt>
      <trkpt lat="45.73428" lon="6.27097">
        <ele>1212.6862</ele>
        <time>2013-08-11T10:08:16Z</time>
      </trkpt>
      <trkpt lat="45.73429" lon="6.27098">
        <ele>1212.6862</ele>
        <time>2013-08-11T10:08:21Z</time>
      </trkpt>
      <trkpt lat="45.73429" lon="6.27099">
        <ele>1211.6423</ele>
        <time>2013-08-11T10:08:26Z</time>
      </trkpt>
      <trkpt lat="45.73429" lon="6.27099">
        <ele>1211.6423</ele>
        <time>2013-08-11T10:08:31Z</time>
      </trkpt>
      <trkpt lat="45.73429" lon="6.27099">
        <ele>1211.6423</ele>
        <time>2013-08-11T10:08:36Z</time>
      </trkpt>
      <trkpt lat="45.73429" lon="6.27099">
        <ele>1211.6423</ele>
        <time>2013-08-11T10:08:41Z</time>
      </trkpt>
      <trkpt lat="45.73429" lon="6.27099">
        <ele>1211.6423</ele>
        <time>2013-08-11T10:08:46Z</time>
      </trkpt>
      <trkpt lat="45.73429" lon="6.27099">
        <ele>1211.6423</ele>
        <time>2013-08-11T10:08:51Z</time>
      </trkpt>
      <trkpt lat="45.73429" lon="6.27099">
        <ele>1211.6423</ele>
        <time>2013-08-11T10:08:56Z</time>
      </trkpt>
      <trkpt lat="45.73429" lon="6.27099">
        <ele>1211.6423</ele>
        <time>2013-08-11T10:09:01Z</time>
      </trkpt>
      <trkpt lat="45.73429" lon="6.27099">
        <ele>1211.6423</ele>
        <time>2013-08-11T10:09:06Z</time>
      </trkpt>
      <trkpt lat="45.7343" lon="6.271">
        <ele>1211.6423</ele>
        <time>2013-08-11T10:09:11Z</time>
      </trkpt>
      <trkpt lat="45.73433" lon="6.27108">
        <ele>1211.6423</ele>
        <time>2013-08-11T10:09:16Z</time>
      </trkpt>
      <trkpt lat="45.73436" lon="6.27121">
        <ele>1210.438</ele>
        <time>2013-08-11T10:09:21Z</time>
      </trkpt>
      <trkpt lat="45.73438" lon="6.27133">
        <ele>1210.438</ele>
        <time>2013-08-11T10:09:26Z</time>
      </trkpt>
      <trkpt lat="45.73444" lon="6.27143">
        <ele>1208.8252</ele>
        <time>2013-08-11T10:09:31Z</time>
      </trkpt>
      <trkpt lat="45.73446" lon="6.27151">
        <ele>1208.8252</ele>
        <time>2013-08-11T10:09:36Z</time>
      </trkpt>
      <trkpt lat="45.73447" lon="6.27154">
        <ele>1208.8252</ele>
        <time>2013-08-11T10:09:41Z</time>
      </trkpt>
      <trkpt lat="45.73448" lon="6.27157">
        <ele>1207.4545</ele>
        <time>2013-08-11T10:09:46Z</time>
      </trkpt>
      <trkpt lat="45.73445" lon="6.27159">
        <ele>1207.4545</ele>
        <time>2013-08-11T10:09:51Z</time>
      </trkpt>
      <trkpt lat="45.73444" lon="6.27157">
        <ele>1207.4545</ele>
        <time>2013-08-11T10:09:56Z</time>
      </trkpt>
      <trkpt lat="45.73443" lon="6.27156">
        <ele>1207.4545</ele>
        <time>2013-08-11T10:10:01Z</time>
      </trkpt>
      <trkpt lat="45.73443" lon="6.27156">
        <ele>1207.4545</ele>
        <time>2013-08-11T10:10:06Z</time>
      </trkpt>
      <trkpt lat="45.73443" lon="6.27156">
        <ele>1207.4545</ele>
        <time>2013-08-11T10:10:11Z</time>
      </trkpt>
      <trkpt lat="45.73443" lon="6.27156">
        <ele>1207.4545</ele>
        <time>2013-08-11T10:10:16Z</time>
      </trkpt>
      <trkpt lat="45.73443" lon="6.27156">
        <ele>1207.4545</ele>
        <time>2013-08-11T10:10:21Z</time>
      </trkpt>
      <trkpt lat="45.73443" lon="6.27156">
        <ele>1207.4545</ele>
        <time>2013-08-11T10:10:26Z</time>
      </trkpt>
      <trkpt lat="45.73445" lon="6.27161">
        <ele>1205.7606</ele>
        <time>2013-08-11T10:10:31Z</time>
      </trkpt>
      <trkpt lat="45.73449" lon="6.2717">
        <ele>1205.7606</ele>
        <time>2013-08-11T10:10:36Z</time>
      </trkpt>
      <trkpt lat="45.73452" lon="6.27178">
        <ele>1204.7631</ele>
        <time>2013-08-11T10:10:41Z</time>
      </trkpt>
      <trkpt lat="45.73451" lon="6.27187">
        <ele>1204.7631</ele>
        <time>2013-08-11T10:10:46Z</time>
      </trkpt>
      <trkpt lat="45.73448" lon="6.27193">
        <ele>1203.8477</ele>
        <time>2013-08-11T10:10:51Z</time>
      </trkpt>
      <trkpt lat="45.73446" lon="6.27198">
        <ele>1203.8477</ele>
        <time>2013-08-11T10:10:56Z</time>
      </trkpt>
      <trkpt lat="45.73445" lon="6.27201">
        <ele>1203.8477</ele>
        <time>2013-08-11T10:11:01Z</time>
      </trkpt>
      <trkpt lat="45.73444" lon="6.27204">
        <ele>1203.9442</ele>
        <time>2013-08-11T10:11:06Z</time>
      </trkpt>
      <trkpt lat="45.73443" lon="6.27205">
        <ele>1203.9442</ele>
        <time>2013-08-11T10:11:11Z</time>
      </trkpt>
      <trkpt lat="45.73443" lon="6.27205">
        <ele>1203.9442</ele>
        <time>2013-08-11T10:11:16Z</time>
      </trkpt>
      <trkpt lat="45.73443" lon="6.27208">
        <ele>1203.9442</ele>
        <time>2013-08-11T10:11:21Z</time>
      </trkpt>
      <trkpt lat="45.73437" lon="6.27223">
        <ele>1204.8594</ele>
        <time>2013-08-11T10:11:26Z</time>
      </trkpt>
      <trkpt lat="45.73436" lon="6.27225">
        <ele>1204.8594</ele>
        <time>2013-08-11T10:11:31Z</time>
      </trkpt>
      <trkpt lat="45.73436" lon="6.27225">
        <ele>1204.8594</ele>
        <time>2013-08-11T10:11:36Z</time>
      </trkpt>
      <trkpt lat="45.73437" lon="6.27226">
        <ele>1204.8594</ele>
        <time>2013-08-11T10:11:41Z</time>
      </trkpt>
      <trkpt lat="45.73436" lon="6.27227">
        <ele>1204.8594</ele>
        <time>2013-08-11T10:11:46Z</time>
      </trkpt>
      <trkpt lat="45.73436" lon="6.27227">
        <ele>1204.8594</ele>
        <time>2013-08-11T10:11:51Z</time>
      </trkpt>
      <trkpt lat="45.73436" lon="6.27227">
        <ele>1204.8594</ele>
        <time>2013-08-11T10:11:56Z</time>
      </trkpt>
      <trkpt lat="45.73436" lon="6.27228">
        <ele>1218.6</ele>
        <time>2013-08-11T10:12:32Z</time>
      </trkpt>
      <trkpt lat="45.73436" lon="6.27228">
        <ele>1218.6</ele>
        <time>2013-08-11T10:12:37Z</time>
      </trkpt>
      <trkpt lat="45.73436" lon="6.27228">
        <ele>1218.6</ele>
        <time>2013-08-11T10:12:42Z</time>
      </trkpt>
      <trkpt lat="45.73436" lon="6.27227">
        <ele>1218.6</ele>
        <time>2013-08-11T10:12:47Z</time>
      </trkpt>
      <trkpt lat="45.73436" lon="6.27227">
        <ele>1218.6</ele>
        <time>2013-08-11T10:12:52Z</time>
      </trkpt>
      <trkpt lat="45.73436" lon="6.27227">
        <ele>1218.6</ele>
        <time>2013-08-11T10:12:57Z</time>
      </trkpt>
      <trkpt lat="45.73436" lon="6.27227">
        <ele>1218.6</ele>
        <time>2013-08-11T10:13:02Z</time>
      </trkpt>
      <trkpt lat="45.73436" lon="6.27227">
        <ele>1218.6</ele>
        <time>2013-08-11T10:13:07Z</time>
      </trkpt>
      <trkpt lat="45.73436" lon="6.27227">
        <ele>1218.6</ele>
        <time>2013-08-11T10:13:12Z</time>
      </trkpt>
      <trkpt lat="45.73436" lon="6.27228">
        <ele>1218.6</ele>
        <time>2013-08-11T10:13:17Z</time>
      </trkpt>
      <trkpt lat="45.73436" lon="6.27228">
        <ele>1218.6</ele>
        <time>2013-08-11T10:13:22Z</time>
      </trkpt>
      <trkpt lat="45.73436" lon="6.27228">
        <ele>1218.6</ele>
        <time>2013-08-11T10:13:27Z</time>
      </trkpt>
      <trkpt lat="45.73436" lon="6.27228">
        <ele>1218.6</ele>
        <time>2013-08-11T10:13:32Z</time>
      </trkpt>
      <trkpt lat="45.73436" lon="6.27228">
        <ele>1218.6</ele>
        <time>2013-08-11T10:13:37Z</time>
      </trkpt>
      <trkpt lat="45.73436" lon="6.27228">
        <ele>1218.6</ele>
        <time>2013-08-11T10:13:52Z</time>
      </trkpt>
      <trkpt lat="45.73436" lon="6.27228">
        <ele>1218.6</ele>
        <time>2013-08-11T10:13:57Z</time>
      </trkpt>
      <trkpt lat="45.73436" lon="6.27228">
        <ele>1218.6</ele>
        <time>2013-08-11T10:14:02Z</time>
      </trkpt>
      <trkpt lat="45.73436" lon="6.27228">
        <ele>1218.6</ele>
        <time>2013-08-11T10:14:07Z</time>
      </trkpt>
      <trkpt lat="45.73436" lon="6.27228">
        <ele>1218.6</ele>
        <time>2013-08-11T10:14:12Z</time>
      </trkpt>
      <trkpt lat="45.73436" lon="6.27228">
        <ele>1218.6</ele>
        <time>2013-08-11T10:14:17Z</time>
      </trkpt>
      <trkpt lat="45.73436" lon="6.27228">
        <ele>1218.6</ele>
        <time>2013-08-11T10:14:22Z</time>
      </trkpt>
      <trkpt lat="45.73436" lon="6.27228">
        <ele>1218.6</ele>
        <time>2013-08-11T10:14:27Z</time>
      </trkpt>
      <trkpt lat="45.73436" lon="6.27228">
        <ele>1218.6</ele>
        <time>2013-08-11T10:14:32Z</time>
      </trkpt>
      <trkpt lat="45.73436" lon="6.27228">
        <ele>1218.6</ele>
        <time>2013-08-11T10:14:37Z</time>
      </trkpt>
      <trkpt lat="45.73436" lon="6.27228">
        <ele>1218.6</ele>
        <time>2013-08-11T10:14:42Z</time>
      </trkpt>
      <trkpt lat="45.73436" lon="6.27228">
        <ele>1218.6</ele>
        <time>2013-08-11T10:14:47Z</time>
      </trkpt>
      <trkpt lat="45.73436" lon="6.27228">
        <ele>1218.6</ele>
        <time>2013-08-11T10:14:52Z</time>
      </trkpt>
      <trkpt lat="45.73436" lon="6.27228">
        <ele>1218.6</ele>
        <time>2013-08-11T10:14:57Z</time>
      </trkpt>
      <trkpt lat="45.73436" lon="6.27228">
        <ele>1218.6</ele>
        <time>2013-08-11T10:15:02Z</time>
      </trkpt>
      <trkpt lat="45.73436" lon="6.27228">
        <ele>1218.6</ele>
        <time>2013-08-11T10:15:07Z</time>
      </trkpt>
      <trkpt lat="45.73436" lon="6.27228">
        <ele>1218.6</ele>
        <time>2013-08-11T10:15:52Z</time>
      </trkpt>
      <trkpt lat="45.73436" lon="6.27228">
        <ele>1218.6</ele>
        <time>2013-08-11T10:15:57Z</time>
      </trkpt>
      <trkpt lat="45.73436" lon="6.27229">
        <ele>1218.6</ele>
        <time>2013-08-11T10:16:02Z</time>
      </trkpt>
      <trkpt lat="45.73436" lon="6.27229">
        <ele>1218.6</ele>
        <time>2013-08-11T10:16:07Z</time>
      </trkpt>
      <trkpt lat="45.73436" lon="6.27229">
        <ele>1218.6</ele>
        <time>2013-08-11T10:16:12Z</time>
      </trkpt>
      <trkpt lat="45.73436" lon="6.27229">
        <ele>1218.6</ele>
        <time>2013-08-11T10:16:17Z</time>
      </trkpt>
      <trkpt lat="45.73436" lon="6.27229">
        <ele>1218.6</ele>
        <time>2013-08-11T10:16:22Z</time>
      </trkpt>
      <trkpt lat="45.73436" lon="6.27229">
        <ele>1218.6</ele>
        <time>2013-08-11T10:16:27Z</time>
      </trkpt>
      <trkpt lat="45.73436" lon="6.27229">
        <ele>1218.6</ele>
        <time>2013-08-11T10:16:32Z</time>
      </trkpt>
      <trkpt lat="45.73436" lon="6.27229">
        <ele>1218.6</ele>
        <time>2013-08-11T10:16:37Z</time>
      </trkpt>
      <trkpt lat="45.73436" lon="6.27229">
        <ele>1218.6</ele>
        <time>2013-08-11T10:16:42Z</time>
      </trkpt>
      <trkpt lat="45.73436" lon="6.27229">
        <ele>1218.6</ele>
        <time>2013-08-11T10:16:47Z</time>
      </trkpt>
      <trkpt lat="45.73436" lon="6.27229">
        <ele>1218.6</ele>
        <time>2013-08-11T10:16:52Z</time>
      </trkpt>
      <trkpt lat="45.73436" lon="6.27229">
        <ele>1218.6</ele>
        <time>2013-08-11T10:16:57Z</time>
      </trkpt>
      <trkpt lat="45.73436" lon="6.27229">
        <ele>1218.6</ele>
        <time>2013-08-11T10:17:07Z</time>
      </trkpt>
      <trkpt lat="45.73436" lon="6.27229">
        <ele>1218.6</ele>
        <time>2013-08-11T10:17:12Z</time>
      </trkpt>
      <trkpt lat="45.73436" lon="6.27229">
        <ele>1218.6</ele>
        <time>2013-08-11T10:17:17Z</time>
      </trkpt>
      <trkpt lat="45.73436" lon="6.27229">
        <ele>1218.6</ele>
        <time>2013-08-11T10:17:22Z</time>
      </trkpt>
      <trkpt lat="45.73436" lon="6.27229">
        <ele>1218.6</ele>
        <time>2013-08-11T10:17:27Z</time>
      </trkpt>
      <trkpt lat="45.73436" lon="6.27229">
        <ele>1218.6</ele>
        <time>2013-08-11T10:17:32Z</time>
      </trkpt>
      <trkpt lat="45.73437" lon="6.27225">
        <ele>1218.6</ele>
        <time>2013-08-11T10:17:37Z</time>
      </trkpt>
      <trkpt lat="45.73438" lon="6.27213">
        <ele>1223.5638</ele>
        <time>2013-08-11T10:17:42Z</time>
      </trkpt>
      <trkpt lat="45.73438" lon="6.27202">
        <ele>1223.5638</ele>
        <time>2013-08-11T10:17:47Z</time>
      </trkpt>
      <trkpt lat="45.73441" lon="6.27193">
        <ele>1230.8607</ele>
        <time>2013-08-11T10:17:52Z</time>
      </trkpt>
      <trkpt lat="45.73442" lon="6.27186">
        <ele>1230.8607</ele>
        <time>2013-08-11T10:17:57Z</time>
      </trkpt>
      <trkpt lat="45.7344" lon="6.27178">
        <ele>1237.6165</ele>
        <time>2013-08-11T10:18:02Z</time>
      </trkpt>
      <trkpt lat="45.7344" lon="6.27173">
        <ele>1237.6165</ele>
        <time>2013-08-11T10:18:07Z</time>
      </trkpt>
      <trkpt lat="45.73442" lon="6.27172">
        <ele>1237.6165</ele>
        <time>2013-08-11T10:18:12Z</time>
      </trkpt>
      <trkpt lat="45.73443" lon="6.2717">
        <ele>1237.6165</ele>
        <time>2013-08-11T10:18:17Z</time>
      </trkpt>
      <trkpt lat="45.73445" lon="6.27166">
        <ele>1243.7344</ele>
        <time>2013-08-11T10:18:22Z</time>
      </trkpt>
      <trkpt lat="45.73445" lon="6.27156">
        <ele>1243.7344</ele>
        <time>2013-08-11T10:18:27Z</time>
      </trkpt>
      <trkpt lat="45.73445" lon="6.27143">
        <ele>1248.4578</ele>
        <time>2013-08-11T10:18:32Z</time>
      </trkpt>
      <trkpt lat="45.73442" lon="6.27132">
        <ele>1248.4578</ele>
        <time>2013-08-11T10:18:37Z</time>
      </trkpt>
      <trkpt lat="45.73441" lon="6.27122">
        <ele>1252.7413</ele>
        <time>2013-08-11T10:18:42Z</time>
      </trkpt>
      <trkpt lat="45.73439" lon="6.27114">
        <ele>1252.7413</ele>
        <time>2013-08-11T10:18:47Z</time>
      </trkpt>
      <trkpt lat="45.73439" lon="6.27105">
        <ele>1256.1846</ele>
        <time>2013-08-11T10:18:52Z</time>
      </trkpt>
      <trkpt lat="45.73438" lon="6.27097">
        <ele>1256.1846</ele>
        <time>2013-08-11T10:18:57Z</time>
      </trkpt>
      <trkpt lat="45.73438" lon="6.27085">
        <ele>1258.6381</ele>
        <time>2013-08-11T10:19:02Z</time>
      </trkpt>
      <trkpt lat="45.73434" lon="6.27081">
        <ele>1258.6381</ele>
        <time>2013-08-11T10:19:07Z</time>
      </trkpt>
      <trkpt lat="45.73428" lon="6.27075">
        <ele>1260.1405</ele>
        <time>2013-08-11T10:19:12Z</time>
      </trkpt>
      <trkpt lat="45.73427" lon="6.27069">
        <ele>1260.1405</ele>
        <time>2013-08-11T10:19:17Z</time>
      </trkpt>
      <trkpt lat="45.73425" lon="6.27062">
        <ele>1260.8889</ele>
        <time>2013-08-11T10:19:22Z</time>
      </trkpt>
      <trkpt lat="45.73418" lon="6.27054">
        <ele>1260.8889</ele>
        <time>2013-08-11T10:19:27Z</time>
      </trkpt>
      <trkpt lat="45.73414" lon="6.27051">
        <ele>1260.8378</ele>
        <time>2013-08-11T10:19:32Z</time>
      </trkpt>
      <trkpt lat="45.73409" lon="6.27048">
        <ele>1260.8378</ele>
        <time>2013-08-11T10:19:37Z</time>
      </trkpt>
      <trkpt lat="45.73405" lon="6.27048">
        <ele>1260.4095</ele>
        <time>2013-08-11T10:19:42Z</time>
      </trkpt>
      <trkpt lat="45.73398" lon="6.27049">
        <ele>1260.4095</ele>
        <time>2013-08-11T10:19:47Z</time>
      </trkpt>
      <trkpt lat="45.73393" lon="6.27044">
        <ele>1259.3651</ele>
        <time>2013-08-11T10:19:52Z</time>
      </trkpt>
      <trkpt lat="45.73388" lon="6.27043">
        <ele>1259.3651</ele>
        <time>2013-08-11T10:19:57Z</time>
      </trkpt>
      <trkpt lat="45.73385" lon="6.2704">
        <ele>1257.6901</ele>
        <time>2013-08-11T10:20:02Z</time>
      </trkpt>
      <trkpt lat="45.73382" lon="6.27035">
        <ele>1257.6901</ele>
        <time>2013-08-11T10:20:07Z</time>
      </trkpt>
      <trkpt lat="45.73378" lon="6.27031">
        <ele>1255.995</ele>
        <time>2013-08-11T10:20:12Z</time>
      </trkpt>
      <trkpt lat="45.73371" lon="6.27027">
        <ele>1255.995</ele>
        <time>2013-08-11T10:20:17Z</time>
      </trkpt>
      <trkpt lat="45.73368" lon="6.27021">
        <ele>1255.0543</ele>
        <time>2013-08-11T10:20:22Z</time>
      </trkpt>
      <trkpt lat="45.73365" lon="6.27014">
        <ele>1255.0543</ele>
        <time>2013-08-11T10:20:27Z</time>
      </trkpt>
      <trkpt lat="45.73362" lon="6.27008">
        <ele>1253.4963</ele>
        <time>2013-08-11T10:20:32Z</time>
      </trkpt>
      <trkpt lat="45.73359" lon="6.27">
        <ele>1253.4963</ele>
        <time>2013-08-11T10:20:37Z</time>
      </trkpt>
      <trkpt lat="45.73358" lon="6.26991">
        <ele>1252.0537</ele>
        <time>2013-08-11T10:20:42Z</time>
      </trkpt>
      <trkpt lat="45.73357" lon="6.26982">
        <ele>1252.0537</ele>
        <time>2013-08-11T10:20:47Z</time>
      </trkpt>
      <trkpt lat="45.73361" lon="6.26973">
        <ele>1250.5483</ele>
        <time>2013-08-11T10:20:52Z</time>
      </trkpt>
      <trkpt lat="45.73364" lon="6.26966">
        <ele>1250.5483</ele>
        <time>2013-08-11T10:20:57Z</time>
      </trkpt>
      <trkpt lat="45.73365" lon="6.26959">
        <ele>1249.0194</ele>
        <time>2013-08-11T10:21:02Z</time>
      </trkpt>
      <trkpt lat="45.73362" lon="6.26955">
        <ele>1249.0194</ele>
        <time>2013-08-11T10:21:07Z</time>
      </trkpt>
      <trkpt lat="45.73359" lon="6.26955">
        <ele>1249.0194</ele>
        <time>2013-08-11T10:21:12Z</time>
      </trkpt>
      <trkpt lat="45.73362" lon="6.26946">
        <ele>1247.1696</ele>
        <time>2013-08-11T10:21:17Z</time>
      </trkpt>
      <trkpt lat="45.73363" lon="6.26938">
        <ele>1247.1696</ele>
        <time>2013-08-11T10:21:22Z</time>
      </trkpt>
      <trkpt lat="45.73365" lon="6.26926">
        <ele>1244.9324</ele>
        <time>2013-08-11T10:21:27Z</time>
      </trkpt>
      <trkpt lat="45.73369" lon="6.26918">
        <ele>1244.9324</ele>
        <time>2013-08-11T10:21:32Z</time>
      </trkpt>
      <trkpt lat="45.73371" lon="6.26915">
        <ele>1242.6056</ele>
        <time>2013-08-11T10:21:37Z</time>
      </trkpt>
      <trkpt lat="45.73372" lon="6.26909">
        <ele>1242.6056</ele>
        <time>2013-08-11T10:21:42Z</time>
      </trkpt>
      <trkpt lat="45.73375" lon="6.2691">
        <ele>1242.6056</ele>
        <time>2013-08-11T10:21:47Z</time>
      </trkpt>
      <trkpt lat="45.7338" lon="6.26911">
        <ele>1240.4745</ele>
        <time>2013-08-11T10:21:52Z</time>
      </trkpt>
      <trkpt lat="45.73384" lon="6.26913">
        <ele>1240.4745</ele>
        <time>2013-08-11T10:21:57Z</time>
      </trkpt>
      <trkpt lat="45.73389" lon="6.26907">
        <ele>1238.3622</ele>
        <time>2013-08-11T10:22:02Z</time>
      </trkpt>
      <trkpt lat="45.73391" lon="6.26904">
        <ele>1238.3622</ele>
        <time>2013-08-11T10:22:07Z</time>
      </trkpt>
      <trkpt lat="45.7339" lon="6.269">
        <ele>1238.3622</ele>
        <time>2013-08-11T10:22:12Z</time>
      </trkpt>
      <trkpt lat="45.73389" lon="6.26892">
        <ele>1236.1395</ele>
        <time>2013-08-11T10:22:17Z</time>
      </trkpt>
      <trkpt lat="45.73391" lon="6.26887">
        <ele>1236.1395</ele>
        <time>2013-08-11T10:22:22Z</time>
      </trkpt>
      <trkpt lat="45.73392" lon="6.26885">
        <ele>1236.1395</ele>
        <time>2013-08-11T10:22:27Z</time>
      </trkpt>
      <trkpt lat="45.73393" lon="6.26886">
        <ele>1236.1395</ele>
        <time>2013-08-11T10:22:32Z</time>
      </trkpt>
      <trkpt lat="45.73393" lon="6.26886">
        <ele>1236.1395</ele>
        <time>2013-08-11T10:22:37Z</time>
      </trkpt>
      <trkpt lat="45.73392" lon="6.26886">
        <ele>1236.1395</ele>
        <time>2013-08-11T10:22:42Z</time>
      </trkpt>
      <trkpt lat="45.73391" lon="6.2689">
        <ele>1233.4613</ele>
        <time>2013-08-11T10:22:47Z</time>
      </trkpt>
      <trkpt lat="45.73389" lon="6.26893">
        <ele>1233.4613</ele>
        <time>2013-08-11T10:22:52Z</time>
      </trkpt>
      <trkpt lat="45.73388" lon="6.26893">
        <ele>1233.4613</ele>
        <time>2013-08-11T10:22:57Z</time>
      </trkpt>
      <trkpt lat="45.73389" lon="6.26887">
        <ele>1233.4613</ele>
        <time>2013-08-11T10:23:02Z</time>
      </trkpt>
      <trkpt lat="45.73389" lon="6.2688">
        <ele>1231.6975</ele>
        <time>2013-08-11T10:23:07Z</time>
      </trkpt>
      <trkpt lat="45.7339" lon="6.26873">
        <ele>1231.6975</ele>
        <time>2013-08-11T10:23:12Z</time>
      </trkpt>
      <trkpt lat="45.73389" lon="6.26866">
        <ele>1230.4258</ele>
        <time>2013-08-11T10:23:17Z</time>
      </trkpt>
      <trkpt lat="45.73389" lon="6.26859">
        <ele>1230.4258</ele>
        <time>2013-08-11T10:23:22Z</time>
      </trkpt>
      <trkpt lat="45.73389" lon="6.26854">
        <ele>1230.4258</ele>
        <time>2013-08-11T10:23:27Z</time>
      </trkpt>
      <trkpt lat="45.7339" lon="6.26851">
        <ele>1229.0992</ele>
        <time>2013-08-11T10:23:33Z</time>
      </trkpt>
      <trkpt lat="45.73394" lon="6.26846">
        <ele>1229.0992</ele>
        <time>2013-08-11T10:23:37Z</time>
      </trkpt>
      <trkpt lat="45.73394" lon="6.26846">
        <ele>1229.0992</ele>
        <time>2013-08-11T10:23:42Z</time>
      </trkpt>
      <trkpt lat="45.73395" lon="6.26846">
        <ele>1229.0992</ele>
        <time>2013-08-11T10:23:47Z</time>
      </trkpt>
      <trkpt lat="45.73395" lon="6.26846">
        <ele>1229.0992</ele>
        <time>2013-08-11T10:23:53Z</time>
      </trkpt>
      <trkpt lat="45.73395" lon="6.26846">
        <ele>1229.0992</ele>
        <time>2013-08-11T10:23:57Z</time>
      </trkpt>
      <trkpt lat="45.73394" lon="6.26846">
        <ele>1229.0992</ele>
        <time>2013-08-11T10:24:02Z</time>
      </trkpt>
      <trkpt lat="45.73394" lon="6.26851">
        <ele>1227.5403</ele>
        <time>2013-08-11T10:24:07Z</time>
      </trkpt>
      <trkpt lat="45.73392" lon="6.2686">
        <ele>1227.5403</ele>
        <time>2013-08-11T10:24:12Z</time>
      </trkpt>
      <trkpt lat="45.73393" lon="6.26867">
        <ele>1225.9741</ele>
        <time>2013-08-11T10:24:17Z</time>
      </trkpt>
      <trkpt lat="45.73394" lon="6.26873">
        <ele>1225.9741</ele>
        <time>2013-08-11T10:24:22Z</time>
      </trkpt>
      <trkpt lat="45.73395" lon="6.26873">
        <ele>1225.9741</ele>
        <time>2013-08-11T10:24:27Z</time>
      </trkpt>
      <trkpt lat="45.73394" lon="6.26874">
        <ele>1225.9741</ele>
        <time>2013-08-11T10:24:32Z</time>
      </trkpt>
      <trkpt lat="45.73394" lon="6.26877">
        <ele>1225.9741</ele>
        <time>2013-08-11T10:24:37Z</time>
      </trkpt>
      <trkpt lat="45.73392" lon="6.26878">
        <ele>1224.9286</ele>
        <time>2013-08-11T10:24:42Z</time>
      </trkpt>
      <trkpt lat="45.7339" lon="6.26876">
        <ele>1224.9286</ele>
        <time>2013-08-11T10:24:48Z</time>
      </trkpt>
      <trkpt lat="45.7339" lon="6.26879">
        <ele>1224.9286</ele>
        <time>2013-08-11T10:24:52Z</time>
      </trkpt>
      <trkpt lat="45.7339" lon="6.26881">
        <ele>1224.9286</ele>
        <time>2013-08-11T10:24:57Z</time>
      </trkpt>
      <trkpt lat="45.73389" lon="6.26883">
        <ele>1224.9286</ele>
        <time>2013-08-11T10:25:03Z</time>
      </trkpt>
      <trkpt lat="45.73387" lon="6.26892">
        <ele>1223.4371</ele>
        <time>2013-08-11T10:25:07Z</time>
      </trkpt>
      <trkpt lat="45.73386" lon="6.26899">
        <ele>1223.4371</ele>
        <time>2013-08-11T10:25:12Z</time>
      </trkpt>
      <trkpt lat="45.73385" lon="6.26901">
        <ele>1223.4371</ele>
        <time>2013-08-11T10:25:18Z</time>
      </trkpt>
      <trkpt lat="45.73376" lon="6.26905">
        <ele>1222.1311</ele>
        <time>2013-08-11T10:25:22Z</time>
      </trkpt>
      <trkpt lat="45.7337" lon="6.26904">
        <ele>1222.1311</ele>
        <time>2013-08-11T10:25:27Z</time>
      </trkpt>
      <trkpt lat="45.73363" lon="6.26905">
        <ele>1220.7356</ele>
        <time>2013-08-11T10:25:32Z</time>
      </trkpt>
      <trkpt lat="45.73356" lon="6.26917">
        <ele>1219.3872</ele>
        <time>2013-08-11T10:25:37Z</time>
      </trkpt>
      <trkpt lat="45.73353" lon="6.26925">
        <ele>1219.3872</ele>
        <time>2013-08-11T10:25:42Z</time>
      </trkpt>
      <trkpt lat="45.73351" lon="6.26935">
        <ele>1218.6558</ele>
        <time>2013-08-11T10:25:48Z</time>
      </trkpt>
      <trkpt lat="45.73343" lon="6.26936">
        <ele>1218.6558</ele>
        <time>2013-08-11T10:25:52Z</time>
      </trkpt>
      <trkpt lat="45.73335" lon="6.26935">
        <ele>1217.8822</ele>
        <time>2013-08-11T10:25:57Z</time>
      </trkpt>
      <trkpt lat="45.7333" lon="6.26937">
        <ele>1217.8822</ele>
        <time>2013-08-11T10:26:02Z</time>
      </trkpt>
      <trkpt lat="45.73323" lon="6.26937">
        <ele>1217.2028</ele>
        <time>2013-08-11T10:26:07Z</time>
      </trkpt>
      <trkpt lat="45.73314" lon="6.26945">
        <ele>1216.8048</ele>
        <time>2013-08-11T10:26:12Z</time>
      </trkpt>
      <trkpt lat="45.73308" lon="6.26949">
        <ele>1216.8048</ele>
        <time>2013-08-11T10:26:17Z</time>
      </trkpt>
      <trkpt lat="45.73305" lon="6.26949">
        <ele>1216.8068</ele>
        <time>2013-08-11T10:26:23Z</time>
      </trkpt>
      <trkpt lat="45.73298" lon="6.26947">
        <ele>1216.8068</ele>
        <time>2013-08-11T10:26:27Z</time>
      </trkpt>
      <trkpt lat="45.7329" lon="6.2695">
        <ele>1217.5387</ele>
        <time>2013-08-11T10:26:32Z</time>
      </trkpt>
      <trkpt lat="45.73283" lon="6.26955">
        <ele>1217.5387</ele>
        <time>2013-08-11T10:26:38Z</time>
      </trkpt>
      <trkpt lat="45.73283" lon="6.26956">
        <ele>1217.5387</ele>
        <time>2013-08-11T10:26:42Z</time>
      </trkpt>
      <trkpt lat="45.73283" lon="6.26957">
        <ele>1218.749</ele>
        <time>2013-08-11T10:26:47Z</time>
      </trkpt>
      <trkpt lat="45.73282" lon="6.26957">
        <ele>1218.749</ele>
        <time>2013-08-11T10:26:52Z</time>
      </trkpt>
      <trkpt lat="45.73282" lon="6.26957">
        <ele>1218.749</ele>
        <time>2013-08-11T10:26:57Z</time>
      </trkpt>
      <trkpt lat="45.73282" lon="6.26956">
        <ele>1218.749</ele>
        <time>2013-08-11T10:27:02Z</time>
      </trkpt>
      <trkpt lat="45.73279" lon="6.26958">
        <ele>1218.749</ele>
        <time>2013-08-11T10:27:07Z</time>
      </trkpt>
      <trkpt lat="45.73273" lon="6.26958">
        <ele>1219.8849</ele>
        <time>2013-08-11T10:27:12Z</time>
      </trkpt>
      <trkpt lat="45.73267" lon="6.26963">
        <ele>1219.8849</ele>
        <time>2013-08-11T10:27:17Z</time>
      </trkpt>
      <trkpt lat="45.73265" lon="6.26968">
        <ele>1221.2148</ele>
        <time>2013-08-11T10:27:22Z</time>
      </trkpt>
      <trkpt lat="45.7326" lon="6.26972">
        <ele>1221.2148</ele>
        <time>2013-08-11T10:27:27Z</time>
      </trkpt>
      <trkpt lat="45.73252" lon="6.26971">
        <ele>1221.9885</ele>
        <time>2013-08-11T10:27:32Z</time>
      </trkpt>
      <trkpt lat="45.73251" lon="6.26969">
        <ele>1221.9885</ele>
        <time>2013-08-11T10:27:37Z</time>
      </trkpt>
      <trkpt lat="45.73249" lon="6.26966">
        <ele>1221.9885</ele>
        <time>2013-08-11T10:27:42Z</time>
      </trkpt>
      <trkpt lat="45.73248" lon="6.26964">
        <ele>1221.9885</ele>
        <time>2013-08-11T10:27:48Z</time>
      </trkpt>
      <trkpt lat="45.73243" lon="6.26958">
        <ele>1222.9009</ele>
        <time>2013-08-11T10:27:52Z</time>
      </trkpt>
      <trkpt lat="45.73236" lon="6.26957">
        <ele>1222.9009</ele>
        <time>2013-08-11T10:27:57Z</time>
      </trkpt>
      <trkpt lat="45.73231" lon="6.26954">
        <ele>1223.6837</ele>
        <time>2013-08-11T10:28:03Z</time>
      </trkpt>
      <trkpt lat="45.73223" lon="6.26954">
        <ele>1223.6837</ele>
        <time>2013-08-11T10:28:07Z</time>
      </trkpt>
      <trkpt lat="45.73216" lon="6.26954">
        <ele>1224.5548</ele>
        <time>2013-08-11T10:28:12Z</time>
      </trkpt>
      <trkpt lat="45.7321" lon="6.26952">
        <ele>1224.5548</ele>
        <time>2013-08-11T10:28:17Z</time>
      </trkpt>
      <trkpt lat="45.73207" lon="6.26949">
        <ele>1225.6411</ele>
        <time>2013-08-11T10:28:22Z</time>
      </trkpt>
      <trkpt lat="45.73202" lon="6.26947">
        <ele>1225.6411</ele>
        <time>2013-08-11T10:28:27Z</time>
      </trkpt>
      <trkpt lat="45.73196" lon="6.26942">
        <ele>1226.6212</ele>
        <time>2013-08-11T10:28:32Z</time>
      </trkpt>
      <trkpt lat="45.73191" lon="6.26941">
        <ele>1226.6212</ele>
        <time>2013-08-11T10:28:38Z</time>
      </trkpt>
      <trkpt lat="45.73181" lon="6.26938">
        <ele>1227.5609</ele>
        <time>2013-08-11T10:28:42Z</time>
      </trkpt>
      <trkpt lat="45.73174" lon="6.26938">
        <ele>1227.5609</ele>
        <time>2013-08-11T10:28:47Z</time>
      </trkpt>
      <trkpt lat="45.73169" lon="6.26938">
        <ele>1228.9136</ele>
        <time>2013-08-11T10:28:54Z</time>
      </trkpt>
      <trkpt lat="45.73166" lon="6.26939">
        <ele>1228.9136</ele>
        <time>2013-08-11T10:28:57Z</time>
      </trkpt>
      <trkpt lat="45.73161" lon="6.26941">
        <ele>1228.9136</ele>
        <time>2013-08-11T10:29:02Z</time>
      </trkpt>
      <trkpt lat="45.73159" lon="6.26942">
        <ele>1229.4824</ele>
        <time>2013-08-11T10:29:09Z</time>
      </trkpt>
      <trkpt lat="45.7315" lon="6.2694">
        <ele>1229.9912</ele>
        <time>2013-08-11T10:29:12Z</time>
      </trkpt>
      <trkpt lat="45.73145" lon="6.26939">
        <ele>1229.9912</ele>
        <time>2013-08-11T10:29:17Z</time>
      </trkpt>
      <trkpt lat="45.73138" lon="6.26938">
        <ele>1230.1589</ele>
        <time>2013-08-11T10:29:22Z</time>
      </trkpt>
      <trkpt lat="45.73132" lon="6.26943">
        <ele>1230.1589</ele>
        <time>2013-08-11T10:29:28Z</time>
      </trkpt>
      <trkpt lat="45.73125" lon="6.26942">
        <ele>1230.5087</ele>
        <time>2013-08-11T10:29:32Z</time>
      </trkpt>
      <trkpt lat="45.7312" lon="6.26942">
        <ele>1230.5087</ele>
        <time>2013-08-11T10:29:37Z</time>
      </trkpt>
      <trkpt lat="45.73116" lon="6.26942">
        <ele>1230.5087</ele>
        <time>2013-08-11T10:29:43Z</time>
      </trkpt>
      <trkpt lat="45.73115" lon="6.26937">
        <ele>1230.6367</ele>
        <time>2013-08-11T10:29:47Z</time>
      </trkpt>
      <trkpt lat="45.73113" lon="6.26927">
        <ele>1230.6367</ele>
        <time>2013-08-11T10:29:52Z</time>
      </trkpt>
      <trkpt lat="45.73111" lon="6.26921">
        <ele>1231.2037</ele>
        <time>2013-08-11T10:29:59Z</time>
      </trkpt>
      <trkpt lat="45.73103" lon="6.26921">
        <ele>1231.2037</ele>
        <time>2013-08-11T10:30:02Z</time>
      </trkpt>
      <trkpt lat="45.73095" lon="6.26923">
        <ele>1232.2777</ele>
        <time>2013-08-11T10:30:07Z</time>
      </trkpt>
      <trkpt lat="45.73088" lon="6.26922">
        <ele>1232.2777</ele>
        <time>2013-08-11T10:30:12Z</time>
      </trkpt>
      <trkpt lat="45.73086" lon="6.26921">
        <ele>1233.2058</ele>
        <time>2013-08-11T10:30:18Z</time>
      </trkpt>
      <trkpt lat="45.73084" lon="6.26914">
        <ele>1233.2058</ele>
        <time>2013-08-11T10:30:22Z</time>
      </trkpt>
      <trkpt lat="45.73083" lon="6.26907">
        <ele>1234.1466</ele>
        <time>2013-08-11T10:30:27Z</time>
      </trkpt>
      <trkpt lat="45.7308" lon="6.26898">
        <ele>1234.1466</ele>
        <time>2013-08-11T10:30:33Z</time>
      </trkpt>
      <trkpt lat="45.73077" lon="6.26893">
        <ele>1234.8464</ele>
        <time>2013-08-11T10:30:37Z</time>
      </trkpt>
      <trkpt lat="45.73073" lon="6.26886">
        <ele>1234.8464</ele>
        <time>2013-08-11T10:30:42Z</time>
      </trkpt>
      <trkpt lat="45.73071" lon="6.26884">
        <ele>1234.8464</ele>
        <time>2013-08-11T10:30:48Z</time>
      </trkpt>
      <trkpt lat="45.73061" lon="6.26873">
        <ele>1234.911</ele>
        <time>2013-08-11T10:30:52Z</time>
      </trkpt>
      <trkpt lat="45.73057" lon="6.26869">
        <ele>1234.911</ele>
        <time>2013-08-11T10:30:57Z</time>
      </trkpt>
      <trkpt lat="45.73051" lon="6.26867">
        <ele>1235.1725</ele>
        <time>2013-08-11T10:31:03Z</time>
      </trkpt>
      <trkpt lat="45.73051" lon="6.26865">
        <ele>1235.1725</ele>
        <time>2013-08-11T10:31:07Z</time>
      </trkpt>
      <trkpt lat="45.73045" lon="6.26868">
        <ele>1235.1725</ele>
        <time>2013-08-11T10:31:12Z</time>
      </trkpt>
      <trkpt lat="45.73043" lon="6.26872">
        <ele>1235.2778</ele>
        <time>2013-08-11T10:31:18Z</time>
      </trkpt>
      <trkpt lat="45.73033" lon="6.26882">
        <ele>1235.5184</ele>
        <time>2013-08-11T10:31:22Z</time>
      </trkpt>
      <trkpt lat="45.73026" lon="6.2688">
        <ele>1235.5184</ele>
        <time>2013-08-11T10:31:27Z</time>
      </trkpt>
      <trkpt lat="45.73024" lon="6.26879">
        <ele>1236.0009</ele>
        <time>2013-08-11T10:31:33Z</time>
      </trkpt>
      <trkpt lat="45.73013" lon="6.26882">
        <ele>1236.5891</ele>
        <time>2013-08-11T10:31:37Z</time>
      </trkpt>
      <trkpt lat="45.73013" lon="6.26886">
        <ele>1236.5891</ele>
        <time>2013-08-11T10:31:42Z</time>
      </trkpt>
      <trkpt lat="45.73012" lon="6.26887">
        <ele>1236.5891</ele>
        <time>2013-08-11T10:31:48Z</time>
      </trkpt>
      <trkpt lat="45.73004" lon="6.26888">
        <ele>1237.9008</ele>
        <time>2013-08-11T10:31:52Z</time>
      </trkpt>
      <trkpt lat="45.73001" lon="6.26879">
        <ele>1237.9008</ele>
        <time>2013-08-11T10:31:57Z</time>
      </trkpt>
      <trkpt lat="45.72998" lon="6.26878">
        <ele>1239.3678</ele>
        <time>2013-08-11T10:32:03Z</time>
      </trkpt>
      <trkpt lat="45.72997" lon="6.26878">
        <ele>1239.3678</ele>
        <time>2013-08-11T10:32:07Z</time>
      </trkpt>
      <trkpt lat="45.72991" lon="6.2688">
        <ele>1239.3678</ele>
        <time>2013-08-11T10:32:12Z</time>
      </trkpt>
      <trkpt lat="45.72983" lon="6.26881">
        <ele>1240.8014</ele>
        <time>2013-08-11T10:32:20Z</time>
      </trkpt>
      <trkpt lat="45.72976" lon="6.26884">
        <ele>1240.8014</ele>
        <time>2013-08-11T10:32:22Z</time>
      </trkpt>
      <trkpt lat="45.72969" lon="6.26883">
        <ele>1242.3031</ele>
        <time>2013-08-11T10:32:27Z</time>
      </trkpt>
      <trkpt lat="45.72962" lon="6.2688">
        <ele>1242.3031</ele>
        <time>2013-08-11T10:32:33Z</time>
      </trkpt>
      <trkpt lat="45.72955" lon="6.26881">
        <ele>1243.6188</ele>
        <time>2013-08-11T10:32:37Z</time>
      </trkpt>
      <trkpt lat="45.7295" lon="6.26879">
        <ele>1243.6188</ele>
        <time>2013-08-11T10:32:42Z</time>
      </trkpt>
      <trkpt lat="45.72944" lon="6.26875">
        <ele>1244.8329</ele>
        <time>2013-08-11T10:32:48Z</time>
      </trkpt>
      <trkpt lat="45.72938" lon="6.26872">
        <ele>1244.8329</ele>
        <time>2013-08-11T10:32:52Z</time>
      </trkpt>
      <trkpt lat="45.72932" lon="6.26871">
        <ele>1245.8787</ele>
        <time>2013-08-11T10:32:57Z</time>
      </trkpt>
      <trkpt lat="45.72927" lon="6.26871">
        <ele>1245.8787</ele>
        <time>2013-08-11T10:33:03Z</time>
      </trkpt>
      <trkpt lat="45.7292" lon="6.26872">
        <ele>1247.0856</ele>
        <time>2013-08-11T10:33:07Z</time>
      </trkpt>
      <trkpt lat="45.72915" lon="6.26873">
        <ele>1247.0856</ele>
        <time>2013-08-11T10:33:12Z</time>
      </trkpt>
      <trkpt lat="45.72911" lon="6.26876">
        <ele>1247.0856</ele>
        <time>2013-08-11T10:33:17Z</time>
      </trkpt>
      <trkpt lat="45.72905" lon="6.26881">
        <ele>1249.075</ele>
        <time>2013-08-11T10:33:22Z</time>
      </trkpt>
      <trkpt lat="45.72898" lon="6.26884">
        <ele>1249.075</ele>
        <time>2013-08-11T10:33:27Z</time>
      </trkpt>
      <trkpt lat="45.72894" lon="6.26885">
        <ele>1251.2936</ele>
        <time>2013-08-11T10:33:32Z</time>
      </trkpt>
      <trkpt lat="45.72891" lon="6.26884">
        <ele>1251.2936</ele>
        <time>2013-08-11T10:33:37Z</time>
      </trkpt>
      <trkpt lat="45.72887" lon="6.26882">
        <ele>1251.2936</ele>
        <time>2013-08-11T10:33:42Z</time>
      </trkpt>
      <trkpt lat="45.72884" lon="6.26882">
        <ele>1254.0518</ele>
        <time>2013-08-11T10:33:48Z</time>
      </trkpt>
      <trkpt lat="45.72878" lon="6.26882">
        <ele>1254.0518</ele>
        <time>2013-08-11T10:33:52Z</time>
      </trkpt>
      <trkpt lat="45.72875" lon="6.2688">
        <ele>1257.0005</ele>
        <time>2013-08-11T10:33:57Z</time>
      </trkpt>
      <trkpt lat="45.72869" lon="6.26879">
        <ele>1257.0005</ele>
        <time>2013-08-11T10:34:03Z</time>
      </trkpt>
      <trkpt lat="45.72866" lon="6.26877">
        <ele>1259.5858</ele>
        <time>2013-08-11T10:34:07Z</time>
      </trkpt>
      <trkpt lat="45.72862" lon="6.26877">
        <ele>1259.5858</ele>
        <time>2013-08-11T10:34:12Z</time>
      </trkpt>
      <trkpt lat="45.7286" lon="6.26878">
        <ele>1259.5858</ele>
        <time>2013-08-11T10:34:18Z</time>
      </trkpt>
      <trkpt lat="45.72855" lon="6.26879">
        <ele>1262.1031</ele>
        <time>2013-08-11T10:34:22Z</time>
      </trkpt>
      <trkpt lat="45.7285" lon="6.26875">
        <ele>1262.1031</ele>
        <time>2013-08-11T10:34:27Z</time>
      </trkpt>
      <trkpt lat="45.72844" lon="6.26874">
        <ele>1264.0624</ele>
        <time>2013-08-11T10:34:33Z</time>
      </trkpt>
      <trkpt lat="45.7284" lon="6.26877">
        <ele>1264.0624</ele>
        <time>2013-08-11T10:34:37Z</time>
      </trkpt>
      <trkpt lat="45.72836" lon="6.26879">
        <ele>1264.0624</ele>
        <time>2013-08-11T10:34:42Z</time>
      </trkpt>
      <trkpt lat="45.72831" lon="6.2688">
        <ele>1265.7173</ele>
        <time>2013-08-11T10:34:48Z</time>
      </trkpt>
      <trkpt lat="45.72826" lon="6.2688">
        <ele>1265.7173</ele>
        <time>2013-08-11T10:34:52Z</time>
      </trkpt>
      <trkpt lat="45.72821" lon="6.26877">
        <ele>1267.5349</ele>
        <time>2013-08-11T10:34:57Z</time>
      </trkpt>
      <trkpt lat="45.72817" lon="6.26871">
        <ele>1267.5349</ele>
        <time>2013-08-11T10:35:03Z</time>
      </trkpt>
      <trkpt lat="45.72814" lon="6.2687">
        <ele>1269.385</ele>
        <time>2013-08-11T10:35:07Z</time>
      </trkpt>
      <trkpt lat="45.72811" lon="6.26869">
        <ele>1269.385</ele>
        <time>2013-08-11T10:35:12Z</time>
      </trkpt>
      <trkpt lat="45.72807" lon="6.26868">
        <ele>1269.385</ele>
        <time>2013-08-11T10:35:17Z</time>
      </trkpt>
      <trkpt lat="45.72801" lon="6.26866">
        <ele>1271.1614</ele>
        <time>2013-08-11T10:35:23Z</time>
      </trkpt>
      <trkpt lat="45.728" lon="6.26865">
        <ele>1271.1614</ele>
        <time>2013-08-11T10:35:27Z</time>
      </trkpt>
      <trkpt lat="45.728" lon="6.26865">
        <ele>1271.1614</ele>
        <time>2013-08-11T10:35:34Z</time>
      </trkpt>
      <trkpt lat="45.72796" lon="6.26859">
        <ele>1271.1614</ele>
        <time>2013-08-11T10:35:37Z</time>
      </trkpt>
      <trkpt lat="45.72792" lon="6.26859">
        <ele>1273.6311</ele>
        <time>2013-08-11T10:35:42Z</time>
      </trkpt>
      <trkpt lat="45.72788" lon="6.2686">
        <ele>1273.6311</ele>
        <time>2013-08-11T10:35:47Z</time>
      </trkpt>
      <trkpt lat="45.72783" lon="6.26855">
        <ele>1276.1333</ele>
        <time>2013-08-11T10:35:53Z</time>
      </trkpt>
      <trkpt lat="45.72781" lon="6.26853">
        <ele>1276.1333</ele>
        <time>2013-08-11T10:35:57Z</time>
      </trkpt>
      <trkpt lat="45.72777" lon="6.26851">
        <ele>1276.1333</ele>
        <time>2013-08-11T10:36:02Z</time>
      </trkpt>
      <trkpt lat="45.72774" lon="6.26845">
        <ele>1279.1373</ele>
        <time>2013-08-11T10:36:12Z</time>
      </trkpt>
      <trkpt lat="45.72773" lon="6.26844">
        <ele>1279.1373</ele>
        <time>2013-08-11T10:36:17Z</time>
      </trkpt>
      <trkpt lat="45.72772" lon="6.2684">
        <ele>1279.1373</ele>
        <time>2013-08-11T10:36:23Z</time>
      </trkpt>
      <trkpt lat="45.7277" lon="6.26838">
        <ele>1279.1373</ele>
        <time>2013-08-11T10:36:27Z</time>
      </trkpt>
      <trkpt lat="45.72768" lon="6.26835">
        <ele>1282.1246</ele>
        <time>2013-08-11T10:36:32Z</time>
      </trkpt>
      <trkpt lat="45.72767" lon="6.26831">
        <ele>1282.1246</ele>
        <time>2013-08-11T10:36:37Z</time>
      </trkpt>
      <trkpt lat="45.72763" lon="6.26829">
        <ele>1282.1246</ele>
        <time>2013-08-11T10:36:42Z</time>
      </trkpt>
      <trkpt lat="45.72759" lon="6.26826">
        <ele>1285.293</ele>
        <time>2013-08-11T10:36:47Z</time>
      </trkpt>
      <trkpt lat="45.72754" lon="6.26816">
        <ele>1285.293</ele>
        <time>2013-08-11T10:36:53Z</time>
      </trkpt>
      <trkpt lat="45.72752" lon="6.26813">
        <ele>1288.1616</ele>
        <time>2013-08-11T10:36:57Z</time>
      </trkpt>
      <trkpt lat="45.7275" lon="6.26812">
        <ele>1288.1616</ele>
        <time>2013-08-11T10:37:02Z</time>
      </trkpt>
      <trkpt lat="45.72748" lon="6.26807">
        <ele>1288.1616</ele>
        <time>2013-08-11T10:37:08Z</time>
      </trkpt>
      <trkpt lat="45.72748" lon="6.26809">
        <ele>1288.1616</ele>
        <time>2013-08-11T10:37:12Z</time>
      </trkpt>
      <trkpt lat="45.72749" lon="6.26807">
        <ele>1290.9498</ele>
        <time>2013-08-11T10:37:18Z</time>
      </trkpt>
      <trkpt lat="45.72746" lon="6.26795">
        <ele>1290.9498</ele>
        <time>2013-08-11T10:37:27Z</time>
      </trkpt>
      <trkpt lat="45.72746" lon="6.2679">
        <ele>1293.8464</ele>
        <time>2013-08-11T10:37:33Z</time>
      </trkpt>
      <trkpt lat="45.72747" lon="6.26781">
        <ele>1293.8464</ele>
        <time>2013-08-11T10:37:42Z</time>
      </trkpt>
      <trkpt lat="45.72747" lon="6.26777">
        <ele>1296.608</ele>
        <time>2013-08-11T10:37:47Z</time>
      </trkpt>
      <trkpt lat="45.7275" lon="6.26773">
        <ele>1296.608</ele>
        <time>2013-08-11T10:37:53Z</time>
      </trkpt>
      <trkpt lat="45.72751" lon="6.26771">
        <ele>1296.608</ele>
        <time>2013-08-11T10:37:57Z</time>
      </trkpt>
      <trkpt lat="45.72754" lon="6.2677">
        <ele>1296.608</ele>
        <time>2013-08-11T10:38:02Z</time>
      </trkpt>
      <trkpt lat="45.72758" lon="6.26768">
        <ele>1299.154</ele>
        <time>2013-08-11T10:38:08Z</time>
      </trkpt>
      <trkpt lat="45.72758" lon="6.26767">
        <ele>1299.154</ele>
        <time>2013-08-11T10:38:12Z</time>
      </trkpt>
      <trkpt lat="45.72759" lon="6.26766">
        <ele>1299.154</ele>
        <time>2013-08-11T10:38:17Z</time>
      </trkpt>
      <trkpt lat="45.72759" lon="6.26766">
        <ele>1299.154</ele>
        <time>2013-08-11T10:38:22Z</time>
      </trkpt>
      <trkpt lat="45.72759" lon="6.26766">
        <ele>1299.154</ele>
        <time>2013-08-11T10:38:27Z</time>
      </trkpt>
      <trkpt lat="45.72759" lon="6.26765">
        <ele>1299.154</ele>
        <time>2013-08-11T10:38:32Z</time>
      </trkpt>
      <trkpt lat="45.72759" lon="6.26765">
        <ele>1299.154</ele>
        <time>2013-08-11T10:38:37Z</time>
      </trkpt>
      <trkpt lat="45.72759" lon="6.26765">
        <ele>1299.154</ele>
        <time>2013-08-11T10:38:42Z</time>
      </trkpt>
      <trkpt lat="45.72759" lon="6.26765">
        <ele>1299.154</ele>
        <time>2013-08-11T10:38:47Z</time>
      </trkpt>
      <trkpt lat="45.72759" lon="6.26765">
        <ele>1299.154</ele>
        <time>2013-08-11T10:38:52Z</time>
      </trkpt>
      <trkpt lat="45.72759" lon="6.26765">
        <ele>1299.154</ele>
        <time>2013-08-11T10:38:57Z</time>
      </trkpt>
      <trkpt lat="45.72759" lon="6.26765">
        <ele>1299.154</ele>
        <time>2013-08-11T10:39:02Z</time>
      </trkpt>
      <trkpt lat="45.72759" lon="6.26765">
        <ele>1299.154</ele>
        <time>2013-08-11T10:39:07Z</time>
      </trkpt>
      <trkpt lat="45.72759" lon="6.26765">
        <ele>1299.154</ele>
        <time>2013-08-11T10:39:12Z</time>
      </trkpt>
      <trkpt lat="45.72759" lon="6.26765">
        <ele>1299.154</ele>
        <time>2013-08-11T10:39:17Z</time>
      </trkpt>
      <trkpt lat="45.72759" lon="6.26765">
        <ele>1299.154</ele>
        <time>2013-08-11T10:39:22Z</time>
      </trkpt>
      <trkpt lat="45.72759" lon="6.26765">
        <ele>1299.154</ele>
        <time>2013-08-11T10:39:27Z</time>
      </trkpt>
      <trkpt lat="45.72759" lon="6.26765">
        <ele>1299.154</ele>
        <time>2013-08-11T10:39:32Z</time>
      </trkpt>
      <trkpt lat="45.72759" lon="6.26765">
        <ele>1299.154</ele>
        <time>2013-08-11T10:39:37Z</time>
      </trkpt>
      <trkpt lat="45.72759" lon="6.26765">
        <ele>1299.154</ele>
        <time>2013-08-11T10:39:42Z</time>
      </trkpt>
      <trkpt lat="45.72759" lon="6.26765">
        <ele>1299.154</ele>
        <time>2013-08-11T10:39:47Z</time>
      </trkpt>
      <trkpt lat="45.72759" lon="6.26765">
        <ele>1299.154</ele>
        <time>2013-08-11T10:39:52Z</time>
      </trkpt>
      <trkpt lat="45.72759" lon="6.26765">
        <ele>1299.154</ele>
        <time>2013-08-11T10:39:57Z</time>
      </trkpt>
      <trkpt lat="45.72759" lon="6.26765">
        <ele>1299.154</ele>
        <time>2013-08-11T10:40:02Z</time>
      </trkpt>
      <trkpt lat="45.72759" lon="6.26765">
        <ele>1299.154</ele>
        <time>2013-08-11T10:40:07Z</time>
      </trkpt>
      <trkpt lat="45.72759" lon="6.26765">
        <ele>1299.154</ele>
        <time>2013-08-11T10:40:12Z</time>
      </trkpt>
      <trkpt lat="45.72759" lon="6.26765">
        <ele>1299.154</ele>
        <time>2013-08-11T10:40:17Z</time>
      </trkpt>
      <trkpt lat="45.72759" lon="6.26765">
        <ele>1299.154</ele>
        <time>2013-08-11T10:40:22Z</time>
      </trkpt>
      <trkpt lat="45.72759" lon="6.26765">
        <ele>1299.154</ele>
        <time>2013-08-11T10:40:27Z</time>
      </trkpt>
      <trkpt lat="45.72759" lon="6.26765">
        <ele>1299.154</ele>
        <time>2013-08-11T10:40:32Z</time>
      </trkpt>
      <trkpt lat="45.72759" lon="6.26765">
        <ele>1299.154</ele>
        <time>2013-08-11T10:40:37Z</time>
      </trkpt>
      <trkpt lat="45.72762" lon="6.26763">
        <ele>1299.154</ele>
        <time>2013-08-11T10:40:42Z</time>
      </trkpt>
      <trkpt lat="45.72768" lon="6.26758">
        <ele>1301.165</ele>
        <time>2013-08-11T10:40:47Z</time>
      </trkpt>
      <trkpt lat="45.72774" lon="6.26753">
        <ele>1301.165</ele>
        <time>2013-08-11T10:40:52Z</time>
      </trkpt>
      <trkpt lat="45.72778" lon="6.26748">
        <ele>1302.7798</ele>
        <time>2013-08-11T10:40:57Z</time>
      </trkpt>
      <trkpt lat="45.72783" lon="6.26743">
        <ele>1302.7798</ele>
        <time>2013-08-11T10:41:02Z</time>
      </trkpt>
      <trkpt lat="45.72786" lon="6.26738">
        <ele>1304.1711</ele>
        <time>2013-08-11T10:41:07Z</time>
      </trkpt>
      <trkpt lat="45.72788" lon="6.2673">
        <ele>1304.1711</ele>
        <time>2013-08-11T10:41:12Z</time>
      </trkpt>
      <trkpt lat="45.72791" lon="6.26726">
        <ele>1305.0243</ele>
        <time>2013-08-11T10:41:17Z</time>
      </trkpt>
      <trkpt lat="45.72797" lon="6.26724">
        <ele>1305.0243</ele>
        <time>2013-08-11T10:41:22Z</time>
      </trkpt>
      <trkpt lat="45.728" lon="6.26721">
        <ele>1306.0443</ele>
        <time>2013-08-11T10:41:27Z</time>
      </trkpt>
      <trkpt lat="45.72802" lon="6.26719">
        <ele>1306.0443</ele>
        <time>2013-08-11T10:41:32Z</time>
      </trkpt>
      <trkpt lat="45.72805" lon="6.26713">
        <ele>1306.0443</ele>
        <time>2013-08-11T10:41:37Z</time>
      </trkpt>
      <trkpt lat="45.72809" lon="6.26709">
        <ele>1307.3357</ele>
        <time>2013-08-11T10:41:42Z</time>
      </trkpt>
      <trkpt lat="45.72813" lon="6.26703">
        <ele>1307.3357</ele>
        <time>2013-08-11T10:41:47Z</time>
      </trkpt>
      <trkpt lat="45.72816" lon="6.26699">
        <ele>1308.62</ele>
        <time>2013-08-11T10:41:52Z</time>
      </trkpt>
      <trkpt lat="45.7282" lon="6.26695">
        <ele>1308.62</ele>
        <time>2013-08-11T10:41:57Z</time>
      </trkpt>
      <trkpt lat="45.72826" lon="6.26692">
        <ele>1310.2017</ele>
        <time>2013-08-11T10:42:02Z</time>
      </trkpt>
      <trkpt lat="45.7283" lon="6.26688">
        <ele>1310.2017</ele>
        <time>2013-08-11T10:42:07Z</time>
      </trkpt>
      <trkpt lat="45.72832" lon="6.26685">
        <ele>1310.2017</ele>
        <time>2013-08-11T10:42:12Z</time>
      </trkpt>
      <trkpt lat="45.72837" lon="6.26681">
        <ele>1311.9725</ele>
        <time>2013-08-11T10:42:17Z</time>
      </trkpt>
      <trkpt lat="45.72839" lon="6.26678">
        <ele>1311.9725</ele>
        <time>2013-08-11T10:42:22Z</time>
      </trkpt>
      <trkpt lat="45.7284" lon="6.26678">
        <ele>1311.9725</ele>
        <time>2013-08-11T10:42:27Z</time>
      </trkpt>
      <trkpt lat="45.7284" lon="6.26678">
        <ele>1311.9725</ele>
        <time>2013-08-11T10:42:32Z</time>
      </trkpt>
      <trkpt lat="45.72842" lon="6.26675">
        <ele>1311.9725</ele>
        <time>2013-08-11T10:42:37Z</time>
      </trkpt>
      <trkpt lat="45.72849" lon="6.26668">
        <ele>1314.0771</ele>
        <time>2013-08-11T10:42:42Z</time>
      </trkpt>
      <trkpt lat="45.72855" lon="6.26663">
        <ele>1314.0771</ele>
        <time>2013-08-11T10:42:47Z</time>
      </trkpt>
      <trkpt lat="45.72859" lon="6.26659">
        <ele>1316.0715</ele>
        <time>2013-08-11T10:42:52Z</time>
      </trkpt>
      <trkpt lat="45.72863" lon="6.26657">
        <ele>1316.0715</ele>
        <time>2013-08-11T10:42:57Z</time>
      </trkpt>
      <trkpt lat="45.72868" lon="6.26653">
        <ele>1317.949</ele>
        <time>2013-08-11T10:43:02Z</time>
      </trkpt>
      <trkpt lat="45.72872" lon="6.26648">
        <ele>1317.949</ele>
        <time>2013-08-11T10:43:07Z</time>
      </trkpt>
      <trkpt lat="45.72877" lon="6.26642">
        <ele>1319.1842</ele>
        <time>2013-08-11T10:43:12Z</time>
      </trkpt>
      <trkpt lat="45.72881" lon="6.26636">
        <ele>1319.1842</ele>
        <time>2013-08-11T10:43:17Z</time>
      </trkpt>
      <trkpt lat="45.72885" lon="6.26632">
        <ele>1320.6624</ele>
        <time>2013-08-11T10:43:22Z</time>
      </trkpt>
      <trkpt lat="45.72888" lon="6.26627">
        <ele>1320.6624</ele>
        <time>2013-08-11T10:43:27Z</time>
      </trkpt>
      <trkpt lat="45.72893" lon="6.26624">
        <ele>1322.5393</ele>
        <time>2013-08-11T10:43:32Z</time>
      </trkpt>
      <trkpt lat="45.72896" lon="6.26621">
        <ele>1322.5393</ele>
        <time>2013-08-11T10:43:37Z</time>
      </trkpt>
      <trkpt lat="45.72899" lon="6.26618">
        <ele>1322.5393</ele>
        <time>2013-08-11T10:43:42Z</time>
      </trkpt>
      <trkpt lat="45.72903" lon="6.26616">
        <ele>1324.5839</ele>
        <time>2013-08-11T10:43:47Z</time>
      </trkpt>
      <trkpt lat="45.72907" lon="6.26613">
        <ele>1324.5839</ele>
        <time>2013-08-11T10:43:52Z</time>
      </trkpt>
      <trkpt lat="45.72911" lon="6.26611">
        <ele>1324.5839</ele>
        <time>2013-08-11T10:43:58Z</time>
      </trkpt>
      <trkpt lat="45.72915" lon="6.26607">
        <ele>1326.8839</ele>
        <time>2013-08-11T10:44:02Z</time>
      </trkpt>
      <trkpt lat="45.72919" lon="6.26603">
        <ele>1326.8839</ele>
        <time>2013-08-11T10:44:07Z</time>
      </trkpt>
      <trkpt lat="45.72923" lon="6.266">
        <ele>1329.1456</ele>
        <time>2013-08-11T10:44:12Z</time>
      </trkpt>
      <trkpt lat="45.72928" lon="6.26598">
        <ele>1329.1456</ele>
        <time>2013-08-11T10:44:17Z</time>
      </trkpt>
      <trkpt lat="45.72932" lon="6.26597">
        <ele>1329.1456</ele>
        <time>2013-08-11T10:44:23Z</time>
      </trkpt>
      <trkpt lat="45.72933" lon="6.26595">
        <ele>1331.0248</ele>
        <time>2013-08-11T10:44:27Z</time>
      </trkpt>
      <trkpt lat="45.72937" lon="6.26593">
        <ele>1331.0248</ele>
        <time>2013-08-11T10:44:32Z</time>
      </trkpt>
      <trkpt lat="45.72941" lon="6.2659">
        <ele>1331.0248</ele>
        <time>2013-08-11T10:44:37Z</time>
      </trkpt>
      <trkpt lat="45.72945" lon="6.26587">
        <ele>1333.1548</ele>
        <time>2013-08-11T10:44:42Z</time>
      </trkpt>
      <trkpt lat="45.7295" lon="6.26584">
        <ele>1333.1548</ele>
        <time>2013-08-11T10:44:47Z</time>
      </trkpt>
      <trkpt lat="45.72954" lon="6.26581">
        <ele>1335.142</ele>
        <time>2013-08-11T10:44:52Z</time>
      </trkpt>
      <trkpt lat="45.7296" lon="6.26578">
        <ele>1335.142</ele>
        <time>2013-08-11T10:44:57Z</time>
      </trkpt>
      <trkpt lat="45.72961" lon="6.26575">
        <ele>1335.142</ele>
        <time>2013-08-11T10:45:02Z</time>
      </trkpt>
      <trkpt lat="45.72966" lon="6.26573">
        <ele>1337.5441</ele>
        <time>2013-08-11T10:45:07Z</time>
      </trkpt>
      <trkpt lat="45.72969" lon="6.26571">
        <ele>1337.5441</ele>
        <time>2013-08-11T10:45:12Z</time>
      </trkpt>
      <trkpt lat="45.72972" lon="6.26568">
        <ele>1337.5441</ele>
        <time>2013-08-11T10:45:17Z</time>
      </trkpt>
      <trkpt lat="45.72977" lon="6.26566">
        <ele>1340.0698</ele>
        <time>2013-08-11T10:45:22Z</time>
      </trkpt>
      <trkpt lat="45.72979" lon="6.26563">
        <ele>1340.0698</ele>
        <time>2013-08-11T10:45:27Z</time>
      </trkpt>
      <trkpt lat="45.72982" lon="6.2656">
        <ele>1340.0698</ele>
        <time>2013-08-11T10:45:32Z</time>
      </trkpt>
      <trkpt lat="45.72985" lon="6.26556">
        <ele>1342.6654</ele>
        <time>2013-08-11T10:45:38Z</time>
      </trkpt>
      <trkpt lat="45.72985" lon="6.26557">
        <ele>1342.6654</ele>
        <time>2013-08-11T10:45:42Z</time>
      </trkpt>
      <trkpt lat="45.72987" lon="6.26556">
        <ele>1342.6654</ele>
        <time>2013-08-11T10:45:47Z</time>
      </trkpt>
      <trkpt lat="45.72992" lon="6.26552">
        <ele>1342.6654</ele>
        <time>2013-08-11T10:45:53Z</time>
      </trkpt>
      <trkpt lat="45.72995" lon="6.26551">
        <ele>1344.9922</ele>
        <time>2013-08-11T10:45:57Z</time>
      </trkpt>
      <trkpt lat="45.72999" lon="6.26548">
        <ele>1344.9922</ele>
        <time>2013-08-11T10:46:02Z</time>
      </trkpt>
      <trkpt lat="45.73003" lon="6.26547">
        <ele>1344.9922</ele>
        <time>2013-08-11T10:46:07Z</time>
      </trkpt>
      <trkpt lat="45.73003" lon="6.26547">
        <ele>1344.9922</ele>
        <time>2013-08-11T10:46:12Z</time>
      </trkpt>
      <trkpt lat="45.73006" lon="6.26547">
        <ele>1347.4869</ele>
        <time>2013-08-11T10:46:17Z</time>
      </trkpt>
      <trkpt lat="45.7301" lon="6.26545">
        <ele>1347.4869</ele>
        <time>2013-08-11T10:46:22Z</time>
      </trkpt>
      <trkpt lat="45.73014" lon="6.26543">
        <ele>1347.4869</ele>
        <time>2013-08-11T10:46:27Z</time>
      </trkpt>
      <trkpt lat="45.73016" lon="6.26544">
        <ele>1350.006</ele>
        <time>2013-08-11T10:46:32Z</time>
      </trkpt>
      <trkpt lat="45.73018" lon="6.26543">
        <ele>1350.006</ele>
        <time>2013-08-11T10:46:38Z</time>
      </trkpt>
      <trkpt lat="45.73025" lon="6.26542">
        <ele>1352.7192</ele>
        <time>2013-08-11T10:46:42Z</time>
      </trkpt>
      <trkpt lat="45.73031" lon="6.2654">
        <ele>1352.7192</ele>
        <time>2013-08-11T10:46:47Z</time>
      </trkpt>
      <trkpt lat="45.73036" lon="6.26537">
        <ele>1355.149</ele>
        <time>2013-08-11T10:46:53Z</time>
      </trkpt>
      <trkpt lat="45.73042" lon="6.26534">
        <ele>1355.149</ele>
        <time>2013-08-11T10:46:57Z</time>
      </trkpt>
      <trkpt lat="45.73047" lon="6.26531">
        <ele>1357.3007</ele>
        <time>2013-08-11T10:47:02Z</time>
      </trkpt>
      <trkpt lat="45.73051" lon="6.26527">
        <ele>1357.3007</ele>
        <time>2013-08-11T10:47:09Z</time>
      </trkpt>
      <trkpt lat="45.73052" lon="6.26524">
        <ele>1357.3007</ele>
        <time>2013-08-11T10:47:12Z</time>
      </trkpt>
      <trkpt lat="45.73052" lon="6.26524">
        <ele>1357.3007</ele>
        <time>2013-08-11T10:47:17Z</time>
      </trkpt>
      <trkpt lat="45.73052" lon="6.26525">
        <ele>1357.3007</ele>
        <time>2013-08-11T10:47:22Z</time>
      </trkpt>
      <trkpt lat="45.73054" lon="6.26524">
        <ele>1359.3528</ele>
        <time>2013-08-11T10:47:27Z</time>
      </trkpt>
      <trkpt lat="45.73058" lon="6.26524">
        <ele>1359.3528</ele>
        <time>2013-08-11T10:47:32Z</time>
      </trkpt>
      <trkpt lat="45.73059" lon="6.26524">
        <ele>1359.3528</ele>
        <time>2013-08-11T10:47:37Z</time>
      </trkpt>
      <trkpt lat="45.73059" lon="6.26524">
        <ele>1359.3528</ele>
        <time>2013-08-11T10:47:42Z</time>
      </trkpt>
      <trkpt lat="45.73059" lon="6.26524">
        <ele>1359.3528</ele>
        <time>2013-08-11T10:47:48Z</time>
      </trkpt>
      <trkpt lat="45.73059" lon="6.26524">
        <ele>1359.3528</ele>
        <time>2013-08-11T10:47:52Z</time>
      </trkpt>
      <trkpt lat="45.73057" lon="6.26525">
        <ele>1359.3528</ele>
        <time>2013-08-11T10:47:57Z</time>
      </trkpt>
      <trkpt lat="45.73054" lon="6.26528">
        <ele>1361.3271</ele>
        <time>2013-08-11T10:48:03Z</time>
      </trkpt>
      <trkpt lat="45.73054" lon="6.26527">
        <ele>1361.3271</ele>
        <time>2013-08-11T10:48:07Z</time>
      </trkpt>
      <trkpt lat="45.73054" lon="6.26527">
        <ele>1361.3271</ele>
        <time>2013-08-11T10:48:12Z</time>
      </trkpt>
      <trkpt lat="45.73054" lon="6.26527">
        <ele>1361.3271</ele>
        <time>2013-08-11T10:48:17Z</time>
      </trkpt>
      <trkpt lat="45.73054" lon="6.26527">
        <ele>1361.3271</ele>
        <time>2013-08-11T10:48:23Z</time>
      </trkpt>
      <trkpt lat="45.73054" lon="6.26527">
        <ele>1361.3271</ele>
        <time>2013-08-11T10:48:27Z</time>
      </trkpt>
      <trkpt lat="45.73053" lon="6.26525">
        <ele>1361.3271</ele>
        <time>2013-08-11T10:48:32Z</time>
      </trkpt>
      <trkpt lat="45.73054" lon="6.26525">
        <ele>1361.3271</ele>
        <time>2013-08-11T10:48:38Z</time>
      </trkpt>
      <trkpt lat="45.73054" lon="6.26525">
        <ele>1361.3271</ele>
        <time>2013-08-11T10:48:42Z</time>
      </trkpt>
      <trkpt lat="45.73054" lon="6.26525">
        <ele>1361.3271</ele>
        <time>2013-08-11T10:48:47Z</time>
      </trkpt>
      <trkpt lat="45.73054" lon="6.26525">
        <ele>1361.3271</ele>
        <time>2013-08-11T10:48:53Z</time>
      </trkpt>
      <trkpt lat="45.73054" lon="6.26525">
        <ele>1361.3271</ele>
        <time>2013-08-11T10:48:57Z</time>
      </trkpt>
      <trkpt lat="45.73054" lon="6.26525">
        <ele>1361.3271</ele>
        <time>2013-08-11T10:49:02Z</time>
      </trkpt>
      <trkpt lat="45.73054" lon="6.26525">
        <ele>1361.3271</ele>
        <time>2013-08-11T10:49:08Z</time>
      </trkpt>
      <trkpt lat="45.73054" lon="6.26525">
        <ele>1361.3271</ele>
        <time>2013-08-11T10:49:12Z</time>
      </trkpt>
      <trkpt lat="45.73054" lon="6.26525">
        <ele>1361.3271</ele>
        <time>2013-08-11T10:49:17Z</time>
      </trkpt>
      <trkpt lat="45.73055" lon="6.26525">
        <ele>1361.3271</ele>
        <time>2013-08-11T10:49:22Z</time>
      </trkpt>
      <trkpt lat="45.73054" lon="6.26524">
        <ele>1361.3271</ele>
        <time>2013-08-11T10:49:27Z</time>
      </trkpt>
      <trkpt lat="45.73055" lon="6.26524">
        <ele>1361.3271</ele>
        <time>2013-08-11T10:49:32Z</time>
      </trkpt>
      <trkpt lat="45.73055" lon="6.26524">
        <ele>1361.3271</ele>
        <time>2013-08-11T10:49:37Z</time>
      </trkpt>
      <trkpt lat="45.73055" lon="6.26524">
        <ele>1361.3271</ele>
        <time>2013-08-11T10:49:42Z</time>
      </trkpt>
      <trkpt lat="45.73055" lon="6.26524">
        <ele>1361.3271</ele>
        <time>2013-08-11T10:49:48Z</time>
      </trkpt>
      <trkpt lat="45.73051" lon="6.2652">
        <ele>1363.1432</ele>
        <time>2013-08-11T10:49:52Z</time>
      </trkpt>
      <trkpt lat="45.73046" lon="6.26518">
        <ele>1363.1432</ele>
        <time>2013-08-11T10:49:57Z</time>
      </trkpt>
      <trkpt lat="45.73041" lon="6.26518">
        <ele>1364.842</ele>
        <time>2013-08-11T10:50:02Z</time>
      </trkpt>
      <trkpt lat="45.73037" lon="6.26518">
        <ele>1364.842</ele>
        <time>2013-08-11T10:50:07Z</time>
      </trkpt>
      <trkpt lat="45.73031" lon="6.26516">
        <ele>1365.9723</ele>
        <time>2013-08-11T10:50:12Z</time>
      </trkpt>
      <trkpt lat="45.73025" lon="6.26513">
        <ele>1365.9723</ele>
        <time>2013-08-11T10:50:17Z</time>
      </trkpt>
      <trkpt lat="45.73021" lon="6.2651">
        <ele>1366.8666</ele>
        <time>2013-08-11T10:50:22Z</time>
      </trkpt>
      <trkpt lat="45.7302" lon="6.26508">
        <ele>1366.8666</ele>
        <time>2013-08-11T10:50:29Z</time>
      </trkpt>
      <trkpt lat="45.73017" lon="6.26497">
        <ele>1367.7618</ele>
        <time>2013-08-11T10:50:32Z</time>
      </trkpt>
      <trkpt lat="45.7302" lon="6.26491">
        <ele>1367.7618</ele>
        <time>2013-08-11T10:50:37Z</time>
      </trkpt>
      <trkpt lat="45.73021" lon="6.26491">
        <ele>1367.7618</ele>
        <time>2013-08-11T10:50:44Z</time>
      </trkpt>
      <trkpt lat="45.73026" lon="6.26495">
        <ele>1368.4739</ele>
        <time>2013-08-11T10:50:47Z</time>
      </trkpt>
      <trkpt lat="45.73031" lon="6.26493">
        <ele>1368.4739</ele>
        <time>2013-08-11T10:50:52Z</time>
      </trkpt>
      <trkpt lat="45.73037" lon="6.26492">
        <ele>1369.3805</ele>
        <time>2013-08-11T10:50:57Z</time>
      </trkpt>
      <trkpt lat="45.73042" lon="6.26487">
        <ele>1369.3805</ele>
        <time>2013-08-11T10:51:02Z</time>
      </trkpt>
      <trkpt lat="45.73047" lon="6.26483">
        <ele>1369.7212</ele>
        <time>2013-08-11T10:51:07Z</time>
      </trkpt>
      <trkpt lat="45.73051" lon="6.2648">
        <ele>1369.7212</ele>
        <time>2013-08-11T10:51:12Z</time>
      </trkpt>
      <trkpt lat="45.73054" lon="6.26479">
        <ele>1369.7212</ele>
        <time>2013-08-11T10:51:19Z</time>
      </trkpt>
      <trkpt lat="45.73056" lon="6.26474">
        <ele>1370.364</ele>
        <time>2013-08-11T10:51:22Z</time>
      </trkpt>
      <trkpt lat="45.73058" lon="6.2647">
        <ele>1370.364</ele>
        <time>2013-08-11T10:51:27Z</time>
      </trkpt>
      <trkpt lat="45.73061" lon="6.26466">
        <ele>1370.364</ele>
        <time>2013-08-11T10:51:32Z</time>
      </trkpt>
      <trkpt lat="45.73065" lon="6.26461">
        <ele>1371.204</ele>
        <time>2013-08-11T10:51:37Z</time>
      </trkpt>
      <trkpt lat="45.73066" lon="6.26459">
        <ele>1371.204</ele>
        <time>2013-08-11T10:51:44Z</time>
      </trkpt>
      <trkpt lat="45.73069" lon="6.26452">
        <ele>1371.204</ele>
        <time>2013-08-11T10:51:47Z</time>
      </trkpt>
      <trkpt lat="45.73068" lon="6.26446">
        <ele>1372.533</ele>
        <time>2013-08-11T10:51:52Z</time>
      </trkpt>
      <trkpt lat="45.73067" lon="6.26445">
        <ele>1372.533</ele>
        <time>2013-08-11T10:51:58Z</time>
      </trkpt>
      <trkpt lat="45.73065" lon="6.26434">
        <ele>1373.8557</ele>
        <time>2013-08-11T10:52:02Z</time>
      </trkpt>
      <trkpt lat="45.73064" lon="6.26432">
        <ele>1373.8557</ele>
        <time>2013-08-11T10:52:07Z</time>
      </trkpt>
      <trkpt lat="45.73063" lon="6.26434">
        <ele>1373.8557</ele>
        <time>2013-08-11T10:52:12Z</time>
      </trkpt>
      <trkpt lat="45.73063" lon="6.26434">
        <ele>1373.8557</ele>
        <time>2013-08-11T10:52:17Z</time>
      </trkpt>
      <trkpt lat="45.73058" lon="6.26428">
        <ele>1375.3043</ele>
        <time>2013-08-11T10:52:22Z</time>
      </trkpt>
      <trkpt lat="45.73054" lon="6.26428">
        <ele>1375.3043</ele>
        <time>2013-08-11T10:52:27Z</time>
      </trkpt>
      <trkpt lat="45.73048" lon="6.26428">
        <ele>1376.7125</ele>
        <time>2013-08-11T10:52:32Z</time>
      </trkpt>
      <trkpt lat="45.73042" lon="6.2643">
        <ele>1376.7125</ele>
        <time>2013-08-11T10:52:37Z</time>
      </trkpt>
      <trkpt lat="45.7304" lon="6.26432">
        <ele>1376.7125</ele>
        <time>2013-08-11T10:52:42Z</time>
      </trkpt>
      <trkpt lat="45.73035" lon="6.26429">
        <ele>1378.5172</ele>
        <time>2013-08-11T10:52:47Z</time>
      </trkpt>
      <trkpt lat="45.73032" lon="6.26426">
        <ele>1378.5172</ele>
        <time>2013-08-11T10:52:53Z</time>
      </trkpt>
      <trkpt lat="45.7303" lon="6.26425">
        <ele>1378.5172</ele>
        <time>2013-08-11T10:52:58Z</time>
      </trkpt>
      <trkpt lat="45.73025" lon="6.26424">
        <ele>1380.7185</ele>
        <time>2013-08-11T10:53:02Z</time>
      </trkpt>
      <trkpt lat="45.73022" lon="6.26423">
        <ele>1380.7185</ele>
        <time>2013-08-11T10:53:07Z</time>
      </trkpt>
      <trkpt lat="45.7302" lon="6.26423">
        <ele>1380.7185</ele>
        <time>2013-08-11T10:53:12Z</time>
      </trkpt>
      <trkpt lat="45.73017" lon="6.2642">
        <ele>1380.7185</ele>
        <time>2013-08-11T10:53:18Z</time>
      </trkpt>
      <trkpt lat="45.73013" lon="6.26417">
        <ele>1383.0127</ele>
        <time>2013-08-11T10:53:22Z</time>
      </trkpt>
      <trkpt lat="45.73013" lon="6.26414">
        <ele>1383.0127</ele>
        <time>2013-08-11T10:53:27Z</time>
      </trkpt>
      <trkpt lat="45.73013" lon="6.26409">
        <ele>1383.0127</ele>
        <time>2013-08-11T10:53:32Z</time>
      </trkpt>
      <trkpt lat="45.73014" lon="6.26405">
        <ele>1383.0127</ele>
        <time>2013-08-11T10:53:38Z</time>
      </trkpt>
      <trkpt lat="45.73013" lon="6.264">
        <ele>1385.3198</ele>
        <time>2013-08-11T10:53:42Z</time>
      </trkpt>
      <trkpt lat="45.73012" lon="6.26395">
        <ele>1385.3198</ele>
        <time>2013-08-11T10:53:47Z</time>
      </trkpt>
      <trkpt lat="45.73012" lon="6.26391">
        <ele>1385.3198</ele>
        <time>2013-08-11T10:53:52Z</time>
      </trkpt>
      <trkpt lat="45.7301" lon="6.26385">
        <ele>1387.4937</ele>
        <time>2013-08-11T10:53:57Z</time>
      </trkpt>
      <trkpt lat="45.73008" lon="6.26379">
        <ele>1387.4937</ele>
        <time>2013-08-11T10:54:02Z</time>
      </trkpt>
      <trkpt lat="45.73008" lon="6.26374">
        <ele>1387.4937</ele>
        <time>2013-08-11T10:54:07Z</time>
      </trkpt>
      <trkpt lat="45.73009" lon="6.26368">
        <ele>1389.9034</ele>
        <time>2013-08-11T10:54:12Z</time>
      </trkpt>
      <trkpt lat="45.73007" lon="6.26365">
        <ele>1389.9034</ele>
        <time>2013-08-11T10:54:18Z</time>
      </trkpt>
      <trkpt lat="45.73005" lon="6.2636">
        <ele>1389.9034</ele>
        <time>2013-08-11T10:54:22Z</time>
      </trkpt>
      <trkpt lat="45.73002" lon="6.26358">
        <ele>1392.487</ele>
        <time>2013-08-11T10:54:27Z</time>
      </trkpt>
      <trkpt lat="45.73" lon="6.26357">
        <ele>1392.487</ele>
        <time>2013-08-11T10:54:33Z</time>
      </trkpt>
      <trkpt lat="45.72996" lon="6.26358">
        <ele>1392.487</ele>
        <time>2013-08-11T10:54:37Z</time>
      </trkpt>
      <trkpt lat="45.72991" lon="6.26357">
        <ele>1395.6478</ele>
        <time>2013-08-11T10:54:42Z</time>
      </trkpt>
      <trkpt lat="45.72985" lon="6.26355">
        <ele>1395.6478</ele>
        <time>2013-08-11T10:54:47Z</time>
      </trkpt>
      <trkpt lat="45.72982" lon="6.26354">
        <ele>1398.72</ele>
        <time>2013-08-11T10:54:52Z</time>
      </trkpt>
      <trkpt lat="45.72976" lon="6.26354">
        <ele>1398.72</ele>
        <time>2013-08-11T10:54:57Z</time>
      </trkpt>
      <trkpt lat="45.72972" lon="6.26354">
        <ele>1401.8218</ele>
        <time>2013-08-11T10:55:02Z</time>
      </trkpt>
      <trkpt lat="45.72969" lon="6.26353">
        <ele>1401.8218</ele>
        <time>2013-08-11T10:55:07Z</time>
      </trkpt>
      <trkpt lat="45.72965" lon="6.26355">
        <ele>1401.8218</ele>
        <time>2013-08-11T10:55:12Z</time>
      </trkpt>
      <trkpt lat="45.72963" lon="6.26352">
        <ele>1404.7892</ele>
        <time>2013-08-11T10:55:17Z</time>
      </trkpt>
      <trkpt lat="45.7296" lon="6.26347">
        <ele>1404.7892</ele>
        <time>2013-08-11T10:55:22Z</time>
      </trkpt>
      <trkpt lat="45.72956" lon="6.26346">
        <ele>1404.7892</ele>
        <time>2013-08-11T10:55:27Z</time>
      </trkpt>
      <trkpt lat="45.72953" lon="6.26343">
        <ele>1407.7585</ele>
        <time>2013-08-11T10:55:32Z</time>
      </trkpt>
      <trkpt lat="45.72952" lon="6.26338">
        <ele>1407.7585</ele>
        <time>2013-08-11T10:55:37Z</time>
      </trkpt>
      <trkpt lat="45.72949" lon="6.26334">
        <ele>1407.7585</ele>
        <time>2013-08-11T10:55:42Z</time>
      </trkpt>
      <trkpt lat="45.72947" lon="6.26332">
        <ele>1411.0583</ele>
        <time>2013-08-11T10:55:47Z</time>
      </trkpt>
      <trkpt lat="45.72945" lon="6.26332">
        <ele>1411.0583</ele>
        <time>2013-08-11T10:55:52Z</time>
      </trkpt>
      <trkpt lat="45.72939" lon="6.26331">
        <ele>1411.0583</ele>
        <time>2013-08-11T10:55:57Z</time>
      </trkpt>
      <trkpt lat="45.72934" lon="6.2633">
        <ele>1414.199</ele>
        <time>2013-08-11T10:56:02Z</time>
      </trkpt>
      <trkpt lat="45.72928" lon="6.26328">
        <ele>1414.199</ele>
        <time>2013-08-11T10:56:07Z</time>
      </trkpt>
      <trkpt lat="45.72923" lon="6.26327">
        <ele>1417.4193</ele>
        <time>2013-08-11T10:56:12Z</time>
      </trkpt>
      <trkpt lat="45.72918" lon="6.26329">
        <ele>1417.4193</ele>
        <time>2013-08-11T10:56:17Z</time>
      </trkpt>
      <trkpt lat="45.72913" lon="6.26336">
        <ele>1420.2344</ele>
        <time>2013-08-11T10:56:22Z</time>
      </trkpt>
      <trkpt lat="45.72915" lon="6.26343">
        <ele>1420.2344</ele>
        <time>2013-08-11T10:56:27Z</time>
      </trkpt>
      <trkpt lat="45.72915" lon="6.26346">
        <ele>1420.2344</ele>
        <time>2013-08-11T10:56:32Z</time>
      </trkpt>
      <trkpt lat="45.72916" lon="6.26348">
        <ele>1423.392</ele>
        <time>2013-08-11T10:56:37Z</time>
      </trkpt>
      <trkpt lat="45.7292" lon="6.2635">
        <ele>1423.392</ele>
        <time>2013-08-11T10:56:42Z</time>
      </trkpt>
      <trkpt lat="45.72921" lon="6.2635">
        <ele>1423.392</ele>
        <time>2013-08-11T10:56:48Z</time>
      </trkpt>
      <trkpt lat="45.7292" lon="6.2635">
        <ele>1423.392</ele>
        <time>2013-08-11T10:56:53Z</time>
      </trkpt>
      <trkpt lat="45.7292" lon="6.2635">
        <ele>1423.392</ele>
        <time>2013-08-11T10:56:57Z</time>
      </trkpt>
      <trkpt lat="45.7292" lon="6.2635">
        <ele>1423.392</ele>
        <time>2013-08-11T10:57:02Z</time>
      </trkpt>
      <trkpt lat="45.7292" lon="6.26351">
        <ele>1423.392</ele>
        <time>2013-08-11T10:57:07Z</time>
      </trkpt>
      <trkpt lat="45.7292" lon="6.26351">
        <ele>1423.392</ele>
        <time>2013-08-11T10:57:12Z</time>
      </trkpt>
      <trkpt lat="45.7292" lon="6.26351">
        <ele>1423.392</ele>
        <time>2013-08-11T10:57:17Z</time>
      </trkpt>
      <trkpt lat="45.7292" lon="6.26351">
        <ele>1423.392</ele>
        <time>2013-08-11T10:57:22Z</time>
      </trkpt>
      <trkpt lat="45.7292" lon="6.26351">
        <ele>1423.392</ele>
        <time>2013-08-11T10:57:27Z</time>
      </trkpt>
      <trkpt lat="45.7292" lon="6.26351">
        <ele>1423.392</ele>
        <time>2013-08-11T10:57:32Z</time>
      </trkpt>
      <trkpt lat="45.7292" lon="6.26353">
        <ele>1423.392</ele>
        <time>2013-08-11T10:57:37Z</time>
      </trkpt>
      <trkpt lat="45.72919" lon="6.26357">
        <ele>1426.5753</ele>
        <time>2013-08-11T10:57:42Z</time>
      </trkpt>
      <trkpt lat="45.72919" lon="6.26355">
        <ele>1426.5753</ele>
        <time>2013-08-11T10:57:47Z</time>
      </trkpt>
      <trkpt lat="45.72919" lon="6.26354">
        <ele>1426.5753</ele>
        <time>2013-08-11T10:57:52Z</time>
      </trkpt>
      <trkpt lat="45.72919" lon="6.26354">
        <ele>1426.5753</ele>
        <time>2013-08-11T10:57:57Z</time>
      </trkpt>
      <trkpt lat="45.72919" lon="6.26354">
        <ele>1426.5753</ele>
        <time>2013-08-11T10:58:02Z</time>
      </trkpt>
      <trkpt lat="45.72919" lon="6.26354">
        <ele>1426.5753</ele>
        <time>2013-08-11T10:58:07Z</time>
      </trkpt>
      <trkpt lat="45.72919" lon="6.26354">
        <ele>1426.5753</ele>
        <time>2013-08-11T10:58:12Z</time>
      </trkpt>
      <trkpt lat="45.72919" lon="6.26354">
        <ele>1426.5753</ele>
        <time>2013-08-11T10:58:18Z</time>
      </trkpt>
      <trkpt lat="45.72919" lon="6.26354">
        <ele>1426.5753</ele>
        <time>2013-08-11T10:58:22Z</time>
      </trkpt>
      <trkpt lat="45.72919" lon="6.26354">
        <ele>1426.5753</ele>
        <time>2013-08-11T10:58:27Z</time>
      </trkpt>
      <trkpt lat="45.72919" lon="6.26354">
        <ele>1426.5753</ele>
        <time>2013-08-11T10:58:32Z</time>
      </trkpt>
      <trkpt lat="45.72919" lon="6.26354">
        <ele>1426.5753</ele>
        <time>2013-08-11T10:58:37Z</time>
      </trkpt>
      <trkpt lat="45.72919" lon="6.26354">
        <ele>1426.5753</ele>
        <time>2013-08-11T10:58:42Z</time>
      </trkpt>
      <trkpt lat="45.72919" lon="6.26352">
        <ele>1426.5753</ele>
        <time>2013-08-11T10:58:47Z</time>
      </trkpt>
      <trkpt lat="45.7292" lon="6.26352">
        <ele>1426.5753</ele>
        <time>2013-08-11T10:58:52Z</time>
      </trkpt>
      <trkpt lat="45.7292" lon="6.26352">
        <ele>1426.5753</ele>
        <time>2013-08-11T10:58:57Z</time>
      </trkpt>
      <trkpt lat="45.7292" lon="6.26352">
        <ele>1426.5753</ele>
        <time>2013-08-11T10:59:02Z</time>
      </trkpt>
      <trkpt lat="45.7292" lon="6.26351">
        <ele>1426.5753</ele>
        <time>2013-08-11T10:59:07Z</time>
      </trkpt>
      <trkpt lat="45.7292" lon="6.26351">
        <ele>1426.5753</ele>
        <time>2013-08-11T10:59:12Z</time>
      </trkpt>
      <trkpt lat="45.7292" lon="6.26351">
        <ele>1426.5753</ele>
        <time>2013-08-11T10:59:17Z</time>
      </trkpt>
      <trkpt lat="45.7292" lon="6.26351">
        <ele>1426.5753</ele>
        <time>2013-08-11T10:59:22Z</time>
      </trkpt>
      <trkpt lat="45.7292" lon="6.26351">
        <ele>1426.5753</ele>
        <time>2013-08-11T10:59:27Z</time>
      </trkpt>
      <trkpt lat="45.7292" lon="6.26351">
        <ele>1426.5753</ele>
        <time>2013-08-11T10:59:32Z</time>
      </trkpt>
      <trkpt lat="45.7292" lon="6.26351">
        <ele>1426.5753</ele>
        <time>2013-08-11T10:59:37Z</time>
      </trkpt>
      <trkpt lat="45.7292" lon="6.26351">
        <ele>1426.5753</ele>
        <time>2013-08-11T10:59:43Z</time>
      </trkpt>
      <trkpt lat="45.7292" lon="6.26351">
        <ele>1426.5753</ele>
        <time>2013-08-11T10:59:47Z</time>
      </trkpt>
      <trkpt lat="45.7292" lon="6.26351">
        <ele>1426.5753</ele>
        <time>2013-08-11T10:59:52Z</time>
      </trkpt>
      <trkpt lat="45.7292" lon="6.26351">
        <ele>1426.5753</ele>
        <time>2013-08-11T10:59:57Z</time>
      </trkpt>
      <trkpt lat="45.7292" lon="6.26351">
        <ele>1426.5753</ele>
        <time>2013-08-11T11:00:02Z</time>
      </trkpt>
      <trkpt lat="45.7292" lon="6.26351">
        <ele>1426.5753</ele>
        <time>2013-08-11T11:00:07Z</time>
      </trkpt>
      <trkpt lat="45.7292" lon="6.26351">
        <ele>1426.5753</ele>
        <time>2013-08-11T11:00:12Z</time>
      </trkpt>
      <trkpt lat="45.7292" lon="6.26351">
        <ele>1426.5753</ele>
        <time>2013-08-11T11:00:17Z</time>
      </trkpt>
      <trkpt lat="45.7292" lon="6.26351">
        <ele>1426.5753</ele>
        <time>2013-08-11T11:00:22Z</time>
      </trkpt>
      <trkpt lat="45.7292" lon="6.26351">
        <ele>1426.5753</ele>
        <time>2013-08-11T11:00:27Z</time>
      </trkpt>
      <trkpt lat="45.7292" lon="6.26351">
        <ele>1426.5753</ele>
        <time>2013-08-11T11:00:32Z</time>
      </trkpt>
      <trkpt lat="45.7292" lon="6.26351">
        <ele>1426.5753</ele>
        <time>2013-08-11T11:00:37Z</time>
      </trkpt>
      <trkpt lat="45.7292" lon="6.26351">
        <ele>1426.5753</ele>
        <time>2013-08-11T11:00:42Z</time>
      </trkpt>
      <trkpt lat="45.7292" lon="6.26351">
        <ele>1426.5753</ele>
        <time>2013-08-11T11:00:47Z</time>
      </trkpt>
      <trkpt lat="45.7292" lon="6.26351">
        <ele>1426.5753</ele>
        <time>2013-08-11T11:00:52Z</time>
      </trkpt>
      <trkpt lat="45.7292" lon="6.26351">
        <ele>1426.5753</ele>
        <time>2013-08-11T11:00:57Z</time>
      </trkpt>
      <trkpt lat="45.7292" lon="6.26351">
        <ele>1426.5753</ele>
        <time>2013-08-11T11:01:02Z</time>
      </trkpt>
      <trkpt lat="45.7292" lon="6.26351">
        <ele>1426.5753</ele>
        <time>2013-08-11T11:01:07Z</time>
      </trkpt>
      <trkpt lat="45.7292" lon="6.26351">
        <ele>1426.5753</ele>
        <time>2013-08-11T11:01:12Z</time>
      </trkpt>
      <trkpt lat="45.7292" lon="6.26351">
        <ele>1426.5753</ele>
        <time>2013-08-11T11:01:17Z</time>
      </trkpt>
      <trkpt lat="45.7292" lon="6.26351">
        <ele>1426.5753</ele>
        <time>2013-08-11T11:01:23Z</time>
      </trkpt>
      <trkpt lat="45.7292" lon="6.26351">
        <ele>1426.5753</ele>
        <time>2013-08-11T11:01:27Z</time>
      </trkpt>
      <trkpt lat="45.7292" lon="6.26351">
        <ele>1426.5753</ele>
        <time>2013-08-11T11:01:33Z</time>
      </trkpt>
      <trkpt lat="45.7292" lon="6.26351">
        <ele>1426.5753</ele>
        <time>2013-08-11T11:01:37Z</time>
      </trkpt>
      <trkpt lat="45.7292" lon="6.26351">
        <ele>1426.5753</ele>
        <time>2013-08-11T11:01:42Z</time>
      </trkpt>
      <trkpt lat="45.7292" lon="6.26351">
        <ele>1426.5753</ele>
        <time>2013-08-11T11:01:48Z</time>
      </trkpt>
      <trkpt lat="45.7292" lon="6.26351">
        <ele>1426.5753</ele>
        <time>2013-08-11T11:01:52Z</time>
      </trkpt>
      <trkpt lat="45.72919" lon="6.26347">
        <ele>1429.1307</ele>
        <time>2013-08-11T11:01:57Z</time>
      </trkpt>
      <trkpt lat="45.72914" lon="6.26338">
        <ele>1429.1307</ele>
        <time>2013-08-11T11:02:03Z</time>
      </trkpt>
      <trkpt lat="45.7291" lon="6.26331">
        <ele>1431.4342</ele>
        <time>2013-08-11T11:02:07Z</time>
      </trkpt>
      <trkpt lat="45.72909" lon="6.26327">
        <ele>1431.4342</ele>
        <time>2013-08-11T11:02:12Z</time>
      </trkpt>
      <trkpt lat="45.72912" lon="6.26331">
        <ele>1431.4342</ele>
        <time>2013-08-11T11:02:18Z</time>
      </trkpt>
      <trkpt lat="45.72913" lon="6.26333">
        <ele>1431.4342</ele>
        <time>2013-08-11T11:02:22Z</time>
      </trkpt>
      <trkpt lat="45.72912" lon="6.26331">
        <ele>1433.1289</ele>
        <time>2013-08-11T11:02:27Z</time>
      </trkpt>
      <trkpt lat="45.72911" lon="6.26331">
        <ele>1433.1289</ele>
        <time>2013-08-11T11:02:33Z</time>
      </trkpt>
      <trkpt lat="45.72911" lon="6.26331">
        <ele>1433.1289</ele>
        <time>2013-08-11T11:02:37Z</time>
      </trkpt>
      <trkpt lat="45.72911" lon="6.26331">
        <ele>1433.1289</ele>
        <time>2013-08-11T11:02:42Z</time>
      </trkpt>
      <trkpt lat="45.72911" lon="6.26331">
        <ele>1433.1289</ele>
        <time>2013-08-11T11:02:47Z</time>
      </trkpt>
      <trkpt lat="45.72911" lon="6.26331">
        <ele>1433.1289</ele>
        <time>2013-08-11T11:02:52Z</time>
      </trkpt>
      <trkpt lat="45.72911" lon="6.26331">
        <ele>1433.1289</ele>
        <time>2013-08-11T11:02:57Z</time>
      </trkpt>
      <trkpt lat="45.72911" lon="6.26331">
        <ele>1433.1289</ele>
        <time>2013-08-11T11:03:03Z</time>
      </trkpt>
      <trkpt lat="45.7291" lon="6.26332">
        <ele>1433.1289</ele>
        <time>2013-08-11T11:03:12Z</time>
      </trkpt>
      <trkpt lat="45.7291" lon="6.26333">
        <ele>1433.1289</ele>
        <time>2013-08-11T11:03:17Z</time>
      </trkpt>
      <trkpt lat="45.72909" lon="6.26333">
        <ele>1433.1289</ele>
        <time>2013-08-11T11:03:23Z</time>
      </trkpt>
      <trkpt lat="45.72909" lon="6.26333">
        <ele>1433.1289</ele>
        <time>2013-08-11T11:03:27Z</time>
      </trkpt>
      <trkpt lat="45.72909" lon="6.26333">
        <ele>1433.1289</ele>
        <time>2013-08-11T11:03:32Z</time>
      </trkpt>
      <trkpt lat="45.72909" lon="6.26333">
        <ele>1433.1289</ele>
        <time>2013-08-11T11:03:38Z</time>
      </trkpt>
      <trkpt lat="45.72909" lon="6.26333">
        <ele>1433.1289</ele>
        <time>2013-08-11T11:03:42Z</time>
      </trkpt>
      <trkpt lat="45.72909" lon="6.26333">
        <ele>1433.1289</ele>
        <time>2013-08-11T11:03:47Z</time>
      </trkpt>
      <trkpt lat="45.72911" lon="6.26328">
        <ele>1433.1289</ele>
        <time>2013-08-11T11:03:52Z</time>
      </trkpt>
      <trkpt lat="45.72913" lon="6.26321">
        <ele>1434.3181</ele>
        <time>2013-08-11T11:03:57Z</time>
      </trkpt>
      <trkpt lat="45.72911" lon="6.2632">
        <ele>1434.3181</ele>
        <time>2013-08-11T11:04:02Z</time>
      </trkpt>
      <trkpt lat="45.7291" lon="6.26319">
        <ele>1434.3181</ele>
        <time>2013-08-11T11:04:07Z</time>
      </trkpt>
      <trkpt lat="45.72908" lon="6.26317">
        <ele>1434.3181</ele>
        <time>2013-08-11T11:04:12Z</time>
      </trkpt>
      <trkpt lat="45.72905" lon="6.26315">
        <ele>1435.3586</ele>
        <time>2013-08-11T11:04:17Z</time>
      </trkpt>
      <trkpt lat="45.72901" lon="6.26313">
        <ele>1435.3586</ele>
        <time>2013-08-11T11:04:22Z</time>
      </trkpt>
      <trkpt lat="45.72896" lon="6.26308">
        <ele>1436.1056</ele>
        <time>2013-08-11T11:04:27Z</time>
      </trkpt>
      <trkpt lat="45.72893" lon="6.26305">
        <ele>1436.1056</ele>
        <time>2013-08-11T11:04:32Z</time>
      </trkpt>
      <trkpt lat="45.72886" lon="6.26301">
        <ele>1437.1178</ele>
        <time>2013-08-11T11:04:37Z</time>
      </trkpt>
      <trkpt lat="45.7288" lon="6.26299">
        <ele>1437.1178</ele>
        <time>2013-08-11T11:04:42Z</time>
      </trkpt>
      <trkpt lat="45.72875" lon="6.26297">
        <ele>1437.8024</ele>
        <time>2013-08-11T11:04:47Z</time>
      </trkpt>
      <trkpt lat="45.72869" lon="6.26293">
        <ele>1437.8024</ele>
        <time>2013-08-11T11:04:52Z</time>
      </trkpt>
      <trkpt lat="45.72864" lon="6.2629">
        <ele>1438.2593</ele>
        <time>2013-08-11T11:04:57Z</time>
      </trkpt>
      <trkpt lat="45.72858" lon="6.26288">
        <ele>1438.2593</ele>
        <time>2013-08-11T11:05:02Z</time>
      </trkpt>
      <trkpt lat="45.72851" lon="6.26285">
        <ele>1439.3746</ele>
        <time>2013-08-11T11:05:07Z</time>
      </trkpt>
      <trkpt lat="45.72845" lon="6.26285">
        <ele>1439.3746</ele>
        <time>2013-08-11T11:05:12Z</time>
      </trkpt>
      <trkpt lat="45.72838" lon="6.26284">
        <ele>1440.4977</ele>
        <time>2013-08-11T11:05:17Z</time>
      </trkpt>
      <trkpt lat="45.7283" lon="6.26285">
        <ele>1440.4977</ele>
        <time>2013-08-11T11:05:22Z</time>
      </trkpt>
      <trkpt lat="45.72824" lon="6.26284">
        <ele>1441.1117</ele>
        <time>2013-08-11T11:05:27Z</time>
      </trkpt>
      <trkpt lat="45.72819" lon="6.26284">
        <ele>1441.1117</ele>
        <time>2013-08-11T11:05:32Z</time>
      </trkpt>
      <trkpt lat="45.72814" lon="6.26283">
        <ele>1441.6475</ele>
        <time>2013-08-11T11:05:37Z</time>
      </trkpt>
      <trkpt lat="45.72808" lon="6.26282">
        <ele>1441.6475</ele>
        <time>2013-08-11T11:05:42Z</time>
      </trkpt>
      <trkpt lat="45.72803" lon="6.26281">
        <ele>1441.913</ele>
        <time>2013-08-11T11:05:47Z</time>
      </trkpt>
      <trkpt lat="45.72799" lon="6.26281">
        <ele>1441.913</ele>
        <time>2013-08-11T11:05:52Z</time>
      </trkpt>
      <trkpt lat="45.72794" lon="6.2628">
        <ele>1441.913</ele>
        <time>2013-08-11T11:05:57Z</time>
      </trkpt>
      <trkpt lat="45.72789" lon="6.26276">
        <ele>1442.3657</ele>
        <time>2013-08-11T11:06:02Z</time>
      </trkpt>
      <trkpt lat="45.72786" lon="6.26272">
        <ele>1442.3657</ele>
        <time>2013-08-11T11:06:07Z</time>
      </trkpt>
      <trkpt lat="45.72783" lon="6.26269">
        <ele>1442.3657</ele>
        <time>2013-08-11T11:06:12Z</time>
      </trkpt>
      <trkpt lat="45.72779" lon="6.26262">
        <ele>1443.054</ele>
        <time>2013-08-11T11:06:17Z</time>
      </trkpt>
      <trkpt lat="45.72778" lon="6.26255">
        <ele>1443.054</ele>
        <time>2013-08-11T11:06:22Z</time>
      </trkpt>
      <trkpt lat="45.72776" lon="6.26249">
        <ele>1444.0361</ele>
        <time>2013-08-11T11:06:27Z</time>
      </trkpt>
      <trkpt lat="45.72774" lon="6.26242">
        <ele>1444.0361</ele>
        <time>2013-08-11T11:06:32Z</time>
      </trkpt>
      <trkpt lat="45.72772" lon="6.26234">
        <ele>1445.2213</ele>
        <time>2013-08-11T11:06:37Z</time>
      </trkpt>
      <trkpt lat="45.72771" lon="6.2623">
        <ele>1445.2213</ele>
        <time>2013-08-11T11:06:42Z</time>
      </trkpt>
      <trkpt lat="45.72768" lon="6.26226">
        <ele>1445.2213</ele>
        <time>2013-08-11T11:06:47Z</time>
      </trkpt>
      <trkpt lat="45.72766" lon="6.26224">
        <ele>1446.6833</ele>
        <time>2013-08-11T11:06:53Z</time>
      </trkpt>
      <trkpt lat="45.72762" lon="6.26219">
        <ele>1446.6833</ele>
        <time>2013-08-11T11:06:57Z</time>
      </trkpt>
      <trkpt lat="45.72757" lon="6.26217">
        <ele>1448.432</ele>
        <time>2013-08-11T11:07:02Z</time>
      </trkpt>
      <trkpt lat="45.72754" lon="6.26214">
        <ele>1448.432</ele>
        <time>2013-08-11T11:07:07Z</time>
      </trkpt>
      <trkpt lat="45.7275" lon="6.26211">
        <ele>1448.432</ele>
        <time>2013-08-11T11:07:13Z</time>
      </trkpt>
      <trkpt lat="45.72744" lon="6.26208">
        <ele>1450.3025</ele>
        <time>2013-08-11T11:07:17Z</time>
      </trkpt>
      <trkpt lat="45.72738" lon="6.26206">
        <ele>1450.3025</ele>
        <time>2013-08-11T11:07:22Z</time>
      </trkpt>
      <trkpt lat="45.72736" lon="6.26206">
        <ele>1450.3025</ele>
        <time>2013-08-11T11:07:28Z</time>
      </trkpt>
      <trkpt lat="45.7273" lon="6.262">
        <ele>1452.2281</ele>
        <time>2013-08-11T11:07:32Z</time>
      </trkpt>
      <trkpt lat="45.72725" lon="6.26196">
        <ele>1452.2281</ele>
        <time>2013-08-11T11:07:37Z</time>
      </trkpt>
      <trkpt lat="45.72723" lon="6.26194">
        <ele>1452.2281</ele>
        <time>2013-08-11T11:07:42Z</time>
      </trkpt>
      <trkpt lat="45.72717" lon="6.26189">
        <ele>1454.104</ele>
        <time>2013-08-11T11:07:47Z</time>
      </trkpt>
      <trkpt lat="45.72712" lon="6.26187">
        <ele>1454.104</ele>
        <time>2013-08-11T11:07:52Z</time>
      </trkpt>
      <trkpt lat="45.72707" lon="6.26185">
        <ele>1455.5875</ele>
        <time>2013-08-11T11:07:57Z</time>
      </trkpt>
      <trkpt lat="45.72702" lon="6.26182">
        <ele>1455.5875</ele>
        <time>2013-08-11T11:08:02Z</time>
      </trkpt>
      <trkpt lat="45.72697" lon="6.2618">
        <ele>1456.9824</ele>
        <time>2013-08-11T11:08:07Z</time>
      </trkpt>
      <trkpt lat="45.72693" lon="6.26177">
        <ele>1456.9824</ele>
        <time>2013-08-11T11:08:12Z</time>
      </trkpt>
      <trkpt lat="45.72694" lon="6.26178">
        <ele>1456.9824</ele>
        <time>2013-08-11T11:08:17Z</time>
      </trkpt>
      <trkpt lat="45.72694" lon="6.26178">
        <ele>1456.9824</ele>
        <time>2013-08-11T11:08:22Z</time>
      </trkpt>
      <trkpt lat="45.72694" lon="6.26178">
        <ele>1456.9824</ele>
        <time>2013-08-11T11:08:27Z</time>
      </trkpt>
      <trkpt lat="45.72694" lon="6.26178">
        <ele>1456.9824</ele>
        <time>2013-08-11T11:08:32Z</time>
      </trkpt>
      <trkpt lat="45.72694" lon="6.26178">
        <ele>1456.9824</ele>
        <time>2013-08-11T11:08:37Z</time>
      </trkpt>
      <trkpt lat="45.72692" lon="6.26176">
        <ele>1456.9824</ele>
        <time>2013-08-11T11:08:43Z</time>
      </trkpt>
      <trkpt lat="45.7269" lon="6.26174">
        <ele>1457.8207</ele>
        <time>2013-08-11T11:08:47Z</time>
      </trkpt>
      <trkpt lat="45.72687" lon="6.26171">
        <ele>1457.8207</ele>
        <time>2013-08-11T11:08:53Z</time>
      </trkpt>
      <trkpt lat="45.72681" lon="6.26165">
        <ele>1458.4484</ele>
        <time>2013-08-11T11:08:57Z</time>
      </trkpt>
      <trkpt lat="45.72677" lon="6.26161">
        <ele>1458.4484</ele>
        <time>2013-08-11T11:09:02Z</time>
      </trkpt>
      <trkpt lat="45.72671" lon="6.26158">
        <ele>1458.9994</ele>
        <time>2013-08-11T11:09:07Z</time>
      </trkpt>
      <trkpt lat="45.72665" lon="6.26154">
        <ele>1458.9994</ele>
        <time>2013-08-11T11:09:12Z</time>
      </trkpt>
      <trkpt lat="45.72659" lon="6.26153">
        <ele>1459.5404</ele>
        <time>2013-08-11T11:09:17Z</time>
      </trkpt>
      <trkpt lat="45.72654" lon="6.26152">
        <ele>1459.5404</ele>
        <time>2013-08-11T11:09:22Z</time>
      </trkpt>
      <trkpt lat="45.72649" lon="6.2615">
        <ele>1460.1473</ele>
        <time>2013-08-11T11:09:27Z</time>
      </trkpt>
      <trkpt lat="45.72645" lon="6.26148">
        <ele>1460.1473</ele>
        <time>2013-08-11T11:09:32Z</time>
      </trkpt>
      <trkpt lat="45.72639" lon="6.26146">
        <ele>1460.8472</ele>
        <time>2013-08-11T11:09:37Z</time>
      </trkpt>
      <trkpt lat="45.72633" lon="6.26144">
        <ele>1460.8472</ele>
        <time>2013-08-11T11:09:42Z</time>
      </trkpt>
      <trkpt lat="45.72627" lon="6.26144">
        <ele>1461.5349</ele>
        <time>2013-08-11T11:09:47Z</time>
      </trkpt>
      <trkpt lat="45.72621" lon="6.26144">
        <ele>1461.5349</ele>
        <time>2013-08-11T11:09:52Z</time>
      </trkpt>
      <trkpt lat="45.72615" lon="6.26144">
        <ele>1462.1852</ele>
        <time>2013-08-11T11:09:57Z</time>
      </trkpt>
      <trkpt lat="45.72609" lon="6.26145">
        <ele>1462.1852</ele>
        <time>2013-08-11T11:10:02Z</time>
      </trkpt>
      <trkpt lat="45.72603" lon="6.26145">
        <ele>1462.5151</ele>
        <time>2013-08-11T11:10:07Z</time>
      </trkpt>
      <trkpt lat="45.72597" lon="6.26143">
        <ele>1462.5151</ele>
        <time>2013-08-11T11:10:12Z</time>
      </trkpt>
      <trkpt lat="45.7259" lon="6.2614">
        <ele>1462.9265</ele>
        <time>2013-08-11T11:10:17Z</time>
      </trkpt>
      <trkpt lat="45.72584" lon="6.26136">
        <ele>1462.9265</ele>
        <time>2013-08-11T11:10:22Z</time>
      </trkpt>
      <trkpt lat="45.72579" lon="6.26133">
        <ele>1463.647</ele>
        <time>2013-08-11T11:10:27Z</time>
      </trkpt>
      <trkpt lat="45.72573" lon="6.26131">
        <ele>1463.647</ele>
        <time>2013-08-11T11:10:32Z</time>
      </trkpt>
      <trkpt lat="45.7257" lon="6.26128">
        <ele>1464.4974</ele>
        <time>2013-08-11T11:10:37Z</time>
      </trkpt>
      <trkpt lat="45.72566" lon="6.26123">
        <ele>1464.4974</ele>
        <time>2013-08-11T11:10:42Z</time>
      </trkpt>
      <trkpt lat="45.72564" lon="6.26121">
        <ele>1464.4974</ele>
        <time>2013-08-11T11:10:47Z</time>
      </trkpt>
      <trkpt lat="45.7256" lon="6.26117">
        <ele>1465.1531</ele>
        <time>2013-08-11T11:10:52Z</time>
      </trkpt>
      <trkpt lat="45.72559" lon="6.26112">
        <ele>1465.1531</ele>
        <time>2013-08-11T11:10:57Z</time>
      </trkpt>
      <trkpt lat="45.72556" lon="6.2611">
        <ele>1465.1531</ele>
        <time>2013-08-11T11:11:02Z</time>
      </trkpt>
      <trkpt lat="45.72552" lon="6.26106">
        <ele>1465.4719</ele>
        <time>2013-08-11T11:11:07Z</time>
      </trkpt>
      <trkpt lat="45.72547" lon="6.261">
        <ele>1465.4719</ele>
        <time>2013-08-11T11:11:12Z</time>
      </trkpt>
      <trkpt lat="45.72544" lon="6.26095">
        <ele>1465.7556</ele>
        <time>2013-08-11T11:11:17Z</time>
      </trkpt>
      <trkpt lat="45.7254" lon="6.26087">
        <ele>1465.7556</ele>
        <time>2013-08-11T11:11:22Z</time>
      </trkpt>
      <trkpt lat="45.72535" lon="6.26082">
        <ele>1465.9519</ele>
        <time>2013-08-11T11:11:27Z</time>
      </trkpt>
      <trkpt lat="45.7253" lon="6.26078">
        <ele>1465.9519</ele>
        <time>2013-08-11T11:11:32Z</time>
      </trkpt>
      <trkpt lat="45.72525" lon="6.26075">
        <ele>1466.1427</ele>
        <time>2013-08-11T11:11:38Z</time>
      </trkpt>
      <trkpt lat="45.72521" lon="6.26068">
        <ele>1466.1427</ele>
        <time>2013-08-11T11:11:42Z</time>
      </trkpt>
      <trkpt lat="45.72515" lon="6.26067">
        <ele>1466.5331</ele>
        <time>2013-08-11T11:11:47Z</time>
      </trkpt>
      <trkpt lat="45.72508" lon="6.26064">
        <ele>1466.5331</ele>
        <time>2013-08-11T11:11:53Z</time>
      </trkpt>
      <trkpt lat="45.72505" lon="6.26062">
        <ele>1466.8805</ele>
        <time>2013-08-11T11:11:57Z</time>
      </trkpt>
      <trkpt lat="45.72499" lon="6.26057">
        <ele>1466.8805</ele>
        <time>2013-08-11T11:12:02Z</time>
      </trkpt>
      <trkpt lat="45.72497" lon="6.26056">
        <ele>1466.8805</ele>
        <time>2013-08-11T11:12:08Z</time>
      </trkpt>
      <trkpt lat="45.7249" lon="6.26049">
        <ele>1467.1183</ele>
        <time>2013-08-11T11:12:12Z</time>
      </trkpt>
      <trkpt lat="45.72487" lon="6.26044">
        <ele>1467.1183</ele>
        <time>2013-08-11T11:12:17Z</time>
      </trkpt>
      <trkpt lat="45.72484" lon="6.26038">
        <ele>1467.3583</ele>
        <time>2013-08-11T11:12:22Z</time>
      </trkpt>
      <trkpt lat="45.72481" lon="6.26036">
        <ele>1467.3583</ele>
        <time>2013-08-11T11:12:28Z</time>
      </trkpt>
      <trkpt lat="45.72477" lon="6.26028">
        <ele>1467.6605</ele>
        <time>2013-08-11T11:12:32Z</time>
      </trkpt>
      <trkpt lat="45.72474" lon="6.26021">
        <ele>1467.6605</ele>
        <time>2013-08-11T11:12:37Z</time>
      </trkpt>
      <trkpt lat="45.72473" lon="6.2602">
        <ele>1467.6605</ele>
        <time>2013-08-11T11:12:43Z</time>
      </trkpt>
      <trkpt lat="45.72466" lon="6.26007">
        <ele>1467.7633</ele>
        <time>2013-08-11T11:12:47Z</time>
      </trkpt>
      <trkpt lat="45.72464" lon="6.25998">
        <ele>1467.7633</ele>
        <time>2013-08-11T11:12:52Z</time>
      </trkpt>
      <trkpt lat="45.7246" lon="6.2599">
        <ele>1467.8569</ele>
        <time>2013-08-11T11:12:57Z</time>
      </trkpt>
      <trkpt lat="45.72457" lon="6.25982">
        <ele>1467.8569</ele>
        <time>2013-08-11T11:13:02Z</time>
      </trkpt>
      <trkpt lat="45.72455" lon="6.25975">
        <ele>1467.7288</ele>
        <time>2013-08-11T11:13:07Z</time>
      </trkpt>
      <trkpt lat="45.72453" lon="6.25969">
        <ele>1467.7288</ele>
        <time>2013-08-11T11:13:12Z</time>
      </trkpt>
      <trkpt lat="45.72448" lon="6.25963">
        <ele>1467.3695</ele>
        <time>2013-08-11T11:13:17Z</time>
      </trkpt>
      <trkpt lat="45.72442" lon="6.25961">
        <ele>1467.3695</ele>
        <time>2013-08-11T11:13:22Z</time>
      </trkpt>
      <trkpt lat="45.72436" lon="6.25959">
        <ele>1467.4338</ele>
        <time>2013-08-11T11:13:27Z</time>
      </trkpt>
      <trkpt lat="45.72431" lon="6.25959">
        <ele>1467.4338</ele>
        <time>2013-08-11T11:13:32Z</time>
      </trkpt>
      <trkpt lat="45.72426" lon="6.25957">
        <ele>1467.6051</ele>
        <time>2013-08-11T11:13:37Z</time>
      </trkpt>
      <trkpt lat="45.7242" lon="6.25953">
        <ele>1467.6051</ele>
        <time>2013-08-11T11:13:42Z</time>
      </trkpt>
      <trkpt lat="45.72415" lon="6.25949">
        <ele>1467.9061</ele>
        <time>2013-08-11T11:13:47Z</time>
      </trkpt>
      <trkpt lat="45.72409" lon="6.25941">
        <ele>1467.9061</ele>
        <time>2013-08-11T11:13:52Z</time>
      </trkpt>
      <trkpt lat="45.72405" lon="6.25938">
        <ele>1467.8969</ele>
        <time>2013-08-11T11:13:57Z</time>
      </trkpt>
      <trkpt lat="45.72405" lon="6.25936">
        <ele>1467.8969</ele>
        <time>2013-08-11T11:14:02Z</time>
      </trkpt>
      <trkpt lat="45.72405" lon="6.25931">
        <ele>1467.8969</ele>
        <time>2013-08-11T11:14:07Z</time>
      </trkpt>
      <trkpt lat="45.72402" lon="6.25926">
        <ele>1467.8617</ele>
        <time>2013-08-11T11:14:12Z</time>
      </trkpt>
      <trkpt lat="45.72397" lon="6.25921">
        <ele>1467.8617</ele>
        <time>2013-08-11T11:14:17Z</time>
      </trkpt>
      <trkpt lat="45.72393" lon="6.25919">
        <ele>1467.3728</ele>
        <time>2013-08-11T11:14:22Z</time>
      </trkpt>
      <trkpt lat="45.72387" lon="6.25917">
        <ele>1467.3728</ele>
        <time>2013-08-11T11:14:27Z</time>
      </trkpt>
      <trkpt lat="45.7238" lon="6.25916">
        <ele>1466.7982</ele>
        <time>2013-08-11T11:14:32Z</time>
      </trkpt>
      <trkpt lat="45.72375" lon="6.25915">
        <ele>1466.7982</ele>
        <time>2013-08-11T11:14:37Z</time>
      </trkpt>
      <trkpt lat="45.72371" lon="6.25912">
        <ele>1466.4795</ele>
        <time>2013-08-11T11:14:42Z</time>
      </trkpt>
      <trkpt lat="45.72366" lon="6.25911">
        <ele>1466.4795</ele>
        <time>2013-08-11T11:14:47Z</time>
      </trkpt>
      <trkpt lat="45.72367" lon="6.2591">
        <ele>1466.4795</ele>
        <time>2013-08-11T11:14:52Z</time>
      </trkpt>
      <trkpt lat="45.72367" lon="6.25908">
        <ele>1466.4795</ele>
        <time>2013-08-11T11:14:57Z</time>
      </trkpt>
      <trkpt lat="45.72368" lon="6.25905">
        <ele>1466.7322</ele>
        <time>2013-08-11T11:15:02Z</time>
      </trkpt>
      <trkpt lat="45.72369" lon="6.25906">
        <ele>1466.7322</ele>
        <time>2013-08-11T11:15:07Z</time>
      </trkpt>
      <trkpt lat="45.72369" lon="6.25906">
        <ele>1466.7322</ele>
        <time>2013-08-11T11:15:12Z</time>
      </trkpt>
      <trkpt lat="45.72369" lon="6.25906">
        <ele>1466.7322</ele>
        <time>2013-08-11T11:15:17Z</time>
      </trkpt>
      <trkpt lat="45.72368" lon="6.25907">
        <ele>1466.7322</ele>
        <time>2013-08-11T11:15:22Z</time>
      </trkpt>
      <trkpt lat="45.72368" lon="6.25907">
        <ele>1466.7322</ele>
        <time>2013-08-11T11:15:27Z</time>
      </trkpt>
      <trkpt lat="45.72368" lon="6.25907">
        <ele>1466.7322</ele>
        <time>2013-08-11T11:15:32Z</time>
      </trkpt>
      <trkpt lat="45.72368" lon="6.25907">
        <ele>1466.7322</ele>
        <time>2013-08-11T11:15:37Z</time>
      </trkpt>
      <trkpt lat="45.72367" lon="6.25908">
        <ele>1466.7322</ele>
        <time>2013-08-11T11:15:42Z</time>
      </trkpt>
      <trkpt lat="45.72367" lon="6.25907">
        <ele>1466.7322</ele>
        <time>2013-08-11T11:15:47Z</time>
      </trkpt>
      <trkpt lat="45.72364" lon="6.25905">
        <ele>1466.7322</ele>
        <time>2013-08-11T11:15:52Z</time>
      </trkpt>
      <trkpt lat="45.7236" lon="6.25902">
        <ele>1466.6796</ele>
        <time>2013-08-11T11:15:57Z</time>
      </trkpt>
      <trkpt lat="45.72358" lon="6.25902">
        <ele>1466.6796</ele>
        <time>2013-08-11T11:16:02Z</time>
      </trkpt>
      <trkpt lat="45.72358" lon="6.25902">
        <ele>1466.6796</ele>
        <time>2013-08-11T11:16:10Z</time>
      </trkpt>
      <trkpt lat="45.72358" lon="6.25902">
        <ele>1466.6796</ele>
        <time>2013-08-11T11:16:12Z</time>
      </trkpt>
      <trkpt lat="45.72358" lon="6.25902">
        <ele>1466.6796</ele>
        <time>2013-08-11T11:16:17Z</time>
      </trkpt>
      <trkpt lat="45.72354" lon="6.259">
        <ele>1466.6796</ele>
        <time>2013-08-11T11:16:23Z</time>
      </trkpt>
      <trkpt lat="45.72343" lon="6.25897">
        <ele>1466.3604</ele>
        <time>2013-08-11T11:16:27Z</time>
      </trkpt>
      <trkpt lat="45.72336" lon="6.2589">
        <ele>1466.3604</ele>
        <time>2013-08-11T11:16:32Z</time>
      </trkpt>
      <trkpt lat="45.72332" lon="6.25886">
        <ele>1466.3442</ele>
        <time>2013-08-11T11:16:38Z</time>
      </trkpt>
      <trkpt lat="45.72325" lon="6.25885">
        <ele>1466.3442</ele>
        <time>2013-08-11T11:16:42Z</time>
      </trkpt>
      <trkpt lat="45.72319" lon="6.25879">
        <ele>1466.1351</ele>
        <time>2013-08-11T11:16:47Z</time>
      </trkpt>
      <trkpt lat="45.72315" lon="6.25875">
        <ele>1466.1351</ele>
        <time>2013-08-11T11:16:53Z</time>
      </trkpt>
      <trkpt lat="45.72307" lon="6.25872">
        <ele>1466.2534</ele>
        <time>2013-08-11T11:16:57Z</time>
      </trkpt>
      <trkpt lat="45.72302" lon="6.2587">
        <ele>1466.2534</ele>
        <time>2013-08-11T11:17:02Z</time>
      </trkpt>
      <trkpt lat="45.72298" lon="6.25866">
        <ele>1466.2151</ele>
        <time>2013-08-11T11:17:07Z</time>
      </trkpt>
      <trkpt lat="45.72293" lon="6.25864">
        <ele>1466.2151</ele>
        <time>2013-08-11T11:17:12Z</time>
      </trkpt>
      <trkpt lat="45.72289" lon="6.25862">
        <ele>1465.8888</ele>
        <time>2013-08-11T11:17:17Z</time>
      </trkpt>
      <trkpt lat="45.72284" lon="6.25863">
        <ele>1465.8888</ele>
        <time>2013-08-11T11:17:22Z</time>
      </trkpt>
      <trkpt lat="45.72283" lon="6.25862">
        <ele>1465.8888</ele>
        <time>2013-08-11T11:17:27Z</time>
      </trkpt>
      <trkpt lat="45.7228" lon="6.25859">
        <ele>1466.0039</ele>
        <time>2013-08-11T11:17:33Z</time>
      </trkpt>
      <trkpt lat="45.72272" lon="6.25854">
        <ele>1466.0039</ele>
        <time>2013-08-11T11:17:37Z</time>
      </trkpt>
      <trkpt lat="45.72267" lon="6.2585">
        <ele>1466.9037</ele>
        <time>2013-08-11T11:17:42Z</time>
      </trkpt>
      <trkpt lat="45.7226" lon="6.25846">
        <ele>1466.9037</ele>
        <time>2013-08-11T11:17:48Z</time>
      </trkpt>
      <trkpt lat="45.72258" lon="6.25844">
        <ele>1467.5631</ele>
        <time>2013-08-11T11:17:52Z</time>
      </trkpt>
      <trkpt lat="45.72252" lon="6.25841">
        <ele>1467.5631</ele>
        <time>2013-08-11T11:17:57Z</time>
      </trkpt>
      <trkpt lat="45.72247" lon="6.25838">
        <ele>1467.7686</ele>
        <time>2013-08-11T11:18:02Z</time>
      </trkpt>
      <trkpt lat="45.72245" lon="6.25836">
        <ele>1467.7686</ele>
        <time>2013-08-11T11:18:08Z</time>
      </trkpt>
      <trkpt lat="45.72236" lon="6.2583">
        <ele>1468.0435</ele>
        <time>2013-08-11T11:18:12Z</time>
      </trkpt>
      <trkpt lat="45.7223" lon="6.25827">
        <ele>1468.0435</ele>
        <time>2013-08-11T11:18:17Z</time>
      </trkpt>
      <trkpt lat="45.72227" lon="6.25826">
        <ele>1467.8641</ele>
        <time>2013-08-11T11:18:23Z</time>
      </trkpt>
      <trkpt lat="45.72219" lon="6.25818">
        <ele>1468.0721</ele>
        <time>2013-08-11T11:18:27Z</time>
      </trkpt>
      <trkpt lat="45.72217" lon="6.25816">
        <ele>1468.0721</ele>
        <time>2013-08-11T11:18:32Z</time>
      </trkpt>
      <trkpt lat="45.72218" lon="6.25816">
        <ele>1468.0721</ele>
        <time>2013-08-11T11:18:38Z</time>
      </trkpt>
      <trkpt lat="45.72218" lon="6.25816">
        <ele>1468.0721</ele>
        <time>2013-08-11T11:18:42Z</time>
      </trkpt>
      <trkpt lat="45.72217" lon="6.25816">
        <ele>1468.0721</ele>
        <time>2013-08-11T11:18:47Z</time>
      </trkpt>
      <trkpt lat="45.72216" lon="6.25816">
        <ele>1468.0721</ele>
        <time>2013-08-11T11:18:52Z</time>
      </trkpt>
      <trkpt lat="45.72216" lon="6.25816">
        <ele>1468.0721</ele>
        <time>2013-08-11T11:18:57Z</time>
      </trkpt>
      <trkpt lat="45.72217" lon="6.25816">
        <ele>1468.0721</ele>
        <time>2013-08-11T11:19:02Z</time>
      </trkpt>
      <trkpt lat="45.72216" lon="6.25816">
        <ele>1468.0721</ele>
        <time>2013-08-11T11:19:07Z</time>
      </trkpt>
      <trkpt lat="45.72216" lon="6.25816">
        <ele>1468.0721</ele>
        <time>2013-08-11T11:19:12Z</time>
      </trkpt>
      <trkpt lat="45.72216" lon="6.25816">
        <ele>1468.0721</ele>
        <time>2013-08-11T11:19:17Z</time>
      </trkpt>
      <trkpt lat="45.72217" lon="6.25816">
        <ele>1468.0721</ele>
        <time>2013-08-11T11:19:22Z</time>
      </trkpt>
      <trkpt lat="45.72216" lon="6.25816">
        <ele>1468.0721</ele>
        <time>2013-08-11T11:19:27Z</time>
      </trkpt>
      <trkpt lat="45.72214" lon="6.2581">
        <ele>1468.0916</ele>
        <time>2013-08-11T11:19:32Z</time>
      </trkpt>
      <trkpt lat="45.72212" lon="6.25804">
        <ele>1468.0916</ele>
        <time>2013-08-11T11:19:37Z</time>
      </trkpt>
      <trkpt lat="45.72212" lon="6.25799">
        <ele>1468.0916</ele>
        <time>2013-08-11T11:19:42Z</time>
      </trkpt>
      <trkpt lat="45.72212" lon="6.25792">
        <ele>1467.591</ele>
        <time>2013-08-11T11:19:47Z</time>
      </trkpt>
      <trkpt lat="45.72212" lon="6.2579">
        <ele>1467.591</ele>
        <time>2013-08-11T11:19:52Z</time>
      </trkpt>
      <trkpt lat="45.72212" lon="6.25784">
        <ele>1467.591</ele>
        <time>2013-08-11T11:19:57Z</time>
      </trkpt>
      <trkpt lat="45.72211" lon="6.25778">
        <ele>1467.2877</ele>
        <time>2013-08-11T11:20:02Z</time>
      </trkpt>
      <trkpt lat="45.72208" lon="6.25773">
        <ele>1467.2877</ele>
        <time>2013-08-11T11:20:07Z</time>
      </trkpt>
      <trkpt lat="45.72203" lon="6.25767">
        <ele>1466.5347</ele>
        <time>2013-08-11T11:20:12Z</time>
      </trkpt>
      <trkpt lat="45.722" lon="6.25763">
        <ele>1466.5347</ele>
        <time>2013-08-11T11:20:18Z</time>
      </trkpt>
      <trkpt lat="45.72194" lon="6.25754">
        <ele>1465.8575</ele>
        <time>2013-08-11T11:20:22Z</time>
      </trkpt>
      <trkpt lat="45.7219" lon="6.25751">
        <ele>1465.8575</ele>
        <time>2013-08-11T11:20:27Z</time>
      </trkpt>
      <trkpt lat="45.72189" lon="6.2575">
        <ele>1465.8575</ele>
        <time>2013-08-11T11:20:33Z</time>
      </trkpt>
      <trkpt lat="45.72181" lon="6.25743">
        <ele>1465.181</ele>
        <time>2013-08-11T11:20:37Z</time>
      </trkpt>
      <trkpt lat="45.72177" lon="6.25738">
        <ele>1465.181</ele>
        <time>2013-08-11T11:20:42Z</time>
      </trkpt>
      <trkpt lat="45.72171" lon="6.25732">
        <ele>1464.2911</ele>
        <time>2013-08-11T11:20:47Z</time>
      </trkpt>
      <trkpt lat="45.72167" lon="6.2573">
        <ele>1464.2911</ele>
        <time>2013-08-11T11:20:52Z</time>
      </trkpt>
      <trkpt lat="45.72162" lon="6.25728">
        <ele>1463.3647</ele>
        <time>2013-08-11T11:20:57Z</time>
      </trkpt>
      <trkpt lat="45.72155" lon="6.25723">
        <ele>1463.3647</ele>
        <time>2013-08-11T11:21:02Z</time>
      </trkpt>
      <trkpt lat="45.72148" lon="6.25719">
        <ele>1462.494</ele>
        <time>2013-08-11T11:21:07Z</time>
      </trkpt>
      <trkpt lat="45.72142" lon="6.25715">
        <ele>1462.494</ele>
        <time>2013-08-11T11:21:12Z</time>
      </trkpt>
      <trkpt lat="45.72137" lon="6.25707">
        <ele>1461.1731</ele>
        <time>2013-08-11T11:21:17Z</time>
      </trkpt>
      <trkpt lat="45.72134" lon="6.25701">
        <ele>1461.1731</ele>
        <time>2013-08-11T11:21:22Z</time>
      </trkpt>
      <trkpt lat="45.72129" lon="6.25697">
        <ele>1460.1593</ele>
        <time>2013-08-11T11:21:27Z</time>
      </trkpt>
      <trkpt lat="45.72125" lon="6.25691">
        <ele>1460.1593</ele>
        <time>2013-08-11T11:21:32Z</time>
      </trkpt>
      <trkpt lat="45.72122" lon="6.25684">
        <ele>1459.2024</ele>
        <time>2013-08-11T11:21:37Z</time>
      </trkpt>
      <trkpt lat="45.72121" lon="6.25675">
        <ele>1459.2024</ele>
        <time>2013-08-11T11:21:42Z</time>
      </trkpt>
      <trkpt lat="45.72121" lon="6.25667">
        <ele>1458.3585</ele>
        <time>2013-08-11T11:21:47Z</time>
      </trkpt>
      <trkpt lat="45.72121" lon="6.25657">
        <ele>1458.3585</ele>
        <time>2013-08-11T11:21:52Z</time>
      </trkpt>
      <trkpt lat="45.72123" lon="6.25649">
        <ele>1457.4054</ele>
        <time>2013-08-11T11:21:57Z</time>
      </trkpt>
      <trkpt lat="45.72125" lon="6.2564">
        <ele>1457.4054</ele>
        <time>2013-08-11T11:22:02Z</time>
      </trkpt>
      <trkpt lat="45.72124" lon="6.25633">
        <ele>1456.44</ele>
        <time>2013-08-11T11:22:07Z</time>
      </trkpt>
      <trkpt lat="45.72122" lon="6.25628">
        <ele>1456.44</ele>
        <time>2013-08-11T11:22:13Z</time>
      </trkpt>
      <trkpt lat="45.72121" lon="6.2562">
        <ele>1455.552</ele>
        <time>2013-08-11T11:22:17Z</time>
      </trkpt>
      <trkpt lat="45.72124" lon="6.25613">
        <ele>1455.552</ele>
        <time>2013-08-11T11:22:22Z</time>
      </trkpt>
      <trkpt lat="45.72125" lon="6.25607">
        <ele>1455.055</ele>
        <time>2013-08-11T11:22:28Z</time>
      </trkpt>
      <trkpt lat="45.72126" lon="6.25598">
        <ele>1455.055</ele>
        <time>2013-08-11T11:22:32Z</time>
      </trkpt>
      <trkpt lat="45.72126" lon="6.25591">
        <ele>1455.2671</ele>
        <time>2013-08-11T11:22:37Z</time>
      </trkpt>
      <trkpt lat="45.72127" lon="6.25587">
        <ele>1455.2671</ele>
        <time>2013-08-11T11:22:43Z</time>
      </trkpt>
      <trkpt lat="45.7213" lon="6.25575">
        <ele>1455.3423</ele>
        <time>2013-08-11T11:22:47Z</time>
      </trkpt>
      <trkpt lat="45.72131" lon="6.25567">
        <ele>1455.3423</ele>
        <time>2013-08-11T11:22:52Z</time>
      </trkpt>
      <trkpt lat="45.72131" lon="6.25561">
        <ele>1455.5493</ele>
        <time>2013-08-11T11:22:57Z</time>
      </trkpt>
      <trkpt lat="45.72131" lon="6.2555">
        <ele>1455.5493</ele>
        <time>2013-08-11T11:23:02Z</time>
      </trkpt>
      <trkpt lat="45.72132" lon="6.25541">
        <ele>1455.6466</ele>
        <time>2013-08-11T11:23:07Z</time>
      </trkpt>
      <trkpt lat="45.72132" lon="6.25534">
        <ele>1455.6466</ele>
        <time>2013-08-11T11:23:12Z</time>
      </trkpt>
      <trkpt lat="45.72133" lon="6.2553">
        <ele>1455.6466</ele>
        <time>2013-08-11T11:23:18Z</time>
      </trkpt>
      <trkpt lat="45.72134" lon="6.25519">
        <ele>1455.843</ele>
        <time>2013-08-11T11:23:22Z</time>
      </trkpt>
      <trkpt lat="45.72135" lon="6.25511">
        <ele>1455.843</ele>
        <time>2013-08-11T11:23:27Z</time>
      </trkpt>
      <trkpt lat="45.72135" lon="6.25507">
        <ele>1455.843</ele>
        <time>2013-08-11T11:23:32Z</time>
      </trkpt>
      <trkpt lat="45.72138" lon="6.25494">
        <ele>1455.957</ele>
        <time>2013-08-11T11:23:37Z</time>
      </trkpt>
      <trkpt lat="45.72138" lon="6.25486">
        <ele>1455.957</ele>
        <time>2013-08-11T11:23:42Z</time>
      </trkpt>
      <trkpt lat="45.72138" lon="6.25478">
        <ele>1455.9215</ele>
        <time>2013-08-11T11:23:47Z</time>
      </trkpt>
      <trkpt lat="45.72138" lon="6.25469">
        <ele>1455.9215</ele>
        <time>2013-08-11T11:23:52Z</time>
      </trkpt>
      <trkpt lat="45.72138" lon="6.2546">
        <ele>1455.9196</ele>
        <time>2013-08-11T11:23:57Z</time>
      </trkpt>
      <trkpt lat="45.72138" lon="6.25448">
        <ele>1455.9196</ele>
        <time>2013-08-11T11:24:02Z</time>
      </trkpt>
      <trkpt lat="45.7214" lon="6.2544">
        <ele>1455.8757</ele>
        <time>2013-08-11T11:24:07Z</time>
      </trkpt>
      <trkpt lat="45.72141" lon="6.2543">
        <ele>1455.8757</ele>
        <time>2013-08-11T11:24:12Z</time>
      </trkpt>
      <trkpt lat="45.72142" lon="6.25421">
        <ele>1455.7924</ele>
        <time>2013-08-11T11:24:17Z</time>
      </trkpt>
      <trkpt lat="45.72141" lon="6.2541">
        <ele>1455.7924</ele>
        <time>2013-08-11T11:24:22Z</time>
      </trkpt>
      <trkpt lat="45.7214" lon="6.25398">
        <ele>1455.4844</ele>
        <time>2013-08-11T11:24:27Z</time>
      </trkpt>
      <trkpt lat="45.72142" lon="6.25386">
        <ele>1455.4844</ele>
        <time>2013-08-11T11:24:32Z</time>
      </trkpt>
      <trkpt lat="45.72142" lon="6.25375">
        <ele>1455.2421</ele>
        <time>2013-08-11T11:24:37Z</time>
      </trkpt>
      <trkpt lat="45.72139" lon="6.25367">
        <ele>1455.2421</ele>
        <time>2013-08-11T11:24:42Z</time>
      </trkpt>
      <trkpt lat="45.72136" lon="6.25362">
        <ele>1454.9736</ele>
        <time>2013-08-11T11:24:47Z</time>
      </trkpt>
      <trkpt lat="45.72135" lon="6.25359">
        <ele>1454.9736</ele>
        <time>2013-08-11T11:24:52Z</time>
      </trkpt>
      <trkpt lat="45.72137" lon="6.25356">
        <ele>1454.9736</ele>
        <time>2013-08-11T11:24:57Z</time>
      </trkpt>
      <trkpt lat="45.72138" lon="6.25356">
        <ele>1454.9736</ele>
        <time>2013-08-11T11:25:02Z</time>
      </trkpt>
      <trkpt lat="45.72137" lon="6.25356">
        <ele>1454.9736</ele>
        <time>2013-08-11T11:25:08Z</time>
      </trkpt>
      <trkpt lat="45.72138" lon="6.25356">
        <ele>1454.9736</ele>
        <time>2013-08-11T11:25:12Z</time>
      </trkpt>
      <trkpt lat="45.72137" lon="6.25356">
        <ele>1454.9736</ele>
        <time>2013-08-11T11:25:17Z</time>
      </trkpt>
      <trkpt lat="45.72137" lon="6.25356">
        <ele>1454.9736</ele>
        <time>2013-08-11T11:25:23Z</time>
      </trkpt>
      <trkpt lat="45.72137" lon="6.25356">
        <ele>1454.9736</ele>
        <time>2013-08-11T11:25:27Z</time>
      </trkpt>
      <trkpt lat="45.72137" lon="6.25355">
        <ele>1454.9736</ele>
        <time>2013-08-11T11:25:32Z</time>
      </trkpt>
      <trkpt lat="45.72134" lon="6.25349">
        <ele>1456.0212</ele>
        <time>2013-08-11T11:25:38Z</time>
      </trkpt>
      <trkpt lat="45.72131" lon="6.25344">
        <ele>1456.0212</ele>
        <time>2013-08-11T11:25:43Z</time>
      </trkpt>
      <trkpt lat="45.72131" lon="6.25342">
        <ele>1456.0212</ele>
        <time>2013-08-11T11:25:47Z</time>
      </trkpt>
      <trkpt lat="45.72132" lon="6.25342">
        <ele>1456.0212</ele>
        <time>2013-08-11T11:25:52Z</time>
      </trkpt>
      <trkpt lat="45.72132" lon="6.25342">
        <ele>1456.0212</ele>
        <time>2013-08-11T11:25:57Z</time>
      </trkpt>
      <trkpt lat="45.72132" lon="6.25342">
        <ele>1456.0212</ele>
        <time>2013-08-11T11:26:02Z</time>
      </trkpt>
      <trkpt lat="45.72132" lon="6.25341">
        <ele>1456.0212</ele>
        <time>2013-08-11T11:26:07Z</time>
      </trkpt>
      <trkpt lat="45.72132" lon="6.25341">
        <ele>1456.0212</ele>
        <time>2013-08-11T11:26:12Z</time>
      </trkpt>
      <trkpt lat="45.72132" lon="6.25341">
        <ele>1456.0212</ele>
        <time>2013-08-11T11:26:18Z</time>
      </trkpt>
      <trkpt lat="45.72132" lon="6.25341">
        <ele>1456.0212</ele>
        <time>2013-08-11T11:26:22Z</time>
      </trkpt>
      <trkpt lat="45.72133" lon="6.25339">
        <ele>1457.5636</ele>
        <time>2013-08-11T11:26:27Z</time>
      </trkpt>
      <trkpt lat="45.72133" lon="6.25336">
        <ele>1457.5636</ele>
        <time>2013-08-11T11:26:33Z</time>
      </trkpt>
      <trkpt lat="45.72131" lon="6.25324">
        <ele>1458.435</ele>
        <time>2013-08-11T11:26:37Z</time>
      </trkpt>
      <trkpt lat="45.7213" lon="6.25317">
        <ele>1458.435</ele>
        <time>2013-08-11T11:26:42Z</time>
      </trkpt>
      <trkpt lat="45.72132" lon="6.25313">
        <ele>1458.435</ele>
        <time>2013-08-11T11:26:48Z</time>
      </trkpt>
      <trkpt lat="45.72132" lon="6.25307">
        <ele>1458.2203</ele>
        <time>2013-08-11T11:26:52Z</time>
      </trkpt>
      <trkpt lat="45.72129" lon="6.25298">
        <ele>1458.2203</ele>
        <time>2013-08-11T11:26:57Z</time>
      </trkpt>
      <trkpt lat="45.72128" lon="6.25291">
        <ele>1457.5753</ele>
        <time>2013-08-11T11:27:02Z</time>
      </trkpt>
      <trkpt lat="45.72125" lon="6.25283">
        <ele>1457.5753</ele>
        <time>2013-08-11T11:27:07Z</time>
      </trkpt>
      <trkpt lat="45.72124" lon="6.25278">
        <ele>1457.282</ele>
        <time>2013-08-11T11:27:12Z</time>
      </trkpt>
      <trkpt lat="45.72123" lon="6.2527">
        <ele>1457.282</ele>
        <time>2013-08-11T11:27:17Z</time>
      </trkpt>
      <trkpt lat="45.72122" lon="6.25261">
        <ele>1457.1846</ele>
        <time>2013-08-11T11:27:22Z</time>
      </trkpt>
      <trkpt lat="45.72121" lon="6.25252">
        <ele>1457.1846</ele>
        <time>2013-08-11T11:27:27Z</time>
      </trkpt>
      <trkpt lat="45.72121" lon="6.25244">
        <ele>1457.2106</ele>
        <time>2013-08-11T11:27:32Z</time>
      </trkpt>
      <trkpt lat="45.7212" lon="6.25236">
        <ele>1457.2106</ele>
        <time>2013-08-11T11:27:37Z</time>
      </trkpt>
      <trkpt lat="45.7212" lon="6.2523">
        <ele>1457.6814</ele>
        <time>2013-08-11T11:27:42Z</time>
      </trkpt>
      <trkpt lat="45.7212" lon="6.25223">
        <ele>1457.6814</ele>
        <time>2013-08-11T11:27:47Z</time>
      </trkpt>
      <trkpt lat="45.72119" lon="6.25216">
        <ele>1458.0867</ele>
        <time>2013-08-11T11:27:52Z</time>
      </trkpt>
      <trkpt lat="45.72117" lon="6.25206">
        <ele>1458.0867</ele>
        <time>2013-08-11T11:27:58Z</time>
      </trkpt>
      <trkpt lat="45.72116" lon="6.25198">
        <ele>1458.1699</ele>
        <time>2013-08-11T11:28:02Z</time>
      </trkpt>
      <trkpt lat="45.72114" lon="6.2519">
        <ele>1458.1699</ele>
        <time>2013-08-11T11:28:07Z</time>
      </trkpt>
      <trkpt lat="45.72114" lon="6.25182">
        <ele>1458.0402</ele>
        <time>2013-08-11T11:28:12Z</time>
      </trkpt>
      <trkpt lat="45.72112" lon="6.25174">
        <ele>1458.0402</ele>
        <time>2013-08-11T11:28:17Z</time>
      </trkpt>
      <trkpt lat="45.7211" lon="6.2517">
        <ele>1458.0402</ele>
        <time>2013-08-11T11:28:22Z</time>
      </trkpt>
      <trkpt lat="45.72105" lon="6.25161">
        <ele>1457.4534</ele>
        <time>2013-08-11T11:28:27Z</time>
      </trkpt>
      <trkpt lat="45.72101" lon="6.25158">
        <ele>1457.4534</ele>
        <time>2013-08-11T11:28:32Z</time>
      </trkpt>
      <trkpt lat="45.72099" lon="6.25155">
        <ele>1457.4534</ele>
        <time>2013-08-11T11:28:38Z</time>
      </trkpt>
      <trkpt lat="45.72091" lon="6.25149">
        <ele>1456.4296</ele>
        <time>2013-08-11T11:28:42Z</time>
      </trkpt>
      <trkpt lat="45.72084" lon="6.25142">
        <ele>1456.4296</ele>
        <time>2013-08-11T11:28:47Z</time>
      </trkpt>
      <trkpt lat="45.7208" lon="6.25134">
        <ele>1455.2336</ele>
        <time>2013-08-11T11:28:52Z</time>
      </trkpt>
      <trkpt lat="45.72074" lon="6.25124">
        <ele>1454.0249</ele>
        <time>2013-08-11T11:28:57Z</time>
      </trkpt>
      <trkpt lat="45.72071" lon="6.25118">
        <ele>1454.0249</ele>
        <time>2013-08-11T11:29:02Z</time>
      </trkpt>
      <trkpt lat="45.72067" lon="6.25109">
        <ele>1452.4181</ele>
        <time>2013-08-11T11:29:07Z</time>
      </trkpt>
      <trkpt lat="45.72065" lon="6.25106">
        <ele>1452.4181</ele>
        <time>2013-08-11T11:29:12Z</time>
      </trkpt>
      <trkpt lat="45.72064" lon="6.25103">
        <ele>1452.4181</ele>
        <time>2013-08-11T11:29:18Z</time>
      </trkpt>
      <trkpt lat="45.72059" lon="6.25094">
        <ele>1449.6392</ele>
        <time>2013-08-11T11:29:22Z</time>
      </trkpt>
      <trkpt lat="45.72056" lon="6.25089">
        <ele>1449.6392</ele>
        <time>2013-08-11T11:29:27Z</time>
      </trkpt>
      <trkpt lat="45.72055" lon="6.25087">
        <ele>1449.6392</ele>
        <time>2013-08-11T11:29:33Z</time>
      </trkpt>
      <trkpt lat="45.7205" lon="6.25077">
        <ele>1446.6893</ele>
        <time>2013-08-11T11:29:37Z</time>
      </trkpt>
      <trkpt lat="45.72047" lon="6.2507">
        <ele>1446.6893</ele>
        <time>2013-08-11T11:29:42Z</time>
      </trkpt>
      <trkpt lat="45.72046" lon="6.25068">
        <ele>1446.6893</ele>
        <time>2013-08-11T11:29:47Z</time>
      </trkpt>
      <trkpt lat="45.7204" lon="6.25058">
        <ele>1443.4587</ele>
        <time>2013-08-11T11:29:52Z</time>
      </trkpt>
      <trkpt lat="45.72035" lon="6.25051">
        <ele>1443.4587</ele>
        <time>2013-08-11T11:29:57Z</time>
      </trkpt>
      <trkpt lat="45.7203" lon="6.25045">
        <ele>1440.164</ele>
        <time>2013-08-11T11:30:02Z</time>
      </trkpt>
      <trkpt lat="45.72025" lon="6.25038">
        <ele>1440.164</ele>
        <time>2013-08-11T11:30:08Z</time>
      </trkpt>
      <trkpt lat="45.72021" lon="6.25034">
        <ele>1436.9907</ele>
        <time>2013-08-11T11:30:12Z</time>
      </trkpt>
      <trkpt lat="45.72015" lon="6.2503">
        <ele>1436.9907</ele>
        <time>2013-08-11T11:30:17Z</time>
      </trkpt>
      <trkpt lat="45.72011" lon="6.2503">
        <ele>1434.1399</ele>
        <time>2013-08-11T11:30:23Z</time>
      </trkpt>
      <trkpt lat="45.72012" lon="6.2503">
        <ele>1434.1399</ele>
        <time>2013-08-11T11:30:27Z</time>
      </trkpt>
      <trkpt lat="45.72012" lon="6.25031">
        <ele>1434.1399</ele>
        <time>2013-08-11T11:30:32Z</time>
      </trkpt>
      <trkpt lat="45.72012" lon="6.25031">
        <ele>1434.1399</ele>
        <time>2013-08-11T11:30:37Z</time>
      </trkpt>
      <trkpt lat="45.72012" lon="6.25031">
        <ele>1434.1399</ele>
        <time>2013-08-11T11:30:42Z</time>
      </trkpt>
      <trkpt lat="45.72012" lon="6.25031">
        <ele>1434.1399</ele>
        <time>2013-08-11T11:30:48Z</time>
      </trkpt>
      <trkpt lat="45.72011" lon="6.25032">
        <ele>1434.1399</ele>
        <time>2013-08-11T11:30:52Z</time>
      </trkpt>
      <trkpt lat="45.7201" lon="6.25033">
        <ele>1434.1399</ele>
        <time>2013-08-11T11:30:57Z</time>
      </trkpt>
      <trkpt lat="45.7201" lon="6.25032">
        <ele>1434.1399</ele>
        <time>2013-08-11T11:31:02Z</time>
      </trkpt>
      <trkpt lat="45.72009" lon="6.25032">
        <ele>1434.1399</ele>
        <time>2013-08-11T11:31:08Z</time>
      </trkpt>
      <trkpt lat="45.72009" lon="6.25032">
        <ele>1434.1399</ele>
        <time>2013-08-11T11:31:12Z</time>
      </trkpt>
      <trkpt lat="45.72009" lon="6.25032">
        <ele>1434.1399</ele>
        <time>2013-08-11T11:31:17Z</time>
      </trkpt>
      <trkpt lat="45.72009" lon="6.25032">
        <ele>1434.1399</ele>
        <time>2013-08-11T11:31:22Z</time>
      </trkpt>
      <trkpt lat="45.72006" lon="6.2503">
        <ele>1434.1399</ele>
        <time>2013-08-11T11:31:28Z</time>
      </trkpt>
      <trkpt lat="45.72" lon="6.25023">
        <ele>1431.5372</ele>
        <time>2013-08-11T11:31:32Z</time>
      </trkpt>
      <trkpt lat="45.71996" lon="6.2502">
        <ele>1431.5372</ele>
        <time>2013-08-11T11:31:37Z</time>
      </trkpt>
      <trkpt lat="45.71992" lon="6.25016">
        <ele>1431.5372</ele>
        <time>2013-08-11T11:31:43Z</time>
      </trkpt>
      <trkpt lat="45.71989" lon="6.25011">
        <ele>1429.2136</ele>
        <time>2013-08-11T11:31:47Z</time>
      </trkpt>
      <trkpt lat="45.71989" lon="6.25011">
        <ele>1429.2136</ele>
        <time>2013-08-11T11:31:52Z</time>
      </trkpt>
      <trkpt lat="45.71988" lon="6.2501">
        <ele>1429.2136</ele>
        <time>2013-08-11T11:31:58Z</time>
      </trkpt>
      <trkpt lat="45.71986" lon="6.25005">
        <ele>1429.2136</ele>
        <time>2013-08-11T11:32:02Z</time>
      </trkpt>
      <trkpt lat="45.71986" lon="6.25005">
        <ele>1429.2136</ele>
        <time>2013-08-11T11:32:07Z</time>
      </trkpt>
      <trkpt lat="45.71985" lon="6.25005">
        <ele>1429.2136</ele>
        <time>2013-08-11T11:32:12Z</time>
      </trkpt>
      <trkpt lat="45.71985" lon="6.25004">
        <ele>1429.2136</ele>
        <time>2013-08-11T11:32:17Z</time>
      </trkpt>
      <trkpt lat="45.71984" lon="6.25002">
        <ele>1429.2136</ele>
        <time>2013-08-11T11:32:22Z</time>
      </trkpt>
      <trkpt lat="45.71981" lon="6.24998">
        <ele>1427.2836</ele>
        <time>2013-08-11T11:32:27Z</time>
      </trkpt>
      <trkpt lat="45.71977" lon="6.24992">
        <ele>1427.2836</ele>
        <time>2013-08-11T11:32:32Z</time>
      </trkpt>
      <trkpt lat="45.71973" lon="6.24986">
        <ele>1425.8231</ele>
        <time>2013-08-11T11:32:37Z</time>
      </trkpt>
      <trkpt lat="45.71971" lon="6.24982">
        <ele>1425.8231</ele>
        <time>2013-08-11T11:32:42Z</time>
      </trkpt>
      <trkpt lat="45.71968" lon="6.24975">
        <ele>1424.7856</ele>
        <time>2013-08-11T11:32:47Z</time>
      </trkpt>
      <trkpt lat="45.71965" lon="6.2497">
        <ele>1424.7856</ele>
        <time>2013-08-11T11:32:52Z</time>
      </trkpt>
      <trkpt lat="45.71962" lon="6.24963">
        <ele>1423.8677</ele>
        <time>2013-08-11T11:32:57Z</time>
      </trkpt>
      <trkpt lat="45.71959" lon="6.24957">
        <ele>1423.8677</ele>
        <time>2013-08-11T11:33:02Z</time>
      </trkpt>
      <trkpt lat="45.71954" lon="6.24951">
        <ele>1423.2195</ele>
        <time>2013-08-11T11:33:07Z</time>
      </trkpt>
      <trkpt lat="45.71952" lon="6.24948">
        <ele>1423.2195</ele>
        <time>2013-08-11T11:33:13Z</time>
      </trkpt>
      <trkpt lat="45.71949" lon="6.24939">
        <ele>1422.951</ele>
        <time>2013-08-11T11:33:17Z</time>
      </trkpt>
      <trkpt lat="45.71948" lon="6.24938">
        <ele>1422.951</ele>
        <time>2013-08-11T11:33:22Z</time>
      </trkpt>
      <trkpt lat="45.71947" lon="6.24935">
        <ele>1422.951</ele>
        <time>2013-08-11T11:33:28Z</time>
      </trkpt>
      <trkpt lat="45.71941" lon="6.24926">
        <ele>1422.8167</ele>
        <time>2013-08-11T11:33:32Z</time>
      </trkpt>
      <trkpt lat="45.71936" lon="6.2492">
        <ele>1422.8167</ele>
        <time>2013-08-11T11:33:37Z</time>
      </trkpt>
      <trkpt lat="45.71933" lon="6.24916">
        <ele>1422.9778</ele>
        <time>2013-08-11T11:33:43Z</time>
      </trkpt>
      <trkpt lat="45.71929" lon="6.2491">
        <ele>1422.9778</ele>
        <time>2013-08-11T11:33:47Z</time>
      </trkpt>
      <trkpt lat="45.71925" lon="6.24905">
        <ele>1423.6838</ele>
        <time>2013-08-11T11:33:52Z</time>
      </trkpt>
      <trkpt lat="45.71922" lon="6.249">
        <ele>1423.6838</ele>
        <time>2013-08-11T11:33:58Z</time>
      </trkpt>
      <trkpt lat="45.71919" lon="6.24896">
        <ele>1423.6838</ele>
        <time>2013-08-11T11:34:02Z</time>
      </trkpt>
      <trkpt lat="45.71915" lon="6.2489">
        <ele>1424.7607</ele>
        <time>2013-08-11T11:34:07Z</time>
      </trkpt>
      <trkpt lat="45.71911" lon="6.24884">
        <ele>1424.7607</ele>
        <time>2013-08-11T11:34:12Z</time>
      </trkpt>
      <trkpt lat="45.71908" lon="6.24878">
        <ele>1426.32</ele>
        <time>2013-08-11T11:34:17Z</time>
      </trkpt>
      <trkpt lat="45.71904" lon="6.24874">
        <ele>1426.32</ele>
        <time>2013-08-11T11:34:23Z</time>
      </trkpt>
      <trkpt lat="45.71901" lon="6.2487">
        <ele>1426.32</ele>
        <time>2013-08-11T11:34:27Z</time>
      </trkpt>
      <trkpt lat="45.71898" lon="6.24865">
        <ele>1427.9877</ele>
        <time>2013-08-11T11:34:32Z</time>
      </trkpt>
      <trkpt lat="45.71897" lon="6.24861">
        <ele>1427.9877</ele>
        <time>2013-08-11T11:34:38Z</time>
      </trkpt>
      <trkpt lat="45.71895" lon="6.24856">
        <ele>1427.9877</ele>
        <time>2013-08-11T11:34:42Z</time>
      </trkpt>
      <trkpt lat="45.71895" lon="6.24855">
        <ele>1427.9877</ele>
        <time>2013-08-11T11:34:47Z</time>
      </trkpt>
      <trkpt lat="45.71896" lon="6.24852">
        <ele>1430.0948</ele>
        <time>2013-08-11T11:34:52Z</time>
      </trkpt>
      <trkpt lat="45.71897" lon="6.24848">
        <ele>1430.0948</ele>
        <time>2013-08-11T11:34:57Z</time>
      </trkpt>
      <trkpt lat="45.71898" lon="6.24847">
        <ele>1430.0948</ele>
        <time>2013-08-11T11:35:02Z</time>
      </trkpt>
      <trkpt lat="45.71899" lon="6.24843">
        <ele>1430.0948</ele>
        <time>2013-08-11T11:35:07Z</time>
      </trkpt>
      <trkpt lat="45.71899" lon="6.24838">
        <ele>1431.9812</ele>
        <time>2013-08-11T11:35:13Z</time>
      </trkpt>
      <trkpt lat="45.71901" lon="6.24832">
        <ele>1431.9812</ele>
        <time>2013-08-11T11:35:17Z</time>
      </trkpt>
      <trkpt lat="45.719" lon="6.24827">
        <ele>1431.9812</ele>
        <time>2013-08-11T11:35:22Z</time>
      </trkpt>
      <trkpt lat="45.719" lon="6.24827">
        <ele>1431.9812</ele>
        <time>2013-08-11T11:35:27Z</time>
      </trkpt>
      <trkpt lat="45.719" lon="6.24827">
        <ele>1431.9812</ele>
        <time>2013-08-11T11:35:37Z</time>
      </trkpt>
      <trkpt lat="45.719" lon="6.24827">
        <ele>1431.9812</ele>
        <time>2013-08-11T11:35:42Z</time>
      </trkpt>
      <trkpt lat="45.71899" lon="6.24826">
        <ele>1433.6696</ele>
        <time>2013-08-11T11:35:47Z</time>
      </trkpt>
      <trkpt lat="45.71898" lon="6.24825">
        <ele>1433.6696</ele>
        <time>2013-08-11T11:35:52Z</time>
      </trkpt>
      <trkpt lat="45.71898" lon="6.24825">
        <ele>1433.6696</ele>
        <time>2013-08-11T11:35:58Z</time>
      </trkpt>
      <trkpt lat="45.71897" lon="6.24825">
        <ele>1433.6696</ele>
        <time>2013-08-11T11:36:02Z</time>
      </trkpt>
      <trkpt lat="45.71891" lon="6.24827">
        <ele>1433.6696</ele>
        <time>2013-08-11T11:36:07Z</time>
      </trkpt>
      <trkpt lat="45.71887" lon="6.24826">
        <ele>1435.0234</ele>
        <time>2013-08-11T11:36:13Z</time>
      </trkpt>
      <trkpt lat="45.71887" lon="6.24825">
        <ele>1435.0234</ele>
        <time>2013-08-11T11:36:17Z</time>
      </trkpt>
      <trkpt lat="45.71887" lon="6.24824">
        <ele>1435.0234</ele>
        <time>2013-08-11T11:36:22Z</time>
      </trkpt>
      <trkpt lat="45.71888" lon="6.24824">
        <ele>1435.0234</ele>
        <time>2013-08-11T11:36:28Z</time>
      </trkpt>
      <trkpt lat="45.71892" lon="6.24824">
        <ele>1435.0234</ele>
        <time>2013-08-11T11:36:32Z</time>
      </trkpt>
      <trkpt lat="45.71892" lon="6.24825">
        <ele>1435.0234</ele>
        <time>2013-08-11T11:36:37Z</time>
      </trkpt>
      <trkpt lat="45.71892" lon="6.24826">
        <ele>1435.0234</ele>
        <time>2013-08-11T11:36:42Z</time>
      </trkpt>
      <trkpt lat="45.71892" lon="6.24826">
        <ele>1435.0234</ele>
        <time>2013-08-11T11:36:47Z</time>
      </trkpt>
      <trkpt lat="45.71892" lon="6.24826">
        <ele>1436.2631</ele>
        <time>2013-08-11T11:36:52Z</time>
      </trkpt>
      <trkpt lat="45.71892" lon="6.24826">
        <ele>1436.2631</ele>
        <time>2013-08-11T11:36:58Z</time>
      </trkpt>
      <trkpt lat="45.71892" lon="6.24829">
        <ele>1436.2631</ele>
        <time>2013-08-11T11:37:02Z</time>
      </trkpt>
      <trkpt lat="45.71891" lon="6.24838">
        <ele>1436.2631</ele>
        <time>2013-08-11T11:37:07Z</time>
      </trkpt>
      <trkpt lat="45.7189" lon="6.24844">
        <ele>1437.6505</ele>
        <time>2013-08-11T11:37:12Z</time>
      </trkpt>
      <trkpt lat="45.71893" lon="6.24849">
        <ele>1437.6505</ele>
        <time>2013-08-11T11:37:17Z</time>
      </trkpt>
      <trkpt lat="45.71894" lon="6.2485">
        <ele>1437.6505</ele>
        <time>2013-08-11T11:37:22Z</time>
      </trkpt>
      <trkpt lat="45.71898" lon="6.24851">
        <ele>1439.2844</ele>
        <time>2013-08-11T11:37:28Z</time>
      </trkpt>
      <trkpt lat="45.71899" lon="6.24851">
        <ele>1439.2844</ele>
        <time>2013-08-11T11:37:33Z</time>
      </trkpt>
      <trkpt lat="45.719" lon="6.24852">
        <ele>1439.2844</ele>
        <time>2013-08-11T11:37:37Z</time>
      </trkpt>
      <trkpt lat="45.71903" lon="6.24855">
        <ele>1439.2844</ele>
        <time>2013-08-11T11:37:42Z</time>
      </trkpt>
      <trkpt lat="45.71904" lon="6.24855">
        <ele>1439.2844</ele>
        <time>2013-08-11T11:37:48Z</time>
      </trkpt>
      <trkpt lat="45.71907" lon="6.24858">
        <ele>1440.6499</ele>
        <time>2013-08-11T11:37:52Z</time>
      </trkpt>
      <trkpt lat="45.71907" lon="6.24858">
        <ele>1440.6499</ele>
        <time>2013-08-11T11:37:57Z</time>
      </trkpt>
      <trkpt lat="45.71908" lon="6.24858">
        <ele>1440.6499</ele>
        <time>2013-08-11T11:38:02Z</time>
      </trkpt>
      <trkpt lat="45.71909" lon="6.24858">
        <ele>1440.6499</ele>
        <time>2013-08-11T11:38:07Z</time>
      </trkpt>
      <trkpt lat="45.7191" lon="6.24859">
        <ele>1440.6499</ele>
        <time>2013-08-11T11:38:12Z</time>
      </trkpt>
      <trkpt lat="45.7191" lon="6.24859">
        <ele>1440.6499</ele>
        <time>2013-08-11T11:38:17Z</time>
      </trkpt>
      <trkpt lat="45.71911" lon="6.24858">
        <ele>1440.6499</ele>
        <time>2013-08-11T11:38:22Z</time>
      </trkpt>
      <trkpt lat="45.71912" lon="6.2486">
        <ele>1440.6499</ele>
        <time>2013-08-11T11:38:27Z</time>
      </trkpt>
      <trkpt lat="45.71911" lon="6.24859">
        <ele>1440.6499</ele>
        <time>2013-08-11T11:38:32Z</time>
      </trkpt>
      <trkpt lat="45.71912" lon="6.24857">
        <ele>1440.6499</ele>
        <time>2013-08-11T11:38:37Z</time>
      </trkpt>
      <trkpt lat="45.71909" lon="6.24855">
        <ele>1441.8044</ele>
        <time>2013-08-11T11:38:43Z</time>
      </trkpt>
      <trkpt lat="45.71907" lon="6.24856">
        <ele>1441.8044</ele>
        <time>2013-08-11T11:38:47Z</time>
      </trkpt>
      <trkpt lat="45.7191" lon="6.24858">
        <ele>1441.8044</ele>
        <time>2013-08-11T11:38:52Z</time>
      </trkpt>
      <trkpt lat="45.71909" lon="6.24858">
        <ele>1441.8044</ele>
        <time>2013-08-11T11:38:57Z</time>
      </trkpt>
      <trkpt lat="45.71909" lon="6.24858">
        <ele>1441.8044</ele>
        <time>2013-08-11T11:39:02Z</time>
      </trkpt>
      <trkpt lat="45.71909" lon="6.24858">
        <ele>1441.8044</ele>
        <time>2013-08-11T11:39:07Z</time>
      </trkpt>
      <trkpt lat="45.71909" lon="6.24858">
        <ele>1441.8044</ele>
        <time>2013-08-11T11:39:12Z</time>
      </trkpt>
      <trkpt lat="45.71909" lon="6.24858">
        <ele>1441.8044</ele>
        <time>2013-08-11T11:39:17Z</time>
      </trkpt>
      <trkpt lat="45.71909" lon="6.24858">
        <ele>1441.8044</ele>
        <time>2013-08-11T11:39:22Z</time>
      </trkpt>
      <trkpt lat="45.71909" lon="6.24858">
        <ele>1441.8044</ele>
        <time>2013-08-11T11:39:27Z</time>
      </trkpt>
      <trkpt lat="45.71909" lon="6.24858">
        <ele>1441.8044</ele>
        <time>2013-08-11T11:39:32Z</time>
      </trkpt>
      <trkpt lat="45.71909" lon="6.24858">
        <ele>1441.8044</ele>
        <time>2013-08-11T11:39:37Z</time>
      </trkpt>
      <trkpt lat="45.71909" lon="6.24858">
        <ele>1441.8044</ele>
        <time>2013-08-11T11:39:42Z</time>
      </trkpt>
      <trkpt lat="45.71909" lon="6.24858">
        <ele>1441.8044</ele>
        <time>2013-08-11T11:39:47Z</time>
      </trkpt>
      <trkpt lat="45.71909" lon="6.24858">
        <ele>1441.8044</ele>
        <time>2013-08-11T11:39:52Z</time>
      </trkpt>
      <trkpt lat="45.71909" lon="6.24858">
        <ele>1441.8044</ele>
        <time>2013-08-11T11:39:57Z</time>
      </trkpt>
      <trkpt lat="45.71909" lon="6.24858">
        <ele>1441.8044</ele>
        <time>2013-08-11T11:40:02Z</time>
      </trkpt>
      <trkpt lat="45.71909" lon="6.24858">
        <ele>1441.8044</ele>
        <time>2013-08-11T11:40:07Z</time>
      </trkpt>
      <trkpt lat="45.71909" lon="6.24858">
        <ele>1441.8044</ele>
        <time>2013-08-11T11:40:12Z</time>
      </trkpt>
      <trkpt lat="45.71909" lon="6.24858">
        <ele>1441.8044</ele>
        <time>2013-08-11T11:40:17Z</time>
      </trkpt>
      <trkpt lat="45.71909" lon="6.24858">
        <ele>1441.8044</ele>
        <time>2013-08-11T11:40:22Z</time>
      </trkpt>
      <trkpt lat="45.71909" lon="6.24858">
        <ele>1441.8044</ele>
        <time>2013-08-11T11:40:27Z</time>
      </trkpt>
      <trkpt lat="45.71908" lon="6.24857">
        <ele>1441.8044</ele>
        <time>2013-08-11T11:40:32Z</time>
      </trkpt>
      <trkpt lat="45.71903" lon="6.24853">
        <ele>1442.6865</ele>
        <time>2013-08-11T11:40:37Z</time>
      </trkpt>
      <trkpt lat="45.719" lon="6.24851">
        <ele>1442.6865</ele>
        <time>2013-08-11T11:40:42Z</time>
      </trkpt>
      <trkpt lat="45.71901" lon="6.24847">
        <ele>1442.6865</ele>
        <time>2013-08-11T11:40:47Z</time>
      </trkpt>
      <trkpt lat="45.71901" lon="6.24839">
        <ele>1443.5137</ele>
        <time>2013-08-11T11:40:52Z</time>
      </trkpt>
      <trkpt lat="45.71899" lon="6.24835">
        <ele>1443.5137</ele>
        <time>2013-08-11T11:40:57Z</time>
      </trkpt>
      <trkpt lat="45.71898" lon="6.24838">
        <ele>1443.5137</ele>
        <time>2013-08-11T11:41:02Z</time>
      </trkpt>
      <trkpt lat="45.71898" lon="6.2484">
        <ele>1443.5137</ele>
        <time>2013-08-11T11:41:07Z</time>
      </trkpt>
      <trkpt lat="45.71897" lon="6.24847">
        <ele>1444.2288</ele>
        <time>2013-08-11T11:41:12Z</time>
      </trkpt>
      <trkpt lat="45.71895" lon="6.24848">
        <ele>1444.2288</ele>
        <time>2013-08-11T11:41:17Z</time>
      </trkpt>
      <trkpt lat="45.71896" lon="6.24851">
        <ele>1444.2288</ele>
        <time>2013-08-11T11:41:22Z</time>
      </trkpt>
      <trkpt lat="45.71896" lon="6.24852">
        <ele>1444.2288</ele>
        <time>2013-08-11T11:41:27Z</time>
      </trkpt>
      <trkpt lat="45.71896" lon="6.24852">
        <ele>1444.2288</ele>
        <time>2013-08-11T11:41:32Z</time>
      </trkpt>
      <trkpt lat="45.71896" lon="6.24852">
        <ele>1444.2288</ele>
        <time>2013-08-11T11:41:37Z</time>
      </trkpt>
      <trkpt lat="45.71896" lon="6.24852">
        <ele>1444.2288</ele>
        <time>2013-08-11T11:41:42Z</time>
      </trkpt>
      <trkpt lat="45.71892" lon="6.24851">
        <ele>1444.6636</ele>
        <time>2013-08-11T11:41:47Z</time>
      </trkpt>
      <trkpt lat="45.71886" lon="6.24849">
        <ele>1444.6636</ele>
        <time>2013-08-11T11:41:52Z</time>
      </trkpt>
      <trkpt lat="45.71882" lon="6.24843">
        <ele>1445.0957</ele>
        <time>2013-08-11T11:41:57Z</time>
      </trkpt>
      <trkpt lat="45.7188" lon="6.24836">
        <ele>1445.0957</ele>
        <time>2013-08-11T11:42:02Z</time>
      </trkpt>
      <trkpt lat="45.71877" lon="6.24828">
        <ele>1445.5375</ele>
        <time>2013-08-11T11:42:07Z</time>
      </trkpt>
      <trkpt lat="45.71877" lon="6.24821">
        <ele>1445.5375</ele>
        <time>2013-08-11T11:42:12Z</time>
      </trkpt>
      <trkpt lat="45.71881" lon="6.24817">
        <ele>1446.0726</ele>
        <time>2013-08-11T11:42:17Z</time>
      </trkpt>
      <trkpt lat="45.71884" lon="6.24816">
        <ele>1446.0726</ele>
        <time>2013-08-11T11:42:22Z</time>
      </trkpt>
      <trkpt lat="45.71885" lon="6.24816">
        <ele>1446.0726</ele>
        <time>2013-08-11T11:42:28Z</time>
      </trkpt>
      <trkpt lat="45.71884" lon="6.24815">
        <ele>1446.0726</ele>
        <time>2013-08-11T11:42:32Z</time>
      </trkpt>
      <trkpt lat="45.71884" lon="6.24815">
        <ele>1446.0726</ele>
        <time>2013-08-11T11:42:37Z</time>
      </trkpt>
      <trkpt lat="45.71884" lon="6.24816">
        <ele>1446.0726</ele>
        <time>2013-08-11T11:42:42Z</time>
      </trkpt>
      <trkpt lat="45.71888" lon="6.24814">
        <ele>1446.4469</ele>
        <time>2013-08-11T11:42:47Z</time>
      </trkpt>
      <trkpt lat="45.71893" lon="6.24811">
        <ele>1446.4469</ele>
        <time>2013-08-11T11:42:52Z</time>
      </trkpt>
      <trkpt lat="45.71897" lon="6.24806">
        <ele>1446.6128</ele>
        <time>2013-08-11T11:42:57Z</time>
      </trkpt>
      <trkpt lat="45.71902" lon="6.24803">
        <ele>1446.6128</ele>
        <time>2013-08-11T11:43:02Z</time>
      </trkpt>
      <trkpt lat="45.71907" lon="6.24798">
        <ele>1446.5269</ele>
        <time>2013-08-11T11:43:07Z</time>
      </trkpt>
      <trkpt lat="45.7191" lon="6.24793">
        <ele>1446.5269</ele>
        <time>2013-08-11T11:43:12Z</time>
      </trkpt>
      <trkpt lat="45.71911" lon="6.24793">
        <ele>1446.5269</ele>
        <time>2013-08-11T11:43:17Z</time>
      </trkpt>
      <trkpt lat="45.71911" lon="6.24793">
        <ele>1446.5269</ele>
        <time>2013-08-11T11:43:22Z</time>
      </trkpt>
      <trkpt lat="45.7191" lon="6.24793">
        <ele>1446.5269</ele>
        <time>2013-08-11T11:43:27Z</time>
      </trkpt>
      <trkpt lat="45.7191" lon="6.24793">
        <ele>1446.5269</ele>
        <time>2013-08-11T11:43:32Z</time>
      </trkpt>
      <trkpt lat="45.7191" lon="6.24793">
        <ele>1446.5269</ele>
        <time>2013-08-11T11:43:37Z</time>
      </trkpt>
      <trkpt lat="45.7191" lon="6.24793">
        <ele>1446.5269</ele>
        <time>2013-08-11T11:43:42Z</time>
      </trkpt>
      <trkpt lat="45.7191" lon="6.24793">
        <ele>1446.5269</ele>
        <time>2013-08-11T11:43:47Z</time>
      </trkpt>
      <trkpt lat="45.71911" lon="6.24793">
        <ele>1446.5269</ele>
        <time>2013-08-11T11:43:52Z</time>
      </trkpt>
      <trkpt lat="45.7191" lon="6.24793">
        <ele>1446.5269</ele>
        <time>2013-08-11T11:43:57Z</time>
      </trkpt>
      <trkpt lat="45.7191" lon="6.24793">
        <ele>1446.5269</ele>
        <time>2013-08-11T11:44:03Z</time>
      </trkpt>
      <trkpt lat="45.7191" lon="6.24793">
        <ele>1446.5269</ele>
        <time>2013-08-11T11:44:07Z</time>
      </trkpt>
      <trkpt lat="45.7191" lon="6.24793">
        <ele>1446.5269</ele>
        <time>2013-08-11T11:44:12Z</time>
      </trkpt>
      <trkpt lat="45.7191" lon="6.24793">
        <ele>1446.5269</ele>
        <time>2013-08-11T11:44:17Z</time>
      </trkpt>
      <trkpt lat="45.7191" lon="6.24793">
        <ele>1446.5269</ele>
        <time>2013-08-11T11:44:22Z</time>
      </trkpt>
      <trkpt lat="45.7191" lon="6.24793">
        <ele>1446.5269</ele>
        <time>2013-08-11T11:44:27Z</time>
      </trkpt>
      <trkpt lat="45.7191" lon="6.24793">
        <ele>1446.5269</ele>
        <time>2013-08-11T11:44:33Z</time>
      </trkpt>
      <trkpt lat="45.7191" lon="6.24793">
        <ele>1446.5269</ele>
        <time>2013-08-11T11:44:37Z</time>
      </trkpt>
      <trkpt lat="45.71911" lon="6.24792">
        <ele>1446.5269</ele>
        <time>2013-08-11T11:44:42Z</time>
      </trkpt>
      <trkpt lat="45.7191" lon="6.24792">
        <ele>1446.5269</ele>
        <time>2013-08-11T11:44:47Z</time>
      </trkpt>
      <trkpt lat="45.7191" lon="6.24791">
        <ele>1446.5269</ele>
        <time>2013-08-11T11:44:53Z</time>
      </trkpt>
      <trkpt lat="45.7191" lon="6.24791">
        <ele>1446.5269</ele>
        <time>2013-08-11T11:44:57Z</time>
      </trkpt>
      <trkpt lat="45.71912" lon="6.2479">
        <ele>1446.6542</ele>
        <time>2013-08-11T11:45:02Z</time>
      </trkpt>
      <trkpt lat="45.71914" lon="6.24789">
        <ele>1446.6542</ele>
        <time>2013-08-11T11:45:08Z</time>
      </trkpt>
      <trkpt lat="45.71923" lon="6.24782">
        <ele>1447.1514</ele>
        <time>2013-08-11T11:45:12Z</time>
      </trkpt>
      <trkpt lat="45.71926" lon="6.24776">
        <ele>1447.1514</ele>
        <time>2013-08-11T11:45:17Z</time>
      </trkpt>
      <trkpt lat="45.71929" lon="6.24767">
        <ele>1447.4852</ele>
        <time>2013-08-11T11:45:24Z</time>
      </trkpt>
      <trkpt lat="45.71929" lon="6.24767">
        <ele>1447.4852</ele>
        <time>2013-08-11T11:45:27Z</time>
      </trkpt>
      <trkpt lat="45.71929" lon="6.24764">
        <ele>1447.4852</ele>
        <time>2013-08-11T11:45:32Z</time>
      </trkpt>
      <trkpt lat="45.7193" lon="6.24756">
        <ele>1447.4852</ele>
        <time>2013-08-11T11:45:37Z</time>
      </trkpt>
      <trkpt lat="45.7193" lon="6.24744">
        <ele>1448.0126</ele>
        <time>2013-08-11T11:45:43Z</time>
      </trkpt>
      <trkpt lat="45.71931" lon="6.24739">
        <ele>1448.0126</ele>
        <time>2013-08-11T11:45:47Z</time>
      </trkpt>
      <trkpt lat="45.71932" lon="6.24732">
        <ele>1448.7319</ele>
        <time>2013-08-11T11:45:52Z</time>
      </trkpt>
      <trkpt lat="45.71935" lon="6.24725">
        <ele>1448.7319</ele>
        <time>2013-08-11T11:45:57Z</time>
      </trkpt>
      <trkpt lat="45.71939" lon="6.2472">
        <ele>1449.5553</ele>
        <time>2013-08-11T11:46:02Z</time>
      </trkpt>
      <trkpt lat="45.71943" lon="6.24716">
        <ele>1449.5553</ele>
        <time>2013-08-11T11:46:07Z</time>
      </trkpt>
      <trkpt lat="45.71947" lon="6.24712">
        <ele>1450.7178</ele>
        <time>2013-08-11T11:46:13Z</time>
      </trkpt>
      <trkpt lat="45.71951" lon="6.24706">
        <ele>1450.7178</ele>
        <time>2013-08-11T11:46:17Z</time>
      </trkpt>
      <trkpt lat="45.71955" lon="6.24701">
        <ele>1451.4998</ele>
        <time>2013-08-11T11:46:22Z</time>
      </trkpt>
      <trkpt lat="45.71958" lon="6.24696">
        <ele>1451.4998</ele>
        <time>2013-08-11T11:46:27Z</time>
      </trkpt>
      <trkpt lat="45.7196" lon="6.24687">
        <ele>1452.5181</ele>
        <time>2013-08-11T11:46:33Z</time>
      </trkpt>
      <trkpt lat="45.71962" lon="6.24682">
        <ele>1452.5181</ele>
        <time>2013-08-11T11:46:37Z</time>
      </trkpt>
      <trkpt lat="45.71962" lon="6.24675">
        <ele>1452.5181</ele>
        <time>2013-08-11T11:46:42Z</time>
      </trkpt>
      <trkpt lat="45.71963" lon="6.24665">
        <ele>1453.5225</ele>
        <time>2013-08-11T11:46:47Z</time>
      </trkpt>
      <trkpt lat="45.71963" lon="6.24658">
        <ele>1453.5225</ele>
        <time>2013-08-11T11:46:52Z</time>
      </trkpt>
      <trkpt lat="45.71963" lon="6.24652">
        <ele>1454.6989</ele>
        <time>2013-08-11T11:46:57Z</time>
      </trkpt>
      <trkpt lat="45.7196" lon="6.24646">
        <ele>1454.6989</ele>
        <time>2013-08-11T11:47:02Z</time>
      </trkpt>
      <trkpt lat="45.71957" lon="6.24642">
        <ele>1455.8735</ele>
        <time>2013-08-11T11:47:07Z</time>
      </trkpt>
      <trkpt lat="45.71952" lon="6.2464">
        <ele>1455.8735</ele>
        <time>2013-08-11T11:47:12Z</time>
      </trkpt>
      <trkpt lat="45.71949" lon="6.24641">
        <ele>1455.8735</ele>
        <time>2013-08-11T11:47:18Z</time>
      </trkpt>
      <trkpt lat="45.71945" lon="6.24641">
        <ele>1457.2167</ele>
        <time>2013-08-11T11:47:22Z</time>
      </trkpt>
      <trkpt lat="45.71942" lon="6.2464">
        <ele>1457.2167</ele>
        <time>2013-08-11T11:47:27Z</time>
      </trkpt>
      <trkpt lat="45.71937" lon="6.24639">
        <ele>1457.2167</ele>
        <time>2013-08-11T11:47:33Z</time>
      </trkpt>
      <trkpt lat="45.71935" lon="6.24639">
        <ele>1458.8717</ele>
        <time>2013-08-11T11:47:37Z</time>
      </trkpt>
      <trkpt lat="45.71931" lon="6.2464">
        <ele>1458.8717</ele>
        <time>2013-08-11T11:47:42Z</time>
      </trkpt>
      <trkpt lat="45.71926" lon="6.24644">
        <ele>1460.6677</ele>
        <time>2013-08-11T11:47:48Z</time>
      </trkpt>
      <trkpt lat="45.71923" lon="6.24645">
        <ele>1460.6677</ele>
        <time>2013-08-11T11:47:52Z</time>
      </trkpt>
      <trkpt lat="45.71919" lon="6.24646">
        <ele>1460.6677</ele>
        <time>2013-08-11T11:47:57Z</time>
      </trkpt>
      <trkpt lat="45.71914" lon="6.24644">
        <ele>1462.7054</ele>
        <time>2013-08-11T11:48:03Z</time>
      </trkpt>
      <trkpt lat="45.71911" lon="6.24643">
        <ele>1462.7054</ele>
        <time>2013-08-11T11:48:07Z</time>
      </trkpt>
      <trkpt lat="45.71907" lon="6.24641">
        <ele>1462.7054</ele>
        <time>2013-08-11T11:48:12Z</time>
      </trkpt>
      <trkpt lat="45.71904" lon="6.24638">
        <ele>1465.1934</ele>
        <time>2013-08-11T11:48:18Z</time>
      </trkpt>
      <trkpt lat="45.719" lon="6.24638">
        <ele>1465.1934</ele>
        <time>2013-08-11T11:48:22Z</time>
      </trkpt>
      <trkpt lat="45.71895" lon="6.24636">
        <ele>1465.1934</ele>
        <time>2013-08-11T11:48:27Z</time>
      </trkpt>
      <trkpt lat="45.7189" lon="6.24635">
        <ele>1467.7609</ele>
        <time>2013-08-11T11:48:33Z</time>
      </trkpt>
      <trkpt lat="45.71887" lon="6.24635">
        <ele>1467.7609</ele>
        <time>2013-08-11T11:48:37Z</time>
      </trkpt>
      <trkpt lat="45.71883" lon="6.24633">
        <ele>1467.7609</ele>
        <time>2013-08-11T11:48:42Z</time>
      </trkpt>
      <trkpt lat="45.71879" lon="6.24633">
        <ele>1470.4541</ele>
        <time>2013-08-11T11:48:47Z</time>
      </trkpt>
      <trkpt lat="45.71875" lon="6.24633">
        <ele>1470.4541</ele>
        <time>2013-08-11T11:48:52Z</time>
      </trkpt>
      <trkpt lat="45.71872" lon="6.24634">
        <ele>1470.4541</ele>
        <time>2013-08-11T11:48:57Z</time>
      </trkpt>
      <trkpt lat="45.71867" lon="6.24633">
        <ele>1472.8108</ele>
        <time>2013-08-11T11:49:02Z</time>
      </trkpt>
      <trkpt lat="45.71863" lon="6.24632">
        <ele>1472.8108</ele>
        <time>2013-08-11T11:49:07Z</time>
      </trkpt>
      <trkpt lat="45.71863" lon="6.24633">
        <ele>1472.8108</ele>
        <time>2013-08-11T11:49:13Z</time>
      </trkpt>
      <trkpt lat="45.7186" lon="6.24632">
        <ele>1472.8108</ele>
        <time>2013-08-11T11:49:17Z</time>
      </trkpt>
      <trkpt lat="45.71854" lon="6.24632">
        <ele>1475.4415</ele>
        <time>2013-08-11T11:49:22Z</time>
      </trkpt>
      <trkpt lat="45.71849" lon="6.24632">
        <ele>1475.4415</ele>
        <time>2013-08-11T11:49:28Z</time>
      </trkpt>
      <trkpt lat="45.71843" lon="6.24631">
        <ele>1478.0898</ele>
        <time>2013-08-11T11:49:32Z</time>
      </trkpt>
      <trkpt lat="45.71837" lon="6.24629">
        <ele>1478.0898</ele>
        <time>2013-08-11T11:49:37Z</time>
      </trkpt>
      <trkpt lat="45.71835" lon="6.24629">
        <ele>1478.0898</ele>
        <time>2013-08-11T11:49:43Z</time>
      </trkpt>
      <trkpt lat="45.71832" lon="6.24628">
        <ele>1480.6626</ele>
        <time>2013-08-11T11:49:47Z</time>
      </trkpt>
      <trkpt lat="45.7183" lon="6.24623">
        <ele>1480.6626</ele>
        <time>2013-08-11T11:49:52Z</time>
      </trkpt>
      <trkpt lat="45.71827" lon="6.2462">
        <ele>1480.6626</ele>
        <time>2013-08-11T11:49:57Z</time>
      </trkpt>
      <trkpt lat="45.71825" lon="6.24618">
        <ele>1483.4482</ele>
        <time>2013-08-11T11:50:03Z</time>
      </trkpt>
      <trkpt lat="45.71819" lon="6.24617">
        <ele>1483.4482</ele>
        <time>2013-08-11T11:50:07Z</time>
      </trkpt>
      <trkpt lat="45.71813" lon="6.24617">
        <ele>1486.1085</ele>
        <time>2013-08-11T11:50:12Z</time>
      </trkpt>
      <trkpt lat="45.71812" lon="6.24617">
        <ele>1486.1085</ele>
        <time>2013-08-11T11:50:18Z</time>
      </trkpt>
      <trkpt lat="45.71806" lon="6.24615">
        <ele>1486.1085</ele>
        <time>2013-08-11T11:50:22Z</time>
      </trkpt>
      <trkpt lat="45.71801" lon="6.24614">
        <ele>1488.5177</ele>
        <time>2013-08-11T11:50:27Z</time>
      </trkpt>
      <trkpt lat="45.71796" lon="6.24608">
        <ele>1488.5177</ele>
        <time>2013-08-11T11:50:33Z</time>
      </trkpt>
      <trkpt lat="45.71793" lon="6.24607">
        <ele>1490.8774</ele>
        <time>2013-08-11T11:50:37Z</time>
      </trkpt>
      <trkpt lat="45.71789" lon="6.24604">
        <ele>1490.8774</ele>
        <time>2013-08-11T11:50:42Z</time>
      </trkpt>
      <trkpt lat="45.71785" lon="6.24597">
        <ele>1493.1729</ele>
        <time>2013-08-11T11:50:48Z</time>
      </trkpt>
      <trkpt lat="45.71783" lon="6.24594">
        <ele>1493.1729</ele>
        <time>2013-08-11T11:50:52Z</time>
      </trkpt>
      <trkpt lat="45.71782" lon="6.24589">
        <ele>1493.1729</ele>
        <time>2013-08-11T11:50:57Z</time>
      </trkpt>
      <trkpt lat="45.71779" lon="6.24583">
        <ele>1495.0881</ele>
        <time>2013-08-11T11:51:03Z</time>
      </trkpt>
      <trkpt lat="45.71779" lon="6.24579">
        <ele>1495.0881</ele>
        <time>2013-08-11T11:51:07Z</time>
      </trkpt>
      <trkpt lat="45.71778" lon="6.24573">
        <ele>1495.0881</ele>
        <time>2013-08-11T11:51:12Z</time>
      </trkpt>
      <trkpt lat="45.71778" lon="6.24567">
        <ele>1497.1532</ele>
        <time>2013-08-11T11:51:18Z</time>
      </trkpt>
      <trkpt lat="45.71777" lon="6.24564">
        <ele>1497.1532</ele>
        <time>2013-08-11T11:51:22Z</time>
      </trkpt>
      <trkpt lat="45.71774" lon="6.24559">
        <ele>1497.1532</ele>
        <time>2013-08-11T11:51:27Z</time>
      </trkpt>
      <trkpt lat="45.71771" lon="6.24553">
        <ele>1499.484</ele>
        <time>2013-08-11T11:51:33Z</time>
      </trkpt>
      <trkpt lat="45.71768" lon="6.24549">
        <ele>1499.484</ele>
        <time>2013-08-11T11:51:37Z</time>
      </trkpt>
      <trkpt lat="45.71765" lon="6.24544">
        <ele>1499.484</ele>
        <time>2013-08-11T11:51:42Z</time>
      </trkpt>
      <trkpt lat="45.71762" lon="6.24541">
        <ele>1501.3517</ele>
        <time>2013-08-11T11:51:47Z</time>
      </trkpt>
      <trkpt lat="45.71759" lon="6.24537">
        <ele>1501.3517</ele>
        <time>2013-08-11T11:51:52Z</time>
      </trkpt>
      <trkpt lat="45.71758" lon="6.24532">
        <ele>1501.3517</ele>
        <time>2013-08-11T11:51:58Z</time>
      </trkpt>
      <trkpt lat="45.71756" lon="6.24529">
        <ele>1503.1199</ele>
        <time>2013-08-11T11:52:02Z</time>
      </trkpt>
      <trkpt lat="45.71754" lon="6.24526">
        <ele>1503.1199</ele>
        <time>2013-08-11T11:52:07Z</time>
      </trkpt>
      <trkpt lat="45.71752" lon="6.24524">
        <ele>1503.1199</ele>
        <time>2013-08-11T11:52:13Z</time>
      </trkpt>
      <trkpt lat="45.71749" lon="6.2452">
        <ele>1504.6938</ele>
        <time>2013-08-11T11:52:17Z</time>
      </trkpt>
      <trkpt lat="45.71748" lon="6.24516">
        <ele>1504.6938</ele>
        <time>2013-08-11T11:52:22Z</time>
      </trkpt>
      <trkpt lat="45.71747" lon="6.24512">
        <ele>1504.6938</ele>
        <time>2013-08-11T11:52:28Z</time>
      </trkpt>
      <trkpt lat="45.71746" lon="6.24509">
        <ele>1504.6938</ele>
        <time>2013-08-11T11:52:32Z</time>
      </trkpt>
      <trkpt lat="45.71745" lon="6.24507">
        <ele>1506.7067</ele>
        <time>2013-08-11T11:52:37Z</time>
      </trkpt>
      <trkpt lat="45.71744" lon="6.24504">
        <ele>1506.7067</ele>
        <time>2013-08-11T11:52:42Z</time>
      </trkpt>
      <trkpt lat="45.71737" lon="6.24499">
        <ele>1508.3461</ele>
        <time>2013-08-11T11:52:47Z</time>
      </trkpt>
      <trkpt lat="45.71735" lon="6.24496">
        <ele>1508.3461</ele>
        <time>2013-08-11T11:52:52Z</time>
      </trkpt>
      <trkpt lat="45.71733" lon="6.24492">
        <ele>1508.3461</ele>
        <time>2013-08-11T11:52:57Z</time>
      </trkpt>
      <trkpt lat="45.71732" lon="6.24488">
        <ele>1510.1002</ele>
        <time>2013-08-11T11:53:02Z</time>
      </trkpt>
      <trkpt lat="45.71728" lon="6.24484">
        <ele>1510.1002</ele>
        <time>2013-08-11T11:53:07Z</time>
      </trkpt>
      <trkpt lat="45.71724" lon="6.2448">
        <ele>1511.931</ele>
        <time>2013-08-11T11:53:12Z</time>
      </trkpt>
      <trkpt lat="45.71723" lon="6.24477">
        <ele>1511.931</ele>
        <time>2013-08-11T11:53:17Z</time>
      </trkpt>
      <trkpt lat="45.71722" lon="6.24474">
        <ele>1511.931</ele>
        <time>2013-08-11T11:53:22Z</time>
      </trkpt>
      <trkpt lat="45.71717" lon="6.24471">
        <ele>1513.5004</ele>
        <time>2013-08-11T11:53:27Z</time>
      </trkpt>
      <trkpt lat="45.71711" lon="6.24466">
        <ele>1513.5004</ele>
        <time>2013-08-11T11:53:33Z</time>
      </trkpt>
      <trkpt lat="45.71704" lon="6.2446">
        <ele>1514.7266</ele>
        <time>2013-08-11T11:53:37Z</time>
      </trkpt>
      <trkpt lat="45.717" lon="6.24455">
        <ele>1514.7266</ele>
        <time>2013-08-11T11:53:42Z</time>
      </trkpt>
      <trkpt lat="45.71699" lon="6.24453">
        <ele>1514.7266</ele>
        <time>2013-08-11T11:53:48Z</time>
      </trkpt>
      <trkpt lat="45.71695" lon="6.24446">
        <ele>1516.4427</ele>
        <time>2013-08-11T11:53:52Z</time>
      </trkpt>
      <trkpt lat="45.71695" lon="6.24442">
        <ele>1516.4427</ele>
        <time>2013-08-11T11:53:57Z</time>
      </trkpt>
      <trkpt lat="45.71693" lon="6.2444">
        <ele>1516.4427</ele>
        <time>2013-08-11T11:54:03Z</time>
      </trkpt>
      <trkpt lat="45.71685" lon="6.24436">
        <ele>1518.2814</ele>
        <time>2013-08-11T11:54:07Z</time>
      </trkpt>
      <trkpt lat="45.7168" lon="6.24433">
        <ele>1518.2814</ele>
        <time>2013-08-11T11:54:12Z</time>
      </trkpt>
      <trkpt lat="45.71678" lon="6.2443">
        <ele>1518.2814</ele>
        <time>2013-08-11T11:54:18Z</time>
      </trkpt>
      <trkpt lat="45.71673" lon="6.24426">
        <ele>1519.9733</ele>
        <time>2013-08-11T11:54:22Z</time>
      </trkpt>
      <trkpt lat="45.7167" lon="6.24421">
        <ele>1519.9733</ele>
        <time>2013-08-11T11:54:27Z</time>
      </trkpt>
      <trkpt lat="45.71668" lon="6.24418">
        <ele>1519.9733</ele>
        <time>2013-08-11T11:54:33Z</time>
      </trkpt>
      <trkpt lat="45.71662" lon="6.24411">
        <ele>1521.9039</ele>
        <time>2013-08-11T11:54:37Z</time>
      </trkpt>
      <trkpt lat="45.71658" lon="6.2441">
        <ele>1521.9039</ele>
        <time>2013-08-11T11:54:42Z</time>
      </trkpt>
      <trkpt lat="45.71652" lon="6.24407">
        <ele>1523.594</ele>
        <time>2013-08-11T11:54:49Z</time>
      </trkpt>
      <trkpt lat="45.7165" lon="6.24404">
        <ele>1523.594</ele>
        <time>2013-08-11T11:54:52Z</time>
      </trkpt>
      <trkpt lat="45.71648" lon="6.24399">
        <ele>1523.594</ele>
        <time>2013-08-11T11:54:57Z</time>
      </trkpt>
      <trkpt lat="45.71649" lon="6.24397">
        <ele>1523.594</ele>
        <time>2013-08-11T11:55:03Z</time>
      </trkpt>
      <trkpt lat="45.71647" lon="6.24394">
        <ele>1525.0756</ele>
        <time>2013-08-11T11:55:07Z</time>
      </trkpt>
      <trkpt lat="45.71647" lon="6.24394">
        <ele>1525.0756</ele>
        <time>2013-08-11T11:55:12Z</time>
      </trkpt>
      <trkpt lat="45.71647" lon="6.24394">
        <ele>1525.0756</ele>
        <time>2013-08-11T11:55:18Z</time>
      </trkpt>
      <trkpt lat="45.71647" lon="6.24394">
        <ele>1525.0756</ele>
        <time>2013-08-11T11:55:22Z</time>
      </trkpt>
      <trkpt lat="45.71647" lon="6.24394">
        <ele>1525.0756</ele>
        <time>2013-08-11T11:55:27Z</time>
      </trkpt>
      <trkpt lat="45.71647" lon="6.24394">
        <ele>1525.0756</ele>
        <time>2013-08-11T11:55:33Z</time>
      </trkpt>
      <trkpt lat="45.71647" lon="6.24394">
        <ele>1525.0756</ele>
        <time>2013-08-11T11:55:37Z</time>
      </trkpt>
      <trkpt lat="45.71647" lon="6.24394">
        <ele>1525.0756</ele>
        <time>2013-08-11T11:55:42Z</time>
      </trkpt>
      <trkpt lat="45.71647" lon="6.24394">
        <ele>1525.0756</ele>
        <time>2013-08-11T11:55:47Z</time>
      </trkpt>
      <trkpt lat="45.71647" lon="6.24394">
        <ele>1525.0756</ele>
        <time>2013-08-11T11:55:52Z</time>
      </trkpt>
      <trkpt lat="45.71647" lon="6.24394">
        <ele>1525.0756</ele>
        <time>2013-08-11T11:55:57Z</time>
      </trkpt>
      <trkpt lat="45.71639" lon="6.24391">
        <ele>1525.0756</ele>
        <time>2013-08-11T11:56:02Z</time>
      </trkpt>
      <trkpt lat="45.71638" lon="6.2439">
        <ele>1526.3358</ele>
        <time>2013-08-11T11:56:07Z</time>
      </trkpt>
      <trkpt lat="45.71638" lon="6.24391">
        <ele>1526.3358</ele>
        <time>2013-08-11T11:56:12Z</time>
      </trkpt>
      <trkpt lat="45.71638" lon="6.2439">
        <ele>1526.3358</ele>
        <time>2013-08-11T11:56:17Z</time>
      </trkpt>
      <trkpt lat="45.71638" lon="6.2439">
        <ele>1526.3358</ele>
        <time>2013-08-11T11:56:22Z</time>
      </trkpt>
      <trkpt lat="45.71638" lon="6.2439">
        <ele>1526.3358</ele>
        <time>2013-08-11T11:56:27Z</time>
      </trkpt>
      <trkpt lat="45.71638" lon="6.2439">
        <ele>1526.3358</ele>
        <time>2013-08-11T11:56:32Z</time>
      </trkpt>
      <trkpt lat="45.71638" lon="6.2439">
        <ele>1526.3358</ele>
        <time>2013-08-11T11:56:38Z</time>
      </trkpt>
      <trkpt lat="45.71638" lon="6.2439">
        <ele>1526.3358</ele>
        <time>2013-08-11T11:56:42Z</time>
      </trkpt>
      <trkpt lat="45.71638" lon="6.2439">
        <ele>1526.3358</ele>
        <time>2013-08-11T11:56:47Z</time>
      </trkpt>
      <trkpt lat="45.71638" lon="6.2439">
        <ele>1526.3358</ele>
        <time>2013-08-11T11:56:52Z</time>
      </trkpt>
      <trkpt lat="45.71638" lon="6.2439">
        <ele>1526.3358</ele>
        <time>2013-08-11T11:56:58Z</time>
      </trkpt>
      <trkpt lat="45.71638" lon="6.2439">
        <ele>1526.3358</ele>
        <time>2013-08-11T11:57:02Z</time>
      </trkpt>
      <trkpt lat="45.71638" lon="6.2439">
        <ele>1526.3358</ele>
        <time>2013-08-11T11:57:07Z</time>
      </trkpt>
      <trkpt lat="45.71638" lon="6.2439">
        <ele>1526.3358</ele>
        <time>2013-08-11T11:57:12Z</time>
      </trkpt>
      <trkpt lat="45.71638" lon="6.2439">
        <ele>1526.3358</ele>
        <time>2013-08-11T11:57:17Z</time>
      </trkpt>
      <trkpt lat="45.71638" lon="6.2439">
        <ele>1526.3358</ele>
        <time>2013-08-11T11:57:22Z</time>
      </trkpt>
      <trkpt lat="45.71638" lon="6.2439">
        <ele>1526.3358</ele>
        <time>2013-08-11T11:57:29Z</time>
      </trkpt>
      <trkpt lat="45.71638" lon="6.2439">
        <ele>1526.3358</ele>
        <time>2013-08-11T11:57:32Z</time>
      </trkpt>
      <trkpt lat="45.71638" lon="6.2439">
        <ele>1526.3358</ele>
        <time>2013-08-11T11:57:37Z</time>
      </trkpt>
      <trkpt lat="45.71638" lon="6.2439">
        <ele>1526.3358</ele>
        <time>2013-08-11T11:57:43Z</time>
      </trkpt>
      <trkpt lat="45.71638" lon="6.2439">
        <ele>1526.3358</ele>
        <time>2013-08-11T11:57:47Z</time>
      </trkpt>
      <trkpt lat="45.71638" lon="6.2439">
        <ele>1526.3358</ele>
        <time>2013-08-11T11:57:52Z</time>
      </trkpt>
      <trkpt lat="45.71638" lon="6.2439">
        <ele>1526.3358</ele>
        <time>2013-08-11T11:57:57Z</time>
      </trkpt>
      <trkpt lat="45.71638" lon="6.2439">
        <ele>1526.3358</ele>
        <time>2013-08-11T11:58:02Z</time>
      </trkpt>
      <trkpt lat="45.71638" lon="6.2439">
        <ele>1526.3358</ele>
        <time>2013-08-11T11:58:07Z</time>
      </trkpt>
      <trkpt lat="45.71638" lon="6.2439">
        <ele>1526.3358</ele>
        <time>2013-08-11T11:58:12Z</time>
      </trkpt>
      <trkpt lat="45.71638" lon="6.2439">
        <ele>1526.3358</ele>
        <time>2013-08-11T11:58:17Z</time>
      </trkpt>
      <trkpt lat="45.71638" lon="6.2439">
        <ele>1526.3358</ele>
        <time>2013-08-11T11:58:22Z</time>
      </trkpt>
      <trkpt lat="45.71638" lon="6.2439">
        <ele>1526.3358</ele>
        <time>2013-08-11T11:58:27Z</time>
      </trkpt>
      <trkpt lat="45.71638" lon="6.2439">
        <ele>1526.3358</ele>
        <time>2013-08-11T11:58:32Z</time>
      </trkpt>
      <trkpt lat="45.71638" lon="6.2439">
        <ele>1526.3358</ele>
        <time>2013-08-11T11:58:37Z</time>
      </trkpt>
      <trkpt lat="45.71638" lon="6.2439">
        <ele>1526.3358</ele>
        <time>2013-08-11T11:58:43Z</time>
      </trkpt>
      <trkpt lat="45.7164" lon="6.24392">
        <ele>1526.3358</ele>
        <time>2013-08-11T11:58:47Z</time>
      </trkpt>
      <trkpt lat="45.71641" lon="6.24395">
        <ele>1526.3358</ele>
        <time>2013-08-11T11:58:52Z</time>
      </trkpt>
      <trkpt lat="45.71643" lon="6.24399">
        <ele>1526.8018</ele>
        <time>2013-08-11T11:58:57Z</time>
      </trkpt>
      <trkpt lat="45.71644" lon="6.244">
        <ele>1526.8018</ele>
        <time>2013-08-11T11:59:02Z</time>
      </trkpt>
      <trkpt lat="45.71644" lon="6.24401">
        <ele>1526.8018</ele>
        <time>2013-08-11T11:59:07Z</time>
      </trkpt>
      <trkpt lat="45.71649" lon="6.24407">
        <ele>1526.8018</ele>
        <time>2013-08-11T11:59:12Z</time>
      </trkpt>
      <trkpt lat="45.71651" lon="6.2441">
        <ele>1526.3622</ele>
        <time>2013-08-11T11:59:17Z</time>
      </trkpt>
      <trkpt lat="45.71656" lon="6.24411">
        <ele>1526.3622</ele>
        <time>2013-08-11T11:59:22Z</time>
      </trkpt>
      <trkpt lat="45.71662" lon="6.24418">
        <ele>1525.7385</ele>
        <time>2013-08-11T11:59:27Z</time>
      </trkpt>
      <trkpt lat="45.71666" lon="6.24425">
        <ele>1525.7385</ele>
        <time>2013-08-11T11:59:32Z</time>
      </trkpt>
      <trkpt lat="45.7167" lon="6.24429">
        <ele>1525.3977</ele>
        <time>2013-08-11T11:59:38Z</time>
      </trkpt>
      <trkpt lat="45.71675" lon="6.24437">
        <ele>1525.3977</ele>
        <time>2013-08-11T11:59:42Z</time>
      </trkpt>
      <trkpt lat="45.7168" lon="6.24441">
        <ele>1524.6477</ele>
        <time>2013-08-11T11:59:47Z</time>
      </trkpt>
      <trkpt lat="45.71685" lon="6.24445">
        <ele>1524.6477</ele>
        <time>2013-08-11T11:59:52Z</time>
      </trkpt>
      <trkpt lat="45.71688" lon="6.24448">
        <ele>1523.4823</ele>
        <time>2013-08-11T11:59:58Z</time>
      </trkpt>
      <trkpt lat="45.7169" lon="6.24452">
        <ele>1523.4823</ele>
        <time>2013-08-11T12:00:02Z</time>
      </trkpt>
      <trkpt lat="45.71695" lon="6.24458">
        <ele>1522.1564</ele>
        <time>2013-08-11T12:00:07Z</time>
      </trkpt>
      <trkpt lat="45.71698" lon="6.24461">
        <ele>1522.1564</ele>
        <time>2013-08-11T12:00:13Z</time>
      </trkpt>
      <trkpt lat="45.71704" lon="6.24467">
        <ele>1520.8778</ele>
        <time>2013-08-11T12:00:17Z</time>
      </trkpt>
      <trkpt lat="45.71707" lon="6.24471">
        <ele>1520.8778</ele>
        <time>2013-08-11T12:00:22Z</time>
      </trkpt>
      <trkpt lat="45.71709" lon="6.24473">
        <ele>1520.8778</ele>
        <time>2013-08-11T12:00:28Z</time>
      </trkpt>
      <trkpt lat="45.71709" lon="6.24481">
        <ele>1520.2853</ele>
        <time>2013-08-11T12:00:32Z</time>
      </trkpt>
      <trkpt lat="45.71713" lon="6.24487">
        <ele>1520.2853</ele>
        <time>2013-08-11T12:00:37Z</time>
      </trkpt>
      <trkpt lat="45.71715" lon="6.2449">
        <ele>1520.2853</ele>
        <time>2013-08-11T12:00:44Z</time>
      </trkpt>
      <trkpt lat="45.7172" lon="6.24499">
        <ele>1519.4702</ele>
        <time>2013-08-11T12:00:47Z</time>
      </trkpt>
      <trkpt lat="45.71723" lon="6.24502">
        <ele>1519.4702</ele>
        <time>2013-08-11T12:00:52Z</time>
      </trkpt>
      <trkpt lat="45.71725" lon="6.24503">
        <ele>1519.4702</ele>
        <time>2013-08-11T12:00:58Z</time>
      </trkpt>
      <trkpt lat="45.71727" lon="6.24506">
        <ele>1518.499</ele>
        <time>2013-08-11T12:01:02Z</time>
      </trkpt>
      <trkpt lat="45.71729" lon="6.24506">
        <ele>1518.499</ele>
        <time>2013-08-11T12:01:07Z</time>
      </trkpt>
      <trkpt lat="45.7173" lon="6.24507">
        <ele>1518.499</ele>
        <time>2013-08-11T12:01:12Z</time>
      </trkpt>
      <trkpt lat="45.71732" lon="6.24515">
        <ele>1518.499</ele>
        <time>2013-08-11T12:01:17Z</time>
      </trkpt>
      <trkpt lat="45.71736" lon="6.24525">
        <ele>1517.0876</ele>
        <time>2013-08-11T12:01:22Z</time>
      </trkpt>
      <trkpt lat="45.7174" lon="6.2453">
        <ele>1517.0876</ele>
        <time>2013-08-11T12:01:28Z</time>
      </trkpt>
      <trkpt lat="45.71748" lon="6.24537">
        <ele>1515.4209</ele>
        <time>2013-08-11T12:01:32Z</time>
      </trkpt>
      <trkpt lat="45.71752" lon="6.24544">
        <ele>1515.4209</ele>
        <time>2013-08-11T12:01:37Z</time>
      </trkpt>
      <trkpt lat="45.71755" lon="6.2455">
        <ele>1513.4396</ele>
        <time>2013-08-11T12:01:43Z</time>
      </trkpt>
      <trkpt lat="45.71758" lon="6.24552">
        <ele>1513.4396</ele>
        <time>2013-08-11T12:01:47Z</time>
      </trkpt>
      <trkpt lat="45.71762" lon="6.24559">
        <ele>1511.508</ele>
        <time>2013-08-11T12:01:52Z</time>
      </trkpt>
      <trkpt lat="45.71764" lon="6.24567">
        <ele>1511.508</ele>
        <time>2013-08-11T12:01:57Z</time>
      </trkpt>
      <trkpt lat="45.71766" lon="6.24572">
        <ele>1509.7468</ele>
        <time>2013-08-11T12:02:04Z</time>
      </trkpt>
      <trkpt lat="45.71769" lon="6.24581">
        <ele>1509.7468</ele>
        <time>2013-08-11T12:02:07Z</time>
      </trkpt>
      <trkpt lat="45.7177" lon="6.2459">
        <ele>1507.5037</ele>
        <time>2013-08-11T12:02:12Z</time>
      </trkpt>
      <trkpt lat="45.71772" lon="6.24593">
        <ele>1507.5037</ele>
        <time>2013-08-11T12:02:18Z</time>
      </trkpt>
      <trkpt lat="45.71779" lon="6.246">
        <ele>1505.0253</ele>
        <time>2013-08-11T12:02:22Z</time>
      </trkpt>
      <trkpt lat="45.71785" lon="6.24599">
        <ele>1505.0253</ele>
        <time>2013-08-11T12:02:27Z</time>
      </trkpt>
      <trkpt lat="45.71788" lon="6.24598">
        <ele>1505.0253</ele>
        <time>2013-08-11T12:02:33Z</time>
      </trkpt>
      <trkpt lat="45.71791" lon="6.24591">
        <ele>1502.4686</ele>
        <time>2013-08-11T12:02:37Z</time>
      </trkpt>
      <trkpt lat="45.71791" lon="6.24586">
        <ele>1502.4686</ele>
        <time>2013-08-11T12:02:42Z</time>
      </trkpt>
      <trkpt lat="45.71791" lon="6.24584">
        <ele>1502.4686</ele>
        <time>2013-08-11T12:02:49Z</time>
      </trkpt>
      <trkpt lat="45.71794" lon="6.2458">
        <ele>1502.4686</ele>
        <time>2013-08-11T12:02:52Z</time>
      </trkpt>
      <trkpt lat="45.71796" lon="6.24577">
        <ele>1500.8728</ele>
        <time>2013-08-11T12:02:57Z</time>
      </trkpt>
      <trkpt lat="45.71797" lon="6.24575">
        <ele>1500.8728</ele>
        <time>2013-08-11T12:03:02Z</time>
      </trkpt>
      <trkpt lat="45.71797" lon="6.24575">
        <ele>1500.8728</ele>
        <time>2013-08-11T12:03:07Z</time>
      </trkpt>
      <trkpt lat="45.718" lon="6.24574">
        <ele>1500.8728</ele>
        <time>2013-08-11T12:03:12Z</time>
      </trkpt>
      <trkpt lat="45.71802" lon="6.24574">
        <ele>1500.8728</ele>
        <time>2013-08-11T12:03:18Z</time>
      </trkpt>
      <trkpt lat="45.71805" lon="6.24574">
        <ele>1499.8141</ele>
        <time>2013-08-11T12:03:22Z</time>
      </trkpt>
      <trkpt lat="45.71811" lon="6.24574">
        <ele>1499.8141</ele>
        <time>2013-08-11T12:03:27Z</time>
      </trkpt>
      <trkpt lat="45.71812" lon="6.24575">
        <ele>1499.8141</ele>
        <time>2013-08-11T12:03:33Z</time>
      </trkpt>
      <trkpt lat="45.71816" lon="6.24576">
        <ele>1499.6042</ele>
        <time>2013-08-11T12:03:37Z</time>
      </trkpt>
      <trkpt lat="45.71815" lon="6.24576">
        <ele>1499.6042</ele>
        <time>2013-08-11T12:03:42Z</time>
      </trkpt>
      <trkpt lat="45.71816" lon="6.24577">
        <ele>1499.6042</ele>
        <time>2013-08-11T12:03:47Z</time>
      </trkpt>
      <trkpt lat="45.71822" lon="6.24582">
        <ele>1499.5062</ele>
        <time>2013-08-11T12:03:53Z</time>
      </trkpt>
      <trkpt lat="45.71827" lon="6.24583">
        <ele>1499.5062</ele>
        <time>2013-08-11T12:03:57Z</time>
      </trkpt>
      <trkpt lat="45.71831" lon="6.24584">
        <ele>1499.5062</ele>
        <time>2013-08-11T12:04:02Z</time>
      </trkpt>
      <trkpt lat="45.71834" lon="6.24583">
        <ele>1499.5574</ele>
        <time>2013-08-11T12:04:08Z</time>
      </trkpt>
      <trkpt lat="45.71839" lon="6.24584">
        <ele>1499.5574</ele>
        <time>2013-08-11T12:04:12Z</time>
      </trkpt>
      <trkpt lat="45.71843" lon="6.24585">
        <ele>1499.2439</ele>
        <time>2013-08-11T12:04:17Z</time>
      </trkpt>
      <trkpt lat="45.71846" lon="6.24584">
        <ele>1499.2439</ele>
        <time>2013-08-11T12:04:24Z</time>
      </trkpt>
      <trkpt lat="45.71846" lon="6.24581">
        <ele>1499.2439</ele>
        <time>2013-08-11T12:04:27Z</time>
      </trkpt>
      <trkpt lat="45.71848" lon="6.24579">
        <ele>1499.2439</ele>
        <time>2013-08-11T12:04:32Z</time>
      </trkpt>
      <trkpt lat="45.71852" lon="6.24578">
        <ele>1499.1569</ele>
        <time>2013-08-11T12:04:37Z</time>
      </trkpt>
      <trkpt lat="45.71858" lon="6.24579">
        <ele>1499.1569</ele>
        <time>2013-08-11T12:04:42Z</time>
      </trkpt>
      <trkpt lat="45.71862" lon="6.24579">
        <ele>1499.6127</ele>
        <time>2013-08-11T12:04:47Z</time>
      </trkpt>
      <trkpt lat="45.71862" lon="6.24577">
        <ele>1499.6127</ele>
        <time>2013-08-11T12:04:52Z</time>
      </trkpt>
      <trkpt lat="45.71866" lon="6.24576">
        <ele>1499.6127</ele>
        <time>2013-08-11T12:04:57Z</time>
      </trkpt>
      <trkpt lat="45.71869" lon="6.24575">
        <ele>1499.6127</ele>
        <time>2013-08-11T12:05:03Z</time>
      </trkpt>
      <trkpt lat="45.7187" lon="6.24573">
        <ele>1499.8939</ele>
        <time>2013-08-11T12:05:07Z</time>
      </trkpt>
      <trkpt lat="45.7187" lon="6.24573">
        <ele>1499.8939</ele>
        <time>2013-08-11T12:05:12Z</time>
      </trkpt>
      <trkpt lat="45.7187" lon="6.24573">
        <ele>1499.8939</ele>
        <time>2013-08-11T12:05:18Z</time>
      </trkpt>
      <trkpt lat="45.7187" lon="6.24572">
        <ele>1499.8939</ele>
        <time>2013-08-11T12:05:22Z</time>
      </trkpt>
      <trkpt lat="45.7187" lon="6.24572">
        <ele>1499.8939</ele>
        <time>2013-08-11T12:05:27Z</time>
      </trkpt>
      <trkpt lat="45.71872" lon="6.24572">
        <ele>1499.8939</ele>
        <time>2013-08-11T12:05:33Z</time>
      </trkpt>
      <trkpt lat="45.71881" lon="6.24571">
        <ele>1500.5756</ele>
        <time>2013-08-11T12:05:37Z</time>
      </trkpt>
      <trkpt lat="45.71885" lon="6.24567">
        <ele>1500.5756</ele>
        <time>2013-08-11T12:05:42Z</time>
      </trkpt>
      <trkpt lat="45.71888" lon="6.24565">
        <ele>1500.5756</ele>
        <time>2013-08-11T12:05:48Z</time>
      </trkpt>
      <trkpt lat="45.71892" lon="6.24567">
        <ele>1501.0651</ele>
        <time>2013-08-11T12:05:52Z</time>
      </trkpt>
      <trkpt lat="45.71896" lon="6.24565">
        <ele>1501.0651</ele>
        <time>2013-08-11T12:05:57Z</time>
      </trkpt>
      <trkpt lat="45.71899" lon="6.24564">
        <ele>1501.0651</ele>
        <time>2013-08-11T12:06:03Z</time>
      </trkpt>
      <trkpt lat="45.71904" lon="6.24564">
        <ele>1500.655</ele>
        <time>2013-08-11T12:06:07Z</time>
      </trkpt>
      <trkpt lat="45.71909" lon="6.24562">
        <ele>1500.655</ele>
        <time>2013-08-11T12:06:12Z</time>
      </trkpt>
      <trkpt lat="45.7191" lon="6.24561">
        <ele>1500.655</ele>
        <time>2013-08-11T12:06:18Z</time>
      </trkpt>
      <trkpt lat="45.71916" lon="6.24559">
        <ele>1499.7737</ele>
        <time>2013-08-11T12:06:22Z</time>
      </trkpt>
      <trkpt lat="45.71921" lon="6.24556">
        <ele>1499.7737</ele>
        <time>2013-08-11T12:06:27Z</time>
      </trkpt>
      <trkpt lat="45.71925" lon="6.24554">
        <ele>1498.6743</ele>
        <time>2013-08-11T12:06:32Z</time>
      </trkpt>
      <trkpt lat="45.71927" lon="6.24555">
        <ele>1498.6743</ele>
        <time>2013-08-11T12:06:37Z</time>
      </trkpt>
      <trkpt lat="45.71934" lon="6.24552">
        <ele>1497.3187</ele>
        <time>2013-08-11T12:06:42Z</time>
      </trkpt>
      <trkpt lat="45.71938" lon="6.24551">
        <ele>1497.3187</ele>
        <time>2013-08-11T12:06:47Z</time>
      </trkpt>
      <trkpt lat="45.71944" lon="6.24553">
        <ele>1496.3348</ele>
        <time>2013-08-11T12:06:53Z</time>
      </trkpt>
      <trkpt lat="45.71947" lon="6.24553">
        <ele>1496.3348</ele>
        <time>2013-08-11T12:06:57Z</time>
      </trkpt>
      <trkpt lat="45.71953" lon="6.24553">
        <ele>1496.3348</ele>
        <time>2013-08-11T12:07:02Z</time>
      </trkpt>
      <trkpt lat="45.71956" lon="6.24551">
        <ele>1495.2368</ele>
        <time>2013-08-11T12:07:07Z</time>
      </trkpt>
      <trkpt lat="45.71963" lon="6.24552">
        <ele>1495.2368</ele>
        <time>2013-08-11T12:07:12Z</time>
      </trkpt>
      <trkpt lat="45.71968" lon="6.24551">
        <ele>1494.3962</ele>
        <time>2013-08-11T12:07:17Z</time>
      </trkpt>
      <trkpt lat="45.71974" lon="6.24553">
        <ele>1494.3962</ele>
        <time>2013-08-11T12:07:23Z</time>
      </trkpt>
      <trkpt lat="45.71976" lon="6.24552">
        <ele>1494.3962</ele>
        <time>2013-08-11T12:07:27Z</time>
      </trkpt>
      <trkpt lat="45.71979" lon="6.2455">
        <ele>1492.8595</ele>
        <time>2013-08-11T12:07:32Z</time>
      </trkpt>
      <trkpt lat="45.71983" lon="6.2455">
        <ele>1492.8595</ele>
        <time>2013-08-11T12:07:37Z</time>
      </trkpt>
      <trkpt lat="45.71989" lon="6.24547">
        <ele>1491.6184</ele>
        <time>2013-08-11T12:07:42Z</time>
      </trkpt>
      <trkpt lat="45.71993" lon="6.24548">
        <ele>1491.6184</ele>
        <time>2013-08-11T12:07:47Z</time>
      </trkpt>
      <trkpt lat="45.71996" lon="6.24547">
        <ele>1491.6184</ele>
        <time>2013-08-11T12:07:53Z</time>
      </trkpt>
      <trkpt lat="45.71998" lon="6.24547">
        <ele>1489.9911</ele>
        <time>2013-08-11T12:07:58Z</time>
      </trkpt>
      <trkpt lat="45.72004" lon="6.24548">
        <ele>1489.9911</ele>
        <time>2013-08-11T12:08:02Z</time>
      </trkpt>
      <trkpt lat="45.72006" lon="6.24548">
        <ele>1489.9911</ele>
        <time>2013-08-11T12:08:07Z</time>
      </trkpt>
      <trkpt lat="45.7201" lon="6.24549">
        <ele>1488.3412</ele>
        <time>2013-08-11T12:08:13Z</time>
      </trkpt>
      <trkpt lat="45.7201" lon="6.24548">
        <ele>1488.3412</ele>
        <time>2013-08-11T12:08:17Z</time>
      </trkpt>
      <trkpt lat="45.72009" lon="6.24549">
        <ele>1488.3412</ele>
        <time>2013-08-11T12:08:22Z</time>
      </trkpt>
      <trkpt lat="45.72012" lon="6.24552">
        <ele>1488.3412</ele>
        <time>2013-08-11T12:08:28Z</time>
      </trkpt>
      <trkpt lat="45.72015" lon="6.24549">
        <ele>1488.3412</ele>
        <time>2013-08-11T12:08:32Z</time>
      </trkpt>
      <trkpt lat="45.72019" lon="6.24546">
        <ele>1486.5447</ele>
        <time>2013-08-11T12:08:37Z</time>
      </trkpt>
      <trkpt lat="45.72022" lon="6.24549">
        <ele>1486.5447</ele>
        <time>2013-08-11T12:08:43Z</time>
      </trkpt>
      <trkpt lat="45.72023" lon="6.2455">
        <ele>1486.5447</ele>
        <time>2013-08-11T12:08:47Z</time>
      </trkpt>
      <trkpt lat="45.72027" lon="6.24546">
        <ele>1484.4432</ele>
        <time>2013-08-11T12:08:52Z</time>
      </trkpt>
      <trkpt lat="45.72033" lon="6.24545">
        <ele>1484.4432</ele>
        <time>2013-08-11T12:08:59Z</time>
      </trkpt>
      <trkpt lat="45.72033" lon="6.24546">
        <ele>1484.4432</ele>
        <time>2013-08-11T12:09:02Z</time>
      </trkpt>
      <trkpt lat="45.72036" lon="6.24547">
        <ele>1482.3093</ele>
        <time>2013-08-11T12:09:07Z</time>
      </trkpt>
      <trkpt lat="45.72039" lon="6.24548">
        <ele>1482.3093</ele>
        <time>2013-08-11T12:09:13Z</time>
      </trkpt>
      <trkpt lat="45.72042" lon="6.24546">
        <ele>1482.3093</ele>
        <time>2013-08-11T12:09:17Z</time>
      </trkpt>
      <trkpt lat="45.72045" lon="6.24544">
        <ele>1479.6454</ele>
        <time>2013-08-11T12:09:22Z</time>
      </trkpt>
      <trkpt lat="45.72048" lon="6.24547">
        <ele>1479.6454</ele>
        <time>2013-08-11T12:09:28Z</time>
      </trkpt>
      <trkpt lat="45.7205" lon="6.24548">
        <ele>1479.6454</ele>
        <time>2013-08-11T12:09:32Z</time>
      </trkpt>
      <trkpt lat="45.72053" lon="6.24548">
        <ele>1479.6454</ele>
        <time>2013-08-11T12:09:37Z</time>
      </trkpt>
      <trkpt lat="45.72055" lon="6.24548">
        <ele>1476.9001</ele>
        <time>2013-08-11T12:09:47Z</time>
      </trkpt>
      <trkpt lat="45.72058" lon="6.24548">
        <ele>1476.9001</ele>
        <time>2013-08-11T12:09:52Z</time>
      </trkpt>
      <trkpt lat="45.72065" lon="6.24549">
        <ele>1473.8407</ele>
        <time>2013-08-11T12:10:02Z</time>
      </trkpt>
      <trkpt lat="45.72067" lon="6.24551">
        <ele>1473.8407</ele>
        <time>2013-08-11T12:10:07Z</time>
      </trkpt>
      <trkpt lat="45.72069" lon="6.24552">
        <ele>1473.8407</ele>
        <time>2013-08-11T12:10:13Z</time>
      </trkpt>
      <trkpt lat="45.7207" lon="6.24553">
        <ele>1473.8407</ele>
        <time>2013-08-11T12:10:17Z</time>
      </trkpt>
      <trkpt lat="45.72071" lon="6.24552">
        <ele>1473.8407</ele>
        <time>2013-08-11T12:10:22Z</time>
      </trkpt>
      <trkpt lat="45.72071" lon="6.24552">
        <ele>1473.8407</ele>
        <time>2013-08-11T12:10:28Z</time>
      </trkpt>
      <trkpt lat="45.72071" lon="6.24551">
        <ele>1473.8407</ele>
        <time>2013-08-11T12:10:32Z</time>
      </trkpt>
      <trkpt lat="45.72074" lon="6.2455">
        <ele>1469.8053</ele>
        <time>2013-08-11T12:10:37Z</time>
      </trkpt>
      <trkpt lat="45.72073" lon="6.24549">
        <ele>1469.8053</ele>
        <time>2013-08-11T12:10:42Z</time>
      </trkpt>
      <trkpt lat="45.72073" lon="6.24549">
        <ele>1469.8053</ele>
        <time>2013-08-11T12:10:47Z</time>
      </trkpt>
      <trkpt lat="45.72074" lon="6.24549">
        <ele>1469.8053</ele>
        <time>2013-08-11T12:10:52Z</time>
      </trkpt>
      <trkpt lat="45.72074" lon="6.24549">
        <ele>1469.8053</ele>
        <time>2013-08-11T12:10:57Z</time>
      </trkpt>
      <trkpt lat="45.72074" lon="6.24549">
        <ele>1469.8053</ele>
        <time>2013-08-11T12:11:03Z</time>
      </trkpt>
      <trkpt lat="45.72074" lon="6.24549">
        <ele>1469.8053</ele>
        <time>2013-08-11T12:11:07Z</time>
      </trkpt>
      <trkpt lat="45.72074" lon="6.24549">
        <ele>1469.8053</ele>
        <time>2013-08-11T12:11:12Z</time>
      </trkpt>
      <trkpt lat="45.72074" lon="6.24549">
        <ele>1469.8053</ele>
        <time>2013-08-11T12:11:18Z</time>
      </trkpt>
      <trkpt lat="45.72074" lon="6.2455">
        <ele>1469.8053</ele>
        <time>2013-08-11T12:11:22Z</time>
      </trkpt>
      <trkpt lat="45.72077" lon="6.24548">
        <ele>1469.8053</ele>
        <time>2013-08-11T12:11:27Z</time>
      </trkpt>
      <trkpt lat="45.72081" lon="6.24546">
        <ele>1465.5813</ele>
        <time>2013-08-11T12:11:32Z</time>
      </trkpt>
      <trkpt lat="45.72085" lon="6.24543">
        <ele>1465.5813</ele>
        <time>2013-08-11T12:11:37Z</time>
      </trkpt>
      <trkpt lat="45.72089" lon="6.2454">
        <ele>1461.639</ele>
        <time>2013-08-11T12:11:42Z</time>
      </trkpt>
      <trkpt lat="45.72092" lon="6.24538">
        <ele>1461.639</ele>
        <time>2013-08-11T12:11:48Z</time>
      </trkpt>
      <trkpt lat="45.72097" lon="6.24536">
        <ele>1461.639</ele>
        <time>2013-08-11T12:11:52Z</time>
      </trkpt>
      <trkpt lat="45.72101" lon="6.24531">
        <ele>1458.2981</ele>
        <time>2013-08-11T12:11:57Z</time>
      </trkpt>
      <trkpt lat="45.72105" lon="6.24528">
        <ele>1458.2981</ele>
        <time>2013-08-11T12:12:02Z</time>
      </trkpt>
      <trkpt lat="45.72106" lon="6.24528">
        <ele>1458.2981</ele>
        <time>2013-08-11T12:12:08Z</time>
      </trkpt>
      <trkpt lat="45.72107" lon="6.24527">
        <ele>1458.2981</ele>
        <time>2013-08-11T12:12:12Z</time>
      </trkpt>
      <trkpt lat="45.72108" lon="6.24527">
        <ele>1458.2981</ele>
        <time>2013-08-11T12:12:17Z</time>
      </trkpt>
      <trkpt lat="45.72108" lon="6.24527">
        <ele>1458.2981</ele>
        <time>2013-08-11T12:12:22Z</time>
      </trkpt>
      <trkpt lat="45.72108" lon="6.24528">
        <ele>1458.2981</ele>
        <time>2013-08-11T12:12:27Z</time>
      </trkpt>
      <trkpt lat="45.72109" lon="6.24527">
        <ele>1455.5934</ele>
        <time>2013-08-11T12:12:32Z</time>
      </trkpt>
      <trkpt lat="45.72109" lon="6.24527">
        <ele>1455.5934</ele>
        <time>2013-08-11T12:12:38Z</time>
      </trkpt>
      <trkpt lat="45.72109" lon="6.24527">
        <ele>1455.5934</ele>
        <time>2013-08-11T12:12:42Z</time>
      </trkpt>
      <trkpt lat="45.72109" lon="6.24527">
        <ele>1455.5934</ele>
        <time>2013-08-11T12:12:47Z</time>
      </trkpt>
      <trkpt lat="45.72109" lon="6.24527">
        <ele>1455.5934</ele>
        <time>2013-08-11T12:12:53Z</time>
      </trkpt>
      <trkpt lat="45.72109" lon="6.24527">
        <ele>1455.5934</ele>
        <time>2013-08-11T12:12:57Z</time>
      </trkpt>
      <trkpt lat="45.72109" lon="6.24527">
        <ele>1455.5934</ele>
        <time>2013-08-11T12:13:02Z</time>
      </trkpt>
      <trkpt lat="45.72109" lon="6.24527">
        <ele>1455.5934</ele>
        <time>2013-08-11T12:13:08Z</time>
      </trkpt>
      <trkpt lat="45.7211" lon="6.24527">
        <ele>1455.5934</ele>
        <time>2013-08-11T12:13:12Z</time>
      </trkpt>
      <trkpt lat="45.72113" lon="6.24525">
        <ele>1455.5934</ele>
        <time>2013-08-11T12:13:17Z</time>
      </trkpt>
      <trkpt lat="45.72113" lon="6.24525">
        <ele>1455.5934</ele>
        <time>2013-08-11T12:13:24Z</time>
      </trkpt>
      <trkpt lat="45.72113" lon="6.24525">
        <ele>1455.5934</ele>
        <time>2013-08-11T12:13:27Z</time>
      </trkpt>
      <trkpt lat="45.72113" lon="6.24525">
        <ele>1455.5934</ele>
        <time>2013-08-11T12:13:32Z</time>
      </trkpt>
      <trkpt lat="45.72113" lon="6.24525">
        <ele>1455.5934</ele>
        <time>2013-08-11T12:13:37Z</time>
      </trkpt>
      <trkpt lat="45.72113" lon="6.24525">
        <ele>1455.5934</ele>
        <time>2013-08-11T12:13:42Z</time>
      </trkpt>
      <trkpt lat="45.72113" lon="6.24525">
        <ele>1455.5934</ele>
        <time>2013-08-11T12:13:48Z</time>
      </trkpt>
      <trkpt lat="45.72113" lon="6.24525">
        <ele>1455.5934</ele>
        <time>2013-08-11T12:13:52Z</time>
      </trkpt>
      <trkpt lat="45.72113" lon="6.24525">
        <ele>1455.5934</ele>
        <time>2013-08-11T12:13:57Z</time>
      </trkpt>
      <trkpt lat="45.72113" lon="6.24525">
        <ele>1455.5934</ele>
        <time>2013-08-11T12:14:02Z</time>
      </trkpt>
      <trkpt lat="45.72113" lon="6.24525">
        <ele>1455.5934</ele>
        <time>2013-08-11T12:14:08Z</time>
      </trkpt>
      <trkpt lat="45.72113" lon="6.24525">
        <ele>1455.5934</ele>
        <time>2013-08-11T12:14:12Z</time>
      </trkpt>
      <trkpt lat="45.72113" lon="6.24525">
        <ele>1455.5934</ele>
        <time>2013-08-11T12:14:17Z</time>
      </trkpt>
      <trkpt lat="45.72113" lon="6.24525">
        <ele>1455.5934</ele>
        <time>2013-08-11T12:14:23Z</time>
      </trkpt>
      <trkpt lat="45.72113" lon="6.24525">
        <ele>1455.5934</ele>
        <time>2013-08-11T12:14:27Z</time>
      </trkpt>
      <trkpt lat="45.72113" lon="6.24525">
        <ele>1455.5934</ele>
        <time>2013-08-11T12:14:32Z</time>
      </trkpt>
      <trkpt lat="45.72113" lon="6.24525">
        <ele>1455.5934</ele>
        <time>2013-08-11T12:14:37Z</time>
      </trkpt>
      <trkpt lat="45.72113" lon="6.24525">
        <ele>1455.5934</ele>
        <time>2013-08-11T12:14:42Z</time>
      </trkpt>
      <trkpt lat="45.72113" lon="6.24525">
        <ele>1455.5934</ele>
        <time>2013-08-11T12:14:47Z</time>
      </trkpt>
      <trkpt lat="45.72113" lon="6.24525">
        <ele>1455.5934</ele>
        <time>2013-08-11T12:14:53Z</time>
      </trkpt>
      <trkpt lat="45.72113" lon="6.24525">
        <ele>1455.5934</ele>
        <time>2013-08-11T12:14:57Z</time>
      </trkpt>
      <trkpt lat="45.72115" lon="6.24526">
        <ele>1455.5934</ele>
        <time>2013-08-11T12:15:02Z</time>
      </trkpt>
      <trkpt lat="45.72118" lon="6.24525">
        <ele>1453.7424</ele>
        <time>2013-08-11T12:15:08Z</time>
      </trkpt>
      <trkpt lat="45.72121" lon="6.24524">
        <ele>1453.7424</ele>
        <time>2013-08-11T12:15:12Z</time>
      </trkpt>
      <trkpt lat="45.72121" lon="6.24524">
        <ele>1453.7424</ele>
        <time>2013-08-11T12:15:17Z</time>
      </trkpt>
      <trkpt lat="45.72121" lon="6.24524">
        <ele>1453.7424</ele>
        <time>2013-08-11T12:15:24Z</time>
      </trkpt>
      <trkpt lat="45.72121" lon="6.24524">
        <ele>1453.7424</ele>
        <time>2013-08-11T12:15:27Z</time>
      </trkpt>
      <trkpt lat="45.72121" lon="6.24524">
        <ele>1453.7424</ele>
        <time>2013-08-11T12:15:32Z</time>
      </trkpt>
      <trkpt lat="45.72121" lon="6.24524">
        <ele>1453.7424</ele>
        <time>2013-08-11T12:15:38Z</time>
      </trkpt>
      <trkpt lat="45.72121" lon="6.24524">
        <ele>1453.7424</ele>
        <time>2013-08-11T12:15:42Z</time>
      </trkpt>
      <trkpt lat="45.72121" lon="6.24524">
        <ele>1453.7424</ele>
        <time>2013-08-11T12:15:47Z</time>
      </trkpt>
      <trkpt lat="45.72121" lon="6.24524">
        <ele>1453.7424</ele>
        <time>2013-08-11T12:15:53Z</time>
      </trkpt>
      <trkpt lat="45.7212" lon="6.24527">
        <ele>1453.7424</ele>
        <time>2013-08-11T12:15:57Z</time>
      </trkpt>
      <trkpt lat="45.7212" lon="6.24526">
        <ele>1453.7424</ele>
        <time>2013-08-11T12:16:02Z</time>
      </trkpt>
      <trkpt lat="45.7212" lon="6.24526">
        <ele>1453.7424</ele>
        <time>2013-08-11T12:16:07Z</time>
      </trkpt>
      <trkpt lat="45.7212" lon="6.24526">
        <ele>1453.7424</ele>
        <time>2013-08-11T12:16:12Z</time>
      </trkpt>
      <trkpt lat="45.7212" lon="6.24526">
        <ele>1453.7424</ele>
        <time>2013-08-11T12:16:17Z</time>
      </trkpt>
      <trkpt lat="45.7212" lon="6.24526">
        <ele>1453.7424</ele>
        <time>2013-08-11T12:16:23Z</time>
      </trkpt>
      <trkpt lat="45.7212" lon="6.24526">
        <ele>1453.7424</ele>
        <time>2013-08-11T12:16:27Z</time>
      </trkpt>
      <trkpt lat="45.72121" lon="6.24524">
        <ele>1453.7424</ele>
        <time>2013-08-11T12:16:32Z</time>
      </trkpt>
      <trkpt lat="45.72126" lon="6.24522">
        <ele>1451.8203</ele>
        <time>2013-08-11T12:16:37Z</time>
      </trkpt>
      <trkpt lat="45.72131" lon="6.24512">
        <ele>1451.8203</ele>
        <time>2013-08-11T12:16:43Z</time>
      </trkpt>
      <trkpt lat="45.72133" lon="6.24511">
        <ele>1450.1948</ele>
        <time>2013-08-11T12:16:47Z</time>
      </trkpt>
      <trkpt lat="45.72138" lon="6.24507">
        <ele>1450.1948</ele>
        <time>2013-08-11T12:16:52Z</time>
      </trkpt>
      <trkpt lat="45.72143" lon="6.24505">
        <ele>1448.9319</ele>
        <time>2013-08-11T12:16:57Z</time>
      </trkpt>
      <trkpt lat="45.72149" lon="6.24504">
        <ele>1448.9319</ele>
        <time>2013-08-11T12:17:03Z</time>
      </trkpt>
      <trkpt lat="45.72152" lon="6.24505">
        <ele>1448.2069</ele>
        <time>2013-08-11T12:17:07Z</time>
      </trkpt>
      <trkpt lat="45.72152" lon="6.24506">
        <ele>1448.2069</ele>
        <time>2013-08-11T12:17:12Z</time>
      </trkpt>
      <trkpt lat="45.72152" lon="6.24506">
        <ele>1448.2069</ele>
        <time>2013-08-11T12:17:18Z</time>
      </trkpt>
      <trkpt lat="45.72152" lon="6.24506">
        <ele>1448.2069</ele>
        <time>2013-08-11T12:17:22Z</time>
      </trkpt>
      <trkpt lat="45.72152" lon="6.24506">
        <ele>1448.2069</ele>
        <time>2013-08-11T12:17:27Z</time>
      </trkpt>
      <trkpt lat="45.72152" lon="6.24506">
        <ele>1448.2069</ele>
        <time>2013-08-11T12:17:33Z</time>
      </trkpt>
      <trkpt lat="45.72152" lon="6.24506">
        <ele>1448.2069</ele>
        <time>2013-08-11T12:17:37Z</time>
      </trkpt>
      <trkpt lat="45.72152" lon="6.24506">
        <ele>1448.2069</ele>
        <time>2013-08-11T12:17:42Z</time>
      </trkpt>
      <trkpt lat="45.72152" lon="6.24506">
        <ele>1448.2069</ele>
        <time>2013-08-11T12:17:47Z</time>
      </trkpt>
      <trkpt lat="45.72152" lon="6.24506">
        <ele>1448.2069</ele>
        <time>2013-08-11T12:17:52Z</time>
      </trkpt>
      <trkpt lat="45.72152" lon="6.24506">
        <ele>1448.2069</ele>
        <time>2013-08-11T12:17:57Z</time>
      </trkpt>
      <trkpt lat="45.72152" lon="6.24506">
        <ele>1448.2069</ele>
        <time>2013-08-11T12:18:03Z</time>
      </trkpt>
      <trkpt lat="45.72152" lon="6.24506">
        <ele>1448.2069</ele>
        <time>2013-08-11T12:18:07Z</time>
      </trkpt>
      <trkpt lat="45.72152" lon="6.24506">
        <ele>1448.2069</ele>
        <time>2013-08-11T12:18:12Z</time>
      </trkpt>
      <trkpt lat="45.72152" lon="6.24506">
        <ele>1448.2069</ele>
        <time>2013-08-11T12:18:18Z</time>
      </trkpt>
      <trkpt lat="45.72152" lon="6.24506">
        <ele>1448.2069</ele>
        <time>2013-08-11T12:18:22Z</time>
      </trkpt>
      <trkpt lat="45.72152" lon="6.24506">
        <ele>1448.2069</ele>
        <time>2013-08-11T12:18:27Z</time>
      </trkpt>
      <trkpt lat="45.72152" lon="6.24506">
        <ele>1448.2069</ele>
        <time>2013-08-11T12:18:32Z</time>
      </trkpt>
      <trkpt lat="45.72152" lon="6.24506">
        <ele>1448.2069</ele>
        <time>2013-08-11T12:18:37Z</time>
      </trkpt>
      <trkpt lat="45.72152" lon="6.24506">
        <ele>1448.2069</ele>
        <time>2013-08-11T12:18:42Z</time>
      </trkpt>
      <trkpt lat="45.72152" lon="6.24506">
        <ele>1448.2069</ele>
        <time>2013-08-11T12:18:47Z</time>
      </trkpt>
      <trkpt lat="45.72152" lon="6.24506">
        <ele>1448.2069</ele>
        <time>2013-08-11T12:18:54Z</time>
      </trkpt>
      <trkpt lat="45.72152" lon="6.24506">
        <ele>1448.2069</ele>
        <time>2013-08-11T12:18:57Z</time>
      </trkpt>
      <trkpt lat="45.72152" lon="6.24506">
        <ele>1448.2069</ele>
        <time>2013-08-11T12:19:02Z</time>
      </trkpt>
      <trkpt lat="45.72152" lon="6.24506">
        <ele>1448.2069</ele>
        <time>2013-08-11T12:19:09Z</time>
      </trkpt>
      <trkpt lat="45.72152" lon="6.24506">
        <ele>1448.2069</ele>
        <time>2013-08-11T12:19:12Z</time>
      </trkpt>
      <trkpt lat="45.72152" lon="6.24506">
        <ele>1448.2069</ele>
        <time>2013-08-11T12:19:17Z</time>
      </trkpt>
      <trkpt lat="45.72152" lon="6.24506">
        <ele>1448.2069</ele>
        <time>2013-08-11T12:19:23Z</time>
      </trkpt>
      <trkpt lat="45.72152" lon="6.24506">
        <ele>1448.2069</ele>
        <time>2013-08-11T12:19:27Z</time>
      </trkpt>
      <trkpt lat="45.72152" lon="6.24506">
        <ele>1448.2069</ele>
        <time>2013-08-11T12:19:32Z</time>
      </trkpt>
      <trkpt lat="45.72152" lon="6.24506">
        <ele>1448.2069</ele>
        <time>2013-08-11T12:19:37Z</time>
      </trkpt>
      <trkpt lat="45.72152" lon="6.24506">
        <ele>1448.2069</ele>
        <time>2013-08-11T12:19:48Z</time>
      </trkpt>
      <trkpt lat="45.72152" lon="6.24506">
        <ele>1448.2069</ele>
        <time>2013-08-11T12:19:52Z</time>
      </trkpt>
      <trkpt lat="45.72152" lon="6.24506">
        <ele>1448.2069</ele>
        <time>2013-08-11T12:19:57Z</time>
      </trkpt>
      <trkpt lat="45.72152" lon="6.24506">
        <ele>1448.2069</ele>
        <time>2013-08-11T12:20:02Z</time>
      </trkpt>
      <trkpt lat="45.72154" lon="6.24504">
        <ele>1448.2069</ele>
        <time>2013-08-11T12:20:08Z</time>
      </trkpt>
      <trkpt lat="45.7216" lon="6.24501">
        <ele>1448.0219</ele>
        <time>2013-08-11T12:20:12Z</time>
      </trkpt>
      <trkpt lat="45.72165" lon="6.24497">
        <ele>1448.0219</ele>
        <time>2013-08-11T12:20:17Z</time>
      </trkpt>
      <trkpt lat="45.72166" lon="6.24496">
        <ele>1448.0219</ele>
        <time>2013-08-11T12:20:23Z</time>
      </trkpt>
      <trkpt lat="45.72172" lon="6.24492">
        <ele>1447.8152</ele>
        <time>2013-08-11T12:20:27Z</time>
      </trkpt>
      <trkpt lat="45.72171" lon="6.24492">
        <ele>1447.8152</ele>
        <time>2013-08-11T12:20:32Z</time>
      </trkpt>
      <trkpt lat="45.72171" lon="6.24492">
        <ele>1447.8152</ele>
        <time>2013-08-11T12:20:37Z</time>
      </trkpt>
      <trkpt lat="45.72165" lon="6.24497">
        <ele>1447.8152</ele>
        <time>2013-08-11T12:20:42Z</time>
      </trkpt>
      <trkpt lat="45.72157" lon="6.24501">
        <ele>1447.369</ele>
        <time>2013-08-11T12:20:47Z</time>
      </trkpt>
      <trkpt lat="45.72153" lon="6.24502">
        <ele>1447.369</ele>
        <time>2013-08-11T12:20:54Z</time>
      </trkpt>
      <trkpt lat="45.72143" lon="6.24504">
        <ele>1446.9576</ele>
        <time>2013-08-11T12:20:57Z</time>
      </trkpt>
      <trkpt lat="45.72136" lon="6.24507">
        <ele>1446.9576</ele>
        <time>2013-08-11T12:21:02Z</time>
      </trkpt>
      <trkpt lat="45.72132" lon="6.24509">
        <ele>1446.7196</ele>
        <time>2013-08-11T12:21:08Z</time>
      </trkpt>
      <trkpt lat="45.72124" lon="6.24515">
        <ele>1446.6099</ele>
        <time>2013-08-11T12:21:12Z</time>
      </trkpt>
      <trkpt lat="45.72119" lon="6.24519">
        <ele>1446.6099</ele>
        <time>2013-08-11T12:21:17Z</time>
      </trkpt>
      <trkpt lat="45.72115" lon="6.24521">
        <ele>1446.7449</ele>
        <time>2013-08-11T12:21:23Z</time>
      </trkpt>
      <trkpt lat="45.7211" lon="6.24525">
        <ele>1446.7449</ele>
        <time>2013-08-11T12:21:27Z</time>
      </trkpt>
      <trkpt lat="45.72108" lon="6.24527">
        <ele>1446.7449</ele>
        <time>2013-08-11T12:21:32Z</time>
      </trkpt>
      <trkpt lat="45.7211" lon="6.24527">
        <ele>1447.0587</ele>
        <time>2013-08-11T12:21:39Z</time>
      </trkpt>
      <trkpt lat="45.72108" lon="6.24528">
        <ele>1447.0587</ele>
        <time>2013-08-11T12:21:47Z</time>
      </trkpt>
      <trkpt lat="45.72103" lon="6.24533">
        <ele>1447.0587</ele>
        <time>2013-08-11T12:21:53Z</time>
      </trkpt>
      <trkpt lat="45.72099" lon="6.24539">
        <ele>1447.3746</ele>
        <time>2013-08-11T12:21:57Z</time>
      </trkpt>
      <trkpt lat="45.72095" lon="6.24542">
        <ele>1447.3746</ele>
        <time>2013-08-11T12:22:02Z</time>
      </trkpt>
      <trkpt lat="45.7209" lon="6.24547">
        <ele>1447.2261</ele>
        <time>2013-08-11T12:22:07Z</time>
      </trkpt>
      <trkpt lat="45.72089" lon="6.24549">
        <ele>1447.2261</ele>
        <time>2013-08-11T12:22:13Z</time>
      </trkpt>
      <trkpt lat="45.72078" lon="6.24558">
        <ele>1447.1189</ele>
        <time>2013-08-11T12:22:17Z</time>
      </trkpt>
      <trkpt lat="45.72075" lon="6.24565">
        <ele>1447.1189</ele>
        <time>2013-08-11T12:22:22Z</time>
      </trkpt>
      <trkpt lat="45.7207" lon="6.24575">
        <ele>1447.4352</ele>
        <time>2013-08-11T12:22:28Z</time>
      </trkpt>
      <trkpt lat="45.72067" lon="6.24581">
        <ele>1447.4352</ele>
        <time>2013-08-11T12:22:32Z</time>
      </trkpt>
      <trkpt lat="45.72063" lon="6.24588">
        <ele>1447.2451</ele>
        <time>2013-08-11T12:22:37Z</time>
      </trkpt>
      <trkpt lat="45.7206" lon="6.24594">
        <ele>1447.2451</ele>
        <time>2013-08-11T12:22:42Z</time>
      </trkpt>
      <trkpt lat="45.72057" lon="6.24599">
        <ele>1446.5679</ele>
        <time>2013-08-11T12:22:47Z</time>
      </trkpt>
      <trkpt lat="45.72053" lon="6.24607">
        <ele>1446.5679</ele>
        <time>2013-08-11T12:22:52Z</time>
      </trkpt>
      <trkpt lat="45.72049" lon="6.24611">
        <ele>1445.4226</ele>
        <time>2013-08-11T12:22:57Z</time>
      </trkpt>
      <trkpt lat="45.72044" lon="6.2461">
        <ele>1445.4226</ele>
        <time>2013-08-11T12:23:02Z</time>
      </trkpt>
      <trkpt lat="45.7204" lon="6.24617">
        <ele>1443.814</ele>
        <time>2013-08-11T12:23:07Z</time>
      </trkpt>
      <trkpt lat="45.72036" lon="6.24623">
        <ele>1443.814</ele>
        <time>2013-08-11T12:23:12Z</time>
      </trkpt>
      <trkpt lat="45.72031" lon="6.24629">
        <ele>1442.1222</ele>
        <time>2013-08-11T12:23:17Z</time>
      </trkpt>
      <trkpt lat="45.72026" lon="6.24634">
        <ele>1442.1222</ele>
        <time>2013-08-11T12:23:22Z</time>
      </trkpt>
      <trkpt lat="45.72021" lon="6.24639">
        <ele>1440.4551</ele>
        <time>2013-08-11T12:23:27Z</time>
      </trkpt>
      <trkpt lat="45.72016" lon="6.24645">
        <ele>1440.4551</ele>
        <time>2013-08-11T12:23:33Z</time>
      </trkpt>
      <trkpt lat="45.72017" lon="6.24645">
        <ele>1440.4551</ele>
        <time>2013-08-11T12:23:37Z</time>
      </trkpt>
      <trkpt lat="45.72017" lon="6.24646">
        <ele>1440.4551</ele>
        <time>2013-08-11T12:23:42Z</time>
      </trkpt>
      <trkpt lat="45.72014" lon="6.24651">
        <ele>1438.9556</ele>
        <time>2013-08-11T12:23:47Z</time>
      </trkpt>
      <trkpt lat="45.72011" lon="6.24656">
        <ele>1438.9556</ele>
        <time>2013-08-11T12:23:52Z</time>
      </trkpt>
      <trkpt lat="45.72005" lon="6.24661">
        <ele>1437.3524</ele>
        <time>2013-08-11T12:23:57Z</time>
      </trkpt>
      <trkpt lat="45.72" lon="6.24666">
        <ele>1437.3524</ele>
        <time>2013-08-11T12:24:02Z</time>
      </trkpt>
      <trkpt lat="45.71996" lon="6.24673">
        <ele>1435.74</ele>
        <time>2013-08-11T12:24:07Z</time>
      </trkpt>
      <trkpt lat="45.7199" lon="6.2468">
        <ele>1435.74</ele>
        <time>2013-08-11T12:24:12Z</time>
      </trkpt>
      <trkpt lat="45.7199" lon="6.24683">
        <ele>1434.4801</ele>
        <time>2013-08-11T12:24:17Z</time>
      </trkpt>
      <trkpt lat="45.7199" lon="6.24682">
        <ele>1434.4801</ele>
        <time>2013-08-11T12:24:22Z</time>
      </trkpt>
      <trkpt lat="45.7199" lon="6.24682">
        <ele>1434.4801</ele>
        <time>2013-08-11T12:24:28Z</time>
      </trkpt>
      <trkpt lat="45.7199" lon="6.24682">
        <ele>1434.4801</ele>
        <time>2013-08-11T12:24:32Z</time>
      </trkpt>
      <trkpt lat="45.7199" lon="6.24682">
        <ele>1434.4801</ele>
        <time>2013-08-11T12:24:37Z</time>
      </trkpt>
      <trkpt lat="45.7199" lon="6.24682">
        <ele>1434.4801</ele>
        <time>2013-08-11T12:24:43Z</time>
      </trkpt>
      <trkpt lat="45.7199" lon="6.24682">
        <ele>1434.4801</ele>
        <time>2013-08-11T12:24:47Z</time>
      </trkpt>
      <trkpt lat="45.71988" lon="6.24683">
        <ele>1434.4801</ele>
        <time>2013-08-11T12:24:52Z</time>
      </trkpt>
      <trkpt lat="45.71987" lon="6.24682">
        <ele>1434.4801</ele>
        <time>2013-08-11T12:24:57Z</time>
      </trkpt>
      <trkpt lat="45.71987" lon="6.24681">
        <ele>1434.4801</ele>
        <time>2013-08-11T12:25:03Z</time>
      </trkpt>
      <trkpt lat="45.71987" lon="6.24681">
        <ele>1434.4801</ele>
        <time>2013-08-11T12:25:07Z</time>
      </trkpt>
      <trkpt lat="45.71986" lon="6.24681">
        <ele>1434.4801</ele>
        <time>2013-08-11T12:25:12Z</time>
      </trkpt>
      <trkpt lat="45.71983" lon="6.24683">
        <ele>1434.0653</ele>
        <time>2013-08-11T12:25:17Z</time>
      </trkpt>
      <trkpt lat="45.7198" lon="6.24686">
        <ele>1434.0653</ele>
        <time>2013-08-11T12:25:24Z</time>
      </trkpt>
      <trkpt lat="45.71976" lon="6.24685">
        <ele>1434.0653</ele>
        <time>2013-08-11T12:25:27Z</time>
      </trkpt>
      <trkpt lat="45.71974" lon="6.24685">
        <ele>1434.085</ele>
        <time>2013-08-11T12:25:32Z</time>
      </trkpt>
      <trkpt lat="45.71973" lon="6.24682">
        <ele>1434.085</ele>
        <time>2013-08-11T12:25:37Z</time>
      </trkpt>
      <trkpt lat="45.71971" lon="6.24679">
        <ele>1434.085</ele>
        <time>2013-08-11T12:25:42Z</time>
      </trkpt>
      <trkpt lat="45.71969" lon="6.24677">
        <ele>1434.085</ele>
        <time>2013-08-11T12:25:47Z</time>
      </trkpt>
      <trkpt lat="45.71966" lon="6.24677">
        <ele>1434.8203</ele>
        <time>2013-08-11T12:25:52Z</time>
      </trkpt>
      <trkpt lat="45.71964" lon="6.24678">
        <ele>1434.8203</ele>
        <time>2013-08-11T12:25:58Z</time>
      </trkpt>
      <trkpt lat="45.71963" lon="6.24678">
        <ele>1434.8203</ele>
        <time>2013-08-11T12:26:02Z</time>
      </trkpt>
      <trkpt lat="45.71963" lon="6.24678">
        <ele>1434.8203</ele>
        <time>2013-08-11T12:26:07Z</time>
      </trkpt>
      <trkpt lat="45.71963" lon="6.24678">
        <ele>1434.8203</ele>
        <time>2013-08-11T12:26:13Z</time>
      </trkpt>
      <trkpt lat="45.71963" lon="6.24678">
        <ele>1434.8203</ele>
        <time>2013-08-11T12:26:17Z</time>
      </trkpt>
      <trkpt lat="45.71963" lon="6.24678">
        <ele>1434.8203</ele>
        <time>2013-08-11T12:26:22Z</time>
      </trkpt>
      <trkpt lat="45.71963" lon="6.24678">
        <ele>1434.8203</ele>
        <time>2013-08-11T12:26:28Z</time>
      </trkpt>
      <trkpt lat="45.71963" lon="6.24678">
        <ele>1434.8203</ele>
        <time>2013-08-11T12:26:32Z</time>
      </trkpt>
      <trkpt lat="45.71963" lon="6.24678">
        <ele>1434.8203</ele>
        <time>2013-08-11T12:26:37Z</time>
      </trkpt>
      <trkpt lat="45.71963" lon="6.24678">
        <ele>1434.8203</ele>
        <time>2013-08-11T12:26:43Z</time>
      </trkpt>
      <trkpt lat="45.71963" lon="6.24678">
        <ele>1434.8203</ele>
        <time>2013-08-11T12:26:47Z</time>
      </trkpt>
      <trkpt lat="45.71963" lon="6.24678">
        <ele>1434.8203</ele>
        <time>2013-08-11T12:26:52Z</time>
      </trkpt>
      <trkpt lat="45.71963" lon="6.24678">
        <ele>1434.8203</ele>
        <time>2013-08-11T12:26:57Z</time>
      </trkpt>
      <trkpt lat="45.71963" lon="6.24678">
        <ele>1434.8203</ele>
        <time>2013-08-11T12:27:02Z</time>
      </trkpt>
      <trkpt lat="45.71963" lon="6.24678">
        <ele>1434.8203</ele>
        <time>2013-08-11T12:27:08Z</time>
      </trkpt>
      <trkpt lat="45.71963" lon="6.24678">
        <ele>1434.8203</ele>
        <time>2013-08-11T12:27:17Z</time>
      </trkpt>
      <trkpt lat="45.71963" lon="6.24678">
        <ele>1434.8203</ele>
        <time>2013-08-11T12:27:23Z</time>
      </trkpt>
      <trkpt lat="45.71963" lon="6.24678">
        <ele>1434.8203</ele>
        <time>2013-08-11T12:27:27Z</time>
      </trkpt>
      <trkpt lat="45.71963" lon="6.24678">
        <ele>1434.8203</ele>
        <time>2013-08-11T12:27:32Z</time>
      </trkpt>
      <trkpt lat="45.71963" lon="6.24678">
        <ele>1434.8203</ele>
        <time>2013-08-11T12:27:37Z</time>
      </trkpt>
      <trkpt lat="45.71963" lon="6.24678">
        <ele>1434.8203</ele>
        <time>2013-08-11T12:27:43Z</time>
      </trkpt>
      <trkpt lat="45.71962" lon="6.24678">
        <ele>1434.8203</ele>
        <time>2013-08-11T12:27:47Z</time>
      </trkpt>
      <trkpt lat="45.71963" lon="6.24678">
        <ele>1434.8203</ele>
        <time>2013-08-11T12:27:52Z</time>
      </trkpt>
      <trkpt lat="45.71962" lon="6.24678">
        <ele>1434.8203</ele>
        <time>2013-08-11T12:27:58Z</time>
      </trkpt>
      <trkpt lat="45.71962" lon="6.24678">
        <ele>1434.8203</ele>
        <time>2013-08-11T12:28:02Z</time>
      </trkpt>
      <trkpt lat="45.71962" lon="6.24678">
        <ele>1434.8203</ele>
        <time>2013-08-11T12:28:07Z</time>
      </trkpt>
      <trkpt lat="45.71961" lon="6.24678">
        <ele>1434.8203</ele>
        <time>2013-08-11T12:28:12Z</time>
      </trkpt>
      <trkpt lat="45.71961" lon="6.24678">
        <ele>1434.8203</ele>
        <time>2013-08-11T12:28:17Z</time>
      </trkpt>
      <trkpt lat="45.71961" lon="6.24678">
        <ele>1434.8203</ele>
        <time>2013-08-11T12:28:22Z</time>
      </trkpt>
      <trkpt lat="45.71961" lon="6.24678">
        <ele>1434.8203</ele>
        <time>2013-08-11T12:28:27Z</time>
      </trkpt>
      <trkpt lat="45.71961" lon="6.24678">
        <ele>1434.8203</ele>
        <time>2013-08-11T12:28:32Z</time>
      </trkpt>
      <trkpt lat="45.71961" lon="6.2468">
        <ele>1434.8203</ele>
        <time>2013-08-11T12:28:37Z</time>
      </trkpt>
      <trkpt lat="45.71961" lon="6.2468">
        <ele>1434.8203</ele>
        <time>2013-08-11T12:28:42Z</time>
      </trkpt>
      <trkpt lat="45.71961" lon="6.24679">
        <ele>1434.8203</ele>
        <time>2013-08-11T12:28:47Z</time>
      </trkpt>
      <trkpt lat="45.71961" lon="6.24679">
        <ele>1435.06</ele>
        <time>2013-08-11T12:28:52Z</time>
      </trkpt>
      <trkpt lat="45.71959" lon="6.24683">
        <ele>1435.06</ele>
        <time>2013-08-11T12:28:57Z</time>
      </trkpt>
      <trkpt lat="45.71957" lon="6.24692">
        <ele>1435.1677</ele>
        <time>2013-08-11T12:29:02Z</time>
      </trkpt>
      <trkpt lat="45.71953" lon="6.24697">
        <ele>1435.1677</ele>
        <time>2013-08-11T12:29:07Z</time>
      </trkpt>
      <trkpt lat="45.71949" lon="6.24701">
        <ele>1435.2213</ele>
        <time>2013-08-11T12:29:12Z</time>
      </trkpt>
      <trkpt lat="45.71945" lon="6.24706">
        <ele>1435.2213</ele>
        <time>2013-08-11T12:29:17Z</time>
      </trkpt>
      <trkpt lat="45.71941" lon="6.24711">
        <ele>1435.3505</ele>
        <time>2013-08-11T12:29:22Z</time>
      </trkpt>
      <trkpt lat="45.71937" lon="6.24715">
        <ele>1435.3505</ele>
        <time>2013-08-11T12:29:27Z</time>
      </trkpt>
      <trkpt lat="45.71934" lon="6.24721">
        <ele>1435.5603</ele>
        <time>2013-08-11T12:29:32Z</time>
      </trkpt>
      <trkpt lat="45.7193" lon="6.24726">
        <ele>1435.5603</ele>
        <time>2013-08-11T12:29:37Z</time>
      </trkpt>
      <trkpt lat="45.71927" lon="6.24725">
        <ele>1435.5603</ele>
        <time>2013-08-11T12:29:42Z</time>
      </trkpt>
      <trkpt lat="45.71926" lon="6.24723">
        <ele>1436.158</ele>
        <time>2013-08-11T12:29:47Z</time>
      </trkpt>
      <trkpt lat="45.71925" lon="6.24721">
        <ele>1436.158</ele>
        <time>2013-08-11T12:29:52Z</time>
      </trkpt>
      <trkpt lat="45.71925" lon="6.24721">
        <ele>1436.158</ele>
        <time>2013-08-11T12:29:57Z</time>
      </trkpt>
      <trkpt lat="45.71925" lon="6.24721">
        <ele>1436.158</ele>
        <time>2013-08-11T12:30:02Z</time>
      </trkpt>
      <trkpt lat="45.71924" lon="6.24721">
        <ele>1436.158</ele>
        <time>2013-08-11T12:30:07Z</time>
      </trkpt>
      <trkpt lat="45.71925" lon="6.24723">
        <ele>1436.158</ele>
        <time>2013-08-11T12:30:12Z</time>
      </trkpt>
      <trkpt lat="45.71925" lon="6.24723">
        <ele>1436.158</ele>
        <time>2013-08-11T12:30:17Z</time>
      </trkpt>
      <trkpt lat="45.71925" lon="6.24723">
        <ele>1436.158</ele>
        <time>2013-08-11T12:30:22Z</time>
      </trkpt>
      <trkpt lat="45.71925" lon="6.24724">
        <ele>1436.158</ele>
        <time>2013-08-11T12:30:27Z</time>
      </trkpt>
      <trkpt lat="45.71925" lon="6.24724">
        <ele>1436.158</ele>
        <time>2013-08-11T12:30:32Z</time>
      </trkpt>
      <trkpt lat="45.71925" lon="6.24724">
        <ele>1436.158</ele>
        <time>2013-08-11T12:30:37Z</time>
      </trkpt>
      <trkpt lat="45.71925" lon="6.24724">
        <ele>1436.158</ele>
        <time>2013-08-11T12:30:42Z</time>
      </trkpt>
      <trkpt lat="45.71925" lon="6.24724">
        <ele>1436.158</ele>
        <time>2013-08-11T12:30:52Z</time>
      </trkpt>
      <trkpt lat="45.71925" lon="6.24724">
        <ele>1436.158</ele>
        <time>2013-08-11T12:30:57Z</time>
      </trkpt>
      <trkpt lat="45.71925" lon="6.24724">
        <ele>1436.158</ele>
        <time>2013-08-11T12:31:02Z</time>
      </trkpt>
      <trkpt lat="45.71925" lon="6.24724">
        <ele>1436.158</ele>
        <time>2013-08-11T12:31:07Z</time>
      </trkpt>
      <trkpt lat="45.71925" lon="6.24724">
        <ele>1436.158</ele>
        <time>2013-08-11T12:31:12Z</time>
      </trkpt>
      <trkpt lat="45.71925" lon="6.24724">
        <ele>1436.158</ele>
        <time>2013-08-11T12:31:17Z</time>
      </trkpt>
      <trkpt lat="45.71925" lon="6.24724">
        <ele>1436.158</ele>
        <time>2013-08-11T12:31:23Z</time>
      </trkpt>
      <trkpt lat="45.71925" lon="6.24724">
        <ele>1436.158</ele>
        <time>2013-08-11T12:31:27Z</time>
      </trkpt>
      <trkpt lat="45.71925" lon="6.24724">
        <ele>1436.158</ele>
        <time>2013-08-11T12:31:32Z</time>
      </trkpt>
      <trkpt lat="45.71925" lon="6.24724">
        <ele>1436.158</ele>
        <time>2013-08-11T12:31:38Z</time>
      </trkpt>
      <trkpt lat="45.71925" lon="6.24724">
        <ele>1436.158</ele>
        <time>2013-08-11T12:31:42Z</time>
      </trkpt>
      <trkpt lat="45.71925" lon="6.24724">
        <ele>1436.158</ele>
        <time>2013-08-11T12:31:47Z</time>
      </trkpt>
      <trkpt lat="45.71925" lon="6.24724">
        <ele>1436.158</ele>
        <time>2013-08-11T12:31:53Z</time>
      </trkpt>
      <trkpt lat="45.71925" lon="6.24724">
        <ele>1436.158</ele>
        <time>2013-08-11T12:31:57Z</time>
      </trkpt>
      <trkpt lat="45.71925" lon="6.24724">
        <ele>1436.158</ele>
        <time>2013-08-11T12:32:02Z</time>
      </trkpt>
      <trkpt lat="45.71925" lon="6.24724">
        <ele>1436.158</ele>
        <time>2013-08-11T12:32:07Z</time>
      </trkpt>
      <trkpt lat="45.71925" lon="6.24724">
        <ele>1436.158</ele>
        <time>2013-08-11T12:32:12Z</time>
      </trkpt>
      <trkpt lat="45.71925" lon="6.24724">
        <ele>1436.158</ele>
        <time>2013-08-11T12:32:17Z</time>
      </trkpt>
      <trkpt lat="45.71925" lon="6.24724">
        <ele>1436.158</ele>
        <time>2013-08-11T12:32:22Z</time>
      </trkpt>
      <trkpt lat="45.71925" lon="6.24724">
        <ele>1436.158</ele>
        <time>2013-08-11T12:32:28Z</time>
      </trkpt>
      <trkpt lat="45.71925" lon="6.24724">
        <ele>1436.158</ele>
        <time>2013-08-11T12:32:32Z</time>
      </trkpt>
      <trkpt lat="45.71925" lon="6.24724">
        <ele>1436.158</ele>
        <time>2013-08-11T12:32:37Z</time>
      </trkpt>
      <trkpt lat="45.71925" lon="6.24724">
        <ele>1436.158</ele>
        <time>2013-08-11T12:32:42Z</time>
      </trkpt>
      <trkpt lat="45.71925" lon="6.24724">
        <ele>1436.158</ele>
        <time>2013-08-11T12:32:48Z</time>
      </trkpt>
      <trkpt lat="45.71925" lon="6.24724">
        <ele>1436.158</ele>
        <time>2013-08-11T12:32:52Z</time>
      </trkpt>
      <trkpt lat="45.71925" lon="6.24724">
        <ele>1436.158</ele>
        <time>2013-08-11T12:32:57Z</time>
      </trkpt>
      <trkpt lat="45.71925" lon="6.24724">
        <ele>1436.158</ele>
        <time>2013-08-11T12:33:03Z</time>
      </trkpt>
      <trkpt lat="45.71925" lon="6.24724">
        <ele>1436.158</ele>
        <time>2013-08-11T12:33:07Z</time>
      </trkpt>
      <trkpt lat="45.71925" lon="6.24724">
        <ele>1436.158</ele>
        <time>2013-08-11T12:33:12Z</time>
      </trkpt>
      <trkpt lat="45.71925" lon="6.24724">
        <ele>1436.158</ele>
        <time>2013-08-11T12:33:22Z</time>
      </trkpt>
      <trkpt lat="45.71925" lon="6.24724">
        <ele>1436.158</ele>
        <time>2013-08-11T12:33:27Z</time>
      </trkpt>
      <trkpt lat="45.71925" lon="6.24724">
        <ele>1436.158</ele>
        <time>2013-08-11T12:33:32Z</time>
      </trkpt>
      <trkpt lat="45.71925" lon="6.24724">
        <ele>1436.158</ele>
        <time>2013-08-11T12:33:38Z</time>
      </trkpt>
      <trkpt lat="45.71925" lon="6.24724">
        <ele>1436.158</ele>
        <time>2013-08-11T12:33:42Z</time>
      </trkpt>
      <trkpt lat="45.71925" lon="6.24724">
        <ele>1436.158</ele>
        <time>2013-08-11T12:33:47Z</time>
      </trkpt>
      <trkpt lat="45.71925" lon="6.24724">
        <ele>1436.158</ele>
        <time>2013-08-11T12:33:52Z</time>
      </trkpt>
      <trkpt lat="45.71925" lon="6.24724">
        <ele>1436.158</ele>
        <time>2013-08-11T12:34:02Z</time>
      </trkpt>
      <trkpt lat="45.71925" lon="6.24724">
        <ele>1436.158</ele>
        <time>2013-08-11T12:34:12Z</time>
      </trkpt>
      <trkpt lat="45.71925" lon="6.24724">
        <ele>1436.158</ele>
        <time>2013-08-11T12:34:17Z</time>
      </trkpt>
      <trkpt lat="45.71925" lon="6.24724">
        <ele>1436.158</ele>
        <time>2013-08-11T12:34:27Z</time>
      </trkpt>
      <trkpt lat="45.71925" lon="6.24724">
        <ele>1436.158</ele>
        <time>2013-08-11T12:34:32Z</time>
      </trkpt>
      <trkpt lat="45.71925" lon="6.24724">
        <ele>1436.158</ele>
        <time>2013-08-11T12:34:37Z</time>
      </trkpt>
      <trkpt lat="45.71925" lon="6.24724">
        <ele>1436.158</ele>
        <time>2013-08-11T12:34:42Z</time>
      </trkpt>
      <trkpt lat="45.71925" lon="6.24724">
        <ele>1436.158</ele>
        <time>2013-08-11T12:34:47Z</time>
      </trkpt>
      <trkpt lat="45.71925" lon="6.24724">
        <ele>1436.158</ele>
        <time>2013-08-11T12:34:52Z</time>
      </trkpt>
      <trkpt lat="45.71925" lon="6.24724">
        <ele>1436.158</ele>
        <time>2013-08-11T12:34:57Z</time>
      </trkpt>
      <trkpt lat="45.71925" lon="6.24724">
        <ele>1436.158</ele>
        <time>2013-08-11T12:35:02Z</time>
      </trkpt>
      <trkpt lat="45.71925" lon="6.24724">
        <ele>1436.158</ele>
        <time>2013-08-11T12:35:07Z</time>
      </trkpt>
      <trkpt lat="45.71925" lon="6.24724">
        <ele>1436.158</ele>
        <time>2013-08-11T12:35:12Z</time>
      </trkpt>
      <trkpt lat="45.71925" lon="6.24724">
        <ele>1436.158</ele>
        <time>2013-08-11T12:35:17Z</time>
      </trkpt>
      <trkpt lat="45.71925" lon="6.24724">
        <ele>1436.158</ele>
        <time>2013-08-11T12:35:22Z</time>
      </trkpt>
      <trkpt lat="45.71925" lon="6.24724">
        <ele>1436.158</ele>
        <time>2013-08-11T12:35:28Z</time>
      </trkpt>
      <trkpt lat="45.71925" lon="6.24724">
        <ele>1436.158</ele>
        <time>2013-08-11T12:35:32Z</time>
      </trkpt>
      <trkpt lat="45.71925" lon="6.24724">
        <ele>1436.158</ele>
        <time>2013-08-11T12:35:37Z</time>
      </trkpt>
      <trkpt lat="45.71925" lon="6.24724">
        <ele>1436.158</ele>
        <time>2013-08-11T12:35:43Z</time>
      </trkpt>
      <trkpt lat="45.71925" lon="6.24724">
        <ele>1436.158</ele>
        <time>2013-08-11T12:35:47Z</time>
      </trkpt>
      <trkpt lat="45.71925" lon="6.24724">
        <ele>1436.158</ele>
        <time>2013-08-11T12:35:52Z</time>
      </trkpt>
      <trkpt lat="45.71925" lon="6.24724">
        <ele>1436.158</ele>
        <time>2013-08-11T12:35:58Z</time>
      </trkpt>
      <trkpt lat="45.71925" lon="6.24724">
        <ele>1436.158</ele>
        <time>2013-08-11T12:36:02Z</time>
      </trkpt>
      <trkpt lat="45.71925" lon="6.24724">
        <ele>1436.158</ele>
        <time>2013-08-11T12:36:07Z</time>
      </trkpt>
      <trkpt lat="45.71925" lon="6.24724">
        <ele>1436.158</ele>
        <time>2013-08-11T12:36:13Z</time>
      </trkpt>
      <trkpt lat="45.71925" lon="6.24724">
        <ele>1436.158</ele>
        <time>2013-08-11T12:36:17Z</time>
      </trkpt>
      <trkpt lat="45.71925" lon="6.24724">
        <ele>1436.158</ele>
        <time>2013-08-11T12:36:22Z</time>
      </trkpt>
      <trkpt lat="45.71925" lon="6.24724">
        <ele>1436.158</ele>
        <time>2013-08-11T12:36:28Z</time>
      </trkpt>
      <trkpt lat="45.71925" lon="6.24724">
        <ele>1436.158</ele>
        <time>2013-08-11T12:36:32Z</time>
      </trkpt>
      <trkpt lat="45.71925" lon="6.24724">
        <ele>1436.158</ele>
        <time>2013-08-11T12:36:37Z</time>
      </trkpt>
      <trkpt lat="45.71925" lon="6.24724">
        <ele>1436.158</ele>
        <time>2013-08-11T12:36:42Z</time>
      </trkpt>
      <trkpt lat="45.71925" lon="6.24724">
        <ele>1436.158</ele>
        <time>2013-08-11T12:36:58Z</time>
      </trkpt>
      <trkpt lat="45.71925" lon="6.24724">
        <ele>1436.158</ele>
        <time>2013-08-11T12:37:02Z</time>
      </trkpt>
      <trkpt lat="45.71925" lon="6.24724">
        <ele>1436.158</ele>
        <time>2013-08-11T12:37:07Z</time>
      </trkpt>
      <trkpt lat="45.71925" lon="6.24724">
        <ele>1436.158</ele>
        <time>2013-08-11T12:37:12Z</time>
      </trkpt>
      <trkpt lat="45.71925" lon="6.24724">
        <ele>1436.158</ele>
        <time>2013-08-11T12:37:17Z</time>
      </trkpt>
      <trkpt lat="45.71925" lon="6.24724">
        <ele>1436.158</ele>
        <time>2013-08-11T12:37:22Z</time>
      </trkpt>
      <trkpt lat="45.71925" lon="6.24724">
        <ele>1436.158</ele>
        <time>2013-08-11T12:37:27Z</time>
      </trkpt>
      <trkpt lat="45.71925" lon="6.24724">
        <ele>1436.158</ele>
        <time>2013-08-11T12:37:32Z</time>
      </trkpt>
      <trkpt lat="45.71925" lon="6.24724">
        <ele>1436.158</ele>
        <time>2013-08-11T12:37:37Z</time>
      </trkpt>
      <trkpt lat="45.71925" lon="6.24724">
        <ele>1436.158</ele>
        <time>2013-08-11T12:37:42Z</time>
      </trkpt>
      <trkpt lat="45.71925" lon="6.24724">
        <ele>1436.158</ele>
        <time>2013-08-11T12:37:47Z</time>
      </trkpt>
      <trkpt lat="45.71925" lon="6.24724">
        <ele>1436.158</ele>
        <time>2013-08-11T12:37:52Z</time>
      </trkpt>
      <trkpt lat="45.71925" lon="6.24724">
        <ele>1436.158</ele>
        <time>2013-08-11T12:38:02Z</time>
      </trkpt>
      <trkpt lat="45.71925" lon="6.24724">
        <ele>1436.158</ele>
        <time>2013-08-11T12:38:07Z</time>
      </trkpt>
      <trkpt lat="45.71925" lon="6.24724">
        <ele>1436.158</ele>
        <time>2013-08-11T12:38:12Z</time>
      </trkpt>
      <trkpt lat="45.71925" lon="6.24724">
        <ele>1436.158</ele>
        <time>2013-08-11T12:38:17Z</time>
      </trkpt>
      <trkpt lat="45.71925" lon="6.24724">
        <ele>1436.158</ele>
        <time>2013-08-11T12:38:22Z</time>
      </trkpt>
      <trkpt lat="45.71925" lon="6.24724">
        <ele>1436.158</ele>
        <time>2013-08-11T12:38:27Z</time>
      </trkpt>
      <trkpt lat="45.71925" lon="6.24724">
        <ele>1436.158</ele>
        <time>2013-08-11T12:38:32Z</time>
      </trkpt>
      <trkpt lat="45.71925" lon="6.24724">
        <ele>1436.158</ele>
        <time>2013-08-11T12:38:37Z</time>
      </trkpt>
      <trkpt lat="45.71925" lon="6.24724">
        <ele>1436.158</ele>
        <time>2013-08-11T12:38:42Z</time>
      </trkpt>
      <trkpt lat="45.71925" lon="6.24724">
        <ele>1436.158</ele>
        <time>2013-08-11T12:38:47Z</time>
      </trkpt>
      <trkpt lat="45.71925" lon="6.24724">
        <ele>1436.158</ele>
        <time>2013-08-11T12:38:52Z</time>
      </trkpt>
      <trkpt lat="45.71925" lon="6.24724">
        <ele>1436.158</ele>
        <time>2013-08-11T12:38:57Z</time>
      </trkpt>
      <trkpt lat="45.71925" lon="6.24724">
        <ele>1436.158</ele>
        <time>2013-08-11T12:39:02Z</time>
      </trkpt>
      <trkpt lat="45.71925" lon="6.24724">
        <ele>1436.158</ele>
        <time>2013-08-11T12:39:08Z</time>
      </trkpt>
      <trkpt lat="45.71925" lon="6.24724">
        <ele>1436.158</ele>
        <time>2013-08-11T12:39:12Z</time>
      </trkpt>
      <trkpt lat="45.71925" lon="6.24724">
        <ele>1436.158</ele>
        <time>2013-08-11T12:39:17Z</time>
      </trkpt>
      <trkpt lat="45.71925" lon="6.24724">
        <ele>1436.158</ele>
        <time>2013-08-11T12:39:22Z</time>
      </trkpt>
      <trkpt lat="45.71925" lon="6.24724">
        <ele>1436.158</ele>
        <time>2013-08-11T12:39:28Z</time>
      </trkpt>
      <trkpt lat="45.71925" lon="6.24724">
        <ele>1436.158</ele>
        <time>2013-08-11T12:39:32Z</time>
      </trkpt>
      <trkpt lat="45.71925" lon="6.24724">
        <ele>1436.158</ele>
        <time>2013-08-11T12:39:37Z</time>
      </trkpt>
      <trkpt lat="45.71925" lon="6.24724">
        <ele>1436.158</ele>
        <time>2013-08-11T12:39:47Z</time>
      </trkpt>
      <trkpt lat="45.71925" lon="6.24724">
        <ele>1436.158</ele>
        <time>2013-08-11T12:39:52Z</time>
      </trkpt>
      <trkpt lat="45.71925" lon="6.24724">
        <ele>1436.158</ele>
        <time>2013-08-11T12:39:57Z</time>
      </trkpt>
      <trkpt lat="45.71925" lon="6.24724">
        <ele>1436.158</ele>
        <time>2013-08-11T12:40:02Z</time>
      </trkpt>
      <trkpt lat="45.71925" lon="6.24724">
        <ele>1436.158</ele>
        <time>2013-08-11T12:40:07Z</time>
      </trkpt>
      <trkpt lat="45.71925" lon="6.24724">
        <ele>1436.158</ele>
        <time>2013-08-11T12:40:13Z</time>
      </trkpt>
      <trkpt lat="45.71925" lon="6.24724">
        <ele>1436.158</ele>
        <time>2013-08-11T12:40:17Z</time>
      </trkpt>
      <trkpt lat="45.71925" lon="6.24724">
        <ele>1436.158</ele>
        <time>2013-08-11T12:40:22Z</time>
      </trkpt>
      <trkpt lat="45.71925" lon="6.24724">
        <ele>1436.158</ele>
        <time>2013-08-11T12:40:27Z</time>
      </trkpt>
      <trkpt lat="45.71925" lon="6.24724">
        <ele>1436.158</ele>
        <time>2013-08-11T12:40:32Z</time>
      </trkpt>
      <trkpt lat="45.71925" lon="6.24724">
        <ele>1436.158</ele>
        <time>2013-08-11T12:40:38Z</time>
      </trkpt>
      <trkpt lat="45.71925" lon="6.24724">
        <ele>1436.158</ele>
        <time>2013-08-11T12:40:42Z</time>
      </trkpt>
      <trkpt lat="45.71925" lon="6.24724">
        <ele>1436.158</ele>
        <time>2013-08-11T12:40:47Z</time>
      </trkpt>
      <trkpt lat="45.71925" lon="6.24724">
        <ele>1436.158</ele>
        <time>2013-08-11T12:40:52Z</time>
      </trkpt>
      <trkpt lat="45.71925" lon="6.24724">
        <ele>1436.158</ele>
        <time>2013-08-11T12:40:57Z</time>
      </trkpt>
      <trkpt lat="45.71925" lon="6.24724">
        <ele>1436.158</ele>
        <time>2013-08-11T12:41:02Z</time>
      </trkpt>
      <trkpt lat="45.71925" lon="6.24724">
        <ele>1436.158</ele>
        <time>2013-08-11T12:41:09Z</time>
      </trkpt>
      <trkpt lat="45.71925" lon="6.24724">
        <ele>1436.158</ele>
        <time>2013-08-11T12:41:12Z</time>
      </trkpt>
      <trkpt lat="45.71925" lon="6.24724">
        <ele>1436.158</ele>
        <time>2013-08-11T12:41:17Z</time>
      </trkpt>
      <trkpt lat="45.71925" lon="6.24724">
        <ele>1436.158</ele>
        <time>2013-08-11T12:41:23Z</time>
      </trkpt>
      <trkpt lat="45.71925" lon="6.24724">
        <ele>1436.158</ele>
        <time>2013-08-11T12:41:27Z</time>
      </trkpt>
      <trkpt lat="45.71925" lon="6.24724">
        <ele>1436.158</ele>
        <time>2013-08-11T12:41:32Z</time>
      </trkpt>
      <trkpt lat="45.71925" lon="6.24724">
        <ele>1436.158</ele>
        <time>2013-08-11T12:41:37Z</time>
      </trkpt>
      <trkpt lat="45.71925" lon="6.24724">
        <ele>1436.158</ele>
        <time>2013-08-11T12:41:42Z</time>
      </trkpt>
      <trkpt lat="45.71925" lon="6.24724">
        <ele>1436.158</ele>
        <time>2013-08-11T12:41:47Z</time>
      </trkpt>
      <trkpt lat="45.71925" lon="6.24724">
        <ele>1436.158</ele>
        <time>2013-08-11T12:41:52Z</time>
      </trkpt>
      <trkpt lat="45.71925" lon="6.24724">
        <ele>1436.158</ele>
        <time>2013-08-11T12:41:57Z</time>
      </trkpt>
      <trkpt lat="45.71925" lon="6.24724">
        <ele>1436.158</ele>
        <time>2013-08-11T12:42:02Z</time>
      </trkpt>
      <trkpt lat="45.71925" lon="6.24724">
        <ele>1436.158</ele>
        <time>2013-08-11T12:42:07Z</time>
      </trkpt>
      <trkpt lat="45.71925" lon="6.24724">
        <ele>1436.158</ele>
        <time>2013-08-11T12:42:12Z</time>
      </trkpt>
      <trkpt lat="45.71925" lon="6.24724">
        <ele>1436.158</ele>
        <time>2013-08-11T12:42:17Z</time>
      </trkpt>
      <trkpt lat="45.71925" lon="6.24724">
        <ele>1436.158</ele>
        <time>2013-08-11T12:42:22Z</time>
      </trkpt>
      <trkpt lat="45.71925" lon="6.24724">
        <ele>1436.158</ele>
        <time>2013-08-11T12:42:27Z</time>
      </trkpt>
      <trkpt lat="45.71925" lon="6.24724">
        <ele>1436.158</ele>
        <time>2013-08-11T12:42:32Z</time>
      </trkpt>
      <trkpt lat="45.71925" lon="6.24724">
        <ele>1436.158</ele>
        <time>2013-08-11T12:42:38Z</time>
      </trkpt>
      <trkpt lat="45.71925" lon="6.24724">
        <ele>1436.158</ele>
        <time>2013-08-11T12:42:42Z</time>
      </trkpt>
      <trkpt lat="45.71925" lon="6.24724">
        <ele>1436.158</ele>
        <time>2013-08-11T12:42:47Z</time>
      </trkpt>
      <trkpt lat="45.71925" lon="6.24724">
        <ele>1436.158</ele>
        <time>2013-08-11T12:42:57Z</time>
      </trkpt>
      <trkpt lat="45.71925" lon="6.24724">
        <ele>1436.158</ele>
        <time>2013-08-11T12:43:02Z</time>
      </trkpt>
      <trkpt lat="45.71925" lon="6.24724">
        <ele>1436.158</ele>
        <time>2013-08-11T12:43:07Z</time>
      </trkpt>
      <trkpt lat="45.71925" lon="6.24724">
        <ele>1436.158</ele>
        <time>2013-08-11T12:43:12Z</time>
      </trkpt>
      <trkpt lat="45.71925" lon="6.24724">
        <ele>1436.158</ele>
        <time>2013-08-11T12:43:17Z</time>
      </trkpt>
      <trkpt lat="45.71925" lon="6.24724">
        <ele>1436.158</ele>
        <time>2013-08-11T12:43:22Z</time>
      </trkpt>
      <trkpt lat="45.71925" lon="6.24724">
        <ele>1436.158</ele>
        <time>2013-08-11T12:43:27Z</time>
      </trkpt>
      <trkpt lat="45.71925" lon="6.24724">
        <ele>1436.158</ele>
        <time>2013-08-11T12:43:32Z</time>
      </trkpt>
      <trkpt lat="45.71925" lon="6.24724">
        <ele>1436.158</ele>
        <time>2013-08-11T12:43:37Z</time>
      </trkpt>
      <trkpt lat="45.71925" lon="6.24724">
        <ele>1436.158</ele>
        <time>2013-08-11T12:43:42Z</time>
      </trkpt>
      <trkpt lat="45.71925" lon="6.24724">
        <ele>1436.158</ele>
        <time>2013-08-11T12:43:47Z</time>
      </trkpt>
      <trkpt lat="45.71925" lon="6.24724">
        <ele>1436.158</ele>
        <time>2013-08-11T12:43:53Z</time>
      </trkpt>
      <trkpt lat="45.71925" lon="6.24724">
        <ele>1436.158</ele>
        <time>2013-08-11T12:43:57Z</time>
      </trkpt>
      <trkpt lat="45.71925" lon="6.24724">
        <ele>1436.158</ele>
        <time>2013-08-11T12:44:02Z</time>
      </trkpt>
      <trkpt lat="45.71925" lon="6.24724">
        <ele>1436.158</ele>
        <time>2013-08-11T12:44:08Z</time>
      </trkpt>
      <trkpt lat="45.71925" lon="6.24724">
        <ele>1436.158</ele>
        <time>2013-08-11T12:44:12Z</time>
      </trkpt>
      <trkpt lat="45.71925" lon="6.24724">
        <ele>1436.158</ele>
        <time>2013-08-11T12:44:17Z</time>
      </trkpt>
      <trkpt lat="45.71925" lon="6.24724">
        <ele>1436.158</ele>
        <time>2013-08-11T12:44:23Z</time>
      </trkpt>
      <trkpt lat="45.71925" lon="6.24724">
        <ele>1436.158</ele>
        <time>2013-08-11T12:44:27Z</time>
      </trkpt>
      <trkpt lat="45.71925" lon="6.24724">
        <ele>1436.158</ele>
        <time>2013-08-11T12:44:32Z</time>
      </trkpt>
      <trkpt lat="45.71925" lon="6.24724">
        <ele>1436.158</ele>
        <time>2013-08-11T12:44:39Z</time>
      </trkpt>
      <trkpt lat="45.71925" lon="6.24724">
        <ele>1436.158</ele>
        <time>2013-08-11T12:44:42Z</time>
      </trkpt>
      <trkpt lat="45.71925" lon="6.24724">
        <ele>1436.158</ele>
        <time>2013-08-11T12:44:47Z</time>
      </trkpt>
      <trkpt lat="45.71925" lon="6.24724">
        <ele>1436.158</ele>
        <time>2013-08-11T12:44:54Z</time>
      </trkpt>
      <trkpt lat="45.71925" lon="6.24724">
        <ele>1436.158</ele>
        <time>2013-08-11T12:44:57Z</time>
      </trkpt>
      <trkpt lat="45.71925" lon="6.24724">
        <ele>1436.158</ele>
        <time>2013-08-11T12:45:02Z</time>
      </trkpt>
      <trkpt lat="45.71925" lon="6.24724">
        <ele>1436.158</ele>
        <time>2013-08-11T12:45:08Z</time>
      </trkpt>
      <trkpt lat="45.71925" lon="6.24724">
        <ele>1436.158</ele>
        <time>2013-08-11T12:45:12Z</time>
      </trkpt>
      <trkpt lat="45.71925" lon="6.24724">
        <ele>1436.158</ele>
        <time>2013-08-11T12:45:17Z</time>
      </trkpt>
      <trkpt lat="45.71925" lon="6.24724">
        <ele>1436.158</ele>
        <time>2013-08-11T12:45:23Z</time>
      </trkpt>
      <trkpt lat="45.71925" lon="6.24724">
        <ele>1436.158</ele>
        <time>2013-08-11T12:45:27Z</time>
      </trkpt>
      <trkpt lat="45.71925" lon="6.24724">
        <ele>1436.158</ele>
        <time>2013-08-11T12:45:32Z</time>
      </trkpt>
      <trkpt lat="45.71925" lon="6.24724">
        <ele>1436.158</ele>
        <time>2013-08-11T12:45:37Z</time>
      </trkpt>
      <trkpt lat="45.71925" lon="6.24724">
        <ele>1436.158</ele>
        <time>2013-08-11T12:45:42Z</time>
      </trkpt>
      <trkpt lat="45.71925" lon="6.24724">
        <ele>1436.158</ele>
        <time>2013-08-11T12:45:47Z</time>
      </trkpt>
      <trkpt lat="45.71925" lon="6.24724">
        <ele>1436.158</ele>
        <time>2013-08-11T12:45:52Z</time>
      </trkpt>
      <trkpt lat="45.71925" lon="6.24724">
        <ele>1436.158</ele>
        <time>2013-08-11T12:45:57Z</time>
      </trkpt>
      <trkpt lat="45.71925" lon="6.24724">
        <ele>1436.158</ele>
        <time>2013-08-11T12:46:02Z</time>
      </trkpt>
      <trkpt lat="45.71925" lon="6.24724">
        <ele>1436.158</ele>
        <time>2013-08-11T12:46:12Z</time>
      </trkpt>
      <trkpt lat="45.71925" lon="6.24724">
        <ele>1436.158</ele>
        <time>2013-08-11T12:46:17Z</time>
      </trkpt>
      <trkpt lat="45.71925" lon="6.24724">
        <ele>1436.158</ele>
        <time>2013-08-11T12:46:23Z</time>
      </trkpt>
      <trkpt lat="45.71925" lon="6.24724">
        <ele>1436.158</ele>
        <time>2013-08-11T12:46:27Z</time>
      </trkpt>
      <trkpt lat="45.71925" lon="6.24724">
        <ele>1436.158</ele>
        <time>2013-08-11T12:46:32Z</time>
      </trkpt>
      <trkpt lat="45.71925" lon="6.24724">
        <ele>1436.158</ele>
        <time>2013-08-11T12:46:37Z</time>
      </trkpt>
      <trkpt lat="45.71925" lon="6.24724">
        <ele>1436.158</ele>
        <time>2013-08-11T12:46:42Z</time>
      </trkpt>
      <trkpt lat="45.71925" lon="6.24724">
        <ele>1436.158</ele>
        <time>2013-08-11T12:46:47Z</time>
      </trkpt>
      <trkpt lat="45.71925" lon="6.24724">
        <ele>1436.158</ele>
        <time>2013-08-11T12:46:52Z</time>
      </trkpt>
      <trkpt lat="45.71925" lon="6.24724">
        <ele>1436.158</ele>
        <time>2013-08-11T12:46:58Z</time>
      </trkpt>
      <trkpt lat="45.71925" lon="6.24724">
        <ele>1436.158</ele>
        <time>2013-08-11T12:47:03Z</time>
      </trkpt>
      <trkpt lat="45.71925" lon="6.24724">
        <ele>1436.158</ele>
        <time>2013-08-11T12:47:07Z</time>
      </trkpt>
      <trkpt lat="45.71925" lon="6.24724">
        <ele>1436.158</ele>
        <time>2013-08-11T12:47:18Z</time>
      </trkpt>
      <trkpt lat="45.71925" lon="6.24724">
        <ele>1436.158</ele>
        <time>2013-08-11T12:47:22Z</time>
      </trkpt>
      <trkpt lat="45.71925" lon="6.24724">
        <ele>1436.158</ele>
        <time>2013-08-11T12:47:27Z</time>
      </trkpt>
      <trkpt lat="45.71925" lon="6.24724">
        <ele>1436.158</ele>
        <time>2013-08-11T12:47:32Z</time>
      </trkpt>
      <trkpt lat="45.71925" lon="6.24724">
        <ele>1436.158</ele>
        <time>2013-08-11T12:47:37Z</time>
      </trkpt>
      <trkpt lat="45.71925" lon="6.24724">
        <ele>1436.158</ele>
        <time>2013-08-11T12:47:42Z</time>
      </trkpt>
      <trkpt lat="45.71925" lon="6.24724">
        <ele>1436.158</ele>
        <time>2013-08-11T12:47:47Z</time>
      </trkpt>
      <trkpt lat="45.71925" lon="6.24724">
        <ele>1436.158</ele>
        <time>2013-08-11T12:47:53Z</time>
      </trkpt>
      <trkpt lat="45.71925" lon="6.24724">
        <ele>1436.158</ele>
        <time>2013-08-11T12:47:57Z</time>
      </trkpt>
      <trkpt lat="45.71925" lon="6.24724">
        <ele>1436.158</ele>
        <time>2013-08-11T12:48:02Z</time>
      </trkpt>
      <trkpt lat="45.71925" lon="6.24724">
        <ele>1436.158</ele>
        <time>2013-08-11T12:48:08Z</time>
      </trkpt>
      <trkpt lat="45.71925" lon="6.24724">
        <ele>1436.158</ele>
        <time>2013-08-11T12:48:12Z</time>
      </trkpt>
      <trkpt lat="45.71925" lon="6.24724">
        <ele>1436.158</ele>
        <time>2013-08-11T12:48:17Z</time>
      </trkpt>
      <trkpt lat="45.71925" lon="6.24724">
        <ele>1436.158</ele>
        <time>2013-08-11T12:48:23Z</time>
      </trkpt>
      <trkpt lat="45.71925" lon="6.24724">
        <ele>1436.158</ele>
        <time>2013-08-11T12:48:27Z</time>
      </trkpt>
      <trkpt lat="45.71925" lon="6.24724">
        <ele>1436.158</ele>
        <time>2013-08-11T12:48:32Z</time>
      </trkpt>
      <trkpt lat="45.71925" lon="6.24724">
        <ele>1436.158</ele>
        <time>2013-08-11T12:48:38Z</time>
      </trkpt>
      <trkpt lat="45.71925" lon="6.24724">
        <ele>1436.158</ele>
        <time>2013-08-11T12:48:42Z</time>
      </trkpt>
      <trkpt lat="45.71925" lon="6.24724">
        <ele>1436.158</ele>
        <time>2013-08-11T12:48:47Z</time>
      </trkpt>
      <trkpt lat="45.71925" lon="6.24724">
        <ele>1436.158</ele>
        <time>2013-08-11T12:48:53Z</time>
      </trkpt>
      <trkpt lat="45.71925" lon="6.24724">
        <ele>1436.158</ele>
        <time>2013-08-11T12:48:57Z</time>
      </trkpt>
      <trkpt lat="45.71925" lon="6.24724">
        <ele>1436.158</ele>
        <time>2013-08-11T12:49:02Z</time>
      </trkpt>
      <trkpt lat="45.71925" lon="6.24724">
        <ele>1436.158</ele>
        <time>2013-08-11T12:49:08Z</time>
      </trkpt>
      <trkpt lat="45.71925" lon="6.24724">
        <ele>1436.158</ele>
        <time>2013-08-11T12:49:12Z</time>
      </trkpt>
      <trkpt lat="45.71925" lon="6.24724">
        <ele>1436.158</ele>
        <time>2013-08-11T12:49:17Z</time>
      </trkpt>
      <trkpt lat="45.71925" lon="6.24724">
        <ele>1436.158</ele>
        <time>2013-08-11T12:49:23Z</time>
      </trkpt>
      <trkpt lat="45.71925" lon="6.24724">
        <ele>1436.158</ele>
        <time>2013-08-11T12:49:27Z</time>
      </trkpt>
      <trkpt lat="45.71925" lon="6.24724">
        <ele>1436.158</ele>
        <time>2013-08-11T12:49:32Z</time>
      </trkpt>
      <trkpt lat="45.71925" lon="6.24724">
        <ele>1436.158</ele>
        <time>2013-08-11T12:49:38Z</time>
      </trkpt>
      <trkpt lat="45.71925" lon="6.24724">
        <ele>1436.158</ele>
        <time>2013-08-11T12:49:42Z</time>
      </trkpt>
      <trkpt lat="45.71925" lon="6.24724">
        <ele>1436.158</ele>
        <time>2013-08-11T12:49:47Z</time>
      </trkpt>
      <trkpt lat="45.71925" lon="6.24724">
        <ele>1436.158</ele>
        <time>2013-08-11T12:49:53Z</time>
      </trkpt>
      <trkpt lat="45.71925" lon="6.24724">
        <ele>1436.158</ele>
        <time>2013-08-11T12:49:57Z</time>
      </trkpt>
      <trkpt lat="45.71925" lon="6.24724">
        <ele>1436.158</ele>
        <time>2013-08-11T12:50:02Z</time>
      </trkpt>
      <trkpt lat="45.71926" lon="6.24724">
        <ele>1436.158</ele>
        <time>2013-08-11T12:50:12Z</time>
      </trkpt>
      <trkpt lat="45.71926" lon="6.24724">
        <ele>1436.158</ele>
        <time>2013-08-11T12:50:17Z</time>
      </trkpt>
      <trkpt lat="45.71926" lon="6.24724">
        <ele>1436.158</ele>
        <time>2013-08-11T12:50:23Z</time>
      </trkpt>
      <trkpt lat="45.71926" lon="6.24724">
        <ele>1436.158</ele>
        <time>2013-08-11T12:50:28Z</time>
      </trkpt>
      <trkpt lat="45.71926" lon="6.24724">
        <ele>1436.158</ele>
        <time>2013-08-11T12:50:32Z</time>
      </trkpt>
      <trkpt lat="45.71926" lon="6.24724">
        <ele>1436.158</ele>
        <time>2013-08-11T12:50:37Z</time>
      </trkpt>
      <trkpt lat="45.71926" lon="6.24724">
        <ele>1436.158</ele>
        <time>2013-08-11T12:50:43Z</time>
      </trkpt>
      <trkpt lat="45.71926" lon="6.24724">
        <ele>1436.158</ele>
        <time>2013-08-11T12:50:47Z</time>
      </trkpt>
      <trkpt lat="45.71926" lon="6.24724">
        <ele>1436.158</ele>
        <time>2013-08-11T12:50:52Z</time>
      </trkpt>
      <trkpt lat="45.71926" lon="6.24724">
        <ele>1436.158</ele>
        <time>2013-08-11T12:50:58Z</time>
      </trkpt>
      <trkpt lat="45.71926" lon="6.24724">
        <ele>1436.158</ele>
        <time>2013-08-11T12:51:02Z</time>
      </trkpt>
      <trkpt lat="45.71926" lon="6.24724">
        <ele>1436.158</ele>
        <time>2013-08-11T12:51:07Z</time>
      </trkpt>
      <trkpt lat="45.71926" lon="6.24724">
        <ele>1436.158</ele>
        <time>2013-08-11T12:51:13Z</time>
      </trkpt>
      <trkpt lat="45.71926" lon="6.24724">
        <ele>1436.158</ele>
        <time>2013-08-11T12:51:17Z</time>
      </trkpt>
      <trkpt lat="45.71926" lon="6.24724">
        <ele>1436.158</ele>
        <time>2013-08-11T12:51:22Z</time>
      </trkpt>
      <trkpt lat="45.71926" lon="6.24724">
        <ele>1436.158</ele>
        <time>2013-08-11T12:51:28Z</time>
      </trkpt>
      <trkpt lat="45.71926" lon="6.24724">
        <ele>1436.158</ele>
        <time>2013-08-11T12:51:32Z</time>
      </trkpt>
      <trkpt lat="45.71926" lon="6.24724">
        <ele>1436.158</ele>
        <time>2013-08-11T12:51:37Z</time>
      </trkpt>
      <trkpt lat="45.71926" lon="6.24724">
        <ele>1436.158</ele>
        <time>2013-08-11T12:51:43Z</time>
      </trkpt>
      <trkpt lat="45.71926" lon="6.24724">
        <ele>1436.158</ele>
        <time>2013-08-11T12:51:47Z</time>
      </trkpt>
      <trkpt lat="45.71926" lon="6.24724">
        <ele>1436.158</ele>
        <time>2013-08-11T12:51:52Z</time>
      </trkpt>
      <trkpt lat="45.71926" lon="6.24724">
        <ele>1436.158</ele>
        <time>2013-08-11T12:51:58Z</time>
      </trkpt>
      <trkpt lat="45.71926" lon="6.24724">
        <ele>1436.158</ele>
        <time>2013-08-11T12:52:02Z</time>
      </trkpt>
      <trkpt lat="45.71926" lon="6.24724">
        <ele>1436.158</ele>
        <time>2013-08-11T12:52:07Z</time>
      </trkpt>
      <trkpt lat="45.71926" lon="6.24724">
        <ele>1436.158</ele>
        <time>2013-08-11T12:52:13Z</time>
      </trkpt>
      <trkpt lat="45.71926" lon="6.24724">
        <ele>1436.158</ele>
        <time>2013-08-11T12:52:17Z</time>
      </trkpt>
      <trkpt lat="45.71926" lon="6.24724">
        <ele>1436.158</ele>
        <time>2013-08-11T12:52:22Z</time>
      </trkpt>
      <trkpt lat="45.71926" lon="6.24724">
        <ele>1436.158</ele>
        <time>2013-08-11T12:52:28Z</time>
      </trkpt>
      <trkpt lat="45.71926" lon="6.24724">
        <ele>1436.158</ele>
        <time>2013-08-11T12:52:32Z</time>
      </trkpt>
      <trkpt lat="45.71926" lon="6.24724">
        <ele>1436.158</ele>
        <time>2013-08-11T12:52:37Z</time>
      </trkpt>
      <trkpt lat="45.71926" lon="6.24724">
        <ele>1436.158</ele>
        <time>2013-08-11T12:52:43Z</time>
      </trkpt>
      <trkpt lat="45.71926" lon="6.24724">
        <ele>1436.158</ele>
        <time>2013-08-11T12:52:47Z</time>
      </trkpt>
      <trkpt lat="45.71926" lon="6.24724">
        <ele>1436.158</ele>
        <time>2013-08-11T12:52:52Z</time>
      </trkpt>
      <trkpt lat="45.71926" lon="6.24724">
        <ele>1436.158</ele>
        <time>2013-08-11T12:52:58Z</time>
      </trkpt>
      <trkpt lat="45.71926" lon="6.24724">
        <ele>1436.158</ele>
        <time>2013-08-11T12:53:07Z</time>
      </trkpt>
      <trkpt lat="45.71926" lon="6.24724">
        <ele>1436.158</ele>
        <time>2013-08-11T12:53:13Z</time>
      </trkpt>
      <trkpt lat="45.71926" lon="6.24724">
        <ele>1436.158</ele>
        <time>2013-08-11T12:53:22Z</time>
      </trkpt>
      <trkpt lat="45.71926" lon="6.24724">
        <ele>1436.158</ele>
        <time>2013-08-11T12:53:28Z</time>
      </trkpt>
      <trkpt lat="45.71926" lon="6.24724">
        <ele>1436.158</ele>
        <time>2013-08-11T12:53:32Z</time>
      </trkpt>
      <trkpt lat="45.71926" lon="6.24724">
        <ele>1436.158</ele>
        <time>2013-08-11T12:53:37Z</time>
      </trkpt>
      <trkpt lat="45.71926" lon="6.24724">
        <ele>1436.158</ele>
        <time>2013-08-11T12:53:47Z</time>
      </trkpt>
      <trkpt lat="45.71926" lon="6.24724">
        <ele>1436.158</ele>
        <time>2013-08-11T12:53:52Z</time>
      </trkpt>
      <trkpt lat="45.71926" lon="6.24724">
        <ele>1436.158</ele>
        <time>2013-08-11T12:53:57Z</time>
      </trkpt>
      <trkpt lat="45.71926" lon="6.24724">
        <ele>1436.158</ele>
        <time>2013-08-11T12:54:02Z</time>
      </trkpt>
      <trkpt lat="45.71926" lon="6.24724">
        <ele>1436.158</ele>
        <time>2013-08-11T12:54:08Z</time>
      </trkpt>
      <trkpt lat="45.71926" lon="6.24724">
        <ele>1436.158</ele>
        <time>2013-08-11T12:54:12Z</time>
      </trkpt>
      <trkpt lat="45.71926" lon="6.24724">
        <ele>1436.158</ele>
        <time>2013-08-11T12:54:18Z</time>
      </trkpt>
      <trkpt lat="45.71926" lon="6.24724">
        <ele>1436.158</ele>
        <time>2013-08-11T12:54:22Z</time>
      </trkpt>
      <trkpt lat="45.71926" lon="6.24724">
        <ele>1436.158</ele>
        <time>2013-08-11T12:54:27Z</time>
      </trkpt>
      <trkpt lat="45.71926" lon="6.24724">
        <ele>1436.158</ele>
        <time>2013-08-11T12:54:32Z</time>
      </trkpt>
      <trkpt lat="45.71926" lon="6.24724">
        <ele>1436.158</ele>
        <time>2013-08-11T12:54:42Z</time>
      </trkpt>
      <trkpt lat="45.71926" lon="6.24724">
        <ele>1436.158</ele>
        <time>2013-08-11T12:54:47Z</time>
      </trkpt>
      <trkpt lat="45.71926" lon="6.24724">
        <ele>1436.158</ele>
        <time>2013-08-11T12:54:57Z</time>
      </trkpt>
      <trkpt lat="45.71926" lon="6.24724">
        <ele>1436.158</ele>
        <time>2013-08-11T12:55:02Z</time>
      </trkpt>
      <trkpt lat="45.71926" lon="6.24724">
        <ele>1436.158</ele>
        <time>2013-08-11T12:55:12Z</time>
      </trkpt>
      <trkpt lat="45.71926" lon="6.24724">
        <ele>1436.158</ele>
        <time>2013-08-11T12:55:17Z</time>
      </trkpt>
      <trkpt lat="45.71926" lon="6.24724">
        <ele>1436.158</ele>
        <time>2013-08-11T12:55:27Z</time>
      </trkpt>
      <trkpt lat="45.71926" lon="6.24724">
        <ele>1436.158</ele>
        <time>2013-08-11T12:55:32Z</time>
      </trkpt>
      <trkpt lat="45.71926" lon="6.24724">
        <ele>1436.158</ele>
        <time>2013-08-11T12:55:38Z</time>
      </trkpt>
      <trkpt lat="45.71926" lon="6.24724">
        <ele>1436.158</ele>
        <time>2013-08-11T12:55:42Z</time>
      </trkpt>
      <trkpt lat="45.71926" lon="6.24724">
        <ele>1436.158</ele>
        <time>2013-08-11T12:55:47Z</time>
      </trkpt>
      <trkpt lat="45.71926" lon="6.24724">
        <ele>1436.158</ele>
        <time>2013-08-11T12:55:53Z</time>
      </trkpt>
      <trkpt lat="45.71926" lon="6.24724">
        <ele>1436.158</ele>
        <time>2013-08-11T12:55:57Z</time>
      </trkpt>
      <trkpt lat="45.71926" lon="6.24724">
        <ele>1436.158</ele>
        <time>2013-08-11T12:56:02Z</time>
      </trkpt>
      <trkpt lat="45.71926" lon="6.24724">
        <ele>1436.158</ele>
        <time>2013-08-11T12:56:08Z</time>
      </trkpt>
      <trkpt lat="45.71926" lon="6.24724">
        <ele>1436.158</ele>
        <time>2013-08-11T12:56:12Z</time>
      </trkpt>
      <trkpt lat="45.71926" lon="6.24724">
        <ele>1436.158</ele>
        <time>2013-08-11T12:56:17Z</time>
      </trkpt>
      <trkpt lat="45.71926" lon="6.24724">
        <ele>1436.158</ele>
        <time>2013-08-11T12:56:23Z</time>
      </trkpt>
      <trkpt lat="45.71926" lon="6.24724">
        <ele>1436.158</ele>
        <time>2013-08-11T12:56:27Z</time>
      </trkpt>
      <trkpt lat="45.71926" lon="6.24724">
        <ele>1436.158</ele>
        <time>2013-08-11T12:56:32Z</time>
      </trkpt>
      <trkpt lat="45.71926" lon="6.24724">
        <ele>1436.158</ele>
        <time>2013-08-11T12:56:38Z</time>
      </trkpt>
      <trkpt lat="45.71926" lon="6.24724">
        <ele>1436.158</ele>
        <time>2013-08-11T12:56:42Z</time>
      </trkpt>
      <trkpt lat="45.71926" lon="6.24724">
        <ele>1436.158</ele>
        <time>2013-08-11T12:56:47Z</time>
      </trkpt>
      <trkpt lat="45.71926" lon="6.24724">
        <ele>1436.158</ele>
        <time>2013-08-11T12:56:53Z</time>
      </trkpt>
      <trkpt lat="45.71926" lon="6.24724">
        <ele>1436.158</ele>
        <time>2013-08-11T12:56:57Z</time>
      </trkpt>
      <trkpt lat="45.71926" lon="6.24724">
        <ele>1436.158</ele>
        <time>2013-08-11T12:57:02Z</time>
      </trkpt>
      <trkpt lat="45.71926" lon="6.24724">
        <ele>1436.158</ele>
        <time>2013-08-11T12:57:12Z</time>
      </trkpt>
      <trkpt lat="45.71926" lon="6.24724">
        <ele>1436.158</ele>
        <time>2013-08-11T12:57:17Z</time>
      </trkpt>
      <trkpt lat="45.71926" lon="6.24724">
        <ele>1436.158</ele>
        <time>2013-08-11T12:57:24Z</time>
      </trkpt>
      <trkpt lat="45.71926" lon="6.24724">
        <ele>1436.158</ele>
        <time>2013-08-11T12:57:27Z</time>
      </trkpt>
      <trkpt lat="45.71926" lon="6.24724">
        <ele>1436.158</ele>
        <time>2013-08-11T12:57:32Z</time>
      </trkpt>
      <trkpt lat="45.71926" lon="6.24724">
        <ele>1436.158</ele>
        <time>2013-08-11T12:57:38Z</time>
      </trkpt>
      <trkpt lat="45.71925" lon="6.24724">
        <ele>1436.158</ele>
        <time>2013-08-11T12:57:42Z</time>
      </trkpt>
      <trkpt lat="45.71926" lon="6.24724">
        <ele>1436.158</ele>
        <time>2013-08-11T12:57:47Z</time>
      </trkpt>
      <trkpt lat="45.71925" lon="6.24724">
        <ele>1436.158</ele>
        <time>2013-08-11T12:57:52Z</time>
      </trkpt>
      <trkpt lat="45.71925" lon="6.24724">
        <ele>1436.158</ele>
        <time>2013-08-11T12:57:58Z</time>
      </trkpt>
      <trkpt lat="45.71925" lon="6.24724">
        <ele>1436.158</ele>
        <time>2013-08-11T12:58:02Z</time>
      </trkpt>
      <trkpt lat="45.71925" lon="6.24724">
        <ele>1436.158</ele>
        <time>2013-08-11T12:58:07Z</time>
      </trkpt>
      <trkpt lat="45.71925" lon="6.24724">
        <ele>1436.158</ele>
        <time>2013-08-11T12:58:13Z</time>
      </trkpt>
      <trkpt lat="45.71925" lon="6.24724">
        <ele>1436.158</ele>
        <time>2013-08-11T12:58:17Z</time>
      </trkpt>
      <trkpt lat="45.71925" lon="6.24724">
        <ele>1436.158</ele>
        <time>2013-08-11T12:58:22Z</time>
      </trkpt>
      <trkpt lat="45.71925" lon="6.24724">
        <ele>1436.158</ele>
        <time>2013-08-11T12:58:28Z</time>
      </trkpt>
      <trkpt lat="45.71925" lon="6.24724">
        <ele>1436.158</ele>
        <time>2013-08-11T12:58:32Z</time>
      </trkpt>
      <trkpt lat="45.71925" lon="6.24724">
        <ele>1436.158</ele>
        <time>2013-08-11T12:58:37Z</time>
      </trkpt>
      <trkpt lat="45.71925" lon="6.24724">
        <ele>1436.158</ele>
        <time>2013-08-11T12:58:43Z</time>
      </trkpt>
      <trkpt lat="45.71925" lon="6.24724">
        <ele>1436.158</ele>
        <time>2013-08-11T12:58:47Z</time>
      </trkpt>
      <trkpt lat="45.71925" lon="6.24724">
        <ele>1436.158</ele>
        <time>2013-08-11T12:58:53Z</time>
      </trkpt>
      <trkpt lat="45.71925" lon="6.24724">
        <ele>1436.158</ele>
        <time>2013-08-11T12:58:57Z</time>
      </trkpt>
      <trkpt lat="45.71925" lon="6.24724">
        <ele>1436.158</ele>
        <time>2013-08-11T12:59:02Z</time>
      </trkpt>
      <trkpt lat="45.71925" lon="6.24724">
        <ele>1436.158</ele>
        <time>2013-08-11T12:59:07Z</time>
      </trkpt>
      <trkpt lat="45.71925" lon="6.24724">
        <ele>1436.158</ele>
        <time>2013-08-11T12:59:12Z</time>
      </trkpt>
      <trkpt lat="45.71925" lon="6.24724">
        <ele>1436.158</ele>
        <time>2013-08-11T12:59:17Z</time>
      </trkpt>
      <trkpt lat="45.71925" lon="6.24724">
        <ele>1436.158</ele>
        <time>2013-08-11T12:59:23Z</time>
      </trkpt>
      <trkpt lat="45.71925" lon="6.24724">
        <ele>1436.158</ele>
        <time>2013-08-11T12:59:27Z</time>
      </trkpt>
      <trkpt lat="45.71925" lon="6.24724">
        <ele>1436.158</ele>
        <time>2013-08-11T12:59:32Z</time>
      </trkpt>
      <trkpt lat="45.71925" lon="6.24724">
        <ele>1436.158</ele>
        <time>2013-08-11T12:59:37Z</time>
      </trkpt>
      <trkpt lat="45.71925" lon="6.24724">
        <ele>1436.158</ele>
        <time>2013-08-11T12:59:43Z</time>
      </trkpt>
      <trkpt lat="45.71925" lon="6.24724">
        <ele>1436.158</ele>
        <time>2013-08-11T12:59:47Z</time>
      </trkpt>
      <trkpt lat="45.71925" lon="6.24724">
        <ele>1436.158</ele>
        <time>2013-08-11T12:59:53Z</time>
      </trkpt>
      <trkpt lat="45.71925" lon="6.24724">
        <ele>1436.158</ele>
        <time>2013-08-11T12:59:57Z</time>
      </trkpt>
      <trkpt lat="45.71925" lon="6.24724">
        <ele>1436.158</ele>
        <time>2013-08-11T13:00:02Z</time>
      </trkpt>
      <trkpt lat="45.71925" lon="6.24724">
        <ele>1436.158</ele>
        <time>2013-08-11T13:00:08Z</time>
      </trkpt>
      <trkpt lat="45.71925" lon="6.24724">
        <ele>1436.158</ele>
        <time>2013-08-11T13:00:12Z</time>
      </trkpt>
      <trkpt lat="45.71925" lon="6.24724">
        <ele>1436.158</ele>
        <time>2013-08-11T13:00:17Z</time>
      </trkpt>
      <trkpt lat="45.71925" lon="6.24724">
        <ele>1436.158</ele>
        <time>2013-08-11T13:00:23Z</time>
      </trkpt>
      <trkpt lat="45.71925" lon="6.24724">
        <ele>1436.158</ele>
        <time>2013-08-11T13:00:27Z</time>
      </trkpt>
      <trkpt lat="45.71925" lon="6.24724">
        <ele>1436.158</ele>
        <time>2013-08-11T13:00:32Z</time>
      </trkpt>
      <trkpt lat="45.71925" lon="6.24724">
        <ele>1436.158</ele>
        <time>2013-08-11T13:00:37Z</time>
      </trkpt>
      <trkpt lat="45.71925" lon="6.24724">
        <ele>1436.158</ele>
        <time>2013-08-11T13:00:43Z</time>
      </trkpt>
      <trkpt lat="45.71925" lon="6.24724">
        <ele>1436.158</ele>
        <time>2013-08-11T13:00:47Z</time>
      </trkpt>
      <trkpt lat="45.71925" lon="6.24724">
        <ele>1436.158</ele>
        <time>2013-08-11T13:00:52Z</time>
      </trkpt>
      <trkpt lat="45.71925" lon="6.24724">
        <ele>1436.158</ele>
        <time>2013-08-11T13:00:57Z</time>
      </trkpt>
      <trkpt lat="45.71925" lon="6.24724">
        <ele>1436.158</ele>
        <time>2013-08-11T13:01:02Z</time>
      </trkpt>
      <trkpt lat="45.71925" lon="6.24724">
        <ele>1436.158</ele>
        <time>2013-08-11T13:01:08Z</time>
      </trkpt>
      <trkpt lat="45.71925" lon="6.24724">
        <ele>1436.158</ele>
        <time>2013-08-11T13:01:12Z</time>
      </trkpt>
      <trkpt lat="45.71925" lon="6.24724">
        <ele>1436.158</ele>
        <time>2013-08-11T13:01:17Z</time>
      </trkpt>
      <trkpt lat="45.71925" lon="6.24724">
        <ele>1436.158</ele>
        <time>2013-08-11T13:01:23Z</time>
      </trkpt>
      <trkpt lat="45.71925" lon="6.24724">
        <ele>1436.158</ele>
        <time>2013-08-11T13:01:27Z</time>
      </trkpt>
      <trkpt lat="45.71925" lon="6.24724">
        <ele>1436.158</ele>
        <time>2013-08-11T13:01:32Z</time>
      </trkpt>
      <trkpt lat="45.71925" lon="6.24724">
        <ele>1436.158</ele>
        <time>2013-08-11T13:01:37Z</time>
      </trkpt>
      <trkpt lat="45.71925" lon="6.24724">
        <ele>1436.158</ele>
        <time>2013-08-11T13:01:42Z</time>
      </trkpt>
      <trkpt lat="45.71925" lon="6.24724">
        <ele>1436.158</ele>
        <time>2013-08-11T13:01:47Z</time>
      </trkpt>
      <trkpt lat="45.71925" lon="6.24724">
        <ele>1436.158</ele>
        <time>2013-08-11T13:01:53Z</time>
      </trkpt>
      <trkpt lat="45.71925" lon="6.24724">
        <ele>1436.158</ele>
        <time>2013-08-11T13:01:57Z</time>
      </trkpt>
      <trkpt lat="45.71925" lon="6.24724">
        <ele>1436.158</ele>
        <time>2013-08-11T13:02:02Z</time>
      </trkpt>
      <trkpt lat="45.71925" lon="6.24724">
        <ele>1436.158</ele>
        <time>2013-08-11T13:02:07Z</time>
      </trkpt>
      <trkpt lat="45.71925" lon="6.24724">
        <ele>1436.158</ele>
        <time>2013-08-11T13:02:12Z</time>
      </trkpt>
      <trkpt lat="45.71925" lon="6.24724">
        <ele>1436.158</ele>
        <time>2013-08-11T13:02:17Z</time>
      </trkpt>
      <trkpt lat="45.71925" lon="6.24724">
        <ele>1436.158</ele>
        <time>2013-08-11T13:02:23Z</time>
      </trkpt>
      <trkpt lat="45.71925" lon="6.24724">
        <ele>1436.158</ele>
        <time>2013-08-11T13:02:27Z</time>
      </trkpt>
      <trkpt lat="45.71925" lon="6.24724">
        <ele>1436.158</ele>
        <time>2013-08-11T13:02:32Z</time>
      </trkpt>
      <trkpt lat="45.71925" lon="6.24724">
        <ele>1436.158</ele>
        <time>2013-08-11T13:02:37Z</time>
      </trkpt>
      <trkpt lat="45.71925" lon="6.24724">
        <ele>1436.158</ele>
        <time>2013-08-11T13:02:43Z</time>
      </trkpt>
      <trkpt lat="45.71925" lon="6.24724">
        <ele>1436.158</ele>
        <time>2013-08-11T13:02:47Z</time>
      </trkpt>
      <trkpt lat="45.71925" lon="6.24724">
        <ele>1436.158</ele>
        <time>2013-08-11T13:02:52Z</time>
      </trkpt>
      <trkpt lat="45.71925" lon="6.24724">
        <ele>1436.158</ele>
        <time>2013-08-11T13:02:57Z</time>
      </trkpt>
      <trkpt lat="45.71925" lon="6.24724">
        <ele>1436.158</ele>
        <time>2013-08-11T13:03:02Z</time>
      </trkpt>
      <trkpt lat="45.71925" lon="6.24724">
        <ele>1436.158</ele>
        <time>2013-08-11T13:03:07Z</time>
      </trkpt>
      <trkpt lat="45.71925" lon="6.24724">
        <ele>1436.158</ele>
        <time>2013-08-11T13:03:12Z</time>
      </trkpt>
      <trkpt lat="45.71925" lon="6.24724">
        <ele>1436.158</ele>
        <time>2013-08-11T13:03:18Z</time>
      </trkpt>
      <trkpt lat="45.71925" lon="6.24724">
        <ele>1436.158</ele>
        <time>2013-08-11T13:03:22Z</time>
      </trkpt>
      <trkpt lat="45.71925" lon="6.24724">
        <ele>1436.158</ele>
        <time>2013-08-11T13:03:27Z</time>
      </trkpt>
      <trkpt lat="45.71925" lon="6.24724">
        <ele>1436.158</ele>
        <time>2013-08-11T13:03:33Z</time>
      </trkpt>
      <trkpt lat="45.71925" lon="6.24724">
        <ele>1436.158</ele>
        <time>2013-08-11T13:03:37Z</time>
      </trkpt>
      <trkpt lat="45.71925" lon="6.24724">
        <ele>1436.158</ele>
        <time>2013-08-11T13:03:42Z</time>
      </trkpt>
      <trkpt lat="45.71925" lon="6.24724">
        <ele>1436.158</ele>
        <time>2013-08-11T13:03:47Z</time>
      </trkpt>
      <trkpt lat="45.71925" lon="6.24724">
        <ele>1436.158</ele>
        <time>2013-08-11T13:03:52Z</time>
      </trkpt>
      <trkpt lat="45.71925" lon="6.24724">
        <ele>1436.158</ele>
        <time>2013-08-11T13:03:57Z</time>
      </trkpt>
      <trkpt lat="45.71925" lon="6.24724">
        <ele>1436.158</ele>
        <time>2013-08-11T13:04:04Z</time>
      </trkpt>
      <trkpt lat="45.71925" lon="6.24724">
        <ele>1436.158</ele>
        <time>2013-08-11T13:04:07Z</time>
      </trkpt>
      <trkpt lat="45.71925" lon="6.24724">
        <ele>1436.158</ele>
        <time>2013-08-11T13:04:12Z</time>
      </trkpt>
      <trkpt lat="45.71925" lon="6.24724">
        <ele>1436.158</ele>
        <time>2013-08-11T13:04:19Z</time>
      </trkpt>
      <trkpt lat="45.71925" lon="6.24724">
        <ele>1436.158</ele>
        <time>2013-08-11T13:04:22Z</time>
      </trkpt>
      <trkpt lat="45.71925" lon="6.24724">
        <ele>1436.158</ele>
        <time>2013-08-11T13:04:27Z</time>
      </trkpt>
      <trkpt lat="45.71925" lon="6.24724">
        <ele>1436.158</ele>
        <time>2013-08-11T13:04:32Z</time>
      </trkpt>
      <trkpt lat="45.71925" lon="6.24724">
        <ele>1436.158</ele>
        <time>2013-08-11T13:04:37Z</time>
      </trkpt>
      <trkpt lat="45.71925" lon="6.24724">
        <ele>1436.158</ele>
        <time>2013-08-11T13:04:42Z</time>
      </trkpt>
      <trkpt lat="45.71925" lon="6.24724">
        <ele>1436.158</ele>
        <time>2013-08-11T13:04:47Z</time>
      </trkpt>
      <trkpt lat="45.71925" lon="6.24724">
        <ele>1436.158</ele>
        <time>2013-08-11T13:04:54Z</time>
      </trkpt>
      <trkpt lat="45.71925" lon="6.24724">
        <ele>1436.158</ele>
        <time>2013-08-11T13:04:57Z</time>
      </trkpt>
      <trkpt lat="45.71925" lon="6.24724">
        <ele>1436.158</ele>
        <time>2013-08-11T13:05:02Z</time>
      </trkpt>
      <trkpt lat="45.71925" lon="6.24724">
        <ele>1436.158</ele>
        <time>2013-08-11T13:05:09Z</time>
      </trkpt>
      <trkpt lat="45.71925" lon="6.24724">
        <ele>1436.158</ele>
        <time>2013-08-11T13:05:12Z</time>
      </trkpt>
      <trkpt lat="45.71925" lon="6.24724">
        <ele>1436.158</ele>
        <time>2013-08-11T13:05:17Z</time>
      </trkpt>
      <trkpt lat="45.71925" lon="6.24724">
        <ele>1436.158</ele>
        <time>2013-08-11T13:05:24Z</time>
      </trkpt>
      <trkpt lat="45.71925" lon="6.24724">
        <ele>1436.158</ele>
        <time>2013-08-11T13:05:27Z</time>
      </trkpt>
      <trkpt lat="45.71925" lon="6.24724">
        <ele>1436.158</ele>
        <time>2013-08-11T13:05:32Z</time>
      </trkpt>
      <trkpt lat="45.71925" lon="6.24724">
        <ele>1436.158</ele>
        <time>2013-08-11T13:05:38Z</time>
      </trkpt>
      <trkpt lat="45.71925" lon="6.24724">
        <ele>1436.158</ele>
        <time>2013-08-11T13:05:42Z</time>
      </trkpt>
      <trkpt lat="45.71925" lon="6.24724">
        <ele>1436.158</ele>
        <time>2013-08-11T13:05:47Z</time>
      </trkpt>
      <trkpt lat="45.71925" lon="6.24724">
        <ele>1436.158</ele>
        <time>2013-08-11T13:05:53Z</time>
      </trkpt>
      <trkpt lat="45.71925" lon="6.24724">
        <ele>1436.158</ele>
        <time>2013-08-11T13:05:57Z</time>
      </trkpt>
      <trkpt lat="45.71925" lon="6.24724">
        <ele>1436.158</ele>
        <time>2013-08-11T13:06:02Z</time>
      </trkpt>
      <trkpt lat="45.71925" lon="6.24724">
        <ele>1436.158</ele>
        <time>2013-08-11T13:06:09Z</time>
      </trkpt>
      <trkpt lat="45.71925" lon="6.24724">
        <ele>1436.158</ele>
        <time>2013-08-11T13:06:12Z</time>
      </trkpt>
      <trkpt lat="45.71925" lon="6.24724">
        <ele>1436.158</ele>
        <time>2013-08-11T13:06:27Z</time>
      </trkpt>
      <trkpt lat="45.71925" lon="6.24724">
        <ele>1436.158</ele>
        <time>2013-08-11T13:06:32Z</time>
      </trkpt>
      <trkpt lat="45.71925" lon="6.24724">
        <ele>1436.158</ele>
        <time>2013-08-11T13:06:38Z</time>
      </trkpt>
      <trkpt lat="45.71926" lon="6.24724">
        <ele>1437.1244</ele>
        <time>2013-08-11T13:06:42Z</time>
      </trkpt>
      <trkpt lat="45.71926" lon="6.24724">
        <ele>1437.1244</ele>
        <time>2013-08-11T13:06:47Z</time>
      </trkpt>
      <trkpt lat="45.71926" lon="6.24724">
        <ele>1437.1244</ele>
        <time>2013-08-11T13:06:53Z</time>
      </trkpt>
      <trkpt lat="45.71926" lon="6.24724">
        <ele>1437.1244</ele>
        <time>2013-08-11T13:06:57Z</time>
      </trkpt>
      <trkpt lat="45.71926" lon="6.24724">
        <ele>1437.1244</ele>
        <time>2013-08-11T13:07:02Z</time>
      </trkpt>
      <trkpt lat="45.71926" lon="6.24724">
        <ele>1437.1244</ele>
        <time>2013-08-11T13:07:08Z</time>
      </trkpt>
      <trkpt lat="45.71926" lon="6.24724">
        <ele>1437.1244</ele>
        <time>2013-08-11T13:07:12Z</time>
      </trkpt>
      <trkpt lat="45.71926" lon="6.24724">
        <ele>1437.1244</ele>
        <time>2013-08-11T13:07:17Z</time>
      </trkpt>
      <trkpt lat="45.71926" lon="6.24724">
        <ele>1437.1244</ele>
        <time>2013-08-11T13:07:23Z</time>
      </trkpt>
      <trkpt lat="45.71926" lon="6.24724">
        <ele>1437.1244</ele>
        <time>2013-08-11T13:07:27Z</time>
      </trkpt>
      <trkpt lat="45.71926" lon="6.24724">
        <ele>1437.1244</ele>
        <time>2013-08-11T13:07:32Z</time>
      </trkpt>
      <trkpt lat="45.71926" lon="6.24724">
        <ele>1437.1244</ele>
        <time>2013-08-11T13:07:38Z</time>
      </trkpt>
      <trkpt lat="45.71926" lon="6.24724">
        <ele>1437.1244</ele>
        <time>2013-08-11T13:07:42Z</time>
      </trkpt>
      <trkpt lat="45.71926" lon="6.24724">
        <ele>1437.1244</ele>
        <time>2013-08-11T13:07:47Z</time>
      </trkpt>
      <trkpt lat="45.71926" lon="6.24724">
        <ele>1437.1244</ele>
        <time>2013-08-11T13:07:53Z</time>
      </trkpt>
      <trkpt lat="45.71926" lon="6.24724">
        <ele>1437.1244</ele>
        <time>2013-08-11T13:07:57Z</time>
      </trkpt>
      <trkpt lat="45.71926" lon="6.24724">
        <ele>1437.1244</ele>
        <time>2013-08-11T13:08:02Z</time>
      </trkpt>
      <trkpt lat="45.71926" lon="6.24724">
        <ele>1437.1244</ele>
        <time>2013-08-11T13:08:08Z</time>
      </trkpt>
      <trkpt lat="45.71926" lon="6.24724">
        <ele>1437.1244</ele>
        <time>2013-08-11T13:08:12Z</time>
      </trkpt>
      <trkpt lat="45.71927" lon="6.24725">
        <ele>1437.1244</ele>
        <time>2013-08-11T13:08:17Z</time>
      </trkpt>
      <trkpt lat="45.71928" lon="6.24725">
        <ele>1437.1244</ele>
        <time>2013-08-11T13:08:23Z</time>
      </trkpt>
      <trkpt lat="45.71928" lon="6.24725">
        <ele>1437.1244</ele>
        <time>2013-08-11T13:08:27Z</time>
      </trkpt>
      <trkpt lat="45.71928" lon="6.24725">
        <ele>1437.1244</ele>
        <time>2013-08-11T13:08:32Z</time>
      </trkpt>
      <trkpt lat="45.71928" lon="6.24725">
        <ele>1437.1244</ele>
        <time>2013-08-11T13:08:37Z</time>
      </trkpt>
      <trkpt lat="45.71928" lon="6.24725">
        <ele>1437.1244</ele>
        <time>2013-08-11T13:08:42Z</time>
      </trkpt>
      <trkpt lat="45.71928" lon="6.24725">
        <ele>1437.1244</ele>
        <time>2013-08-11T13:08:47Z</time>
      </trkpt>
      <trkpt lat="45.71928" lon="6.24725">
        <ele>1437.1244</ele>
        <time>2013-08-11T13:08:52Z</time>
      </trkpt>
      <trkpt lat="45.71928" lon="6.24725">
        <ele>1437.1244</ele>
        <time>2013-08-11T13:08:57Z</time>
      </trkpt>
      <trkpt lat="45.71928" lon="6.24725">
        <ele>1437.1244</ele>
        <time>2013-08-11T13:09:08Z</time>
      </trkpt>
      <trkpt lat="45.71928" lon="6.24725">
        <ele>1437.1244</ele>
        <time>2013-08-11T13:09:12Z</time>
      </trkpt>
      <trkpt lat="45.71928" lon="6.24725">
        <ele>1437.1244</ele>
        <time>2013-08-11T13:09:17Z</time>
      </trkpt>
      <trkpt lat="45.71928" lon="6.24725">
        <ele>1437.1244</ele>
        <time>2013-08-11T13:09:23Z</time>
      </trkpt>
      <trkpt lat="45.71928" lon="6.24725">
        <ele>1437.1244</ele>
        <time>2013-08-11T13:09:27Z</time>
      </trkpt>
      <trkpt lat="45.71928" lon="6.24725">
        <ele>1437.1244</ele>
        <time>2013-08-11T13:09:38Z</time>
      </trkpt>
      <trkpt lat="45.71928" lon="6.24725">
        <ele>1437.1244</ele>
        <time>2013-08-11T13:09:47Z</time>
      </trkpt>
      <trkpt lat="45.71928" lon="6.24725">
        <ele>1437.1244</ele>
        <time>2013-08-11T13:09:57Z</time>
      </trkpt>
      <trkpt lat="45.71928" lon="6.24725">
        <ele>1437.1244</ele>
        <time>2013-08-11T13:10:02Z</time>
      </trkpt>
      <trkpt lat="45.71928" lon="6.24725">
        <ele>1437.1244</ele>
        <time>2013-08-11T13:10:08Z</time>
      </trkpt>
      <trkpt lat="45.71928" lon="6.24725">
        <ele>1437.1244</ele>
        <time>2013-08-11T13:10:12Z</time>
      </trkpt>
      <trkpt lat="45.71928" lon="6.24725">
        <ele>1437.1244</ele>
        <time>2013-08-11T13:10:17Z</time>
      </trkpt>
      <trkpt lat="45.71928" lon="6.24725">
        <ele>1437.1244</ele>
        <time>2013-08-11T13:10:32Z</time>
      </trkpt>
      <trkpt lat="45.71928" lon="6.24725">
        <ele>1437.1244</ele>
        <time>2013-08-11T13:10:42Z</time>
      </trkpt>
      <trkpt lat="45.71928" lon="6.24725">
        <ele>1437.1244</ele>
        <time>2013-08-11T13:10:47Z</time>
      </trkpt>
      <trkpt lat="45.71928" lon="6.24725">
        <ele>1437.1244</ele>
        <time>2013-08-11T13:10:57Z</time>
      </trkpt>
      <trkpt lat="45.71928" lon="6.24725">
        <ele>1437.1244</ele>
        <time>2013-08-11T13:11:02Z</time>
      </trkpt>
      <trkpt lat="45.71928" lon="6.24725">
        <ele>1437.1244</ele>
        <time>2013-08-11T13:11:09Z</time>
      </trkpt>
      <trkpt lat="45.71928" lon="6.24725">
        <ele>1437.1244</ele>
        <time>2013-08-11T13:11:12Z</time>
      </trkpt>
      <trkpt lat="45.71928" lon="6.24725">
        <ele>1437.1244</ele>
        <time>2013-08-11T13:11:23Z</time>
      </trkpt>
      <trkpt lat="45.71928" lon="6.24725">
        <ele>1437.1244</ele>
        <time>2013-08-11T13:11:27Z</time>
      </trkpt>
      <trkpt lat="45.71928" lon="6.24725">
        <ele>1437.1244</ele>
        <time>2013-08-11T13:11:32Z</time>
      </trkpt>
      <trkpt lat="45.71928" lon="6.24725">
        <ele>1437.1244</ele>
        <time>2013-08-11T13:11:37Z</time>
      </trkpt>
      <trkpt lat="45.71928" lon="6.24725">
        <ele>1437.1244</ele>
        <time>2013-08-11T13:11:42Z</time>
      </trkpt>
      <trkpt lat="45.71928" lon="6.24725">
        <ele>1437.1244</ele>
        <time>2013-08-11T13:11:47Z</time>
      </trkpt>
      <trkpt lat="45.71928" lon="6.24725">
        <ele>1437.1244</ele>
        <time>2013-08-11T13:11:52Z</time>
      </trkpt>
      <trkpt lat="45.71928" lon="6.24725">
        <ele>1437.1244</ele>
        <time>2013-08-11T13:12:02Z</time>
      </trkpt>
      <trkpt lat="45.71928" lon="6.24725">
        <ele>1437.1244</ele>
        <time>2013-08-11T13:12:07Z</time>
      </trkpt>
      <trkpt lat="45.71928" lon="6.24725">
        <ele>1437.1244</ele>
        <time>2013-08-11T13:12:13Z</time>
      </trkpt>
      <trkpt lat="45.71928" lon="6.24725">
        <ele>1437.1244</ele>
        <time>2013-08-11T13:12:22Z</time>
      </trkpt>
      <trkpt lat="45.71928" lon="6.24725">
        <ele>1437.1244</ele>
        <time>2013-08-11T13:12:28Z</time>
      </trkpt>
      <trkpt lat="45.71928" lon="6.24725">
        <ele>1437.1244</ele>
        <time>2013-08-11T13:12:37Z</time>
      </trkpt>
      <trkpt lat="45.71928" lon="6.24725">
        <ele>1437.1244</ele>
        <time>2013-08-11T13:12:47Z</time>
      </trkpt>
      <trkpt lat="45.71928" lon="6.24725">
        <ele>1437.1244</ele>
        <time>2013-08-11T13:12:52Z</time>
      </trkpt>
      <trkpt lat="45.71928" lon="6.24725">
        <ele>1437.1244</ele>
        <time>2013-08-11T13:12:58Z</time>
      </trkpt>
      <trkpt lat="45.71928" lon="6.24725">
        <ele>1437.1244</ele>
        <time>2013-08-11T13:13:02Z</time>
      </trkpt>
      <trkpt lat="45.71928" lon="6.24725">
        <ele>1437.1244</ele>
        <time>2013-08-11T13:13:07Z</time>
      </trkpt>
      <trkpt lat="45.71928" lon="6.24725">
        <ele>1437.1244</ele>
        <time>2013-08-11T13:13:13Z</time>
      </trkpt>
      <trkpt lat="45.71928" lon="6.24725">
        <ele>1437.1244</ele>
        <time>2013-08-11T13:13:17Z</time>
      </trkpt>
      <trkpt lat="45.71928" lon="6.24725">
        <ele>1437.1244</ele>
        <time>2013-08-11T13:13:22Z</time>
      </trkpt>
      <trkpt lat="45.71928" lon="6.24725">
        <ele>1437.1244</ele>
        <time>2013-08-11T13:13:37Z</time>
      </trkpt>
      <trkpt lat="45.71928" lon="6.24725">
        <ele>1437.1244</ele>
        <time>2013-08-11T13:13:47Z</time>
      </trkpt>
      <trkpt lat="45.71928" lon="6.24725">
        <ele>1437.1244</ele>
        <time>2013-08-11T13:13:52Z</time>
      </trkpt>
      <trkpt lat="45.71928" lon="6.24725">
        <ele>1437.1244</ele>
        <time>2013-08-11T13:14:03Z</time>
      </trkpt>
      <trkpt lat="45.71928" lon="6.24725">
        <ele>1437.1244</ele>
        <time>2013-08-11T13:14:07Z</time>
      </trkpt>
      <trkpt lat="45.71928" lon="6.24725">
        <ele>1437.1244</ele>
        <time>2013-08-11T13:14:12Z</time>
      </trkpt>
      <trkpt lat="45.71928" lon="6.24725">
        <ele>1437.1244</ele>
        <time>2013-08-11T13:14:18Z</time>
      </trkpt>
      <trkpt lat="45.71928" lon="6.24725">
        <ele>1437.1244</ele>
        <time>2013-08-11T13:14:22Z</time>
      </trkpt>
      <trkpt lat="45.71928" lon="6.24725">
        <ele>1437.1244</ele>
        <time>2013-08-11T13:14:27Z</time>
      </trkpt>
      <trkpt lat="45.71928" lon="6.24725">
        <ele>1437.1244</ele>
        <time>2013-08-11T13:14:32Z</time>
      </trkpt>
      <trkpt lat="45.71928" lon="6.24725">
        <ele>1437.1244</ele>
        <time>2013-08-11T13:14:37Z</time>
      </trkpt>
      <trkpt lat="45.71928" lon="6.24725">
        <ele>1437.1244</ele>
        <time>2013-08-11T13:14:42Z</time>
      </trkpt>
      <trkpt lat="45.71928" lon="6.24725">
        <ele>1437.1244</ele>
        <time>2013-08-11T13:14:47Z</time>
      </trkpt>
      <trkpt lat="45.71928" lon="6.24725">
        <ele>1437.1244</ele>
        <time>2013-08-11T13:14:53Z</time>
      </trkpt>
      <trkpt lat="45.71928" lon="6.24725">
        <ele>1437.1244</ele>
        <time>2013-08-11T13:14:57Z</time>
      </trkpt>
      <trkpt lat="45.71928" lon="6.24725">
        <ele>1437.1244</ele>
        <time>2013-08-11T13:15:02Z</time>
      </trkpt>
      <trkpt lat="45.71928" lon="6.24725">
        <ele>1437.1244</ele>
        <time>2013-08-11T13:15:08Z</time>
      </trkpt>
      <trkpt lat="45.71928" lon="6.24725">
        <ele>1437.1244</ele>
        <time>2013-08-11T13:15:12Z</time>
      </trkpt>
      <trkpt lat="45.71928" lon="6.24725">
        <ele>1437.1244</ele>
        <time>2013-08-11T13:15:17Z</time>
      </trkpt>
      <trkpt lat="45.71928" lon="6.24725">
        <ele>1437.1244</ele>
        <time>2013-08-11T13:15:23Z</time>
      </trkpt>
      <trkpt lat="45.71928" lon="6.24725">
        <ele>1437.1244</ele>
        <time>2013-08-11T13:15:27Z</time>
      </trkpt>
      <trkpt lat="45.71928" lon="6.24725">
        <ele>1437.1244</ele>
        <time>2013-08-11T13:15:32Z</time>
      </trkpt>
      <trkpt lat="45.71928" lon="6.24725">
        <ele>1437.1244</ele>
        <time>2013-08-11T13:15:37Z</time>
      </trkpt>
      <trkpt lat="45.71928" lon="6.24725">
        <ele>1437.1244</ele>
        <time>2013-08-11T13:15:43Z</time>
      </trkpt>
      <trkpt lat="45.71928" lon="6.24725">
        <ele>1437.1244</ele>
        <time>2013-08-11T13:15:47Z</time>
      </trkpt>
      <trkpt lat="45.71928" lon="6.24725">
        <ele>1437.1244</ele>
        <time>2013-08-11T13:15:52Z</time>
      </trkpt>
      <trkpt lat="45.71928" lon="6.24725">
        <ele>1437.1244</ele>
        <time>2013-08-11T13:15:58Z</time>
      </trkpt>
      <trkpt lat="45.71928" lon="6.24725">
        <ele>1437.1244</ele>
        <time>2013-08-11T13:16:02Z</time>
      </trkpt>
      <trkpt lat="45.71928" lon="6.24725">
        <ele>1437.1244</ele>
        <time>2013-08-11T13:16:07Z</time>
      </trkpt>
      <trkpt lat="45.71928" lon="6.24725">
        <ele>1437.1244</ele>
        <time>2013-08-11T13:16:12Z</time>
      </trkpt>
      <trkpt lat="45.71928" lon="6.24725">
        <ele>1437.1244</ele>
        <time>2013-08-11T13:16:17Z</time>
      </trkpt>
      <trkpt lat="45.71928" lon="6.24725">
        <ele>1437.1244</ele>
        <time>2013-08-11T13:16:22Z</time>
      </trkpt>
      <trkpt lat="45.71928" lon="6.24725">
        <ele>1437.1244</ele>
        <time>2013-08-11T13:16:28Z</time>
      </trkpt>
      <trkpt lat="45.71928" lon="6.24725">
        <ele>1437.1244</ele>
        <time>2013-08-11T13:16:32Z</time>
      </trkpt>
      <trkpt lat="45.71928" lon="6.24725">
        <ele>1437.1244</ele>
        <time>2013-08-11T13:16:37Z</time>
      </trkpt>
      <trkpt lat="45.71928" lon="6.24725">
        <ele>1437.1244</ele>
        <time>2013-08-11T13:16:47Z</time>
      </trkpt>
      <trkpt lat="45.71928" lon="6.24725">
        <ele>1437.1244</ele>
        <time>2013-08-11T13:16:52Z</time>
      </trkpt>
      <trkpt lat="45.71928" lon="6.24725">
        <ele>1437.1244</ele>
        <time>2013-08-11T13:16:58Z</time>
      </trkpt>
      <trkpt lat="45.71928" lon="6.24725">
        <ele>1437.1244</ele>
        <time>2013-08-11T13:17:02Z</time>
      </trkpt>
      <trkpt lat="45.71928" lon="6.24725">
        <ele>1437.1244</ele>
        <time>2013-08-11T13:17:07Z</time>
      </trkpt>
      <trkpt lat="45.71928" lon="6.24725">
        <ele>1437.1244</ele>
        <time>2013-08-11T13:17:13Z</time>
      </trkpt>
      <trkpt lat="45.71928" lon="6.24725">
        <ele>1437.1244</ele>
        <time>2013-08-11T13:17:17Z</time>
      </trkpt>
      <trkpt lat="45.71928" lon="6.24725">
        <ele>1437.1244</ele>
        <time>2013-08-11T13:17:22Z</time>
      </trkpt>
      <trkpt lat="45.71928" lon="6.24725">
        <ele>1437.1244</ele>
        <time>2013-08-11T13:17:28Z</time>
      </trkpt>
      <trkpt lat="45.71928" lon="6.24725">
        <ele>1437.1244</ele>
        <time>2013-08-11T13:17:32Z</time>
      </trkpt>
      <trkpt lat="45.71927" lon="6.24725">
        <ele>1437.1244</ele>
        <time>2013-08-11T13:17:37Z</time>
      </trkpt>
      <trkpt lat="45.71927" lon="6.24725">
        <ele>1437.1244</ele>
        <time>2013-08-11T13:17:43Z</time>
      </trkpt>
      <trkpt lat="45.71928" lon="6.24725">
        <ele>1437.1244</ele>
        <time>2013-08-11T13:17:47Z</time>
      </trkpt>
      <trkpt lat="45.71928" lon="6.24725">
        <ele>1437.1244</ele>
        <time>2013-08-11T13:17:52Z</time>
      </trkpt>
      <trkpt lat="45.71928" lon="6.24725">
        <ele>1437.1244</ele>
        <time>2013-08-11T13:17:59Z</time>
      </trkpt>
      <trkpt lat="45.71929" lon="6.24724">
        <ele>1437.1244</ele>
        <time>2013-08-11T13:18:02Z</time>
      </trkpt>
      <trkpt lat="45.71928" lon="6.24723">
        <ele>1437.1244</ele>
        <time>2013-08-11T13:18:07Z</time>
      </trkpt>
      <trkpt lat="45.71928" lon="6.24724">
        <ele>1437.1244</ele>
        <time>2013-08-11T13:18:13Z</time>
      </trkpt>
      <trkpt lat="45.71928" lon="6.24723">
        <ele>1437.1244</ele>
        <time>2013-08-11T13:18:17Z</time>
      </trkpt>
      <trkpt lat="45.71928" lon="6.24723">
        <ele>1437.1244</ele>
        <time>2013-08-11T13:18:22Z</time>
      </trkpt>
      <trkpt lat="45.71928" lon="6.24723">
        <ele>1437.1244</ele>
        <time>2013-08-11T13:18:29Z</time>
      </trkpt>
      <trkpt lat="45.71928" lon="6.24723">
        <ele>1437.1244</ele>
        <time>2013-08-11T13:18:32Z</time>
      </trkpt>
      <trkpt lat="45.71928" lon="6.24723">
        <ele>1437.1244</ele>
        <time>2013-08-11T13:18:37Z</time>
      </trkpt>
      <trkpt lat="45.71928" lon="6.24723">
        <ele>1437.1244</ele>
        <time>2013-08-11T13:18:43Z</time>
      </trkpt>
      <trkpt lat="45.71928" lon="6.24723">
        <ele>1437.1244</ele>
        <time>2013-08-11T13:18:47Z</time>
      </trkpt>
      <trkpt lat="45.71928" lon="6.24723">
        <ele>1437.1244</ele>
        <time>2013-08-11T13:18:52Z</time>
      </trkpt>
      <trkpt lat="45.71928" lon="6.24723">
        <ele>1437.1244</ele>
        <time>2013-08-11T13:18:58Z</time>
      </trkpt>
      <trkpt lat="45.71928" lon="6.24723">
        <ele>1437.1244</ele>
        <time>2013-08-11T13:19:02Z</time>
      </trkpt>
      <trkpt lat="45.71928" lon="6.24723">
        <ele>1437.1244</ele>
        <time>2013-08-11T13:19:07Z</time>
      </trkpt>
      <trkpt lat="45.71928" lon="6.24723">
        <ele>1437.1244</ele>
        <time>2013-08-11T13:19:13Z</time>
      </trkpt>
      <trkpt lat="45.71928" lon="6.24723">
        <ele>1437.1244</ele>
        <time>2013-08-11T13:19:17Z</time>
      </trkpt>
      <trkpt lat="45.71928" lon="6.24723">
        <ele>1437.1244</ele>
        <time>2013-08-11T13:19:22Z</time>
      </trkpt>
      <trkpt lat="45.71928" lon="6.24723">
        <ele>1437.1244</ele>
        <time>2013-08-11T13:19:28Z</time>
      </trkpt>
      <trkpt lat="45.71928" lon="6.24723">
        <ele>1437.1244</ele>
        <time>2013-08-11T13:19:32Z</time>
      </trkpt>
      <trkpt lat="45.71928" lon="6.24723">
        <ele>1437.1244</ele>
        <time>2013-08-11T13:19:37Z</time>
      </trkpt>
      <trkpt lat="45.71928" lon="6.24723">
        <ele>1437.1244</ele>
        <time>2013-08-11T13:19:43Z</time>
      </trkpt>
      <trkpt lat="45.71928" lon="6.24724">
        <ele>1437.1244</ele>
        <time>2013-08-11T13:19:47Z</time>
      </trkpt>
      <trkpt lat="45.71929" lon="6.24722">
        <ele>1437.1244</ele>
        <time>2013-08-11T13:19:52Z</time>
      </trkpt>
      <trkpt lat="45.71929" lon="6.24722">
        <ele>1437.1244</ele>
        <time>2013-08-11T13:19:58Z</time>
      </trkpt>
      <trkpt lat="45.71929" lon="6.24722">
        <ele>1437.1244</ele>
        <time>2013-08-11T13:20:02Z</time>
      </trkpt>
      <trkpt lat="45.71929" lon="6.24722">
        <ele>1437.1244</ele>
        <time>2013-08-11T13:20:07Z</time>
      </trkpt>
      <trkpt lat="45.71929" lon="6.24722">
        <ele>1437.1244</ele>
        <time>2013-08-11T13:20:13Z</time>
      </trkpt>
      <trkpt lat="45.71929" lon="6.24722">
        <ele>1437.1244</ele>
        <time>2013-08-11T13:20:17Z</time>
      </trkpt>
      <trkpt lat="45.71928" lon="6.24722">
        <ele>1437.1244</ele>
        <time>2013-08-11T13:20:22Z</time>
      </trkpt>
      <trkpt lat="45.71928" lon="6.24722">
        <ele>1437.1244</ele>
        <time>2013-08-11T13:20:28Z</time>
      </trkpt>
      <trkpt lat="45.71928" lon="6.24722">
        <ele>1437.1244</ele>
        <time>2013-08-11T13:20:32Z</time>
      </trkpt>
      <trkpt lat="45.71928" lon="6.24722">
        <ele>1438.6571</ele>
        <time>2013-08-11T13:20:37Z</time>
      </trkpt>
      <trkpt lat="45.71928" lon="6.24722">
        <ele>1438.6571</ele>
        <time>2013-08-11T13:20:43Z</time>
      </trkpt>
      <trkpt lat="45.71928" lon="6.24722">
        <ele>1438.6571</ele>
        <time>2013-08-11T13:20:47Z</time>
      </trkpt>
      <trkpt lat="45.71928" lon="6.24722">
        <ele>1438.6571</ele>
        <time>2013-08-11T13:20:52Z</time>
      </trkpt>
      <trkpt lat="45.71928" lon="6.24722">
        <ele>1438.6571</ele>
        <time>2013-08-11T13:20:58Z</time>
      </trkpt>
      <trkpt lat="45.71928" lon="6.24722">
        <ele>1438.6571</ele>
        <time>2013-08-11T13:21:02Z</time>
      </trkpt>
      <trkpt lat="45.71928" lon="6.24722">
        <ele>1438.6571</ele>
        <time>2013-08-11T13:21:07Z</time>
      </trkpt>
      <trkpt lat="45.71928" lon="6.24722">
        <ele>1438.6571</ele>
        <time>2013-08-11T13:21:13Z</time>
      </trkpt>
      <trkpt lat="45.71928" lon="6.24722">
        <ele>1438.6571</ele>
        <time>2013-08-11T13:21:17Z</time>
      </trkpt>
      <trkpt lat="45.71928" lon="6.24722">
        <ele>1438.6571</ele>
        <time>2013-08-11T13:21:22Z</time>
      </trkpt>
      <trkpt lat="45.71928" lon="6.24722">
        <ele>1438.6571</ele>
        <time>2013-08-11T13:21:28Z</time>
      </trkpt>
      <trkpt lat="45.71928" lon="6.24722">
        <ele>1438.6571</ele>
        <time>2013-08-11T13:21:32Z</time>
      </trkpt>
      <trkpt lat="45.71928" lon="6.24722">
        <ele>1438.6571</ele>
        <time>2013-08-11T13:21:37Z</time>
      </trkpt>
      <trkpt lat="45.71928" lon="6.24722">
        <ele>1438.6571</ele>
        <time>2013-08-11T13:21:47Z</time>
      </trkpt>
      <trkpt lat="45.71928" lon="6.24722">
        <ele>1438.6571</ele>
        <time>2013-08-11T13:21:52Z</time>
      </trkpt>
      <trkpt lat="45.71928" lon="6.24722">
        <ele>1438.6571</ele>
        <time>2013-08-11T13:21:57Z</time>
      </trkpt>
      <trkpt lat="45.71928" lon="6.24722">
        <ele>1438.6571</ele>
        <time>2013-08-11T13:22:08Z</time>
      </trkpt>
      <trkpt lat="45.71928" lon="6.24722">
        <ele>1438.6571</ele>
        <time>2013-08-11T13:22:12Z</time>
      </trkpt>
      <trkpt lat="45.71928" lon="6.24722">
        <ele>1438.6571</ele>
        <time>2013-08-11T13:22:17Z</time>
      </trkpt>
      <trkpt lat="45.71928" lon="6.24722">
        <ele>1438.6571</ele>
        <time>2013-08-11T13:22:27Z</time>
      </trkpt>
      <trkpt lat="45.71928" lon="6.24722">
        <ele>1438.6571</ele>
        <time>2013-08-11T13:22:32Z</time>
      </trkpt>
      <trkpt lat="45.71928" lon="6.24722">
        <ele>1438.6571</ele>
        <time>2013-08-11T13:22:38Z</time>
      </trkpt>
      <trkpt lat="45.71928" lon="6.24722">
        <ele>1438.6571</ele>
        <time>2013-08-11T13:22:42Z</time>
      </trkpt>
      <trkpt lat="45.71928" lon="6.24722">
        <ele>1438.6571</ele>
        <time>2013-08-11T13:22:47Z</time>
      </trkpt>
      <trkpt lat="45.71928" lon="6.24722">
        <ele>1438.6571</ele>
        <time>2013-08-11T13:22:53Z</time>
      </trkpt>
      <trkpt lat="45.71928" lon="6.24722">
        <ele>1438.6571</ele>
        <time>2013-08-11T13:23:02Z</time>
      </trkpt>
      <trkpt lat="45.71928" lon="6.24722">
        <ele>1438.6571</ele>
        <time>2013-08-11T13:23:12Z</time>
      </trkpt>
      <trkpt lat="45.71928" lon="6.24722">
        <ele>1438.6571</ele>
        <time>2013-08-11T13:23:17Z</time>
      </trkpt>
      <trkpt lat="45.71928" lon="6.24722">
        <ele>1438.6571</ele>
        <time>2013-08-11T13:23:23Z</time>
      </trkpt>
      <trkpt lat="45.71928" lon="6.24722">
        <ele>1438.6571</ele>
        <time>2013-08-11T13:23:27Z</time>
      </trkpt>
      <trkpt lat="45.71928" lon="6.24722">
        <ele>1438.6571</ele>
        <time>2013-08-11T13:23:32Z</time>
      </trkpt>
      <trkpt lat="45.71928" lon="6.24722">
        <ele>1438.6571</ele>
        <time>2013-08-11T13:23:37Z</time>
      </trkpt>
      <trkpt lat="45.71928" lon="6.24722">
        <ele>1438.6571</ele>
        <time>2013-08-11T13:23:42Z</time>
      </trkpt>
      <trkpt lat="45.71928" lon="6.24722">
        <ele>1438.6571</ele>
        <time>2013-08-11T13:23:47Z</time>
      </trkpt>
      <trkpt lat="45.71928" lon="6.24722">
        <ele>1438.6571</ele>
        <time>2013-08-11T13:23:53Z</time>
      </trkpt>
      <trkpt lat="45.71928" lon="6.24722">
        <ele>1438.6571</ele>
        <time>2013-08-11T13:23:57Z</time>
      </trkpt>
      <trkpt lat="45.71928" lon="6.24722">
        <ele>1438.6571</ele>
        <time>2013-08-11T13:24:02Z</time>
      </trkpt>
      <trkpt lat="45.71928" lon="6.24722">
        <ele>1438.6571</ele>
        <time>2013-08-11T13:24:12Z</time>
      </trkpt>
      <trkpt lat="45.71928" lon="6.24722">
        <ele>1438.6571</ele>
        <time>2013-08-11T13:24:17Z</time>
      </trkpt>
      <trkpt lat="45.71928" lon="6.24722">
        <ele>1438.6571</ele>
        <time>2013-08-11T13:24:23Z</time>
      </trkpt>
      <trkpt lat="45.71928" lon="6.24722">
        <ele>1438.6571</ele>
        <time>2013-08-11T13:24:27Z</time>
      </trkpt>
      <trkpt lat="45.71928" lon="6.24722">
        <ele>1438.6571</ele>
        <time>2013-08-11T13:24:32Z</time>
      </trkpt>
      <trkpt lat="45.71928" lon="6.24722">
        <ele>1438.6571</ele>
        <time>2013-08-11T13:24:37Z</time>
      </trkpt>
      <trkpt lat="45.71928" lon="6.24722">
        <ele>1438.6571</ele>
        <time>2013-08-11T13:24:43Z</time>
      </trkpt>
      <trkpt lat="45.71928" lon="6.24722">
        <ele>1438.6571</ele>
        <time>2013-08-11T13:24:47Z</time>
      </trkpt>
      <trkpt lat="45.71928" lon="6.24722">
        <ele>1438.6571</ele>
        <time>2013-08-11T13:24:52Z</time>
      </trkpt>
      <trkpt lat="45.71928" lon="6.24722">
        <ele>1438.6571</ele>
        <time>2013-08-11T13:24:57Z</time>
      </trkpt>
      <trkpt lat="45.71928" lon="6.24722">
        <ele>1438.6571</ele>
        <time>2013-08-11T13:25:02Z</time>
      </trkpt>
      <trkpt lat="45.71928" lon="6.24723">
        <ele>1438.6571</ele>
        <time>2013-08-11T13:25:08Z</time>
      </trkpt>
      <trkpt lat="45.71926" lon="6.24731">
        <ele>1438.6571</ele>
        <time>2013-08-11T13:25:12Z</time>
      </trkpt>
      <trkpt lat="45.71926" lon="6.2474">
        <ele>1439.7272</ele>
        <time>2013-08-11T13:25:17Z</time>
      </trkpt>
      <trkpt lat="45.71926" lon="6.24742">
        <ele>1439.7272</ele>
        <time>2013-08-11T13:25:23Z</time>
      </trkpt>
      <trkpt lat="45.71928" lon="6.24758">
        <ele>1440.838</ele>
        <time>2013-08-11T13:25:27Z</time>
      </trkpt>
      <trkpt lat="45.7193" lon="6.24758">
        <ele>1440.838</ele>
        <time>2013-08-11T13:25:32Z</time>
      </trkpt>
      <trkpt lat="45.7193" lon="6.2476">
        <ele>1440.838</ele>
        <time>2013-08-11T13:25:38Z</time>
      </trkpt>
      <trkpt lat="45.71929" lon="6.24761">
        <ele>1440.838</ele>
        <time>2013-08-11T13:25:42Z</time>
      </trkpt>
      <trkpt lat="45.71929" lon="6.24761">
        <ele>1440.838</ele>
        <time>2013-08-11T13:25:47Z</time>
      </trkpt>
      <trkpt lat="45.71929" lon="6.24761">
        <ele>1440.838</ele>
        <time>2013-08-11T13:25:53Z</time>
      </trkpt>
      <trkpt lat="45.71929" lon="6.24761">
        <ele>1440.838</ele>
        <time>2013-08-11T13:25:57Z</time>
      </trkpt>
      <trkpt lat="45.71931" lon="6.24762">
        <ele>1440.838</ele>
        <time>2013-08-11T13:26:02Z</time>
      </trkpt>
      <trkpt lat="45.71931" lon="6.24765">
        <ele>1440.838</ele>
        <time>2013-08-11T13:26:07Z</time>
      </trkpt>
      <trkpt lat="45.71927" lon="6.24774">
        <ele>1442.4563</ele>
        <time>2013-08-11T13:26:12Z</time>
      </trkpt>
      <trkpt lat="45.71924" lon="6.24778">
        <ele>1442.4563</ele>
        <time>2013-08-11T13:26:17Z</time>
      </trkpt>
      <trkpt lat="45.71919" lon="6.2478">
        <ele>1443.0532</ele>
        <time>2013-08-11T13:26:22Z</time>
      </trkpt>
      <trkpt lat="45.71915" lon="6.24784">
        <ele>1443.0532</ele>
        <time>2013-08-11T13:26:27Z</time>
      </trkpt>
      <trkpt lat="45.71911" lon="6.24788">
        <ele>1443.4487</ele>
        <time>2013-08-11T13:26:32Z</time>
      </trkpt>
      <trkpt lat="45.71908" lon="6.24791">
        <ele>1443.4487</ele>
        <time>2013-08-11T13:26:38Z</time>
      </trkpt>
      <trkpt lat="45.71906" lon="6.24792">
        <ele>1443.4487</ele>
        <time>2013-08-11T13:26:42Z</time>
      </trkpt>
      <trkpt lat="45.71902" lon="6.24795">
        <ele>1443.7263</ele>
        <time>2013-08-11T13:26:47Z</time>
      </trkpt>
      <trkpt lat="45.71897" lon="6.24798">
        <ele>1443.7263</ele>
        <time>2013-08-11T13:26:53Z</time>
      </trkpt>
      <trkpt lat="45.71892" lon="6.24804">
        <ele>1444.122</ele>
        <time>2013-08-11T13:26:57Z</time>
      </trkpt>
      <trkpt lat="45.71889" lon="6.24807">
        <ele>1444.122</ele>
        <time>2013-08-11T13:27:02Z</time>
      </trkpt>
      <trkpt lat="45.71885" lon="6.24809">
        <ele>1444.122</ele>
        <time>2013-08-11T13:27:07Z</time>
      </trkpt>
      <trkpt lat="45.71877" lon="6.24811">
        <ele>1444.5519</ele>
        <time>2013-08-11T13:27:12Z</time>
      </trkpt>
      <trkpt lat="45.71874" lon="6.24814">
        <ele>1444.5519</ele>
        <time>2013-08-11T13:27:17Z</time>
      </trkpt>
      <trkpt lat="45.71872" lon="6.24816">
        <ele>1444.5519</ele>
        <time>2013-08-11T13:27:22Z</time>
      </trkpt>
      <trkpt lat="45.71873" lon="6.24818">
        <ele>1444.5519</ele>
        <time>2013-08-11T13:27:28Z</time>
      </trkpt>
      <trkpt lat="45.71872" lon="6.24818">
        <ele>1444.5519</ele>
        <time>2013-08-11T13:27:32Z</time>
      </trkpt>
      <trkpt lat="45.71872" lon="6.24818">
        <ele>1444.5519</ele>
        <time>2013-08-11T13:27:38Z</time>
      </trkpt>
      <trkpt lat="45.71872" lon="6.24818">
        <ele>1444.5519</ele>
        <time>2013-08-11T13:27:47Z</time>
      </trkpt>
      <trkpt lat="45.71872" lon="6.24818">
        <ele>1444.5519</ele>
        <time>2013-08-11T13:27:53Z</time>
      </trkpt>
      <trkpt lat="45.71872" lon="6.24818">
        <ele>1444.5519</ele>
        <time>2013-08-11T13:27:57Z</time>
      </trkpt>
      <trkpt lat="45.71872" lon="6.24816">
        <ele>1444.6932</ele>
        <time>2013-08-11T13:28:02Z</time>
      </trkpt>
      <trkpt lat="45.7187" lon="6.24812">
        <ele>1444.6932</ele>
        <time>2013-08-11T13:28:07Z</time>
      </trkpt>
      <trkpt lat="45.71869" lon="6.24812">
        <ele>1444.6932</ele>
        <time>2013-08-11T13:28:13Z</time>
      </trkpt>
      <trkpt lat="45.71865" lon="6.24809">
        <ele>1444.6932</ele>
        <time>2013-08-11T13:28:17Z</time>
      </trkpt>
      <trkpt lat="45.71862" lon="6.24808">
        <ele>1444.5793</ele>
        <time>2013-08-11T13:28:22Z</time>
      </trkpt>
      <trkpt lat="45.7186" lon="6.24807">
        <ele>1444.5793</ele>
        <time>2013-08-11T13:28:28Z</time>
      </trkpt>
      <trkpt lat="45.71853" lon="6.24803">
        <ele>1445.2219</ele>
        <time>2013-08-11T13:28:32Z</time>
      </trkpt>
      <trkpt lat="45.71847" lon="6.248">
        <ele>1445.2219</ele>
        <time>2013-08-11T13:28:37Z</time>
      </trkpt>
      <trkpt lat="45.71845" lon="6.248">
        <ele>1445.2219</ele>
        <time>2013-08-11T13:28:43Z</time>
      </trkpt>
      <trkpt lat="45.71839" lon="6.24796">
        <ele>1446.0576</ele>
        <time>2013-08-11T13:28:47Z</time>
      </trkpt>
      <trkpt lat="45.71835" lon="6.2479">
        <ele>1446.0576</ele>
        <time>2013-08-11T13:28:52Z</time>
      </trkpt>
      <trkpt lat="45.71834" lon="6.24789">
        <ele>1446.0576</ele>
        <time>2013-08-11T13:28:59Z</time>
      </trkpt>
      <trkpt lat="45.71826" lon="6.24784">
        <ele>1447.0542</ele>
        <time>2013-08-11T13:29:02Z</time>
      </trkpt>
      <trkpt lat="45.71821" lon="6.24782">
        <ele>1447.0542</ele>
        <time>2013-08-11T13:29:07Z</time>
      </trkpt>
      <trkpt lat="45.71819" lon="6.24781">
        <ele>1447.0542</ele>
        <time>2013-08-11T13:29:13Z</time>
      </trkpt>
      <trkpt lat="45.71811" lon="6.24778">
        <ele>1448.0659</ele>
        <time>2013-08-11T13:29:17Z</time>
      </trkpt>
      <trkpt lat="45.71805" lon="6.24774">
        <ele>1448.0659</ele>
        <time>2013-08-11T13:29:22Z</time>
      </trkpt>
      <trkpt lat="45.71803" lon="6.24772">
        <ele>1448.9724</ele>
        <time>2013-08-11T13:29:28Z</time>
      </trkpt>
      <trkpt lat="45.71794" lon="6.24765">
        <ele>1449.3743</ele>
        <time>2013-08-11T13:29:32Z</time>
      </trkpt>
      <trkpt lat="45.71788" lon="6.24763">
        <ele>1449.3743</ele>
        <time>2013-08-11T13:29:37Z</time>
      </trkpt>
      <trkpt lat="45.71786" lon="6.24761">
        <ele>1449.3743</ele>
        <time>2013-08-11T13:29:42Z</time>
      </trkpt>
      <trkpt lat="45.71777" lon="6.24757">
        <ele>1449.4075</ele>
        <time>2013-08-11T13:29:47Z</time>
      </trkpt>
      <trkpt lat="45.71772" lon="6.24756">
        <ele>1449.4075</ele>
        <time>2013-08-11T13:29:52Z</time>
      </trkpt>
      <trkpt lat="45.71769" lon="6.24755">
        <ele>1449.4075</ele>
        <time>2013-08-11T13:29:58Z</time>
      </trkpt>
      <trkpt lat="45.71757" lon="6.24754">
        <ele>1449.3433</ele>
        <time>2013-08-11T13:30:02Z</time>
      </trkpt>
      <trkpt lat="45.71754" lon="6.2475">
        <ele>1449.3433</ele>
        <time>2013-08-11T13:30:07Z</time>
      </trkpt>
      <trkpt lat="45.7175" lon="6.24745">
        <ele>1449.1451</ele>
        <time>2013-08-11T13:30:13Z</time>
      </trkpt>
      <trkpt lat="45.71746" lon="6.24744">
        <ele>1449.1451</ele>
        <time>2013-08-11T13:30:17Z</time>
      </trkpt>
      <trkpt lat="45.71742" lon="6.24742">
        <ele>1449.1451</ele>
        <time>2013-08-11T13:30:22Z</time>
      </trkpt>
      <trkpt lat="45.71736" lon="6.24737">
        <ele>1448.9525</ele>
        <time>2013-08-11T13:30:28Z</time>
      </trkpt>
      <trkpt lat="45.71731" lon="6.24732">
        <ele>1448.9525</ele>
        <time>2013-08-11T13:30:32Z</time>
      </trkpt>
      <trkpt lat="45.71728" lon="6.24727">
        <ele>1448.8518</ele>
        <time>2013-08-11T13:30:37Z</time>
      </trkpt>
      <trkpt lat="45.71725" lon="6.24722">
        <ele>1448.8518</ele>
        <time>2013-08-11T13:30:43Z</time>
      </trkpt>
      <trkpt lat="45.71724" lon="6.2472">
        <ele>1448.8518</ele>
        <time>2013-08-11T13:30:47Z</time>
      </trkpt>
      <trkpt lat="45.71723" lon="6.24721">
        <ele>1448.8518</ele>
        <time>2013-08-11T13:30:53Z</time>
      </trkpt>
      <trkpt lat="45.71723" lon="6.24719">
        <ele>1448.8518</ele>
        <time>2013-08-11T13:30:57Z</time>
      </trkpt>
      <trkpt lat="45.71721" lon="6.24715">
        <ele>1448.7351</ele>
        <time>2013-08-11T13:31:02Z</time>
      </trkpt>
      <trkpt lat="45.71717" lon="6.24709">
        <ele>1448.7351</ele>
        <time>2013-08-11T13:31:08Z</time>
      </trkpt>
      <trkpt lat="45.71717" lon="6.24703">
        <ele>1448.258</ele>
        <time>2013-08-11T13:31:13Z</time>
      </trkpt>
      <trkpt lat="45.71717" lon="6.24698">
        <ele>1448.258</ele>
        <time>2013-08-11T13:31:17Z</time>
      </trkpt>
      <trkpt lat="45.71711" lon="6.24686">
        <ele>1446.5116</ele>
        <time>2013-08-11T13:31:23Z</time>
      </trkpt>
      <trkpt lat="45.71705" lon="6.24676">
        <ele>1444.4729</ele>
        <time>2013-08-11T13:31:27Z</time>
      </trkpt>
      <trkpt lat="45.71696" lon="6.24667">
        <ele>1442.8319</ele>
        <time>2013-08-11T13:31:32Z</time>
      </trkpt>
      <trkpt lat="45.71693" lon="6.24661">
        <ele>1442.8319</ele>
        <time>2013-08-11T13:31:37Z</time>
      </trkpt>
      <trkpt lat="45.71692" lon="6.24659">
        <ele>1442.8319</ele>
        <time>2013-08-11T13:31:42Z</time>
      </trkpt>
      <trkpt lat="45.71692" lon="6.24657">
        <ele>1442.8319</ele>
        <time>2013-08-11T13:31:47Z</time>
      </trkpt>
      <trkpt lat="45.71687" lon="6.24649">
        <ele>1441.5785</ele>
        <time>2013-08-11T13:31:52Z</time>
      </trkpt>
      <trkpt lat="45.71678" lon="6.24642">
        <ele>1440.1979</ele>
        <time>2013-08-11T13:31:58Z</time>
      </trkpt>
      <trkpt lat="45.71675" lon="6.24636">
        <ele>1440.1979</ele>
        <time>2013-08-11T13:32:02Z</time>
      </trkpt>
      <trkpt lat="45.71668" lon="6.2463">
        <ele>1439.1068</ele>
        <time>2013-08-11T13:32:07Z</time>
      </trkpt>
      <trkpt lat="45.71665" lon="6.24624">
        <ele>1439.1068</ele>
        <time>2013-08-11T13:32:13Z</time>
      </trkpt>
      <trkpt lat="45.71663" lon="6.2462">
        <ele>1439.1068</ele>
        <time>2013-08-11T13:32:17Z</time>
      </trkpt>
      <trkpt lat="45.71661" lon="6.24621">
        <ele>1437.2495</ele>
        <time>2013-08-11T13:32:22Z</time>
      </trkpt>
      <trkpt lat="45.7166" lon="6.24621">
        <ele>1437.2495</ele>
        <time>2013-08-11T13:32:28Z</time>
      </trkpt>
      <trkpt lat="45.71659" lon="6.24621">
        <ele>1437.2495</ele>
        <time>2013-08-11T13:32:32Z</time>
      </trkpt>
      <trkpt lat="45.71659" lon="6.24621">
        <ele>1437.2495</ele>
        <time>2013-08-11T13:32:37Z</time>
      </trkpt>
      <trkpt lat="45.71659" lon="6.24621">
        <ele>1437.2495</ele>
        <time>2013-08-11T13:32:43Z</time>
      </trkpt>
      <trkpt lat="45.71659" lon="6.24621">
        <ele>1437.2495</ele>
        <time>2013-08-11T13:32:47Z</time>
      </trkpt>
      <trkpt lat="45.71659" lon="6.24621">
        <ele>1437.2495</ele>
        <time>2013-08-11T13:32:52Z</time>
      </trkpt>
      <trkpt lat="45.71659" lon="6.24621">
        <ele>1437.2495</ele>
        <time>2013-08-11T13:32:57Z</time>
      </trkpt>
      <trkpt lat="45.71659" lon="6.24621">
        <ele>1437.2495</ele>
        <time>2013-08-11T13:33:02Z</time>
      </trkpt>
      <trkpt lat="45.71659" lon="6.24621">
        <ele>1437.2495</ele>
        <time>2013-08-11T13:33:07Z</time>
      </trkpt>
      <trkpt lat="45.71659" lon="6.24621">
        <ele>1437.2495</ele>
        <time>2013-08-11T13:33:12Z</time>
      </trkpt>
      <trkpt lat="45.71659" lon="6.24621">
        <ele>1437.2495</ele>
        <time>2013-08-11T13:33:18Z</time>
      </trkpt>
      <trkpt lat="45.71659" lon="6.24621">
        <ele>1437.2495</ele>
        <time>2013-08-11T13:33:22Z</time>
      </trkpt>
      <trkpt lat="45.71659" lon="6.24621">
        <ele>1437.2495</ele>
        <time>2013-08-11T13:33:28Z</time>
      </trkpt>
      <trkpt lat="45.71659" lon="6.24621">
        <ele>1437.2495</ele>
        <time>2013-08-11T13:33:32Z</time>
      </trkpt>
      <trkpt lat="45.71659" lon="6.24621">
        <ele>1437.2495</ele>
        <time>2013-08-11T13:33:37Z</time>
      </trkpt>
      <trkpt lat="45.71659" lon="6.24621">
        <ele>1437.2495</ele>
        <time>2013-08-11T13:33:42Z</time>
      </trkpt>
      <trkpt lat="45.71659" lon="6.24621">
        <ele>1437.2495</ele>
        <time>2013-08-11T13:33:47Z</time>
      </trkpt>
      <trkpt lat="45.71659" lon="6.24621">
        <ele>1437.2495</ele>
        <time>2013-08-11T13:33:52Z</time>
      </trkpt>
      <trkpt lat="45.71659" lon="6.24621">
        <ele>1437.2495</ele>
        <time>2013-08-11T13:33:58Z</time>
      </trkpt>
      <trkpt lat="45.71659" lon="6.24621">
        <ele>1437.2495</ele>
        <time>2013-08-11T13:34:02Z</time>
      </trkpt>
      <trkpt lat="45.71659" lon="6.24621">
        <ele>1437.2495</ele>
        <time>2013-08-11T13:34:07Z</time>
      </trkpt>
      <trkpt lat="45.71659" lon="6.24621">
        <ele>1437.2495</ele>
        <time>2013-08-11T13:34:13Z</time>
      </trkpt>
      <trkpt lat="45.71659" lon="6.24621">
        <ele>1437.2495</ele>
        <time>2013-08-11T13:34:17Z</time>
      </trkpt>
      <trkpt lat="45.71659" lon="6.24621">
        <ele>1437.2495</ele>
        <time>2013-08-11T13:34:22Z</time>
      </trkpt>
      <trkpt lat="45.71658" lon="6.24621">
        <ele>1437.2495</ele>
        <time>2013-08-11T13:34:28Z</time>
      </trkpt>
      <trkpt lat="45.71653" lon="6.2462">
        <ele>1437.2495</ele>
        <time>2013-08-11T13:34:32Z</time>
      </trkpt>
      <trkpt lat="45.71648" lon="6.24613">
        <ele>1435.4657</ele>
        <time>2013-08-11T13:34:37Z</time>
      </trkpt>
      <trkpt lat="45.71647" lon="6.24607">
        <ele>1435.4657</ele>
        <time>2013-08-11T13:34:43Z</time>
      </trkpt>
      <trkpt lat="45.71645" lon="6.24603">
        <ele>1435.4657</ele>
        <time>2013-08-11T13:34:48Z</time>
      </trkpt>
      <trkpt lat="45.71643" lon="6.24595">
        <ele>1433.8704</ele>
        <time>2013-08-11T13:34:52Z</time>
      </trkpt>
      <trkpt lat="45.7164" lon="6.24589">
        <ele>1433.8704</ele>
        <time>2013-08-11T13:34:57Z</time>
      </trkpt>
      <trkpt lat="45.71637" lon="6.24585">
        <ele>1433.8704</ele>
        <time>2013-08-11T13:35:03Z</time>
      </trkpt>
      <trkpt lat="45.71634" lon="6.24577">
        <ele>1432.3242</ele>
        <time>2013-08-11T13:35:07Z</time>
      </trkpt>
      <trkpt lat="45.71629" lon="6.24575">
        <ele>1432.3242</ele>
        <time>2013-08-11T13:35:12Z</time>
      </trkpt>
      <trkpt lat="45.71621" lon="6.24575">
        <ele>1431.2748</ele>
        <time>2013-08-11T13:35:18Z</time>
      </trkpt>
      <trkpt lat="45.71617" lon="6.24573">
        <ele>1431.2748</ele>
        <time>2013-08-11T13:35:22Z</time>
      </trkpt>
      <trkpt lat="45.71613" lon="6.24575">
        <ele>1431.2748</ele>
        <time>2013-08-11T13:35:27Z</time>
      </trkpt>
      <trkpt lat="45.71608" lon="6.24572">
        <ele>1430.3713</ele>
        <time>2013-08-11T13:35:33Z</time>
      </trkpt>
      <trkpt lat="45.71603" lon="6.2457">
        <ele>1430.3713</ele>
        <time>2013-08-11T13:35:37Z</time>
      </trkpt>
      <trkpt lat="45.71596" lon="6.24571">
        <ele>1429.1874</ele>
        <time>2013-08-11T13:35:42Z</time>
      </trkpt>
      <trkpt lat="45.71589" lon="6.24571">
        <ele>1429.1874</ele>
        <time>2013-08-11T13:35:48Z</time>
      </trkpt>
      <trkpt lat="45.71579" lon="6.2457">
        <ele>1428.1357</ele>
        <time>2013-08-11T13:35:52Z</time>
      </trkpt>
      <trkpt lat="45.71572" lon="6.24566">
        <ele>1428.1357</ele>
        <time>2013-08-11T13:35:57Z</time>
      </trkpt>
      <trkpt lat="45.71569" lon="6.24563">
        <ele>1427.0076</ele>
        <time>2013-08-11T13:36:03Z</time>
      </trkpt>
      <trkpt lat="45.71562" lon="6.24555">
        <ele>1427.0076</ele>
        <time>2013-08-11T13:36:07Z</time>
      </trkpt>
      <trkpt lat="45.71555" lon="6.24552">
        <ele>1425.6095</ele>
        <time>2013-08-11T13:36:12Z</time>
      </trkpt>
      <trkpt lat="45.71552" lon="6.2455">
        <ele>1425.6095</ele>
        <time>2013-08-11T13:36:18Z</time>
      </trkpt>
      <trkpt lat="45.71542" lon="6.24547">
        <ele>1423.8062</ele>
        <time>2013-08-11T13:36:22Z</time>
      </trkpt>
      <trkpt lat="45.71538" lon="6.24541">
        <ele>1423.8062</ele>
        <time>2013-08-11T13:36:27Z</time>
      </trkpt>
      <trkpt lat="45.71535" lon="6.24534">
        <ele>1422.0353</ele>
        <time>2013-08-11T13:36:32Z</time>
      </trkpt>
      <trkpt lat="45.71529" lon="6.24529">
        <ele>1422.0353</ele>
        <time>2013-08-11T13:36:38Z</time>
      </trkpt>
      <trkpt lat="45.71529" lon="6.24525">
        <ele>1419.7946</ele>
        <time>2013-08-11T13:36:42Z</time>
      </trkpt>
      <trkpt lat="45.71527" lon="6.24523">
        <ele>1419.7946</ele>
        <time>2013-08-11T13:36:47Z</time>
      </trkpt>
      <trkpt lat="45.71527" lon="6.24523">
        <ele>1419.7946</ele>
        <time>2013-08-11T13:36:54Z</time>
      </trkpt>
      <trkpt lat="45.71513" lon="6.24522">
        <ele>1417.3398</ele>
        <time>2013-08-11T13:36:57Z</time>
      </trkpt>
      <trkpt lat="45.71503" lon="6.24521">
        <ele>1415.0679</ele>
        <time>2013-08-11T13:37:02Z</time>
      </trkpt>
      <trkpt lat="45.71498" lon="6.24521">
        <ele>1415.0679</ele>
        <time>2013-08-11T13:37:08Z</time>
      </trkpt>
      <trkpt lat="45.71486" lon="6.24521">
        <ele>1412.9849</ele>
        <time>2013-08-11T13:37:12Z</time>
      </trkpt>
      <trkpt lat="45.71483" lon="6.24517">
        <ele>1412.9849</ele>
        <time>2013-08-11T13:37:17Z</time>
      </trkpt>
      <trkpt lat="45.7148" lon="6.24513">
        <ele>1412.9849</ele>
        <time>2013-08-11T13:37:22Z</time>
      </trkpt>
      <trkpt lat="45.71476" lon="6.24509">
        <ele>1411.0095</ele>
        <time>2013-08-11T13:37:27Z</time>
      </trkpt>
      <trkpt lat="45.71474" lon="6.24507">
        <ele>1411.0095</ele>
        <time>2013-08-11T13:37:32Z</time>
      </trkpt>
      <trkpt lat="45.71472" lon="6.24507">
        <ele>1411.0095</ele>
        <time>2013-08-11T13:37:37Z</time>
      </trkpt>
      <trkpt lat="45.71468" lon="6.24505">
        <ele>1409.1096</ele>
        <time>2013-08-11T13:37:43Z</time>
      </trkpt>
      <trkpt lat="45.71457" lon="6.24502">
        <ele>1407.4275</ele>
        <time>2013-08-11T13:37:47Z</time>
      </trkpt>
      <trkpt lat="45.71446" lon="6.24503">
        <ele>1405.6477</ele>
        <time>2013-08-11T13:37:52Z</time>
      </trkpt>
      <trkpt lat="45.71443" lon="6.24506">
        <ele>1405.6477</ele>
        <time>2013-08-11T13:37:58Z</time>
      </trkpt>
      <trkpt lat="45.71434" lon="6.2451">
        <ele>1403.4928</ele>
        <time>2013-08-11T13:38:02Z</time>
      </trkpt>
      <trkpt lat="45.71424" lon="6.24511">
        <ele>1401.6284</ele>
        <time>2013-08-11T13:38:07Z</time>
      </trkpt>
      <trkpt lat="45.71409" lon="6.24506">
        <ele>1399.5468</ele>
        <time>2013-08-11T13:38:17Z</time>
      </trkpt>
      <trkpt lat="45.71403" lon="6.24505">
        <ele>1399.5468</ele>
        <time>2013-08-11T13:38:22Z</time>
      </trkpt>
      <trkpt lat="45.71395" lon="6.24504">
        <ele>1398.1033</ele>
        <time>2013-08-11T13:38:28Z</time>
      </trkpt>
      <trkpt lat="45.71392" lon="6.24499">
        <ele>1398.1033</ele>
        <time>2013-08-11T13:38:32Z</time>
      </trkpt>
      <trkpt lat="45.71387" lon="6.24497">
        <ele>1396.547</ele>
        <time>2013-08-11T13:38:37Z</time>
      </trkpt>
      <trkpt lat="45.71383" lon="6.24501">
        <ele>1396.547</ele>
        <time>2013-08-11T13:38:43Z</time>
      </trkpt>
      <trkpt lat="45.71383" lon="6.24502">
        <ele>1396.547</ele>
        <time>2013-08-11T13:38:47Z</time>
      </trkpt>
      <trkpt lat="45.71384" lon="6.24502">
        <ele>1396.547</ele>
        <time>2013-08-11T13:38:52Z</time>
      </trkpt>
      <trkpt lat="45.71383" lon="6.24502">
        <ele>1396.547</ele>
        <time>2013-08-11T13:38:57Z</time>
      </trkpt>
      <trkpt lat="45.71383" lon="6.24502">
        <ele>1396.547</ele>
        <time>2013-08-11T13:39:02Z</time>
      </trkpt>
      <trkpt lat="45.71384" lon="6.24502">
        <ele>1396.547</ele>
        <time>2013-08-11T13:39:07Z</time>
      </trkpt>
      <trkpt lat="45.71383" lon="6.24502">
        <ele>1396.547</ele>
        <time>2013-08-11T13:39:15Z</time>
      </trkpt>
      <trkpt lat="45.71383" lon="6.24502">
        <ele>1396.547</ele>
        <time>2013-08-11T13:39:17Z</time>
      </trkpt>
      <trkpt lat="45.71383" lon="6.24501">
        <ele>1396.547</ele>
        <time>2013-08-11T13:39:22Z</time>
      </trkpt>
      <trkpt lat="45.71381" lon="6.245">
        <ele>1395.1042</ele>
        <time>2013-08-11T13:39:28Z</time>
      </trkpt>
      <trkpt lat="45.7137" lon="6.24495">
        <ele>1393.6243</ele>
        <time>2013-08-11T13:39:32Z</time>
      </trkpt>
      <trkpt lat="45.71366" lon="6.24489">
        <ele>1393.6243</ele>
        <time>2013-08-11T13:39:37Z</time>
      </trkpt>
      <trkpt lat="45.71363" lon="6.24486">
        <ele>1392.7456</ele>
        <time>2013-08-11T13:39:43Z</time>
      </trkpt>
      <trkpt lat="45.71356" lon="6.24477">
        <ele>1391.8328</ele>
        <time>2013-08-11T13:39:47Z</time>
      </trkpt>
      <trkpt lat="45.71353" lon="6.2447">
        <ele>1391.8328</ele>
        <time>2013-08-11T13:39:52Z</time>
      </trkpt>
      <trkpt lat="45.7135" lon="6.24468">
        <ele>1391.8328</ele>
        <time>2013-08-11T13:39:57Z</time>
      </trkpt>
      <trkpt lat="45.71344" lon="6.24461">
        <ele>1391.1477</ele>
        <time>2013-08-11T13:40:02Z</time>
      </trkpt>
      <trkpt lat="45.71341" lon="6.24455">
        <ele>1391.1477</ele>
        <time>2013-08-11T13:40:07Z</time>
      </trkpt>
      <trkpt lat="45.71338" lon="6.24452">
        <ele>1391.1477</ele>
        <time>2013-08-11T13:40:12Z</time>
      </trkpt>
      <trkpt lat="45.71333" lon="6.24446">
        <ele>1390.7302</ele>
        <time>2013-08-11T13:40:17Z</time>
      </trkpt>
      <trkpt lat="45.7133" lon="6.24438">
        <ele>1390.7302</ele>
        <time>2013-08-11T13:40:22Z</time>
      </trkpt>
      <trkpt lat="45.71328" lon="6.24433">
        <ele>1389.8816</ele>
        <time>2013-08-11T13:40:28Z</time>
      </trkpt>
      <trkpt lat="45.71328" lon="6.24432">
        <ele>1389.8816</ele>
        <time>2013-08-11T13:40:32Z</time>
      </trkpt>
      <trkpt lat="45.71328" lon="6.24433">
        <ele>1389.8816</ele>
        <time>2013-08-11T13:40:37Z</time>
      </trkpt>
      <trkpt lat="45.71328" lon="6.24433">
        <ele>1389.8816</ele>
        <time>2013-08-11T13:40:42Z</time>
      </trkpt>
      <trkpt lat="45.71328" lon="6.24433">
        <ele>1389.8816</ele>
        <time>2013-08-11T13:40:47Z</time>
      </trkpt>
      <trkpt lat="45.71327" lon="6.24431">
        <ele>1389.8816</ele>
        <time>2013-08-11T13:40:52Z</time>
      </trkpt>
      <trkpt lat="45.71324" lon="6.24425">
        <ele>1389.8816</ele>
        <time>2013-08-11T13:40:58Z</time>
      </trkpt>
      <trkpt lat="45.71318" lon="6.2442">
        <ele>1389.4254</ele>
        <time>2013-08-11T13:41:02Z</time>
      </trkpt>
      <trkpt lat="45.71314" lon="6.24414">
        <ele>1389.4254</ele>
        <time>2013-08-11T13:41:07Z</time>
      </trkpt>
      <trkpt lat="45.71309" lon="6.2441">
        <ele>1389.3167</ele>
        <time>2013-08-11T13:41:12Z</time>
      </trkpt>
      <trkpt lat="45.71307" lon="6.24406">
        <ele>1389.3167</ele>
        <time>2013-08-11T13:41:18Z</time>
      </trkpt>
      <trkpt lat="45.71302" lon="6.244">
        <ele>1389.253</ele>
        <time>2013-08-11T13:41:22Z</time>
      </trkpt>
      <trkpt lat="45.71295" lon="6.24397">
        <ele>1389.253</ele>
        <time>2013-08-11T13:41:27Z</time>
      </trkpt>
      <trkpt lat="45.71291" lon="6.24392">
        <ele>1389.6752</ele>
        <time>2013-08-11T13:41:32Z</time>
      </trkpt>
      <trkpt lat="45.71286" lon="6.24389">
        <ele>1389.6752</ele>
        <time>2013-08-11T13:41:39Z</time>
      </trkpt>
      <trkpt lat="45.71284" lon="6.24387">
        <ele>1389.6752</ele>
        <time>2013-08-11T13:41:42Z</time>
      </trkpt>
      <trkpt lat="45.71279" lon="6.24384">
        <ele>1389.9374</ele>
        <time>2013-08-11T13:41:47Z</time>
      </trkpt>
      <trkpt lat="45.71274" lon="6.24379">
        <ele>1389.9374</ele>
        <time>2013-08-11T13:41:52Z</time>
      </trkpt>
      <trkpt lat="45.71271" lon="6.24374">
        <ele>1390.307</ele>
        <time>2013-08-11T13:41:58Z</time>
      </trkpt>
      <trkpt lat="45.71269" lon="6.24364">
        <ele>1390.307</ele>
        <time>2013-08-11T13:42:02Z</time>
      </trkpt>
      <trkpt lat="45.7127" lon="6.24358">
        <ele>1390.9448</ele>
        <time>2013-08-11T13:42:07Z</time>
      </trkpt>
      <trkpt lat="45.7127" lon="6.24356">
        <ele>1390.9448</ele>
        <time>2013-08-11T13:42:13Z</time>
      </trkpt>
      <trkpt lat="45.71269" lon="6.24357">
        <ele>1390.9448</ele>
        <time>2013-08-11T13:42:17Z</time>
      </trkpt>
      <trkpt lat="45.71267" lon="6.24357">
        <ele>1390.9448</ele>
        <time>2013-08-11T13:42:22Z</time>
      </trkpt>
      <trkpt lat="45.71267" lon="6.24357">
        <ele>1390.9448</ele>
        <time>2013-08-11T13:42:28Z</time>
      </trkpt>
      <trkpt lat="45.71259" lon="6.24358">
        <ele>1390.7883</ele>
        <time>2013-08-11T13:42:32Z</time>
      </trkpt>
      <trkpt lat="45.71257" lon="6.24356">
        <ele>1390.7883</ele>
        <time>2013-08-11T13:42:37Z</time>
      </trkpt>
      <trkpt lat="45.71256" lon="6.2435">
        <ele>1390.7883</ele>
        <time>2013-08-11T13:42:42Z</time>
      </trkpt>
      <trkpt lat="45.71258" lon="6.24346">
        <ele>1390.2535</ele>
        <time>2013-08-11T13:42:47Z</time>
      </trkpt>
      <trkpt lat="45.71258" lon="6.24345">
        <ele>1390.2535</ele>
        <time>2013-08-11T13:42:52Z</time>
      </trkpt>
      <trkpt lat="45.71258" lon="6.24342">
        <ele>1390.2535</ele>
        <time>2013-08-11T13:42:57Z</time>
      </trkpt>
      <trkpt lat="45.71258" lon="6.2434">
        <ele>1390.2535</ele>
        <time>2013-08-11T13:43:03Z</time>
      </trkpt>
      <trkpt lat="45.71259" lon="6.24338">
        <ele>1390.2535</ele>
        <time>2013-08-11T13:43:07Z</time>
      </trkpt>
      <trkpt lat="45.71262" lon="6.24331">
        <ele>1389.4817</ele>
        <time>2013-08-11T13:43:12Z</time>
      </trkpt>
      <trkpt lat="45.71263" lon="6.2433">
        <ele>1389.4817</ele>
        <time>2013-08-11T13:43:18Z</time>
      </trkpt>
      <trkpt lat="45.71266" lon="6.24322">
        <ele>1389.4817</ele>
        <time>2013-08-11T13:43:22Z</time>
      </trkpt>
      <trkpt lat="45.71266" lon="6.24319">
        <ele>1388.6334</ele>
        <time>2013-08-11T13:43:27Z</time>
      </trkpt>
      <trkpt lat="45.71267" lon="6.24309">
        <ele>1388.6334</ele>
        <time>2013-08-11T13:43:33Z</time>
      </trkpt>
      <trkpt lat="45.71264" lon="6.24306">
        <ele>1387.6125</ele>
        <time>2013-08-11T13:43:37Z</time>
      </trkpt>
      <trkpt lat="45.71261" lon="6.24301">
        <ele>1387.6125</ele>
        <time>2013-08-11T13:43:42Z</time>
      </trkpt>
      <trkpt lat="45.71264" lon="6.24297">
        <ele>1386.5757</ele>
        <time>2013-08-11T13:43:48Z</time>
      </trkpt>
      <trkpt lat="45.71265" lon="6.24295">
        <ele>1386.5757</ele>
        <time>2013-08-11T13:43:52Z</time>
      </trkpt>
      <trkpt lat="45.71266" lon="6.24291">
        <ele>1386.5757</ele>
        <time>2013-08-11T13:43:57Z</time>
      </trkpt>
      <trkpt lat="45.71267" lon="6.24288">
        <ele>1386.5757</ele>
        <time>2013-08-11T13:44:03Z</time>
      </trkpt>
      <trkpt lat="45.71266" lon="6.24282">
        <ele>1385.7257</ele>
        <time>2013-08-11T13:44:07Z</time>
      </trkpt>
      <trkpt lat="45.71264" lon="6.24278">
        <ele>1385.7257</ele>
        <time>2013-08-11T13:44:12Z</time>
      </trkpt>
      <trkpt lat="45.71263" lon="6.24276">
        <ele>1385.7257</ele>
        <time>2013-08-11T13:44:18Z</time>
      </trkpt>
      <trkpt lat="45.71262" lon="6.24273">
        <ele>1385.7257</ele>
        <time>2013-08-11T13:44:22Z</time>
      </trkpt>
      <trkpt lat="45.71263" lon="6.2427">
        <ele>1384.7455</ele>
        <time>2013-08-11T13:44:27Z</time>
      </trkpt>
      <trkpt lat="45.71262" lon="6.24264">
        <ele>1384.7455</ele>
        <time>2013-08-11T13:44:33Z</time>
      </trkpt>
      <trkpt lat="45.71261" lon="6.24261">
        <ele>1384.7455</ele>
        <time>2013-08-11T13:44:37Z</time>
      </trkpt>
      <trkpt lat="45.7126" lon="6.2426">
        <ele>1384.7455</ele>
        <time>2013-08-11T13:44:42Z</time>
      </trkpt>
      <trkpt lat="45.71258" lon="6.24253">
        <ele>1382.9237</ele>
        <time>2013-08-11T13:44:48Z</time>
      </trkpt>
      <trkpt lat="45.71254" lon="6.24251">
        <ele>1382.9237</ele>
        <time>2013-08-11T13:44:52Z</time>
      </trkpt>
      <trkpt lat="45.71252" lon="6.2425">
        <ele>1382.9237</ele>
        <time>2013-08-11T13:44:57Z</time>
      </trkpt>
      <trkpt lat="45.7125" lon="6.24253">
        <ele>1382.9237</ele>
        <time>2013-08-11T13:45:03Z</time>
      </trkpt>
      <trkpt lat="45.7125" lon="6.24253">
        <ele>1382.9237</ele>
        <time>2013-08-11T13:45:07Z</time>
      </trkpt>
      <trkpt lat="45.71247" lon="6.24257">
        <ele>1380.8721</ele>
        <time>2013-08-11T13:45:12Z</time>
      </trkpt>
      <trkpt lat="45.71242" lon="6.24258">
        <ele>1380.8721</ele>
        <time>2013-08-11T13:45:18Z</time>
      </trkpt>
      <trkpt lat="45.71238" lon="6.24257">
        <ele>1378.9849</ele>
        <time>2013-08-11T13:45:22Z</time>
      </trkpt>
      <trkpt lat="45.71233" lon="6.24257">
        <ele>1378.9849</ele>
        <time>2013-08-11T13:45:27Z</time>
      </trkpt>
      <trkpt lat="45.71226" lon="6.24256">
        <ele>1377.3245</ele>
        <time>2013-08-11T13:45:33Z</time>
      </trkpt>
      <trkpt lat="45.71221" lon="6.24258">
        <ele>1377.3245</ele>
        <time>2013-08-11T13:45:37Z</time>
      </trkpt>
      <trkpt lat="45.71219" lon="6.24261">
        <ele>1377.3245</ele>
        <time>2013-08-11T13:45:42Z</time>
      </trkpt>
      <trkpt lat="45.71218" lon="6.24263">
        <ele>1375.7029</ele>
        <time>2013-08-11T13:45:48Z</time>
      </trkpt>
      <trkpt lat="45.71218" lon="6.24263">
        <ele>1375.7029</ele>
        <time>2013-08-11T13:45:52Z</time>
      </trkpt>
      <trkpt lat="45.71215" lon="6.24268">
        <ele>1375.7029</ele>
        <time>2013-08-11T13:45:57Z</time>
      </trkpt>
      <trkpt lat="45.71209" lon="6.24278">
        <ele>1374.1621</ele>
        <time>2013-08-11T13:46:03Z</time>
      </trkpt>
      <trkpt lat="45.71207" lon="6.2428">
        <ele>1374.1621</ele>
        <time>2013-08-11T13:46:07Z</time>
      </trkpt>
      <trkpt lat="45.71203" lon="6.24282">
        <ele>1374.1621</ele>
        <time>2013-08-11T13:46:12Z</time>
      </trkpt>
      <trkpt lat="45.71203" lon="6.24281">
        <ele>1374.1621</ele>
        <time>2013-08-11T13:46:18Z</time>
      </trkpt>
      <trkpt lat="45.71202" lon="6.24281">
        <ele>1374.1621</ele>
        <time>2013-08-11T13:46:22Z</time>
      </trkpt>
      <trkpt lat="45.71202" lon="6.24281">
        <ele>1374.1621</ele>
        <time>2013-08-11T13:46:27Z</time>
      </trkpt>
      <trkpt lat="45.71202" lon="6.24281">
        <ele>1374.1621</ele>
        <time>2013-08-11T13:46:33Z</time>
      </trkpt>
      <trkpt lat="45.71201" lon="6.24281">
        <ele>1373.4326</ele>
        <time>2013-08-11T13:46:37Z</time>
      </trkpt>
      <trkpt lat="45.71195" lon="6.24281">
        <ele>1373.4326</ele>
        <time>2013-08-11T13:46:42Z</time>
      </trkpt>
      <trkpt lat="45.71191" lon="6.24294">
        <ele>1371.3353</ele>
        <time>2013-08-11T13:46:48Z</time>
      </trkpt>
      <trkpt lat="45.71192" lon="6.24299">
        <ele>1371.3353</ele>
        <time>2013-08-11T13:46:52Z</time>
      </trkpt>
      <trkpt lat="45.71194" lon="6.24304">
        <ele>1371.3353</ele>
        <time>2013-08-11T13:46:57Z</time>
      </trkpt>
      <trkpt lat="45.71193" lon="6.24305">
        <ele>1371.3353</ele>
        <time>2013-08-11T13:47:03Z</time>
      </trkpt>
      <trkpt lat="45.71183" lon="6.24299">
        <ele>1369.141</ele>
        <time>2013-08-11T13:47:07Z</time>
      </trkpt>
      <trkpt lat="45.71176" lon="6.243">
        <ele>1369.141</ele>
        <time>2013-08-11T13:47:12Z</time>
      </trkpt>
      <trkpt lat="45.71173" lon="6.24301">
        <ele>1367.3065</ele>
        <time>2013-08-11T13:47:18Z</time>
      </trkpt>
      <trkpt lat="45.71164" lon="6.24306">
        <ele>1365.4187</ele>
        <time>2013-08-11T13:47:22Z</time>
      </trkpt>
      <trkpt lat="45.71158" lon="6.24308">
        <ele>1365.4187</ele>
        <time>2013-08-11T13:47:27Z</time>
      </trkpt>
      <trkpt lat="45.71157" lon="6.24311">
        <ele>1365.4187</ele>
        <time>2013-08-11T13:47:33Z</time>
      </trkpt>
      <trkpt lat="45.71158" lon="6.24318">
        <ele>1362.5612</ele>
        <time>2013-08-11T13:47:37Z</time>
      </trkpt>
      <trkpt lat="45.71157" lon="6.24318">
        <ele>1362.5612</ele>
        <time>2013-08-11T13:47:42Z</time>
      </trkpt>
      <trkpt lat="45.71155" lon="6.2432">
        <ele>1362.5612</ele>
        <time>2013-08-11T13:47:48Z</time>
      </trkpt>
      <trkpt lat="45.7115" lon="6.24332">
        <ele>1358.7959</ele>
        <time>2013-08-11T13:47:52Z</time>
      </trkpt>
      <trkpt lat="45.71148" lon="6.2434">
        <ele>1358.7959</ele>
        <time>2013-08-11T13:47:57Z</time>
      </trkpt>
      <trkpt lat="45.71148" lon="6.24343">
        <ele>1358.7959</ele>
        <time>2013-08-11T13:48:03Z</time>
      </trkpt>
      <trkpt lat="45.71143" lon="6.24344">
        <ele>1355.0758</ele>
        <time>2013-08-11T13:48:07Z</time>
      </trkpt>
      <trkpt lat="45.71142" lon="6.24344">
        <ele>1355.0758</ele>
        <time>2013-08-11T13:48:12Z</time>
      </trkpt>
      <trkpt lat="45.71142" lon="6.24344">
        <ele>1355.0758</ele>
        <time>2013-08-11T13:48:18Z</time>
      </trkpt>
      <trkpt lat="45.71138" lon="6.24342">
        <ele>1355.0758</ele>
        <time>2013-08-11T13:48:22Z</time>
      </trkpt>
      <trkpt lat="45.71133" lon="6.2434">
        <ele>1351.3185</ele>
        <time>2013-08-11T13:48:27Z</time>
      </trkpt>
      <trkpt lat="45.71132" lon="6.24339">
        <ele>1351.3185</ele>
        <time>2013-08-11T13:48:33Z</time>
      </trkpt>
      <trkpt lat="45.7113" lon="6.24344">
        <ele>1351.3185</ele>
        <time>2013-08-11T13:48:37Z</time>
      </trkpt>
      <trkpt lat="45.71127" lon="6.24348">
        <ele>1347.3177</ele>
        <time>2013-08-11T13:48:42Z</time>
      </trkpt>
      <trkpt lat="45.71125" lon="6.24352">
        <ele>1347.3177</ele>
        <time>2013-08-11T13:48:48Z</time>
      </trkpt>
      <trkpt lat="45.71124" lon="6.24355">
        <ele>1347.3177</ele>
        <time>2013-08-11T13:48:52Z</time>
      </trkpt>
      <trkpt lat="45.71124" lon="6.24355">
        <ele>1347.3177</ele>
        <time>2013-08-11T13:48:57Z</time>
      </trkpt>
      <trkpt lat="45.71121" lon="6.24356">
        <ele>1343.1858</ele>
        <time>2013-08-11T13:49:03Z</time>
      </trkpt>
      <trkpt lat="45.71117" lon="6.24358">
        <ele>1343.1858</ele>
        <time>2013-08-11T13:49:07Z</time>
      </trkpt>
      <trkpt lat="45.71111" lon="6.24356">
        <ele>1339.2573</ele>
        <time>2013-08-11T13:49:12Z</time>
      </trkpt>
      <trkpt lat="45.71107" lon="6.24354">
        <ele>1339.2573</ele>
        <time>2013-08-11T13:49:18Z</time>
      </trkpt>
      <trkpt lat="45.71107" lon="6.24352">
        <ele>1339.2573</ele>
        <time>2013-08-11T13:49:22Z</time>
      </trkpt>
      <trkpt lat="45.71107" lon="6.24349">
        <ele>1339.2573</ele>
        <time>2013-08-11T13:49:27Z</time>
      </trkpt>
      <trkpt lat="45.7111" lon="6.24344">
        <ele>1334.9916</ele>
        <time>2013-08-11T13:49:32Z</time>
      </trkpt>
      <trkpt lat="45.71112" lon="6.24341">
        <ele>1334.9916</ele>
        <time>2013-08-11T13:49:37Z</time>
      </trkpt>
      <trkpt lat="45.71115" lon="6.24337">
        <ele>1334.9916</ele>
        <time>2013-08-11T13:49:42Z</time>
      </trkpt>
      <trkpt lat="45.71116" lon="6.24334">
        <ele>1330.7673</ele>
        <time>2013-08-11T13:49:48Z</time>
      </trkpt>
      <trkpt lat="45.71117" lon="6.24329">
        <ele>1330.7673</ele>
        <time>2013-08-11T13:49:52Z</time>
      </trkpt>
      <trkpt lat="45.71117" lon="6.24325">
        <ele>1330.7673</ele>
        <time>2013-08-11T13:49:57Z</time>
      </trkpt>
      <trkpt lat="45.71117" lon="6.24323">
        <ele>1330.7673</ele>
        <time>2013-08-11T13:50:03Z</time>
      </trkpt>
      <trkpt lat="45.71116" lon="6.24312">
        <ele>1326.2726</ele>
        <time>2013-08-11T13:50:07Z</time>
      </trkpt>
      <trkpt lat="45.71115" lon="6.24305">
        <ele>1326.2726</ele>
        <time>2013-08-11T13:50:12Z</time>
      </trkpt>
      <trkpt lat="45.71115" lon="6.24302">
        <ele>1326.2726</ele>
        <time>2013-08-11T13:50:18Z</time>
      </trkpt>
      <trkpt lat="45.71114" lon="6.24285">
        <ele>1322.112</ele>
        <time>2013-08-11T13:50:22Z</time>
      </trkpt>
      <trkpt lat="45.71114" lon="6.24278">
        <ele>1322.112</ele>
        <time>2013-08-11T13:50:27Z</time>
      </trkpt>
      <trkpt lat="45.71114" lon="6.24275">
        <ele>1322.112</ele>
        <time>2013-08-11T13:50:33Z</time>
      </trkpt>
      <trkpt lat="45.71114" lon="6.24262">
        <ele>1318.1533</ele>
        <time>2013-08-11T13:50:37Z</time>
      </trkpt>
      <trkpt lat="45.71114" lon="6.24262">
        <ele>1318.1533</ele>
        <time>2013-08-11T13:50:42Z</time>
      </trkpt>
      <trkpt lat="45.71114" lon="6.24261">
        <ele>1318.1533</ele>
        <time>2013-08-11T13:50:48Z</time>
      </trkpt>
      <trkpt lat="45.71118" lon="6.24256">
        <ele>1318.1533</ele>
        <time>2013-08-11T13:50:52Z</time>
      </trkpt>
      <trkpt lat="45.71116" lon="6.24254">
        <ele>1318.1533</ele>
        <time>2013-08-11T13:50:57Z</time>
      </trkpt>
      <trkpt lat="45.71116" lon="6.24255">
        <ele>1313.999</ele>
        <time>2013-08-11T13:51:03Z</time>
      </trkpt>
      <trkpt lat="45.71114" lon="6.24253">
        <ele>1313.999</ele>
        <time>2013-08-11T13:51:07Z</time>
      </trkpt>
      <trkpt lat="45.71116" lon="6.2425">
        <ele>1313.999</ele>
        <time>2013-08-11T13:51:12Z</time>
      </trkpt>
      <trkpt lat="45.71116" lon="6.24249">
        <ele>1313.999</ele>
        <time>2013-08-11T13:51:18Z</time>
      </trkpt>
      <trkpt lat="45.71114" lon="6.2424">
        <ele>1310.2904</ele>
        <time>2013-08-11T13:51:22Z</time>
      </trkpt>
      <trkpt lat="45.71111" lon="6.24238">
        <ele>1310.2904</ele>
        <time>2013-08-11T13:51:27Z</time>
      </trkpt>
      <trkpt lat="45.71102" lon="6.24232">
        <ele>1306.265</ele>
        <time>2013-08-11T13:51:33Z</time>
      </trkpt>
      <trkpt lat="45.71093" lon="6.24228">
        <ele>1302.2264</ele>
        <time>2013-08-11T13:51:37Z</time>
      </trkpt>
      <trkpt lat="45.71085" lon="6.24227">
        <ele>1302.2264</ele>
        <time>2013-08-11T13:51:42Z</time>
      </trkpt>
      <trkpt lat="45.71079" lon="6.24227">
        <ele>1298.2969</ele>
        <time>2013-08-11T13:51:48Z</time>
      </trkpt>
      <trkpt lat="45.71068" lon="6.24224">
        <ele>1294.5891</ele>
        <time>2013-08-11T13:51:52Z</time>
      </trkpt>
      <trkpt lat="45.71064" lon="6.24225">
        <ele>1294.5891</ele>
        <time>2013-08-11T13:51:57Z</time>
      </trkpt>
      <trkpt lat="45.71066" lon="6.24229">
        <ele>1294.5891</ele>
        <time>2013-08-11T13:52:03Z</time>
      </trkpt>
      <trkpt lat="45.71068" lon="6.24229">
        <ele>1290.3135</ele>
        <time>2013-08-11T13:52:07Z</time>
      </trkpt>
      <trkpt lat="45.71068" lon="6.24229">
        <ele>1290.3135</ele>
        <time>2013-08-11T13:52:12Z</time>
      </trkpt>
      <trkpt lat="45.71068" lon="6.24229">
        <ele>1290.3135</ele>
        <time>2013-08-11T13:52:18Z</time>
      </trkpt>
      <trkpt lat="45.71068" lon="6.24229">
        <ele>1290.3135</ele>
        <time>2013-08-11T13:52:22Z</time>
      </trkpt>
      <trkpt lat="45.71065" lon="6.24228">
        <ele>1290.3135</ele>
        <time>2013-08-11T13:52:27Z</time>
      </trkpt>
      <trkpt lat="45.71061" lon="6.24225">
        <ele>1290.3135</ele>
        <time>2013-08-11T13:52:33Z</time>
      </trkpt>
      <trkpt lat="45.71051" lon="6.24218">
        <ele>1285.2727</ele>
        <time>2013-08-11T13:52:37Z</time>
      </trkpt>
      <trkpt lat="45.71048" lon="6.24213">
        <ele>1285.2727</ele>
        <time>2013-08-11T13:52:42Z</time>
      </trkpt>
      <trkpt lat="45.71047" lon="6.2421">
        <ele>1285.2727</ele>
        <time>2013-08-11T13:52:47Z</time>
      </trkpt>
      <trkpt lat="45.71043" lon="6.24209">
        <ele>1279.8914</ele>
        <time>2013-08-11T13:52:52Z</time>
      </trkpt>
      <trkpt lat="45.71044" lon="6.24219">
        <ele>1279.8914</ele>
        <time>2013-08-11T13:52:57Z</time>
      </trkpt>
      <trkpt lat="45.71045" lon="6.24226">
        <ele>1274.6931</ele>
        <time>2013-08-11T13:53:03Z</time>
      </trkpt>
      <trkpt lat="45.71042" lon="6.24227">
        <ele>1274.6931</ele>
        <time>2013-08-11T13:53:07Z</time>
      </trkpt>
      <trkpt lat="45.71039" lon="6.24226">
        <ele>1274.6931</ele>
        <time>2013-08-11T13:53:12Z</time>
      </trkpt>
      <trkpt lat="45.71037" lon="6.24225">
        <ele>1274.6931</ele>
        <time>2013-08-11T13:53:18Z</time>
      </trkpt>
      <trkpt lat="45.7104" lon="6.24228">
        <ele>1269.4421</ele>
        <time>2013-08-11T13:53:22Z</time>
      </trkpt>
      <trkpt lat="45.71039" lon="6.24228">
        <ele>1269.4421</ele>
        <time>2013-08-11T13:53:27Z</time>
      </trkpt>
      <trkpt lat="45.71038" lon="6.24227">
        <ele>1269.4421</ele>
        <time>2013-08-11T13:53:33Z</time>
      </trkpt>
      <trkpt lat="45.71038" lon="6.24227">
        <ele>1269.4421</ele>
        <time>2013-08-11T13:53:37Z</time>
      </trkpt>
      <trkpt lat="45.71038" lon="6.24227">
        <ele>1269.4421</ele>
        <time>2013-08-11T13:53:42Z</time>
      </trkpt>
      <trkpt lat="45.71038" lon="6.24227">
        <ele>1269.4421</ele>
        <time>2013-08-11T13:53:47Z</time>
      </trkpt>
      <trkpt lat="45.71038" lon="6.24227">
        <ele>1269.4421</ele>
        <time>2013-08-11T13:53:52Z</time>
      </trkpt>
      <trkpt lat="45.71038" lon="6.24227">
        <ele>1269.4421</ele>
        <time>2013-08-11T13:53:57Z</time>
      </trkpt>
      <trkpt lat="45.71038" lon="6.24227">
        <ele>1269.4421</ele>
        <time>2013-08-11T13:54:02Z</time>
      </trkpt>
      <trkpt lat="45.71038" lon="6.24227">
        <ele>1269.4421</ele>
        <time>2013-08-11T13:54:07Z</time>
      </trkpt>
      <trkpt lat="45.71038" lon="6.24227">
        <ele>1269.4421</ele>
        <time>2013-08-11T13:54:13Z</time>
      </trkpt>
      <trkpt lat="45.71038" lon="6.24227">
        <ele>1269.4421</ele>
        <time>2013-08-11T13:54:17Z</time>
      </trkpt>
      <trkpt lat="45.71038" lon="6.24227">
        <ele>1269.4421</ele>
        <time>2013-08-11T13:54:22Z</time>
      </trkpt>
      <trkpt lat="45.71038" lon="6.24227">
        <ele>1269.4421</ele>
        <time>2013-08-11T13:54:28Z</time>
      </trkpt>
      <trkpt lat="45.71038" lon="6.24227">
        <ele>1269.4421</ele>
        <time>2013-08-11T13:54:32Z</time>
      </trkpt>
      <trkpt lat="45.71038" lon="6.24227">
        <ele>1269.4421</ele>
        <time>2013-08-11T13:54:37Z</time>
      </trkpt>
      <trkpt lat="45.71038" lon="6.24227">
        <ele>1269.4421</ele>
        <time>2013-08-11T13:54:42Z</time>
      </trkpt>
      <trkpt lat="45.71038" lon="6.24227">
        <ele>1269.4421</ele>
        <time>2013-08-11T13:54:47Z</time>
      </trkpt>
      <trkpt lat="45.71038" lon="6.24227">
        <ele>1269.4421</ele>
        <time>2013-08-11T13:54:52Z</time>
      </trkpt>
      <trkpt lat="45.71038" lon="6.24227">
        <ele>1269.4421</ele>
        <time>2013-08-11T13:54:58Z</time>
      </trkpt>
      <trkpt lat="45.71038" lon="6.24227">
        <ele>1269.4421</ele>
        <time>2013-08-11T13:55:02Z</time>
      </trkpt>
      <trkpt lat="45.71038" lon="6.24227">
        <ele>1269.4421</ele>
        <time>2013-08-11T13:55:07Z</time>
      </trkpt>
      <trkpt lat="45.71038" lon="6.24227">
        <ele>1269.4421</ele>
        <time>2013-08-11T13:55:13Z</time>
      </trkpt>
      <trkpt lat="45.71038" lon="6.24227">
        <ele>1269.4421</ele>
        <time>2013-08-11T13:55:17Z</time>
      </trkpt>
      <trkpt lat="45.71038" lon="6.24227">
        <ele>1269.4421</ele>
        <time>2013-08-11T13:55:22Z</time>
      </trkpt>
      <trkpt lat="45.71038" lon="6.24227">
        <ele>1269.4421</ele>
        <time>2013-08-11T13:55:28Z</time>
      </trkpt>
      <trkpt lat="45.71038" lon="6.24227">
        <ele>1269.4421</ele>
        <time>2013-08-11T13:55:32Z</time>
      </trkpt>
      <trkpt lat="45.71038" lon="6.24227">
        <ele>1269.4421</ele>
        <time>2013-08-11T13:55:37Z</time>
      </trkpt>
      <trkpt lat="45.71038" lon="6.24227">
        <ele>1269.4421</ele>
        <time>2013-08-11T13:55:42Z</time>
      </trkpt>
      <trkpt lat="45.71038" lon="6.24227">
        <ele>1269.4421</ele>
        <time>2013-08-11T13:55:47Z</time>
      </trkpt>
      <trkpt lat="45.71038" lon="6.24227">
        <ele>1269.4421</ele>
        <time>2013-08-11T13:55:52Z</time>
      </trkpt>
      <trkpt lat="45.71038" lon="6.24227">
        <ele>1269.4421</ele>
        <time>2013-08-11T13:55:58Z</time>
      </trkpt>
      <trkpt lat="45.71038" lon="6.24227">
        <ele>1269.4421</ele>
        <time>2013-08-11T13:56:02Z</time>
      </trkpt>
      <trkpt lat="45.71038" lon="6.24227">
        <ele>1269.4421</ele>
        <time>2013-08-11T13:56:07Z</time>
      </trkpt>
      <trkpt lat="45.71038" lon="6.24227">
        <ele>1269.4421</ele>
        <time>2013-08-11T13:56:13Z</time>
      </trkpt>
      <trkpt lat="45.71038" lon="6.24227">
        <ele>1269.4421</ele>
        <time>2013-08-11T13:56:17Z</time>
      </trkpt>
      <trkpt lat="45.71038" lon="6.24227">
        <ele>1269.4421</ele>
        <time>2013-08-11T13:56:22Z</time>
      </trkpt>
      <trkpt lat="45.71038" lon="6.24227">
        <ele>1269.4421</ele>
        <time>2013-08-11T13:56:28Z</time>
      </trkpt>
      <trkpt lat="45.71038" lon="6.24227">
        <ele>1269.4421</ele>
        <time>2013-08-11T13:56:32Z</time>
      </trkpt>
      <trkpt lat="45.71038" lon="6.24227">
        <ele>1269.4421</ele>
        <time>2013-08-11T13:56:37Z</time>
      </trkpt>
      <trkpt lat="45.71038" lon="6.24227">
        <ele>1269.4421</ele>
        <time>2013-08-11T13:56:43Z</time>
      </trkpt>
      <trkpt lat="45.71038" lon="6.24227">
        <ele>1269.4421</ele>
        <time>2013-08-11T13:56:47Z</time>
      </trkpt>
      <trkpt lat="45.71038" lon="6.24227">
        <ele>1269.4421</ele>
        <time>2013-08-11T13:56:52Z</time>
      </trkpt>
      <trkpt lat="45.71038" lon="6.24227">
        <ele>1269.4421</ele>
        <time>2013-08-11T13:56:58Z</time>
      </trkpt>
      <trkpt lat="45.71038" lon="6.24227">
        <ele>1269.4421</ele>
        <time>2013-08-11T13:57:02Z</time>
      </trkpt>
      <trkpt lat="45.71038" lon="6.24227">
        <ele>1269.4421</ele>
        <time>2013-08-11T13:57:07Z</time>
      </trkpt>
      <trkpt lat="45.71038" lon="6.24227">
        <ele>1269.4421</ele>
        <time>2013-08-11T13:57:13Z</time>
      </trkpt>
      <trkpt lat="45.71038" lon="6.24227">
        <ele>1269.4421</ele>
        <time>2013-08-11T13:57:17Z</time>
      </trkpt>
      <trkpt lat="45.71038" lon="6.24227">
        <ele>1269.4421</ele>
        <time>2013-08-11T13:57:22Z</time>
      </trkpt>
      <trkpt lat="45.71038" lon="6.24227">
        <ele>1269.4421</ele>
        <time>2013-08-11T13:57:28Z</time>
      </trkpt>
      <trkpt lat="45.71038" lon="6.24227">
        <ele>1269.4421</ele>
        <time>2013-08-11T13:57:32Z</time>
      </trkpt>
      <trkpt lat="45.71038" lon="6.24227">
        <ele>1269.4421</ele>
        <time>2013-08-11T13:57:37Z</time>
      </trkpt>
      <trkpt lat="45.71038" lon="6.24227">
        <ele>1269.4421</ele>
        <time>2013-08-11T13:57:43Z</time>
      </trkpt>
      <trkpt lat="45.71038" lon="6.24228">
        <ele>1269.4421</ele>
        <time>2013-08-11T13:57:47Z</time>
      </trkpt>
      <trkpt lat="45.71038" lon="6.24228">
        <ele>1269.4421</ele>
        <time>2013-08-11T13:57:52Z</time>
      </trkpt>
      <trkpt lat="45.71038" lon="6.24228">
        <ele>1269.4421</ele>
        <time>2013-08-11T13:57:58Z</time>
      </trkpt>
      <trkpt lat="45.71038" lon="6.24228">
        <ele>1269.4421</ele>
        <time>2013-08-11T13:58:02Z</time>
      </trkpt>
      <trkpt lat="45.71038" lon="6.24228">
        <ele>1269.4421</ele>
        <time>2013-08-11T13:58:07Z</time>
      </trkpt>
      <trkpt lat="45.71038" lon="6.24228">
        <ele>1269.4421</ele>
        <time>2013-08-11T13:58:13Z</time>
      </trkpt>
      <trkpt lat="45.71038" lon="6.24228">
        <ele>1269.4421</ele>
        <time>2013-08-11T13:58:17Z</time>
      </trkpt>
      <trkpt lat="45.71038" lon="6.24228">
        <ele>1269.4421</ele>
        <time>2013-08-11T13:58:22Z</time>
      </trkpt>
      <trkpt lat="45.71038" lon="6.24228">
        <ele>1269.4421</ele>
        <time>2013-08-11T13:58:28Z</time>
      </trkpt>
      <trkpt lat="45.71038" lon="6.24228">
        <ele>1269.4421</ele>
        <time>2013-08-11T13:58:32Z</time>
      </trkpt>
      <trkpt lat="45.71038" lon="6.24228">
        <ele>1269.4421</ele>
        <time>2013-08-11T13:58:37Z</time>
      </trkpt>
      <trkpt lat="45.71038" lon="6.24228">
        <ele>1269.4421</ele>
        <time>2013-08-11T13:58:42Z</time>
      </trkpt>
      <trkpt lat="45.71038" lon="6.24228">
        <ele>1269.4421</ele>
        <time>2013-08-11T13:58:47Z</time>
      </trkpt>
      <trkpt lat="45.71038" lon="6.24228">
        <ele>1269.4421</ele>
        <time>2013-08-11T13:58:52Z</time>
      </trkpt>
      <trkpt lat="45.71038" lon="6.24228">
        <ele>1269.4421</ele>
        <time>2013-08-11T13:58:58Z</time>
      </trkpt>
      <trkpt lat="45.71038" lon="6.24228">
        <ele>1269.4421</ele>
        <time>2013-08-11T13:59:02Z</time>
      </trkpt>
      <trkpt lat="45.71038" lon="6.24228">
        <ele>1269.4421</ele>
        <time>2013-08-11T13:59:07Z</time>
      </trkpt>
      <trkpt lat="45.71038" lon="6.24228">
        <ele>1269.4421</ele>
        <time>2013-08-11T13:59:13Z</time>
      </trkpt>
      <trkpt lat="45.71038" lon="6.24228">
        <ele>1269.4421</ele>
        <time>2013-08-11T13:59:17Z</time>
      </trkpt>
      <trkpt lat="45.71038" lon="6.24228">
        <ele>1269.4421</ele>
        <time>2013-08-11T13:59:22Z</time>
      </trkpt>
      <trkpt lat="45.71038" lon="6.24228">
        <ele>1269.4421</ele>
        <time>2013-08-11T13:59:28Z</time>
      </trkpt>
      <trkpt lat="45.71038" lon="6.24228">
        <ele>1269.4421</ele>
        <time>2013-08-11T13:59:32Z</time>
      </trkpt>
      <trkpt lat="45.71038" lon="6.24228">
        <ele>1269.4421</ele>
        <time>2013-08-11T13:59:37Z</time>
      </trkpt>
      <trkpt lat="45.71038" lon="6.24228">
        <ele>1269.4421</ele>
        <time>2013-08-11T13:59:42Z</time>
      </trkpt>
      <trkpt lat="45.71038" lon="6.24228">
        <ele>1269.4421</ele>
        <time>2013-08-11T13:59:47Z</time>
      </trkpt>
      <trkpt lat="45.71038" lon="6.24228">
        <ele>1269.4421</ele>
        <time>2013-08-11T13:59:52Z</time>
      </trkpt>
      <trkpt lat="45.71038" lon="6.24228">
        <ele>1269.4421</ele>
        <time>2013-08-11T13:59:57Z</time>
      </trkpt>
      <trkpt lat="45.71038" lon="6.24228">
        <ele>1269.4421</ele>
        <time>2013-08-11T14:00:03Z</time>
      </trkpt>
      <trkpt lat="45.71038" lon="6.24228">
        <ele>1269.4421</ele>
        <time>2013-08-11T14:00:07Z</time>
      </trkpt>
      <trkpt lat="45.71038" lon="6.24228">
        <ele>1269.4421</ele>
        <time>2013-08-11T14:00:12Z</time>
      </trkpt>
      <trkpt lat="45.71038" lon="6.24228">
        <ele>1269.4421</ele>
        <time>2013-08-11T14:00:18Z</time>
      </trkpt>
      <trkpt lat="45.71038" lon="6.24228">
        <ele>1269.4421</ele>
        <time>2013-08-11T14:00:22Z</time>
      </trkpt>
      <trkpt lat="45.71038" lon="6.24228">
        <ele>1269.4421</ele>
        <time>2013-08-11T14:00:27Z</time>
      </trkpt>
      <trkpt lat="45.71038" lon="6.24228">
        <ele>1269.4421</ele>
        <time>2013-08-11T14:00:34Z</time>
      </trkpt>
      <trkpt lat="45.71038" lon="6.24228">
        <ele>1269.4421</ele>
        <time>2013-08-11T14:00:37Z</time>
      </trkpt>
      <trkpt lat="45.71038" lon="6.24228">
        <ele>1269.4421</ele>
        <time>2013-08-11T14:00:42Z</time>
      </trkpt>
      <trkpt lat="45.71037" lon="6.24227">
        <ele>1269.4421</ele>
        <time>2013-08-11T14:00:47Z</time>
      </trkpt>
      <trkpt lat="45.71039" lon="6.24225">
        <ele>1269.4421</ele>
        <time>2013-08-11T14:00:53Z</time>
      </trkpt>
      <trkpt lat="45.71041" lon="6.24215">
        <ele>1264.914</ele>
        <time>2013-08-11T14:00:57Z</time>
      </trkpt>
      <trkpt lat="45.7104" lon="6.24211">
        <ele>1264.914</ele>
        <time>2013-08-11T14:01:02Z</time>
      </trkpt>
      <trkpt lat="45.71042" lon="6.24213">
        <ele>1264.914</ele>
        <time>2013-08-11T14:01:09Z</time>
      </trkpt>
      <trkpt lat="45.71046" lon="6.24214">
        <ele>1260.009</ele>
        <time>2013-08-11T14:01:12Z</time>
      </trkpt>
      <trkpt lat="45.71047" lon="6.24211">
        <ele>1260.009</ele>
        <time>2013-08-11T14:01:17Z</time>
      </trkpt>
      <trkpt lat="45.71046" lon="6.24209">
        <ele>1260.009</ele>
        <time>2013-08-11T14:01:24Z</time>
      </trkpt>
      <trkpt lat="45.71044" lon="6.24201">
        <ele>1255.4966</ele>
        <time>2013-08-11T14:01:27Z</time>
      </trkpt>
      <trkpt lat="45.71043" lon="6.24194">
        <ele>1255.4966</ele>
        <time>2013-08-11T14:01:32Z</time>
      </trkpt>
      <trkpt lat="45.71041" lon="6.24187">
        <ele>1251.7277</ele>
        <time>2013-08-11T14:01:37Z</time>
      </trkpt>
      <trkpt lat="45.71039" lon="6.24185">
        <ele>1251.7277</ele>
        <time>2013-08-11T14:01:43Z</time>
      </trkpt>
      <trkpt lat="45.71034" lon="6.24175">
        <ele>1247.584</ele>
        <time>2013-08-11T14:01:47Z</time>
      </trkpt>
      <trkpt lat="45.71034" lon="6.2417">
        <ele>1247.584</ele>
        <time>2013-08-11T14:01:52Z</time>
      </trkpt>
      <trkpt lat="45.71035" lon="6.24166">
        <ele>1247.584</ele>
        <time>2013-08-11T14:01:58Z</time>
      </trkpt>
      <trkpt lat="45.71037" lon="6.24164">
        <ele>1244.2786</ele>
        <time>2013-08-11T14:02:02Z</time>
      </trkpt>
      <trkpt lat="45.71039" lon="6.24161">
        <ele>1244.2786</ele>
        <time>2013-08-11T14:02:07Z</time>
      </trkpt>
      <trkpt lat="45.71042" lon="6.24154">
        <ele>1244.2786</ele>
        <time>2013-08-11T14:02:13Z</time>
      </trkpt>
      <trkpt lat="45.71043" lon="6.24151">
        <ele>1241.4912</ele>
        <time>2013-08-11T14:02:17Z</time>
      </trkpt>
      <trkpt lat="45.71042" lon="6.24146">
        <ele>1241.4912</ele>
        <time>2013-08-11T14:02:22Z</time>
      </trkpt>
      <trkpt lat="45.71037" lon="6.2414">
        <ele>1239.0828</ele>
        <time>2013-08-11T14:02:28Z</time>
      </trkpt>
      <trkpt lat="45.71033" lon="6.24139">
        <ele>1239.0828</ele>
        <time>2013-08-11T14:02:32Z</time>
      </trkpt>
      <trkpt lat="45.71033" lon="6.2414">
        <ele>1239.0828</ele>
        <time>2013-08-11T14:02:37Z</time>
      </trkpt>
      <trkpt lat="45.71031" lon="6.24139">
        <ele>1239.0828</ele>
        <time>2013-08-11T14:02:43Z</time>
      </trkpt>
      <trkpt lat="45.71031" lon="6.24138">
        <ele>1239.0828</ele>
        <time>2013-08-11T14:02:47Z</time>
      </trkpt>
      <trkpt lat="45.71028" lon="6.24135">
        <ele>1237.7295</ele>
        <time>2013-08-11T14:02:52Z</time>
      </trkpt>
      <trkpt lat="45.71024" lon="6.24132">
        <ele>1237.7295</ele>
        <time>2013-08-11T14:02:57Z</time>
      </trkpt>
      <trkpt lat="45.71019" lon="6.24129">
        <ele>1237.2914</ele>
        <time>2013-08-11T14:03:02Z</time>
      </trkpt>
      <trkpt lat="45.71014" lon="6.24127">
        <ele>1237.2914</ele>
        <time>2013-08-11T14:03:07Z</time>
      </trkpt>
      <trkpt lat="45.71009" lon="6.2413">
        <ele>1237.1891</ele>
        <time>2013-08-11T14:03:13Z</time>
      </trkpt>
      <trkpt lat="45.71008" lon="6.2413">
        <ele>1237.1891</ele>
        <time>2013-08-11T14:03:17Z</time>
      </trkpt>
      <trkpt lat="45.71006" lon="6.24128">
        <ele>1237.1891</ele>
        <time>2013-08-11T14:03:22Z</time>
      </trkpt>
      <trkpt lat="45.71" lon="6.24126">
        <ele>1237.1891</ele>
        <time>2013-08-11T14:03:27Z</time>
      </trkpt>
      <trkpt lat="45.70997" lon="6.24124">
        <ele>1238.4414</ele>
        <time>2013-08-11T14:03:32Z</time>
      </trkpt>
      <trkpt lat="45.70995" lon="6.24118">
        <ele>1238.4414</ele>
        <time>2013-08-11T14:03:37Z</time>
      </trkpt>
      <trkpt lat="45.70994" lon="6.24119">
        <ele>1238.4414</ele>
        <time>2013-08-11T14:03:43Z</time>
      </trkpt>
      <trkpt lat="45.70988" lon="6.24119">
        <ele>1239.8984</ele>
        <time>2013-08-11T14:03:47Z</time>
      </trkpt>
      <trkpt lat="45.70987" lon="6.2412">
        <ele>1239.8984</ele>
        <time>2013-08-11T14:03:52Z</time>
      </trkpt>
      <trkpt lat="45.70987" lon="6.2412">
        <ele>1239.8984</ele>
        <time>2013-08-11T14:03:58Z</time>
      </trkpt>
      <trkpt lat="45.70986" lon="6.24122">
        <ele>1239.8984</ele>
        <time>2013-08-11T14:04:02Z</time>
      </trkpt>
      <trkpt lat="45.70986" lon="6.24122">
        <ele>1239.8984</ele>
        <time>2013-08-11T14:04:07Z</time>
      </trkpt>
      <trkpt lat="45.70986" lon="6.24122">
        <ele>1239.8984</ele>
        <time>2013-08-11T14:04:13Z</time>
      </trkpt>
      <trkpt lat="45.70982" lon="6.24121">
        <ele>1239.8984</ele>
        <time>2013-08-11T14:04:17Z</time>
      </trkpt>
      <trkpt lat="45.70977" lon="6.24117">
        <ele>1241.5753</ele>
        <time>2013-08-11T14:04:22Z</time>
      </trkpt>
      <trkpt lat="45.70976" lon="6.24117">
        <ele>1241.5753</ele>
        <time>2013-08-11T14:04:28Z</time>
      </trkpt>
      <trkpt lat="45.70968" lon="6.24107">
        <ele>1243.2548</ele>
        <time>2013-08-11T14:04:32Z</time>
      </trkpt>
      <trkpt lat="45.70962" lon="6.24105">
        <ele>1243.2548</ele>
        <time>2013-08-11T14:04:37Z</time>
      </trkpt>
      <trkpt lat="45.7096" lon="6.24105">
        <ele>1243.2548</ele>
        <time>2013-08-11T14:04:43Z</time>
      </trkpt>
      <trkpt lat="45.70953" lon="6.24101">
        <ele>1245.1245</ele>
        <time>2013-08-11T14:04:47Z</time>
      </trkpt>
      <trkpt lat="45.70948" lon="6.24096">
        <ele>1245.1245</ele>
        <time>2013-08-11T14:04:52Z</time>
      </trkpt>
      <trkpt lat="45.70947" lon="6.24095">
        <ele>1245.1245</ele>
        <time>2013-08-11T14:04:58Z</time>
      </trkpt>
      <trkpt lat="45.70941" lon="6.24095">
        <ele>1246.9548</ele>
        <time>2013-08-11T14:05:02Z</time>
      </trkpt>
      <trkpt lat="45.70936" lon="6.24091">
        <ele>1246.9548</ele>
        <time>2013-08-11T14:05:07Z</time>
      </trkpt>
      <trkpt lat="45.70927" lon="6.24085">
        <ele>1248.8065</ele>
        <time>2013-08-11T14:05:13Z</time>
      </trkpt>
      <trkpt lat="45.70924" lon="6.24082">
        <ele>1248.8065</ele>
        <time>2013-08-11T14:05:17Z</time>
      </trkpt>
      <trkpt lat="45.7092" lon="6.24077">
        <ele>1250.3905</ele>
        <time>2013-08-11T14:05:22Z</time>
      </trkpt>
      <trkpt lat="45.70919" lon="6.24076">
        <ele>1250.3905</ele>
        <time>2013-08-11T14:05:28Z</time>
      </trkpt>
      <trkpt lat="45.70909" lon="6.24074">
        <ele>1251.8143</ele>
        <time>2013-08-11T14:05:32Z</time>
      </trkpt>
      <trkpt lat="45.70902" lon="6.24075">
        <ele>1251.8143</ele>
        <time>2013-08-11T14:05:37Z</time>
      </trkpt>
      <trkpt lat="45.70896" lon="6.24072">
        <ele>1252.9045</ele>
        <time>2013-08-11T14:05:43Z</time>
      </trkpt>
      <trkpt lat="45.70886" lon="6.24073">
        <ele>1253.7611</ele>
        <time>2013-08-11T14:05:47Z</time>
      </trkpt>
      <trkpt lat="45.7088" lon="6.24071">
        <ele>1253.7611</ele>
        <time>2013-08-11T14:05:52Z</time>
      </trkpt>
      <trkpt lat="45.70875" lon="6.24071">
        <ele>1254.5206</ele>
        <time>2013-08-11T14:05:58Z</time>
      </trkpt>
      <trkpt lat="45.7087" lon="6.24071">
        <ele>1254.5206</ele>
        <time>2013-08-11T14:06:02Z</time>
      </trkpt>
      <trkpt lat="45.70864" lon="6.24069">
        <ele>1254.8925</ele>
        <time>2013-08-11T14:06:07Z</time>
      </trkpt>
      <trkpt lat="45.7086" lon="6.24072">
        <ele>1254.8925</ele>
        <time>2013-08-11T14:06:12Z</time>
      </trkpt>
      <trkpt lat="45.70851" lon="6.24074">
        <ele>1255.2714</ele>
        <time>2013-08-11T14:06:17Z</time>
      </trkpt>
      <trkpt lat="45.70845" lon="6.24073">
        <ele>1255.2714</ele>
        <time>2013-08-11T14:06:22Z</time>
      </trkpt>
      <trkpt lat="45.70841" lon="6.24072">
        <ele>1255.2308</ele>
        <time>2013-08-11T14:06:28Z</time>
      </trkpt>
      <trkpt lat="45.70838" lon="6.24072">
        <ele>1255.2308</ele>
        <time>2013-08-11T14:06:32Z</time>
      </trkpt>
      <trkpt lat="45.70833" lon="6.24071">
        <ele>1255.2308</ele>
        <time>2013-08-11T14:06:37Z</time>
      </trkpt>
      <trkpt lat="45.7083" lon="6.2407">
        <ele>1255.0834</ele>
        <time>2013-08-11T14:06:43Z</time>
      </trkpt>
      <trkpt lat="45.7082" lon="6.24067">
        <ele>1254.4706</ele>
        <time>2013-08-11T14:06:47Z</time>
      </trkpt>
      <trkpt lat="45.70815" lon="6.24066">
        <ele>1254.4706</ele>
        <time>2013-08-11T14:06:52Z</time>
      </trkpt>
      <trkpt lat="45.7081" lon="6.24066">
        <ele>1253.6671</ele>
        <time>2013-08-11T14:06:58Z</time>
      </trkpt>
      <trkpt lat="45.70803" lon="6.24062">
        <ele>1253.6671</ele>
        <time>2013-08-11T14:07:02Z</time>
      </trkpt>
      <trkpt lat="45.70798" lon="6.24057">
        <ele>1252.2799</ele>
        <time>2013-08-11T14:07:07Z</time>
      </trkpt>
      <trkpt lat="45.70795" lon="6.24056">
        <ele>1252.2799</ele>
        <time>2013-08-11T14:07:13Z</time>
      </trkpt>
      <trkpt lat="45.70789" lon="6.24054">
        <ele>1252.2799</ele>
        <time>2013-08-11T14:07:17Z</time>
      </trkpt>
      <trkpt lat="45.70783" lon="6.24056">
        <ele>1250.2634</ele>
        <time>2013-08-11T14:07:22Z</time>
      </trkpt>
      <trkpt lat="45.70779" lon="6.24058">
        <ele>1250.2634</ele>
        <time>2013-08-11T14:07:28Z</time>
      </trkpt>
      <trkpt lat="45.70773" lon="6.24063">
        <ele>1248.2985</ele>
        <time>2013-08-11T14:07:32Z</time>
      </trkpt>
      <trkpt lat="45.70768" lon="6.24068">
        <ele>1248.2985</ele>
        <time>2013-08-11T14:07:37Z</time>
      </trkpt>
      <trkpt lat="45.70766" lon="6.24069">
        <ele>1248.2985</ele>
        <time>2013-08-11T14:07:42Z</time>
      </trkpt>
      <trkpt lat="45.70762" lon="6.24071">
        <ele>1245.8483</ele>
        <time>2013-08-11T14:07:48Z</time>
      </trkpt>
      <trkpt lat="45.70756" lon="6.2407">
        <ele>1245.8483</ele>
        <time>2013-08-11T14:07:52Z</time>
      </trkpt>
      <trkpt lat="45.7075" lon="6.24071">
        <ele>1243.7863</ele>
        <time>2013-08-11T14:07:57Z</time>
      </trkpt>
      <trkpt lat="45.70745" lon="6.24072">
        <ele>1243.7863</ele>
        <time>2013-08-11T14:08:03Z</time>
      </trkpt>
      <trkpt lat="45.70738" lon="6.24075">
        <ele>1241.5228</ele>
        <time>2013-08-11T14:08:07Z</time>
      </trkpt>
      <trkpt lat="45.70733" lon="6.24075">
        <ele>1241.5228</ele>
        <time>2013-08-11T14:08:12Z</time>
      </trkpt>
      <trkpt lat="45.70731" lon="6.24075">
        <ele>1241.5228</ele>
        <time>2013-08-11T14:08:18Z</time>
      </trkpt>
      <trkpt lat="45.70722" lon="6.24076">
        <ele>1239.3483</ele>
        <time>2013-08-11T14:08:22Z</time>
      </trkpt>
      <trkpt lat="45.70717" lon="6.24074">
        <ele>1239.3483</ele>
        <time>2013-08-11T14:08:27Z</time>
      </trkpt>
      <trkpt lat="45.70711" lon="6.24074">
        <ele>1237.2146</ele>
        <time>2013-08-11T14:08:33Z</time>
      </trkpt>
      <trkpt lat="45.70707" lon="6.24072">
        <ele>1237.2146</ele>
        <time>2013-08-11T14:08:37Z</time>
      </trkpt>
      <trkpt lat="45.70701" lon="6.2407">
        <ele>1235.4086</ele>
        <time>2013-08-11T14:08:42Z</time>
      </trkpt>
      <trkpt lat="45.70699" lon="6.24069">
        <ele>1235.4086</ele>
        <time>2013-08-11T14:08:48Z</time>
      </trkpt>
      <trkpt lat="45.70696" lon="6.2407">
        <ele>1235.4086</ele>
        <time>2013-08-11T14:08:52Z</time>
      </trkpt>
      <trkpt lat="45.70692" lon="6.24073">
        <ele>1233.7341</ele>
        <time>2013-08-11T14:08:57Z</time>
      </trkpt>
      <trkpt lat="45.70688" lon="6.24075">
        <ele>1233.7341</ele>
        <time>2013-08-11T14:09:03Z</time>
      </trkpt>
      <trkpt lat="45.70683" lon="6.24075">
        <ele>1232.2397</ele>
        <time>2013-08-11T14:09:07Z</time>
      </trkpt>
      <trkpt lat="45.70676" lon="6.24079">
        <ele>1232.2397</ele>
        <time>2013-08-11T14:09:12Z</time>
      </trkpt>
      <trkpt lat="45.70672" lon="6.24082">
        <ele>1230.9269</ele>
        <time>2013-08-11T14:09:18Z</time>
      </trkpt>
      <trkpt lat="45.7066" lon="6.24084">
        <ele>1229.2775</ele>
        <time>2013-08-11T14:09:22Z</time>
      </trkpt>
      <trkpt lat="45.70654" lon="6.24088">
        <ele>1229.2775</ele>
        <time>2013-08-11T14:09:27Z</time>
      </trkpt>
      <trkpt lat="45.70649" lon="6.24089">
        <ele>1227.8502</ele>
        <time>2013-08-11T14:09:33Z</time>
      </trkpt>
      <trkpt lat="45.70642" lon="6.24085">
        <ele>1227.8502</ele>
        <time>2013-08-11T14:09:37Z</time>
      </trkpt>
      <trkpt lat="45.70638" lon="6.24082">
        <ele>1226.1536</ele>
        <time>2013-08-11T14:09:42Z</time>
      </trkpt>
      <trkpt lat="45.70637" lon="6.24081">
        <ele>1226.1536</ele>
        <time>2013-08-11T14:09:48Z</time>
      </trkpt>
      <trkpt lat="45.70635" lon="6.2408">
        <ele>1226.1536</ele>
        <time>2013-08-11T14:09:52Z</time>
      </trkpt>
      <trkpt lat="45.70632" lon="6.24078">
        <ele>1226.1536</ele>
        <time>2013-08-11T14:09:57Z</time>
      </trkpt>
      <trkpt lat="45.70631" lon="6.24074">
        <ele>1224.756</ele>
        <time>2013-08-11T14:10:02Z</time>
      </trkpt>
      <trkpt lat="45.70624" lon="6.2407">
        <ele>1224.756</ele>
        <time>2013-08-11T14:10:07Z</time>
      </trkpt>
      <trkpt lat="45.7062" lon="6.24068">
        <ele>1223.362</ele>
        <time>2013-08-11T14:10:12Z</time>
      </trkpt>
      <trkpt lat="45.70617" lon="6.24066">
        <ele>1223.362</ele>
        <time>2013-08-11T14:10:18Z</time>
      </trkpt>
      <trkpt lat="45.70608" lon="6.24066">
        <ele>1222.1013</ele>
        <time>2013-08-11T14:10:22Z</time>
      </trkpt>
      <trkpt lat="45.70592" lon="6.24066">
        <ele>1220.7335</ele>
        <time>2013-08-11T14:10:27Z</time>
      </trkpt>
      <trkpt lat="45.70586" lon="6.24066">
        <ele>1220.7335</ele>
        <time>2013-08-11T14:10:33Z</time>
      </trkpt>
      <trkpt lat="45.70578" lon="6.24071">
        <ele>1219.2526</ele>
        <time>2013-08-11T14:10:37Z</time>
      </trkpt>
      <trkpt lat="45.70573" lon="6.24072">
        <ele>1219.2526</ele>
        <time>2013-08-11T14:10:42Z</time>
      </trkpt>
      <trkpt lat="45.70567" lon="6.24074">
        <ele>1217.3071</ele>
        <time>2013-08-11T14:10:48Z</time>
      </trkpt>
      <trkpt lat="45.70556" lon="6.24081">
        <ele>1215.1638</ele>
        <time>2013-08-11T14:10:52Z</time>
      </trkpt>
      <trkpt lat="45.70554" lon="6.24081">
        <ele>1215.1638</ele>
        <time>2013-08-11T14:10:57Z</time>
      </trkpt>
      <trkpt lat="45.70553" lon="6.2408">
        <ele>1215.1638</ele>
        <time>2013-08-11T14:11:03Z</time>
      </trkpt>
      <trkpt lat="45.70549" lon="6.24079">
        <ele>1215.1638</ele>
        <time>2013-08-11T14:11:07Z</time>
      </trkpt>
      <trkpt lat="45.70546" lon="6.24074">
        <ele>1212.0474</ele>
        <time>2013-08-11T14:11:12Z</time>
      </trkpt>
      <trkpt lat="45.70544" lon="6.24072">
        <ele>1212.0474</ele>
        <time>2013-08-11T14:11:18Z</time>
      </trkpt>
      <trkpt lat="45.70537" lon="6.24075">
        <ele>1209.072</ele>
        <time>2013-08-11T14:11:22Z</time>
      </trkpt>
      <trkpt lat="45.70531" lon="6.24076">
        <ele>1209.072</ele>
        <time>2013-08-11T14:11:27Z</time>
      </trkpt>
      <trkpt lat="45.70529" lon="6.24077">
        <ele>1209.072</ele>
        <time>2013-08-11T14:11:33Z</time>
      </trkpt>
      <trkpt lat="45.70525" lon="6.24077">
        <ele>1206.5209</ele>
        <time>2013-08-11T14:11:37Z</time>
      </trkpt>
      <trkpt lat="45.70521" lon="6.24076">
        <ele>1206.5209</ele>
        <time>2013-08-11T14:11:42Z</time>
      </trkpt>
      <trkpt lat="45.70516" lon="6.24076">
        <ele>1206.5209</ele>
        <time>2013-08-11T14:11:48Z</time>
      </trkpt>
      <trkpt lat="45.70503" lon="6.24076">
        <ele>1204.5536</ele>
        <time>2013-08-11T14:11:52Z</time>
      </trkpt>
      <trkpt lat="45.70497" lon="6.24079">
        <ele>1204.5536</ele>
        <time>2013-08-11T14:11:57Z</time>
      </trkpt>
      <trkpt lat="45.70491" lon="6.24083">
        <ele>1202.0919</ele>
        <time>2013-08-11T14:12:03Z</time>
      </trkpt>
      <trkpt lat="45.70484" lon="6.24083">
        <ele>1202.0919</ele>
        <time>2013-08-11T14:12:07Z</time>
      </trkpt>
      <trkpt lat="45.70474" lon="6.24084">
        <ele>1199.4928</ele>
        <time>2013-08-11T14:12:12Z</time>
      </trkpt>
      <trkpt lat="45.70471" lon="6.24085">
        <ele>1199.4928</ele>
        <time>2013-08-11T14:12:18Z</time>
      </trkpt>
      <trkpt lat="45.70467" lon="6.24085">
        <ele>1199.4928</ele>
        <time>2013-08-11T14:12:22Z</time>
      </trkpt>
      <trkpt lat="45.70464" lon="6.24086">
        <ele>1196.7555</ele>
        <time>2013-08-11T14:12:27Z</time>
      </trkpt>
      <trkpt lat="45.7046" lon="6.24086">
        <ele>1196.7555</ele>
        <time>2013-08-11T14:12:33Z</time>
      </trkpt>
      <trkpt lat="45.70444" lon="6.24081">
        <ele>1193.534</ele>
        <time>2013-08-11T14:12:37Z</time>
      </trkpt>
      <trkpt lat="45.70439" lon="6.24088">
        <ele>1193.534</ele>
        <time>2013-08-11T14:12:42Z</time>
      </trkpt>
      <trkpt lat="45.7044" lon="6.24091">
        <ele>1190.1578</ele>
        <time>2013-08-11T14:12:47Z</time>
      </trkpt>
      <trkpt lat="45.7044" lon="6.24093">
        <ele>1190.1578</ele>
        <time>2013-08-11T14:12:52Z</time>
      </trkpt>
      <trkpt lat="45.7044" lon="6.24093">
        <ele>1190.1578</ele>
        <time>2013-08-11T14:12:57Z</time>
      </trkpt>
      <trkpt lat="45.7044" lon="6.24093">
        <ele>1190.1578</ele>
        <time>2013-08-11T14:13:03Z</time>
      </trkpt>
      <trkpt lat="45.7044" lon="6.24093">
        <ele>1190.1578</ele>
        <time>2013-08-11T14:13:07Z</time>
      </trkpt>
      <trkpt lat="45.7044" lon="6.24093">
        <ele>1190.1578</ele>
        <time>2013-08-11T14:13:12Z</time>
      </trkpt>
      <trkpt lat="45.7044" lon="6.24093">
        <ele>1190.1578</ele>
        <time>2013-08-11T14:13:18Z</time>
      </trkpt>
      <trkpt lat="45.7044" lon="6.24093">
        <ele>1190.1578</ele>
        <time>2013-08-11T14:13:22Z</time>
      </trkpt>
      <trkpt lat="45.70432" lon="6.2409">
        <ele>1187.1339</ele>
        <time>2013-08-11T14:13:27Z</time>
      </trkpt>
      <trkpt lat="45.70425" lon="6.24089">
        <ele>1187.1339</ele>
        <time>2013-08-11T14:13:32Z</time>
      </trkpt>
      <trkpt lat="45.70413" lon="6.24084">
        <ele>1184.0376</ele>
        <time>2013-08-11T14:13:37Z</time>
      </trkpt>
      <trkpt lat="45.70406" lon="6.2408">
        <ele>1184.0376</ele>
        <time>2013-08-11T14:13:42Z</time>
      </trkpt>
      <trkpt lat="45.70402" lon="6.24078">
        <ele>1181.0088</ele>
        <time>2013-08-11T14:13:47Z</time>
      </trkpt>
      <trkpt lat="45.70397" lon="6.24079">
        <ele>1181.0088</ele>
        <time>2013-08-11T14:13:53Z</time>
      </trkpt>
      <trkpt lat="45.70388" lon="6.24077">
        <ele>1178.2489</ele>
        <time>2013-08-11T14:13:57Z</time>
      </trkpt>
      <trkpt lat="45.70383" lon="6.24076">
        <ele>1178.2489</ele>
        <time>2013-08-11T14:14:02Z</time>
      </trkpt>
      <trkpt lat="45.70378" lon="6.24077">
        <ele>1176.1598</ele>
        <time>2013-08-11T14:14:07Z</time>
      </trkpt>
      <trkpt lat="45.70372" lon="6.2408">
        <ele>1176.1598</ele>
        <time>2013-08-11T14:14:12Z</time>
      </trkpt>
      <trkpt lat="45.70365" lon="6.24083">
        <ele>1174.5642</ele>
        <time>2013-08-11T14:14:17Z</time>
      </trkpt>
      <trkpt lat="45.70357" lon="6.24083">
        <ele>1174.5642</ele>
        <time>2013-08-11T14:14:23Z</time>
      </trkpt>
      <trkpt lat="45.70349" lon="6.2408">
        <ele>1173.4116</ele>
        <time>2013-08-11T14:14:27Z</time>
      </trkpt>
      <trkpt lat="45.70342" lon="6.24082">
        <ele>1173.4116</ele>
        <time>2013-08-11T14:14:32Z</time>
      </trkpt>
      <trkpt lat="45.70333" lon="6.24084">
        <ele>1173.0145</ele>
        <time>2013-08-11T14:14:37Z</time>
      </trkpt>
      <trkpt lat="45.70326" lon="6.24084">
        <ele>1173.0145</ele>
        <time>2013-08-11T14:14:42Z</time>
      </trkpt>
      <trkpt lat="45.70322" lon="6.24082">
        <ele>1172.8528</ele>
        <time>2013-08-11T14:14:47Z</time>
      </trkpt>
      <trkpt lat="45.70318" lon="6.24085">
        <ele>1172.8528</ele>
        <time>2013-08-11T14:14:52Z</time>
      </trkpt>
      <trkpt lat="45.70318" lon="6.24086">
        <ele>1172.8528</ele>
        <time>2013-08-11T14:14:57Z</time>
      </trkpt>
      <trkpt lat="45.70318" lon="6.24086">
        <ele>1172.8528</ele>
        <time>2013-08-11T14:15:02Z</time>
      </trkpt>
      <trkpt lat="45.70316" lon="6.24086">
        <ele>1172.8528</ele>
        <time>2013-08-11T14:15:07Z</time>
      </trkpt>
      <trkpt lat="45.7031" lon="6.24091">
        <ele>1174.7208</ele>
        <time>2013-08-11T14:15:13Z</time>
      </trkpt>
      <trkpt lat="45.70307" lon="6.24096">
        <ele>1174.7208</ele>
        <time>2013-08-11T14:15:17Z</time>
      </trkpt>
      <trkpt lat="45.70308" lon="6.24103">
        <ele>1177.4657</ele>
        <time>2013-08-11T14:15:22Z</time>
      </trkpt>
      <trkpt lat="45.70309" lon="6.24106">
        <ele>1177.4657</ele>
        <time>2013-08-11T14:15:27Z</time>
      </trkpt>
      <trkpt lat="45.70306" lon="6.24104">
        <ele>1177.4657</ele>
        <time>2013-08-11T14:15:32Z</time>
      </trkpt>
      <trkpt lat="45.70307" lon="6.241">
        <ele>1177.4657</ele>
        <time>2013-08-11T14:15:37Z</time>
      </trkpt>
      <trkpt lat="45.70308" lon="6.24101">
        <ele>1180.5493</ele>
        <time>2013-08-11T14:15:42Z</time>
      </trkpt>
      <trkpt lat="45.70311" lon="6.24107">
        <ele>1180.5493</ele>
        <time>2013-08-11T14:15:47Z</time>
      </trkpt>
      <trkpt lat="45.70317" lon="6.24104">
        <ele>1183.2133</ele>
        <time>2013-08-11T14:15:52Z</time>
      </trkpt>
      <trkpt lat="45.70321" lon="6.241">
        <ele>1183.2133</ele>
        <time>2013-08-11T14:15:58Z</time>
      </trkpt>
      <trkpt lat="45.70323" lon="6.24097">
        <ele>1183.2133</ele>
        <time>2013-08-11T14:16:02Z</time>
      </trkpt>
      <trkpt lat="45.70322" lon="6.24095">
        <ele>1184.8712</ele>
        <time>2013-08-11T14:16:07Z</time>
      </trkpt>
      <trkpt lat="45.70322" lon="6.24095">
        <ele>1184.8712</ele>
        <time>2013-08-11T14:16:13Z</time>
      </trkpt>
      <trkpt lat="45.70321" lon="6.24095">
        <ele>1184.8712</ele>
        <time>2013-08-11T14:16:17Z</time>
      </trkpt>
      <trkpt lat="45.70321" lon="6.24095">
        <ele>1184.8712</ele>
        <time>2013-08-11T14:16:22Z</time>
      </trkpt>
      <trkpt lat="45.70321" lon="6.24095">
        <ele>1184.8712</ele>
        <time>2013-08-11T14:16:28Z</time>
      </trkpt>
      <trkpt lat="45.70321" lon="6.24095">
        <ele>1184.8712</ele>
        <time>2013-08-11T14:16:32Z</time>
      </trkpt>
      <trkpt lat="45.70321" lon="6.24095">
        <ele>1184.8712</ele>
        <time>2013-08-11T14:16:37Z</time>
      </trkpt>
      <trkpt lat="45.70321" lon="6.24095">
        <ele>1184.8712</ele>
        <time>2013-08-11T14:16:43Z</time>
      </trkpt>
      <trkpt lat="45.70321" lon="6.24095">
        <ele>1184.8712</ele>
        <time>2013-08-11T14:16:47Z</time>
      </trkpt>
      <trkpt lat="45.70321" lon="6.24095">
        <ele>1184.8712</ele>
        <time>2013-08-11T14:16:52Z</time>
      </trkpt>
      <trkpt lat="45.70321" lon="6.24095">
        <ele>1184.8712</ele>
        <time>2013-08-11T14:16:58Z</time>
      </trkpt>
      <trkpt lat="45.70321" lon="6.24095">
        <ele>1184.8712</ele>
        <time>2013-08-11T14:17:02Z</time>
      </trkpt>
      <trkpt lat="45.70321" lon="6.24095">
        <ele>1184.8712</ele>
        <time>2013-08-11T14:17:07Z</time>
      </trkpt>
      <trkpt lat="45.70321" lon="6.24095">
        <ele>1184.8712</ele>
        <time>2013-08-11T14:17:13Z</time>
      </trkpt>
      <trkpt lat="45.70321" lon="6.24095">
        <ele>1184.8712</ele>
        <time>2013-08-11T14:17:17Z</time>
      </trkpt>
      <trkpt lat="45.70321" lon="6.24095">
        <ele>1184.8712</ele>
        <time>2013-08-11T14:17:22Z</time>
      </trkpt>
      <trkpt lat="45.70321" lon="6.24095">
        <ele>1184.8712</ele>
        <time>2013-08-11T14:17:28Z</time>
      </trkpt>
      <trkpt lat="45.70321" lon="6.24095">
        <ele>1184.8712</ele>
        <time>2013-08-11T14:17:32Z</time>
      </trkpt>
      <trkpt lat="45.70321" lon="6.24095">
        <ele>1184.8712</ele>
        <time>2013-08-11T14:17:37Z</time>
      </trkpt>
      <trkpt lat="45.70321" lon="6.24095">
        <ele>1184.8712</ele>
        <time>2013-08-11T14:17:43Z</time>
      </trkpt>
      <trkpt lat="45.70321" lon="6.24095">
        <ele>1184.8712</ele>
        <time>2013-08-11T14:17:47Z</time>
      </trkpt>
      <trkpt lat="45.70321" lon="6.24095">
        <ele>1184.8712</ele>
        <time>2013-08-11T14:17:52Z</time>
      </trkpt>
      <trkpt lat="45.70321" lon="6.24095">
        <ele>1184.8712</ele>
        <time>2013-08-11T14:17:57Z</time>
      </trkpt>
      <trkpt lat="45.70321" lon="6.24095">
        <ele>1184.8712</ele>
        <time>2013-08-11T14:18:02Z</time>
      </trkpt>
      <trkpt lat="45.70321" lon="6.24096">
        <ele>1184.8712</ele>
        <time>2013-08-11T14:18:07Z</time>
      </trkpt>
      <trkpt lat="45.7032" lon="6.24096">
        <ele>1184.8712</ele>
        <time>2013-08-11T14:18:12Z</time>
      </trkpt>
      <trkpt lat="45.7032" lon="6.24094">
        <ele>1184.8712</ele>
        <time>2013-08-11T14:18:18Z</time>
      </trkpt>
      <trkpt lat="45.7032" lon="6.24093">
        <ele>1184.8712</ele>
        <time>2013-08-11T14:18:22Z</time>
      </trkpt>
      <trkpt lat="45.7032" lon="6.24093">
        <ele>1184.8712</ele>
        <time>2013-08-11T14:18:27Z</time>
      </trkpt>
      <trkpt lat="45.7032" lon="6.24093">
        <ele>1184.8712</ele>
        <time>2013-08-11T14:18:33Z</time>
      </trkpt>
      <trkpt lat="45.7032" lon="6.24092">
        <ele>1184.8712</ele>
        <time>2013-08-11T14:18:37Z</time>
      </trkpt>
      <trkpt lat="45.7032" lon="6.24093">
        <ele>1184.8712</ele>
        <time>2013-08-11T14:18:42Z</time>
      </trkpt>
      <trkpt lat="45.7032" lon="6.24092">
        <ele>1184.8712</ele>
        <time>2013-08-11T14:18:47Z</time>
      </trkpt>
      <trkpt lat="45.7032" lon="6.24092">
        <ele>1184.8712</ele>
        <time>2013-08-11T14:18:53Z</time>
      </trkpt>
      <trkpt lat="45.70319" lon="6.24092">
        <ele>1184.8712</ele>
        <time>2013-08-11T14:18:57Z</time>
      </trkpt>
      <trkpt lat="45.70319" lon="6.24092">
        <ele>1184.8712</ele>
        <time>2013-08-11T14:19:02Z</time>
      </trkpt>
      <trkpt lat="45.70319" lon="6.24092">
        <ele>1184.8712</ele>
        <time>2013-08-11T14:19:08Z</time>
      </trkpt>
      <trkpt lat="45.70319" lon="6.24092">
        <ele>1184.8712</ele>
        <time>2013-08-11T14:19:12Z</time>
      </trkpt>
      <trkpt lat="45.70319" lon="6.24092">
        <ele>1184.8712</ele>
        <time>2013-08-11T14:19:17Z</time>
      </trkpt>
      <trkpt lat="45.70319" lon="6.24092">
        <ele>1184.8712</ele>
        <time>2013-08-11T14:19:23Z</time>
      </trkpt>
      <trkpt lat="45.70319" lon="6.24092">
        <ele>1184.8712</ele>
        <time>2013-08-11T14:19:27Z</time>
      </trkpt>
      <trkpt lat="45.70319" lon="6.24092">
        <ele>1184.8712</ele>
        <time>2013-08-11T14:19:32Z</time>
      </trkpt>
      <trkpt lat="45.70319" lon="6.24092">
        <ele>1184.8712</ele>
        <time>2013-08-11T14:19:37Z</time>
      </trkpt>
      <trkpt lat="45.7032" lon="6.24092">
        <ele>1184.8712</ele>
        <time>2013-08-11T14:19:43Z</time>
      </trkpt>
      <trkpt lat="45.70319" lon="6.24092">
        <ele>1184.8712</ele>
        <time>2013-08-11T14:19:47Z</time>
      </trkpt>
      <trkpt lat="45.70319" lon="6.24092">
        <ele>1184.8712</ele>
        <time>2013-08-11T14:19:52Z</time>
      </trkpt>
      <trkpt lat="45.70319" lon="6.24092">
        <ele>1184.8712</ele>
        <time>2013-08-11T14:19:58Z</time>
      </trkpt>
      <trkpt lat="45.7032" lon="6.24092">
        <ele>1184.8712</ele>
        <time>2013-08-11T14:20:02Z</time>
      </trkpt>
      <trkpt lat="45.7032" lon="6.24092">
        <ele>1184.8712</ele>
        <time>2013-08-11T14:20:07Z</time>
      </trkpt>
      <trkpt lat="45.7032" lon="6.24092">
        <ele>1184.8712</ele>
        <time>2013-08-11T14:20:13Z</time>
      </trkpt>
      <trkpt lat="45.7032" lon="6.24092">
        <ele>1184.8712</ele>
        <time>2013-08-11T14:20:17Z</time>
      </trkpt>
      <trkpt lat="45.70325" lon="6.24095">
        <ele>1185.7751</ele>
        <time>2013-08-11T14:20:22Z</time>
      </trkpt>
      <trkpt lat="45.70329" lon="6.24094">
        <ele>1185.7751</ele>
        <time>2013-08-11T14:20:28Z</time>
      </trkpt>
      <trkpt lat="45.70329" lon="6.24094">
        <ele>1185.7751</ele>
        <time>2013-08-11T14:20:32Z</time>
      </trkpt>
      <trkpt lat="45.70329" lon="6.24095">
        <ele>1185.7751</ele>
        <time>2013-08-11T14:20:37Z</time>
      </trkpt>
      <trkpt lat="45.7033" lon="6.24095">
        <ele>1185.7751</ele>
        <time>2013-08-11T14:20:42Z</time>
      </trkpt>
      <trkpt lat="45.7033" lon="6.24095">
        <ele>1185.7751</ele>
        <time>2013-08-11T14:20:47Z</time>
      </trkpt>
      <trkpt lat="45.7033" lon="6.24095">
        <ele>1185.7751</ele>
        <time>2013-08-11T14:20:52Z</time>
      </trkpt>
      <trkpt lat="45.7033" lon="6.24095">
        <ele>1185.7751</ele>
        <time>2013-08-11T14:20:57Z</time>
      </trkpt>
      <trkpt lat="45.7033" lon="6.24095">
        <ele>1185.7751</ele>
        <time>2013-08-11T14:21:02Z</time>
      </trkpt>
      <trkpt lat="45.7033" lon="6.24095">
        <ele>1185.7751</ele>
        <time>2013-08-11T14:21:07Z</time>
      </trkpt>
      <trkpt lat="45.7033" lon="6.24095">
        <ele>1185.7751</ele>
        <time>2013-08-11T14:21:13Z</time>
      </trkpt>
      <trkpt lat="45.7033" lon="6.24095">
        <ele>1185.7751</ele>
        <time>2013-08-11T14:21:17Z</time>
      </trkpt>
      <trkpt lat="45.7033" lon="6.24094">
        <ele>1185.7751</ele>
        <time>2013-08-11T14:21:23Z</time>
      </trkpt>
      <trkpt lat="45.7033" lon="6.24095">
        <ele>1185.7751</ele>
        <time>2013-08-11T14:21:27Z</time>
      </trkpt>
      <trkpt lat="45.7033" lon="6.24095">
        <ele>1185.7751</ele>
        <time>2013-08-11T14:21:32Z</time>
      </trkpt>
      <trkpt lat="45.7033" lon="6.24095">
        <ele>1185.7751</ele>
        <time>2013-08-11T14:21:37Z</time>
      </trkpt>
      <trkpt lat="45.7033" lon="6.24095">
        <ele>1185.7751</ele>
        <time>2013-08-11T14:21:43Z</time>
      </trkpt>
      <trkpt lat="45.7033" lon="6.24095">
        <ele>1185.7751</ele>
        <time>2013-08-11T14:21:47Z</time>
      </trkpt>
      <trkpt lat="45.7033" lon="6.24095">
        <ele>1185.7751</ele>
        <time>2013-08-11T14:21:52Z</time>
      </trkpt>
      <trkpt lat="45.7033" lon="6.24095">
        <ele>1185.7751</ele>
        <time>2013-08-11T14:21:58Z</time>
      </trkpt>
      <trkpt lat="45.7033" lon="6.24095">
        <ele>1185.7751</ele>
        <time>2013-08-11T14:22:02Z</time>
      </trkpt>
      <trkpt lat="45.7033" lon="6.24095">
        <ele>1185.7751</ele>
        <time>2013-08-11T14:22:07Z</time>
      </trkpt>
      <trkpt lat="45.7033" lon="6.24095">
        <ele>1185.7751</ele>
        <time>2013-08-11T14:22:13Z</time>
      </trkpt>
      <trkpt lat="45.7033" lon="6.24095">
        <ele>1185.7751</ele>
        <time>2013-08-11T14:22:17Z</time>
      </trkpt>
      <trkpt lat="45.7033" lon="6.24095">
        <ele>1185.7751</ele>
        <time>2013-08-11T14:22:22Z</time>
      </trkpt>
      <trkpt lat="45.7033" lon="6.24095">
        <ele>1185.7751</ele>
        <time>2013-08-11T14:22:28Z</time>
      </trkpt>
      <trkpt lat="45.7033" lon="6.24095">
        <ele>1185.7751</ele>
        <time>2013-08-11T14:22:32Z</time>
      </trkpt>
      <trkpt lat="45.7033" lon="6.24095">
        <ele>1185.7751</ele>
        <time>2013-08-11T14:22:37Z</time>
      </trkpt>
      <trkpt lat="45.7033" lon="6.24095">
        <ele>1185.7751</ele>
        <time>2013-08-11T14:22:43Z</time>
      </trkpt>
      <trkpt lat="45.7033" lon="6.24095">
        <ele>1185.7751</ele>
        <time>2013-08-11T14:22:47Z</time>
      </trkpt>
      <trkpt lat="45.7033" lon="6.24095">
        <ele>1185.7751</ele>
        <time>2013-08-11T14:22:52Z</time>
      </trkpt>
      <trkpt lat="45.7033" lon="6.24095">
        <ele>1185.7751</ele>
        <time>2013-08-11T14:22:58Z</time>
      </trkpt>
      <trkpt lat="45.7033" lon="6.24095">
        <ele>1185.7751</ele>
        <time>2013-08-11T14:23:02Z</time>
      </trkpt>
      <trkpt lat="45.7033" lon="6.24095">
        <ele>1185.7751</ele>
        <time>2013-08-11T14:23:07Z</time>
      </trkpt>
      <trkpt lat="45.7033" lon="6.24095">
        <ele>1185.7751</ele>
        <time>2013-08-11T14:23:13Z</time>
      </trkpt>
      <trkpt lat="45.7033" lon="6.24095">
        <ele>1185.7751</ele>
        <time>2013-08-11T14:23:17Z</time>
      </trkpt>
      <trkpt lat="45.7033" lon="6.24095">
        <ele>1185.7751</ele>
        <time>2013-08-11T14:23:22Z</time>
      </trkpt>
      <trkpt lat="45.7033" lon="6.24095">
        <ele>1185.7751</ele>
        <time>2013-08-11T14:23:28Z</time>
      </trkpt>
      <trkpt lat="45.7033" lon="6.24095">
        <ele>1185.7751</ele>
        <time>2013-08-11T14:23:32Z</time>
      </trkpt>
      <trkpt lat="45.7033" lon="6.24095">
        <ele>1185.7751</ele>
        <time>2013-08-11T14:23:37Z</time>
      </trkpt>
      <trkpt lat="45.7033" lon="6.24095">
        <ele>1185.7751</ele>
        <time>2013-08-11T14:23:42Z</time>
      </trkpt>
      <trkpt lat="45.7033" lon="6.24095">
        <ele>1185.7751</ele>
        <time>2013-08-11T14:23:47Z</time>
      </trkpt>
      <trkpt lat="45.7033" lon="6.24095">
        <ele>1185.7751</ele>
        <time>2013-08-11T14:23:52Z</time>
      </trkpt>
      <trkpt lat="45.7033" lon="6.24095">
        <ele>1185.7751</ele>
        <time>2013-08-11T14:23:57Z</time>
      </trkpt>
      <trkpt lat="45.70331" lon="6.24095">
        <ele>1186.0028</ele>
        <time>2013-08-11T14:24:02Z</time>
      </trkpt>
      <trkpt lat="45.70338" lon="6.24098">
        <ele>1186.0028</ele>
        <time>2013-08-11T14:24:07Z</time>
      </trkpt>
      <trkpt lat="45.70346" lon="6.24102">
        <ele>1185.8438</ele>
        <time>2013-08-11T14:24:12Z</time>
      </trkpt>
      <trkpt lat="45.70349" lon="6.24104">
        <ele>1185.8438</ele>
        <time>2013-08-11T14:24:17Z</time>
      </trkpt>
      <trkpt lat="45.70351" lon="6.24105">
        <ele>1185.8438</ele>
        <time>2013-08-11T14:24:22Z</time>
      </trkpt>
      <trkpt lat="45.70353" lon="6.24105">
        <ele>1185.8438</ele>
        <time>2013-08-11T14:24:27Z</time>
      </trkpt>
      <trkpt lat="45.70353" lon="6.24105">
        <ele>1185.8438</ele>
        <time>2013-08-11T14:24:32Z</time>
      </trkpt>
      <trkpt lat="45.70354" lon="6.24105">
        <ele>1185.8438</ele>
        <time>2013-08-11T14:24:37Z</time>
      </trkpt>
      <trkpt lat="45.70353" lon="6.24105">
        <ele>1185.8438</ele>
        <time>2013-08-11T14:24:42Z</time>
      </trkpt>
      <trkpt lat="45.70353" lon="6.24105">
        <ele>1185.8438</ele>
        <time>2013-08-11T14:24:47Z</time>
      </trkpt>
      <trkpt lat="45.70353" lon="6.24105">
        <ele>1185.8438</ele>
        <time>2013-08-11T14:24:52Z</time>
      </trkpt>
      <trkpt lat="45.70354" lon="6.24105">
        <ele>1185.6401</ele>
        <time>2013-08-11T14:24:57Z</time>
      </trkpt>
      <trkpt lat="45.70355" lon="6.24105">
        <ele>1185.6401</ele>
        <time>2013-08-11T14:25:02Z</time>
      </trkpt>
      <trkpt lat="45.70355" lon="6.24105">
        <ele>1185.6401</ele>
        <time>2013-08-11T14:25:08Z</time>
      </trkpt>
      <trkpt lat="45.70355" lon="6.24105">
        <ele>1185.6401</ele>
        <time>2013-08-11T14:25:12Z</time>
      </trkpt>
      <trkpt lat="45.70355" lon="6.24105">
        <ele>1185.6401</ele>
        <time>2013-08-11T14:25:17Z</time>
      </trkpt>
      <trkpt lat="45.70355" lon="6.24105">
        <ele>1185.6401</ele>
        <time>2013-08-11T14:25:23Z</time>
      </trkpt>
      <trkpt lat="45.70355" lon="6.24105">
        <ele>1185.6401</ele>
        <time>2013-08-11T14:25:27Z</time>
      </trkpt>
      <trkpt lat="45.70355" lon="6.24105">
        <ele>1185.6401</ele>
        <time>2013-08-11T14:25:32Z</time>
      </trkpt>
      <trkpt lat="45.70355" lon="6.24105">
        <ele>1185.6401</ele>
        <time>2013-08-11T14:25:37Z</time>
      </trkpt>
      <trkpt lat="45.70357" lon="6.24106">
        <ele>1185.6401</ele>
        <time>2013-08-11T14:25:43Z</time>
      </trkpt>
      <trkpt lat="45.7036" lon="6.24114">
        <ele>1185.6401</ele>
        <time>2013-08-11T14:25:47Z</time>
      </trkpt>
      <trkpt lat="45.70364" lon="6.24119">
        <ele>1185.7808</ele>
        <time>2013-08-11T14:25:52Z</time>
      </trkpt>
      <trkpt lat="45.7037" lon="6.24123">
        <ele>1185.7808</ele>
        <time>2013-08-11T14:25:58Z</time>
      </trkpt>
      <trkpt lat="45.70374" lon="6.24129">
        <ele>1185.7177</ele>
        <time>2013-08-11T14:26:02Z</time>
      </trkpt>
      <trkpt lat="45.70379" lon="6.24137">
        <ele>1185.7177</ele>
        <time>2013-08-11T14:26:07Z</time>
      </trkpt>
      <trkpt lat="45.70384" lon="6.24141">
        <ele>1185.8511</ele>
        <time>2013-08-11T14:26:13Z</time>
      </trkpt>
      <trkpt lat="45.70389" lon="6.24145">
        <ele>1185.8511</ele>
        <time>2013-08-11T14:26:17Z</time>
      </trkpt>
      <trkpt lat="45.70395" lon="6.24152">
        <ele>1185.0967</ele>
        <time>2013-08-11T14:26:22Z</time>
      </trkpt>
      <trkpt lat="45.70404" lon="6.24159">
        <ele>1183.8783</ele>
        <time>2013-08-11T14:26:28Z</time>
      </trkpt>
      <trkpt lat="45.70408" lon="6.24163">
        <ele>1183.8783</ele>
        <time>2013-08-11T14:26:32Z</time>
      </trkpt>
      <trkpt lat="45.70414" lon="6.2417">
        <ele>1182.1729</ele>
        <time>2013-08-11T14:26:37Z</time>
      </trkpt>
      <trkpt lat="45.70417" lon="6.24172">
        <ele>1182.1729</ele>
        <time>2013-08-11T14:26:42Z</time>
      </trkpt>
      <trkpt lat="45.70422" lon="6.24171">
        <ele>1182.1729</ele>
        <time>2013-08-11T14:26:47Z</time>
      </trkpt>
      <trkpt lat="45.70427" lon="6.24171">
        <ele>1180.1763</ele>
        <time>2013-08-11T14:26:52Z</time>
      </trkpt>
      <trkpt lat="45.70433" lon="6.24174">
        <ele>1180.1763</ele>
        <time>2013-08-11T14:26:57Z</time>
      </trkpt>
      <trkpt lat="45.70442" lon="6.24177">
        <ele>1177.6816</ele>
        <time>2013-08-11T14:27:02Z</time>
      </trkpt>
      <trkpt lat="45.70449" lon="6.24177">
        <ele>1177.6816</ele>
        <time>2013-08-11T14:27:07Z</time>
      </trkpt>
      <trkpt lat="45.70456" lon="6.2418">
        <ele>1175.609</ele>
        <time>2013-08-11T14:27:13Z</time>
      </trkpt>
      <trkpt lat="45.70463" lon="6.2418">
        <ele>1175.609</ele>
        <time>2013-08-11T14:27:17Z</time>
      </trkpt>
      <trkpt lat="45.70468" lon="6.24172">
        <ele>1173.786</ele>
        <time>2013-08-11T14:27:22Z</time>
      </trkpt>
      <trkpt lat="45.7047" lon="6.24171">
        <ele>1173.786</ele>
        <time>2013-08-11T14:27:28Z</time>
      </trkpt>
      <trkpt lat="45.70471" lon="6.24174">
        <ele>1173.786</ele>
        <time>2013-08-11T14:27:32Z</time>
      </trkpt>
      <trkpt lat="45.70475" lon="6.24179">
        <ele>1171.9661</ele>
        <time>2013-08-11T14:27:37Z</time>
      </trkpt>
      <trkpt lat="45.70479" lon="6.24183">
        <ele>1171.9661</ele>
        <time>2013-08-11T14:27:42Z</time>
      </trkpt>
      <trkpt lat="45.70487" lon="6.24185">
        <ele>1170.6414</ele>
        <time>2013-08-11T14:27:48Z</time>
      </trkpt>
      <trkpt lat="45.7049" lon="6.24188">
        <ele>1170.6414</ele>
        <time>2013-08-11T14:27:52Z</time>
      </trkpt>
      <trkpt lat="45.70495" lon="6.24194">
        <ele>1169.8196</ele>
        <time>2013-08-11T14:27:57Z</time>
      </trkpt>
      <trkpt lat="45.70502" lon="6.24199">
        <ele>1169.8196</ele>
        <time>2013-08-11T14:28:03Z</time>
      </trkpt>
      <trkpt lat="45.70504" lon="6.24204">
        <ele>1168.6276</ele>
        <time>2013-08-11T14:28:07Z</time>
      </trkpt>
      <trkpt lat="45.70509" lon="6.24211">
        <ele>1168.6276</ele>
        <time>2013-08-11T14:28:12Z</time>
      </trkpt>
      <trkpt lat="45.70525" lon="6.24217">
        <ele>1166.4014</ele>
        <time>2013-08-11T14:28:22Z</time>
      </trkpt>
      <trkpt lat="45.7053" lon="6.24218">
        <ele>1166.4014</ele>
        <time>2013-08-11T14:28:27Z</time>
      </trkpt>
      <trkpt lat="45.70533" lon="6.24215">
        <ele>1166.4014</ele>
        <time>2013-08-11T14:28:32Z</time>
      </trkpt>
      <trkpt lat="45.70538" lon="6.24219">
        <ele>1164.4313</ele>
        <time>2013-08-11T14:28:37Z</time>
      </trkpt>
      <trkpt lat="45.70544" lon="6.24226">
        <ele>1164.4313</ele>
        <time>2013-08-11T14:28:42Z</time>
      </trkpt>
      <trkpt lat="45.70549" lon="6.24228">
        <ele>1163.1912</ele>
        <time>2013-08-11T14:28:47Z</time>
      </trkpt>
      <trkpt lat="45.70553" lon="6.24234">
        <ele>1163.1912</ele>
        <time>2013-08-11T14:28:52Z</time>
      </trkpt>
      <trkpt lat="45.70557" lon="6.24242">
        <ele>1162.1383</ele>
        <time>2013-08-11T14:28:57Z</time>
      </trkpt>
      <trkpt lat="45.70566" lon="6.24249">
        <ele>1160.5963</ele>
        <time>2013-08-11T14:29:02Z</time>
      </trkpt>
      <trkpt lat="45.70572" lon="6.24249">
        <ele>1160.5963</ele>
        <time>2013-08-11T14:29:07Z</time>
      </trkpt>
      <trkpt lat="45.70578" lon="6.24243">
        <ele>1158.7758</ele>
        <time>2013-08-11T14:29:12Z</time>
      </trkpt>
      <trkpt lat="45.70578" lon="6.24241">
        <ele>1158.7758</ele>
        <time>2013-08-11T14:29:17Z</time>
      </trkpt>
      <trkpt lat="45.70578" lon="6.24241">
        <ele>1158.7758</ele>
        <time>2013-08-11T14:29:22Z</time>
      </trkpt>
      <trkpt lat="45.70578" lon="6.24241">
        <ele>1158.7758</ele>
        <time>2013-08-11T14:29:28Z</time>
      </trkpt>
      <trkpt lat="45.70583" lon="6.24245">
        <ele>1158.7758</ele>
        <time>2013-08-11T14:29:32Z</time>
      </trkpt>
      <trkpt lat="45.7059" lon="6.24251">
        <ele>1156.786</ele>
        <time>2013-08-11T14:29:37Z</time>
      </trkpt>
      <trkpt lat="45.70597" lon="6.24254">
        <ele>1156.786</ele>
        <time>2013-08-11T14:29:46Z</time>
      </trkpt>
      <trkpt lat="45.70604" lon="6.24255">
        <ele>1154.3829</ele>
        <time>2013-08-11T14:29:47Z</time>
      </trkpt>
      <trkpt lat="45.70611" lon="6.24254">
        <ele>1154.3829</ele>
        <time>2013-08-11T14:29:52Z</time>
      </trkpt>
      <trkpt lat="45.70616" lon="6.24252">
        <ele>1152.1199</ele>
        <time>2013-08-11T14:29:57Z</time>
      </trkpt>
      <trkpt lat="45.7062" lon="6.24251">
        <ele>1152.1199</ele>
        <time>2013-08-11T14:30:02Z</time>
      </trkpt>
      <trkpt lat="45.70622" lon="6.2425">
        <ele>1152.1199</ele>
        <time>2013-08-11T14:30:07Z</time>
      </trkpt>
      <trkpt lat="45.70623" lon="6.24253">
        <ele>1152.1199</ele>
        <time>2013-08-11T14:30:12Z</time>
      </trkpt>
      <trkpt lat="45.70625" lon="6.24261">
        <ele>1150.3358</ele>
        <time>2013-08-11T14:30:17Z</time>
      </trkpt>
      <trkpt lat="45.70625" lon="6.24266">
        <ele>1150.3358</ele>
        <time>2013-08-11T14:30:22Z</time>
      </trkpt>
      <trkpt lat="45.70626" lon="6.24268">
        <ele>1150.3358</ele>
        <time>2013-08-11T14:30:27Z</time>
      </trkpt>
      <trkpt lat="45.70625" lon="6.24268">
        <ele>1150.3358</ele>
        <time>2013-08-11T14:30:32Z</time>
      </trkpt>
      <trkpt lat="45.70625" lon="6.2427">
        <ele>1150.3358</ele>
        <time>2013-08-11T14:30:37Z</time>
      </trkpt>
      <trkpt lat="45.7063" lon="6.24266">
        <ele>1148.8539</ele>
        <time>2013-08-11T14:30:42Z</time>
      </trkpt>
      <trkpt lat="45.70635" lon="6.24261">
        <ele>1148.8539</ele>
        <time>2013-08-11T14:30:47Z</time>
      </trkpt>
      <trkpt lat="45.70641" lon="6.2426">
        <ele>1147.4369</ele>
        <time>2013-08-11T14:30:52Z</time>
      </trkpt>
      <trkpt lat="45.70646" lon="6.24265">
        <ele>1147.4369</ele>
        <time>2013-08-11T14:30:57Z</time>
      </trkpt>
      <trkpt lat="45.7065" lon="6.24277">
        <ele>1146.9027</ele>
        <time>2013-08-11T14:31:02Z</time>
      </trkpt>
      <trkpt lat="45.70651" lon="6.2428">
        <ele>1146.9027</ele>
        <time>2013-08-11T14:31:07Z</time>
      </trkpt>
      <trkpt lat="45.70653" lon="6.24281">
        <ele>1146.9027</ele>
        <time>2013-08-11T14:31:12Z</time>
      </trkpt>
      <trkpt lat="45.70654" lon="6.2428">
        <ele>1146.9027</ele>
        <time>2013-08-11T14:31:22Z</time>
      </trkpt>
      <trkpt lat="45.70654" lon="6.2428">
        <ele>1146.9027</ele>
        <time>2013-08-11T14:31:27Z</time>
      </trkpt>
      <trkpt lat="45.70654" lon="6.2428">
        <ele>1146.9027</ele>
        <time>2013-08-11T14:31:32Z</time>
      </trkpt>
      <trkpt lat="45.70654" lon="6.2428">
        <ele>1146.9027</ele>
        <time>2013-08-11T14:31:37Z</time>
      </trkpt>
      <trkpt lat="45.70656" lon="6.24281">
        <ele>1146.9027</ele>
        <time>2013-08-11T14:31:42Z</time>
      </trkpt>
      <trkpt lat="45.70662" lon="6.24282">
        <ele>1146.8248</ele>
        <time>2013-08-11T14:31:48Z</time>
      </trkpt>
      <trkpt lat="45.70663" lon="6.24281">
        <ele>1146.8248</ele>
        <time>2013-08-11T14:31:52Z</time>
      </trkpt>
      <trkpt lat="45.70665" lon="6.24282">
        <ele>1146.8248</ele>
        <time>2013-08-11T14:31:57Z</time>
      </trkpt>
      <trkpt lat="45.70672" lon="6.24274">
        <ele>1146.9076</ele>
        <time>2013-08-11T14:32:03Z</time>
      </trkpt>
      <trkpt lat="45.70677" lon="6.24267">
        <ele>1146.9076</ele>
        <time>2013-08-11T14:32:07Z</time>
      </trkpt>
      <trkpt lat="45.70679" lon="6.24264">
        <ele>1147.1216</ele>
        <time>2013-08-11T14:32:12Z</time>
      </trkpt>
      <trkpt lat="45.70681" lon="6.24263">
        <ele>1147.1216</ele>
        <time>2013-08-11T14:32:18Z</time>
      </trkpt>
      <trkpt lat="45.7068" lon="6.24267">
        <ele>1147.1216</ele>
        <time>2013-08-11T14:32:22Z</time>
      </trkpt>
      <trkpt lat="45.70681" lon="6.2427">
        <ele>1147.1216</ele>
        <time>2013-08-11T14:32:27Z</time>
      </trkpt>
      <trkpt lat="45.7068" lon="6.24269">
        <ele>1147.1216</ele>
        <time>2013-08-11T14:32:33Z</time>
      </trkpt>
      <trkpt lat="45.70681" lon="6.24269">
        <ele>1147.1216</ele>
        <time>2013-08-11T14:32:37Z</time>
      </trkpt>
      <trkpt lat="45.7068" lon="6.24272">
        <ele>1148.03</ele>
        <time>2013-08-11T14:32:42Z</time>
      </trkpt>
      <trkpt lat="45.7068" lon="6.24273">
        <ele>1148.03</ele>
        <time>2013-08-11T14:32:47Z</time>
      </trkpt>
      <trkpt lat="45.7068" lon="6.24277">
        <ele>1148.03</ele>
        <time>2013-08-11T14:32:52Z</time>
      </trkpt>
      <trkpt lat="45.7068" lon="6.24281">
        <ele>1148.03</ele>
        <time>2013-08-11T14:32:57Z</time>
      </trkpt>
      <trkpt lat="45.70682" lon="6.24282">
        <ele>1148.03</ele>
        <time>2013-08-11T14:33:02Z</time>
      </trkpt>
      <trkpt lat="45.70681" lon="6.24289">
        <ele>1148.6686</ele>
        <time>2013-08-11T14:33:07Z</time>
      </trkpt>
      <trkpt lat="45.70684" lon="6.24295">
        <ele>1148.6686</ele>
        <time>2013-08-11T14:33:12Z</time>
      </trkpt>
      <trkpt lat="45.70689" lon="6.24301">
        <ele>1148.8215</ele>
        <time>2013-08-11T14:33:17Z</time>
      </trkpt>
      <trkpt lat="45.70692" lon="6.24306">
        <ele>1148.8215</ele>
        <time>2013-08-11T14:33:22Z</time>
      </trkpt>
      <trkpt lat="45.70696" lon="6.24308">
        <ele>1148.6655</ele>
        <time>2013-08-11T14:33:27Z</time>
      </trkpt>
      <trkpt lat="45.70699" lon="6.24308">
        <ele>1148.6655</ele>
        <time>2013-08-11T14:33:33Z</time>
      </trkpt>
      <trkpt lat="45.70709" lon="6.24307">
        <ele>1147.8315</ele>
        <time>2013-08-11T14:33:37Z</time>
      </trkpt>
      <trkpt lat="45.70713" lon="6.2431">
        <ele>1147.8315</ele>
        <time>2013-08-11T14:33:42Z</time>
      </trkpt>
      <trkpt lat="45.70714" lon="6.24311">
        <ele>1147.8315</ele>
        <time>2013-08-11T14:33:48Z</time>
      </trkpt>
      <trkpt lat="45.70719" lon="6.24321">
        <ele>1146.4553</ele>
        <time>2013-08-11T14:33:52Z</time>
      </trkpt>
      <trkpt lat="45.70727" lon="6.24326">
        <ele>1146.4553</ele>
        <time>2013-08-11T14:33:57Z</time>
      </trkpt>
      <trkpt lat="45.70732" lon="6.24324">
        <ele>1144.8372</ele>
        <time>2013-08-11T14:34:02Z</time>
      </trkpt>
      <trkpt lat="45.70736" lon="6.24322">
        <ele>1144.8372</ele>
        <time>2013-08-11T14:34:07Z</time>
      </trkpt>
      <trkpt lat="45.70737" lon="6.24325">
        <ele>1144.8372</ele>
        <time>2013-08-11T14:34:12Z</time>
      </trkpt>
      <trkpt lat="45.70738" lon="6.24327">
        <ele>1144.8372</ele>
        <time>2013-08-11T14:34:17Z</time>
      </trkpt>
      <trkpt lat="45.70739" lon="6.24327">
        <ele>1144.8372</ele>
        <time>2013-08-11T14:34:22Z</time>
      </trkpt>
      <trkpt lat="45.70741" lon="6.24328">
        <ele>1144.0054</ele>
        <time>2013-08-11T14:34:27Z</time>
      </trkpt>
      <trkpt lat="45.70745" lon="6.24326">
        <ele>1144.0054</ele>
        <time>2013-08-11T14:34:33Z</time>
      </trkpt>
      <trkpt lat="45.70749" lon="6.24326">
        <ele>1143.383</ele>
        <time>2013-08-11T14:34:37Z</time>
      </trkpt>
      <trkpt lat="45.70748" lon="6.24325">
        <ele>1143.383</ele>
        <time>2013-08-11T14:34:42Z</time>
      </trkpt>
      <trkpt lat="45.70746" lon="6.24324">
        <ele>1143.383</ele>
        <time>2013-08-11T14:34:47Z</time>
      </trkpt>
      <trkpt lat="45.70746" lon="6.24321">
        <ele>1143.383</ele>
        <time>2013-08-11T14:34:52Z</time>
      </trkpt>
      <trkpt lat="45.70745" lon="6.24323">
        <ele>1143.383</ele>
        <time>2013-08-11T14:34:57Z</time>
      </trkpt>
      <trkpt lat="45.70745" lon="6.24328">
        <ele>1143.5012</ele>
        <time>2013-08-11T14:35:03Z</time>
      </trkpt>
      <trkpt lat="45.70745" lon="6.24335">
        <ele>1143.5012</ele>
        <time>2013-08-11T14:35:07Z</time>
      </trkpt>
      <trkpt lat="45.70749" lon="6.24343">
        <ele>1143.5963</ele>
        <time>2013-08-11T14:35:12Z</time>
      </trkpt>
      <trkpt lat="45.7075" lon="6.24344">
        <ele>1143.5963</ele>
        <time>2013-08-11T14:35:17Z</time>
      </trkpt>
      <trkpt lat="45.70749" lon="6.2435">
        <ele>1143.5963</ele>
        <time>2013-08-11T14:35:22Z</time>
      </trkpt>
      <trkpt lat="45.70748" lon="6.24354">
        <ele>1143.5963</ele>
        <time>2013-08-11T14:35:27Z</time>
      </trkpt>
      <trkpt lat="45.70746" lon="6.24359">
        <ele>1143.451</ele>
        <time>2013-08-11T14:35:33Z</time>
      </trkpt>
      <trkpt lat="45.70746" lon="6.24365">
        <ele>1143.451</ele>
        <time>2013-08-11T14:35:37Z</time>
      </trkpt>
      <trkpt lat="45.70745" lon="6.24371">
        <ele>1143.451</ele>
        <time>2013-08-11T14:35:42Z</time>
      </trkpt>
      <trkpt lat="45.70748" lon="6.24379">
        <ele>1143.2825</ele>
        <time>2013-08-11T14:35:47Z</time>
      </trkpt>
      <trkpt lat="45.70749" lon="6.24387">
        <ele>1143.2825</ele>
        <time>2013-08-11T14:35:53Z</time>
      </trkpt>
      <trkpt lat="45.70752" lon="6.24393">
        <ele>1142.7588</ele>
        <time>2013-08-11T14:35:57Z</time>
      </trkpt>
      <trkpt lat="45.70754" lon="6.24399">
        <ele>1142.7588</ele>
        <time>2013-08-11T14:36:02Z</time>
      </trkpt>
      <trkpt lat="45.7076" lon="6.24407">
        <ele>1142.0924</ele>
        <time>2013-08-11T14:36:08Z</time>
      </trkpt>
      <trkpt lat="45.70765" lon="6.24413">
        <ele>1142.0924</ele>
        <time>2013-08-11T14:36:12Z</time>
      </trkpt>
      <trkpt lat="45.70768" lon="6.24422">
        <ele>1141.6964</ele>
        <time>2013-08-11T14:36:17Z</time>
      </trkpt>
      <trkpt lat="45.70774" lon="6.24442">
        <ele>1141.4778</ele>
        <time>2013-08-11T14:36:27Z</time>
      </trkpt>
      <trkpt lat="45.70776" lon="6.24448">
        <ele>1141.4778</ele>
        <time>2013-08-11T14:36:32Z</time>
      </trkpt>
      <trkpt lat="45.70779" lon="6.24457">
        <ele>1140.874</ele>
        <time>2013-08-11T14:36:37Z</time>
      </trkpt>
      <trkpt lat="45.70779" lon="6.24462">
        <ele>1140.874</ele>
        <time>2013-08-11T14:36:42Z</time>
      </trkpt>
      <trkpt lat="45.70774" lon="6.24464">
        <ele>1140.874</ele>
        <time>2013-08-11T14:36:47Z</time>
      </trkpt>
      <trkpt lat="45.70771" lon="6.24465">
        <ele>1139.4658</ele>
        <time>2013-08-11T14:36:52Z</time>
      </trkpt>
      <trkpt lat="45.70766" lon="6.2447">
        <ele>1139.4658</ele>
        <time>2013-08-11T14:36:57Z</time>
      </trkpt>
      <trkpt lat="45.70767" lon="6.24479">
        <ele>1137.3573</ele>
        <time>2013-08-11T14:37:03Z</time>
      </trkpt>
      <trkpt lat="45.70772" lon="6.2449">
        <ele>1134.7476</ele>
        <time>2013-08-11T14:37:07Z</time>
      </trkpt>
      <trkpt lat="45.70778" lon="6.2449">
        <ele>1134.7476</ele>
        <time>2013-08-11T14:37:12Z</time>
      </trkpt>
      <trkpt lat="45.70779" lon="6.2449">
        <ele>1134.7476</ele>
        <time>2013-08-11T14:37:18Z</time>
      </trkpt>
      <trkpt lat="45.70778" lon="6.2449">
        <ele>1134.7476</ele>
        <time>2013-08-11T14:37:22Z</time>
      </trkpt>
      <trkpt lat="45.70777" lon="6.24494">
        <ele>1131.6208</ele>
        <time>2013-08-11T14:37:27Z</time>
      </trkpt>
      <trkpt lat="45.70779" lon="6.24499">
        <ele>1131.6208</ele>
        <time>2013-08-11T14:37:33Z</time>
      </trkpt>
      <trkpt lat="45.70786" lon="6.24505">
        <ele>1128.5836</ele>
        <time>2013-08-11T14:37:37Z</time>
      </trkpt>
      <trkpt lat="45.70792" lon="6.24508">
        <ele>1128.5836</ele>
        <time>2013-08-11T14:37:42Z</time>
      </trkpt>
      <trkpt lat="45.708" lon="6.24508">
        <ele>1125.1167</ele>
        <time>2013-08-11T14:37:47Z</time>
      </trkpt>
      <trkpt lat="45.70806" lon="6.24508">
        <ele>1125.1167</ele>
        <time>2013-08-11T14:37:53Z</time>
      </trkpt>
      <trkpt lat="45.70807" lon="6.24508">
        <ele>1125.1167</ele>
        <time>2013-08-11T14:37:57Z</time>
      </trkpt>
      <trkpt lat="45.70806" lon="6.24511">
        <ele>1122.0084</ele>
        <time>2013-08-11T14:38:02Z</time>
      </trkpt>
      <trkpt lat="45.70808" lon="6.24517">
        <ele>1122.0084</ele>
        <time>2013-08-11T14:38:08Z</time>
      </trkpt>
      <trkpt lat="45.70808" lon="6.24519">
        <ele>1122.0084</ele>
        <time>2013-08-11T14:38:12Z</time>
      </trkpt>
      <trkpt lat="45.70806" lon="6.24523">
        <ele>1118.9218</ele>
        <time>2013-08-11T14:38:17Z</time>
      </trkpt>
      <trkpt lat="45.70802" lon="6.24526">
        <ele>1118.9218</ele>
        <time>2013-08-11T14:38:23Z</time>
      </trkpt>
      <trkpt lat="45.70801" lon="6.2453">
        <ele>1118.9218</ele>
        <time>2013-08-11T14:38:27Z</time>
      </trkpt>
      <trkpt lat="45.708" lon="6.24537">
        <ele>1115.9767</ele>
        <time>2013-08-11T14:38:32Z</time>
      </trkpt>
      <trkpt lat="45.70799" lon="6.24547">
        <ele>1115.9767</ele>
        <time>2013-08-11T14:38:38Z</time>
      </trkpt>
      <trkpt lat="45.70798" lon="6.24557">
        <ele>1113.817</ele>
        <time>2013-08-11T14:38:42Z</time>
      </trkpt>
      <trkpt lat="45.70796" lon="6.24573">
        <ele>1112.2156</ele>
        <time>2013-08-11T14:38:47Z</time>
      </trkpt>
      <trkpt lat="45.70795" lon="6.24577">
        <ele>1112.2156</ele>
        <time>2013-08-11T14:38:53Z</time>
      </trkpt>
      <trkpt lat="45.7079" lon="6.24587">
        <ele>1111.1042</ele>
        <time>2013-08-11T14:38:57Z</time>
      </trkpt>
      <trkpt lat="45.70787" lon="6.24601">
        <ele>1109.9575</ele>
        <time>2013-08-11T14:39:02Z</time>
      </trkpt>
      <trkpt lat="45.70788" lon="6.24604">
        <ele>1109.9575</ele>
        <time>2013-08-11T14:39:08Z</time>
      </trkpt>
      <trkpt lat="45.7079" lon="6.24612">
        <ele>1109.9575</ele>
        <time>2013-08-11T14:39:12Z</time>
      </trkpt>
      <trkpt lat="45.7079" lon="6.24614">
        <ele>1108.1152</ele>
        <time>2013-08-11T14:39:17Z</time>
      </trkpt>
      <trkpt lat="45.7079" lon="6.24614">
        <ele>1108.1152</ele>
        <time>2013-08-11T14:39:23Z</time>
      </trkpt>
      <trkpt lat="45.7079" lon="6.24614">
        <ele>1108.1152</ele>
        <time>2013-08-11T14:39:27Z</time>
      </trkpt>
      <trkpt lat="45.7079" lon="6.24614">
        <ele>1108.1152</ele>
        <time>2013-08-11T14:39:32Z</time>
      </trkpt>
      <trkpt lat="45.7079" lon="6.24614">
        <ele>1108.1152</ele>
        <time>2013-08-11T14:39:38Z</time>
      </trkpt>
      <trkpt lat="45.7079" lon="6.24614">
        <ele>1108.1152</ele>
        <time>2013-08-11T14:39:42Z</time>
      </trkpt>
      <trkpt lat="45.7079" lon="6.24614">
        <ele>1108.1152</ele>
        <time>2013-08-11T14:39:47Z</time>
      </trkpt>
      <trkpt lat="45.7079" lon="6.24614">
        <ele>1108.1152</ele>
        <time>2013-08-11T14:39:52Z</time>
      </trkpt>
      <trkpt lat="45.70789" lon="6.24615">
        <ele>1108.1152</ele>
        <time>2013-08-11T14:39:58Z</time>
      </trkpt>
      <trkpt lat="45.70782" lon="6.24622">
        <ele>1106.1066</ele>
        <time>2013-08-11T14:40:02Z</time>
      </trkpt>
      <trkpt lat="45.70777" lon="6.24629">
        <ele>1106.1066</ele>
        <time>2013-08-11T14:40:07Z</time>
      </trkpt>
      <trkpt lat="45.70776" lon="6.24631">
        <ele>1106.1066</ele>
        <time>2013-08-11T14:40:13Z</time>
      </trkpt>
      <trkpt lat="45.70769" lon="6.24645">
        <ele>1103.456</ele>
        <time>2013-08-11T14:40:17Z</time>
      </trkpt>
      <trkpt lat="45.7077" lon="6.24653">
        <ele>1103.456</ele>
        <time>2013-08-11T14:40:22Z</time>
      </trkpt>
      <trkpt lat="45.7077" lon="6.24654">
        <ele>1103.456</ele>
        <time>2013-08-11T14:40:28Z</time>
      </trkpt>
      <trkpt lat="45.70771" lon="6.24671">
        <ele>1099.5524</ele>
        <time>2013-08-11T14:40:32Z</time>
      </trkpt>
      <trkpt lat="45.7077" lon="6.24679">
        <ele>1099.5524</ele>
        <time>2013-08-11T14:40:37Z</time>
      </trkpt>
      <trkpt lat="45.7077" lon="6.24683">
        <ele>1099.5524</ele>
        <time>2013-08-11T14:40:43Z</time>
      </trkpt>
      <trkpt lat="45.70778" lon="6.24692">
        <ele>1094.0052</ele>
        <time>2013-08-11T14:40:47Z</time>
      </trkpt>
      <trkpt lat="45.70788" lon="6.24698">
        <ele>1088.1871</ele>
        <time>2013-08-11T14:40:52Z</time>
      </trkpt>
      <trkpt lat="45.70794" lon="6.247">
        <ele>1088.1871</ele>
        <time>2013-08-11T14:40:58Z</time>
      </trkpt>
      <trkpt lat="45.70801" lon="6.247">
        <ele>1082.6926</ele>
        <time>2013-08-11T14:41:02Z</time>
      </trkpt>
      <trkpt lat="45.70803" lon="6.24703">
        <ele>1082.6926</ele>
        <time>2013-08-11T14:41:07Z</time>
      </trkpt>
      <trkpt lat="45.70803" lon="6.24703">
        <ele>1082.6926</ele>
        <time>2013-08-11T14:41:13Z</time>
      </trkpt>
      <trkpt lat="45.70806" lon="6.24707">
        <ele>1082.6926</ele>
        <time>2013-08-11T14:41:17Z</time>
      </trkpt>
      <trkpt lat="45.70808" lon="6.24709">
        <ele>1076.746</ele>
        <time>2013-08-11T14:41:22Z</time>
      </trkpt>
      <trkpt lat="45.70811" lon="6.24711">
        <ele>1076.746</ele>
        <time>2013-08-11T14:41:28Z</time>
      </trkpt>
      <trkpt lat="45.70817" lon="6.24718">
        <ele>1070.9985</ele>
        <time>2013-08-11T14:41:32Z</time>
      </trkpt>
      <trkpt lat="45.70822" lon="6.24724">
        <ele>1070.9985</ele>
        <time>2013-08-11T14:41:37Z</time>
      </trkpt>
      <trkpt lat="45.70827" lon="6.24727">
        <ele>1065.491</ele>
        <time>2013-08-11T14:41:43Z</time>
      </trkpt>
      <trkpt lat="45.70831" lon="6.24735">
        <ele>1065.491</ele>
        <time>2013-08-11T14:41:47Z</time>
      </trkpt>
      <trkpt lat="45.70835" lon="6.24744">
        <ele>1060.4475</ele>
        <time>2013-08-11T14:41:52Z</time>
      </trkpt>
      <trkpt lat="45.70836" lon="6.24751">
        <ele>1060.4475</ele>
        <time>2013-08-11T14:41:58Z</time>
      </trkpt>
      <trkpt lat="45.7084" lon="6.24754">
        <ele>1055.7139</ele>
        <time>2013-08-11T14:42:02Z</time>
      </trkpt>
      <trkpt lat="45.70845" lon="6.24757">
        <ele>1055.7139</ele>
        <time>2013-08-11T14:42:07Z</time>
      </trkpt>
      <trkpt lat="45.7085" lon="6.24759">
        <ele>1051.2903</ele>
        <time>2013-08-11T14:42:13Z</time>
      </trkpt>
      <trkpt lat="45.70857" lon="6.24759">
        <ele>1051.2903</ele>
        <time>2013-08-11T14:42:17Z</time>
      </trkpt>
      <trkpt lat="45.70864" lon="6.24761">
        <ele>1047.0459</ele>
        <time>2013-08-11T14:42:22Z</time>
      </trkpt>
      <trkpt lat="45.7087" lon="6.24763">
        <ele>1047.0459</ele>
        <time>2013-08-11T14:42:27Z</time>
      </trkpt>
      <trkpt lat="45.70871" lon="6.24764">
        <ele>1047.0459</ele>
        <time>2013-08-11T14:42:33Z</time>
      </trkpt>
      <trkpt lat="45.70876" lon="6.24764">
        <ele>1043.6805</ele>
        <time>2013-08-11T14:42:37Z</time>
      </trkpt>
      <trkpt lat="45.70876" lon="6.24765">
        <ele>1043.6805</ele>
        <time>2013-08-11T14:42:42Z</time>
      </trkpt>
      <trkpt lat="45.70876" lon="6.24766">
        <ele>1043.6805</ele>
        <time>2013-08-11T14:42:47Z</time>
      </trkpt>
      <trkpt lat="45.70876" lon="6.24766">
        <ele>1043.6805</ele>
        <time>2013-08-11T14:42:52Z</time>
      </trkpt>
      <trkpt lat="45.70876" lon="6.24766">
        <ele>1043.6805</ele>
        <time>2013-08-11T14:42:57Z</time>
      </trkpt>
      <trkpt lat="45.70876" lon="6.24766">
        <ele>1043.6805</ele>
        <time>2013-08-11T14:43:02Z</time>
      </trkpt>
      <trkpt lat="45.70876" lon="6.24766">
        <ele>1043.6805</ele>
        <time>2013-08-11T14:43:07Z</time>
      </trkpt>
      <trkpt lat="45.70876" lon="6.24766">
        <ele>1043.6805</ele>
        <time>2013-08-11T14:43:13Z</time>
      </trkpt>
      <trkpt lat="45.70876" lon="6.24766">
        <ele>1043.6805</ele>
        <time>2013-08-11T14:43:17Z</time>
      </trkpt>
      <trkpt lat="45.70876" lon="6.24766">
        <ele>1043.6805</ele>
        <time>2013-08-11T14:43:22Z</time>
      </trkpt>
      <trkpt lat="45.70876" lon="6.24766">
        <ele>1043.6805</ele>
        <time>2013-08-11T14:43:28Z</time>
      </trkpt>
      <trkpt lat="45.70876" lon="6.24766">
        <ele>1043.6805</ele>
        <time>2013-08-11T14:43:32Z</time>
      </trkpt>
      <trkpt lat="45.70876" lon="6.24766">
        <ele>1043.6805</ele>
        <time>2013-08-11T14:43:37Z</time>
      </trkpt>
      <trkpt lat="45.70876" lon="6.24766">
        <ele>1043.6805</ele>
        <time>2013-08-11T14:43:43Z</time>
      </trkpt>
      <trkpt lat="45.70876" lon="6.24766">
        <ele>1043.6805</ele>
        <time>2013-08-11T14:43:47Z</time>
      </trkpt>
      <trkpt lat="45.70876" lon="6.24766">
        <ele>1043.6805</ele>
        <time>2013-08-11T14:43:52Z</time>
      </trkpt>
      <trkpt lat="45.70878" lon="6.24769">
        <ele>1043.6805</ele>
        <time>2013-08-11T14:43:58Z</time>
      </trkpt>
      <trkpt lat="45.70887" lon="6.2478">
        <ele>1039.4618</ele>
        <time>2013-08-11T14:44:02Z</time>
      </trkpt>
      <trkpt lat="45.70898" lon="6.24791">
        <ele>1035.8273</ele>
        <time>2013-08-11T14:44:07Z</time>
      </trkpt>
      <trkpt lat="45.70904" lon="6.24801">
        <ele>1035.8273</ele>
        <time>2013-08-11T14:44:13Z</time>
      </trkpt>
      <trkpt lat="45.70911" lon="6.24809">
        <ele>1031.8015</ele>
        <time>2013-08-11T14:44:17Z</time>
      </trkpt>
      <trkpt lat="45.70919" lon="6.24815">
        <ele>1028.0668</ele>
        <time>2013-08-11T14:44:22Z</time>
      </trkpt>
      <trkpt lat="45.70925" lon="6.24819">
        <ele>1028.0668</ele>
        <time>2013-08-11T14:44:28Z</time>
      </trkpt>
      <trkpt lat="45.70935" lon="6.24826">
        <ele>1024.4758</ele>
        <time>2013-08-11T14:44:32Z</time>
      </trkpt>
      <trkpt lat="45.7094" lon="6.2483">
        <ele>1024.4758</ele>
        <time>2013-08-11T14:44:37Z</time>
      </trkpt>
      <trkpt lat="45.70943" lon="6.24833">
        <ele>1020.80524</ele>
        <time>2013-08-11T14:44:43Z</time>
      </trkpt>
      <trkpt lat="45.70947" lon="6.24837">
        <ele>1020.80524</ele>
        <time>2013-08-11T14:44:47Z</time>
      </trkpt>
      <trkpt lat="45.70954" lon="6.24844">
        <ele>1017.28033</ele>
        <time>2013-08-11T14:44:52Z</time>
      </trkpt>
      <trkpt lat="45.70957" lon="6.24849">
        <ele>1017.28033</ele>
        <time>2013-08-11T14:44:58Z</time>
      </trkpt>
      <trkpt lat="45.70957" lon="6.2485">
        <ele>1017.28033</ele>
        <time>2013-08-11T14:45:02Z</time>
      </trkpt>
      <trkpt lat="45.70956" lon="6.24849">
        <ele>1017.28033</ele>
        <time>2013-08-11T14:45:07Z</time>
      </trkpt>
      <trkpt lat="45.70956" lon="6.24849">
        <ele>1017.28033</ele>
        <time>2013-08-11T14:45:13Z</time>
      </trkpt>
      <trkpt lat="45.70956" lon="6.24849">
        <ele>1017.28033</ele>
        <time>2013-08-11T14:45:17Z</time>
      </trkpt>
      <trkpt lat="45.70959" lon="6.24857">
        <ele>1013.99384</ele>
        <time>2013-08-11T14:45:22Z</time>
      </trkpt>
      <trkpt lat="45.70962" lon="6.24865">
        <ele>1013.99384</ele>
        <time>2013-08-11T14:45:28Z</time>
      </trkpt>
      <trkpt lat="45.70969" lon="6.24876">
        <ele>1011.04535</ele>
        <time>2013-08-11T14:45:32Z</time>
      </trkpt>
      <trkpt lat="45.70973" lon="6.2488">
        <ele>1011.04535</ele>
        <time>2013-08-11T14:45:37Z</time>
      </trkpt>
      <trkpt lat="45.70976" lon="6.24881">
        <ele>1011.04535</ele>
        <time>2013-08-11T14:45:42Z</time>
      </trkpt>
      <trkpt lat="45.70978" lon="6.24882">
        <ele>1007.5315</ele>
        <time>2013-08-11T14:45:48Z</time>
      </trkpt>
      <trkpt lat="45.70984" lon="6.24891">
        <ele>1007.5315</ele>
        <time>2013-08-11T14:45:52Z</time>
      </trkpt>
      <trkpt lat="45.70992" lon="6.24906">
        <ele>1003.10675</ele>
        <time>2013-08-11T14:45:57Z</time>
      </trkpt>
      <trkpt lat="45.70997" lon="6.24918">
        <ele>999.03845</ele>
        <time>2013-08-11T14:46:02Z</time>
      </trkpt>
      <trkpt lat="45.71002" lon="6.2492">
        <ele>999.03845</ele>
        <time>2013-08-11T14:46:08Z</time>
      </trkpt>
      <trkpt lat="45.71003" lon="6.2492">
        <ele>999.03845</ele>
        <time>2013-08-11T14:46:12Z</time>
      </trkpt>
      <trkpt lat="45.71003" lon="6.24921">
        <ele>999.03845</ele>
        <time>2013-08-11T14:46:17Z</time>
      </trkpt>
      <trkpt lat="45.71003" lon="6.24921">
        <ele>999.03845</ele>
        <time>2013-08-11T14:46:23Z</time>
      </trkpt>
      <trkpt lat="45.71003" lon="6.24921">
        <ele>999.03845</ele>
        <time>2013-08-11T14:46:27Z</time>
      </trkpt>
      <trkpt lat="45.71003" lon="6.24922">
        <ele>999.03845</ele>
        <time>2013-08-11T14:46:32Z</time>
      </trkpt>
      <trkpt lat="45.71003" lon="6.24921">
        <ele>999.03845</ele>
        <time>2013-08-11T14:46:38Z</time>
      </trkpt>
      <trkpt lat="45.71003" lon="6.24921">
        <ele>999.03845</ele>
        <time>2013-08-11T14:46:42Z</time>
      </trkpt>
      <trkpt lat="45.71003" lon="6.24921">
        <ele>999.03845</ele>
        <time>2013-08-11T14:46:47Z</time>
      </trkpt>
      <trkpt lat="45.71003" lon="6.24921">
        <ele>999.03845</ele>
        <time>2013-08-11T14:46:52Z</time>
      </trkpt>
      <trkpt lat="45.71003" lon="6.24921">
        <ele>999.03845</ele>
        <time>2013-08-11T14:46:57Z</time>
      </trkpt>
      <trkpt lat="45.71003" lon="6.24921">
        <ele>999.03845</ele>
        <time>2013-08-11T14:47:02Z</time>
      </trkpt>
      <trkpt lat="45.71003" lon="6.24921">
        <ele>999.03845</ele>
        <time>2013-08-11T14:47:07Z</time>
      </trkpt>
      <trkpt lat="45.71003" lon="6.24921">
        <ele>999.03845</ele>
        <time>2013-08-11T14:47:12Z</time>
      </trkpt>
      <trkpt lat="45.71003" lon="6.24921">
        <ele>999.03845</ele>
        <time>2013-08-11T14:47:17Z</time>
      </trkpt>
      <trkpt lat="45.71003" lon="6.24921">
        <ele>999.03845</ele>
        <time>2013-08-11T14:47:22Z</time>
      </trkpt>
      <trkpt lat="45.71003" lon="6.24921">
        <ele>999.03845</ele>
        <time>2013-08-11T14:47:27Z</time>
      </trkpt>
      <trkpt lat="45.71003" lon="6.24921">
        <ele>999.03845</ele>
        <time>2013-08-11T14:47:32Z</time>
      </trkpt>
      <trkpt lat="45.71003" lon="6.24921">
        <ele>999.03845</ele>
        <time>2013-08-11T14:47:37Z</time>
      </trkpt>
      <trkpt lat="45.71003" lon="6.24921">
        <ele>999.03845</ele>
        <time>2013-08-11T14:47:43Z</time>
      </trkpt>
      <trkpt lat="45.71003" lon="6.24921">
        <ele>999.03845</ele>
        <time>2013-08-11T14:47:47Z</time>
      </trkpt>
      <trkpt lat="45.71003" lon="6.24921">
        <ele>999.03845</ele>
        <time>2013-08-11T14:47:52Z</time>
      </trkpt>
      <trkpt lat="45.71003" lon="6.24921">
        <ele>999.03845</ele>
        <time>2013-08-11T14:47:58Z</time>
      </trkpt>
      <trkpt lat="45.71003" lon="6.24921">
        <ele>999.03845</ele>
        <time>2013-08-11T14:48:02Z</time>
      </trkpt>
      <trkpt lat="45.71003" lon="6.24921">
        <ele>999.03845</ele>
        <time>2013-08-11T14:48:07Z</time>
      </trkpt>
      <trkpt lat="45.71003" lon="6.24921">
        <ele>999.03845</ele>
        <time>2013-08-11T14:48:13Z</time>
      </trkpt>
      <trkpt lat="45.71003" lon="6.24921">
        <ele>999.03845</ele>
        <time>2013-08-11T14:48:17Z</time>
      </trkpt>
      <trkpt lat="45.71003" lon="6.24921">
        <ele>999.03845</ele>
        <time>2013-08-11T14:48:22Z</time>
      </trkpt>
      <trkpt lat="45.71003" lon="6.24921">
        <ele>999.03845</ele>
        <time>2013-08-11T14:48:28Z</time>
      </trkpt>
      <trkpt lat="45.71003" lon="6.24921">
        <ele>999.03845</ele>
        <time>2013-08-11T14:48:32Z</time>
      </trkpt>
      <trkpt lat="45.71003" lon="6.24921">
        <ele>999.03845</ele>
        <time>2013-08-11T14:48:37Z</time>
      </trkpt>
      <trkpt lat="45.71003" lon="6.24921">
        <ele>999.03845</ele>
        <time>2013-08-11T14:48:42Z</time>
      </trkpt>
      <trkpt lat="45.71003" lon="6.24921">
        <ele>999.03845</ele>
        <time>2013-08-11T14:48:47Z</time>
      </trkpt>
      <trkpt lat="45.71003" lon="6.24921">
        <ele>999.03845</ele>
        <time>2013-08-11T14:48:52Z</time>
      </trkpt>
      <trkpt lat="45.71003" lon="6.24921">
        <ele>999.03845</ele>
        <time>2013-08-11T14:48:57Z</time>
      </trkpt>
      <trkpt lat="45.71003" lon="6.24921">
        <ele>999.03845</ele>
        <time>2013-08-11T14:49:02Z</time>
      </trkpt>
      <trkpt lat="45.71003" lon="6.24921">
        <ele>999.03845</ele>
        <time>2013-08-11T14:49:08Z</time>
      </trkpt>
      <trkpt lat="45.71003" lon="6.24921">
        <ele>999.03845</ele>
        <time>2013-08-11T14:49:12Z</time>
      </trkpt>
      <trkpt lat="45.71003" lon="6.24921">
        <ele>999.03845</ele>
        <time>2013-08-11T14:49:17Z</time>
      </trkpt>
      <trkpt lat="45.71003" lon="6.24921">
        <ele>999.03845</ele>
        <time>2013-08-11T14:49:23Z</time>
      </trkpt>
      <trkpt lat="45.71003" lon="6.24921">
        <ele>999.03845</ele>
        <time>2013-08-11T14:49:27Z</time>
      </trkpt>
      <trkpt lat="45.71003" lon="6.24921">
        <ele>999.03845</ele>
        <time>2013-08-11T14:49:32Z</time>
      </trkpt>
      <trkpt lat="45.71003" lon="6.24921">
        <ele>999.03845</ele>
        <time>2013-08-11T14:49:38Z</time>
      </trkpt>
      <trkpt lat="45.71003" lon="6.24921">
        <ele>999.03845</ele>
        <time>2013-08-11T14:49:42Z</time>
      </trkpt>
      <trkpt lat="45.71003" lon="6.24921">
        <ele>999.03845</ele>
        <time>2013-08-11T14:49:47Z</time>
      </trkpt>
      <trkpt lat="45.71003" lon="6.24921">
        <ele>999.03845</ele>
        <time>2013-08-11T14:49:52Z</time>
      </trkpt>
      <trkpt lat="45.71003" lon="6.24921">
        <ele>999.03845</ele>
        <time>2013-08-11T14:49:57Z</time>
      </trkpt>
      <trkpt lat="45.71003" lon="6.24921">
        <ele>999.03845</ele>
        <time>2013-08-11T14:50:02Z</time>
      </trkpt>
      <trkpt lat="45.71003" lon="6.24921">
        <ele>999.03845</ele>
        <time>2013-08-11T14:50:07Z</time>
      </trkpt>
      <trkpt lat="45.71008" lon="6.2493">
        <ele>995.1884</ele>
        <time>2013-08-11T14:50:12Z</time>
      </trkpt>
      <trkpt lat="45.71015" lon="6.24936">
        <ele>995.1884</ele>
        <time>2013-08-11T14:50:17Z</time>
      </trkpt>
      <trkpt lat="45.71019" lon="6.24944">
        <ele>991.2979</ele>
        <time>2013-08-11T14:50:22Z</time>
      </trkpt>
      <trkpt lat="45.71021" lon="6.24954">
        <ele>991.2979</ele>
        <time>2013-08-11T14:50:27Z</time>
      </trkpt>
      <trkpt lat="45.71021" lon="6.24959">
        <ele>986.3491</ele>
        <time>2013-08-11T14:50:32Z</time>
      </trkpt>
      <trkpt lat="45.71021" lon="6.2496">
        <ele>986.3491</ele>
        <time>2013-08-11T14:50:37Z</time>
      </trkpt>
      <trkpt lat="45.71021" lon="6.24959">
        <ele>986.3491</ele>
        <time>2013-08-11T14:50:42Z</time>
      </trkpt>
      <trkpt lat="45.71023" lon="6.24962">
        <ele>986.3491</ele>
        <time>2013-08-11T14:50:47Z</time>
      </trkpt>
      <trkpt lat="45.71027" lon="6.24968">
        <ele>982.15424</ele>
        <time>2013-08-11T14:50:52Z</time>
      </trkpt>
      <trkpt lat="45.7103" lon="6.24972">
        <ele>982.15424</ele>
        <time>2013-08-11T14:50:58Z</time>
      </trkpt>
      <trkpt lat="45.71033" lon="6.2498">
        <ele>978.459</ele>
        <time>2013-08-11T14:51:02Z</time>
      </trkpt>
      <trkpt lat="45.71031" lon="6.24989">
        <ele>978.459</ele>
        <time>2013-08-11T14:51:07Z</time>
      </trkpt>
      <trkpt lat="45.7103" lon="6.24995">
        <ele>975.2136</ele>
        <time>2013-08-11T14:51:12Z</time>
      </trkpt>
      <trkpt lat="45.71031" lon="6.25005">
        <ele>975.2136</ele>
        <time>2013-08-11T14:51:17Z</time>
      </trkpt>
      <trkpt lat="45.71033" lon="6.25011">
        <ele>972.4858</ele>
        <time>2013-08-11T14:51:22Z</time>
      </trkpt>
      <trkpt lat="45.71035" lon="6.25018">
        <ele>972.4858</ele>
        <time>2013-08-11T14:51:28Z</time>
      </trkpt>
      <trkpt lat="45.71035" lon="6.25028">
        <ele>970.59607</ele>
        <time>2013-08-11T14:51:32Z</time>
      </trkpt>
      <trkpt lat="45.71037" lon="6.25035">
        <ele>970.59607</ele>
        <time>2013-08-11T14:51:37Z</time>
      </trkpt>
      <trkpt lat="45.71041" lon="6.25042">
        <ele>969.2337</ele>
        <time>2013-08-11T14:51:42Z</time>
      </trkpt>
      <trkpt lat="45.71049" lon="6.25049">
        <ele>968.2678</ele>
        <time>2013-08-11T14:51:47Z</time>
      </trkpt>
      <trkpt lat="45.71056" lon="6.25052">
        <ele>968.2678</ele>
        <time>2013-08-11T14:51:52Z</time>
      </trkpt>
      <trkpt lat="45.71057" lon="6.25057">
        <ele>967.7199</ele>
        <time>2013-08-11T14:51:57Z</time>
      </trkpt>
      <trkpt lat="45.71059" lon="6.25058">
        <ele>967.7199</ele>
        <time>2013-08-11T14:52:02Z</time>
      </trkpt>
      <trkpt lat="45.71065" lon="6.25055">
        <ele>967.7199</ele>
        <time>2013-08-11T14:52:07Z</time>
      </trkpt>
      <trkpt lat="45.71067" lon="6.25054">
        <ele>967.00354</ele>
        <time>2013-08-11T14:52:13Z</time>
      </trkpt>
      <trkpt lat="45.7107" lon="6.25061">
        <ele>967.00354</ele>
        <time>2013-08-11T14:52:17Z</time>
      </trkpt>
      <trkpt lat="45.71075" lon="6.25064">
        <ele>966.80066</ele>
        <time>2013-08-11T14:52:22Z</time>
      </trkpt>
      <trkpt lat="45.7108" lon="6.25065">
        <ele>966.80066</ele>
        <time>2013-08-11T14:52:28Z</time>
      </trkpt>
      <trkpt lat="45.7109" lon="6.25074">
        <ele>966.0124</ele>
        <time>2013-08-11T14:52:32Z</time>
      </trkpt>
      <trkpt lat="45.71092" lon="6.25083">
        <ele>966.0124</ele>
        <time>2013-08-11T14:52:37Z</time>
      </trkpt>
      <trkpt lat="45.71096" lon="6.25089">
        <ele>964.5878</ele>
        <time>2013-08-11T14:52:42Z</time>
      </trkpt>
      <trkpt lat="45.71099" lon="6.25095">
        <ele>964.5878</ele>
        <time>2013-08-11T14:52:47Z</time>
      </trkpt>
      <trkpt lat="45.711" lon="6.25105">
        <ele>963.4327</ele>
        <time>2013-08-11T14:52:52Z</time>
      </trkpt>
      <trkpt lat="45.711" lon="6.25114">
        <ele>963.4327</ele>
        <time>2013-08-11T14:52:57Z</time>
      </trkpt>
      <trkpt lat="45.71101" lon="6.25117">
        <ele>963.4327</ele>
        <time>2013-08-11T14:53:03Z</time>
      </trkpt>
      <trkpt lat="45.71105" lon="6.25124">
        <ele>962.3479</ele>
        <time>2013-08-11T14:53:07Z</time>
      </trkpt>
      <trkpt lat="45.71105" lon="6.25126">
        <ele>962.3479</ele>
        <time>2013-08-11T14:53:12Z</time>
      </trkpt>
      <trkpt lat="45.71101" lon="6.25131">
        <ele>962.3479</ele>
        <time>2013-08-11T14:53:18Z</time>
      </trkpt>
      <trkpt lat="45.71104" lon="6.25136">
        <ele>961.78296</ele>
        <time>2013-08-11T14:53:22Z</time>
      </trkpt>
      <trkpt lat="45.71103" lon="6.25147">
        <ele>961.78296</ele>
        <time>2013-08-11T14:53:27Z</time>
      </trkpt>
      <trkpt lat="45.71101" lon="6.25159">
        <ele>961.5334</ele>
        <time>2013-08-11T14:53:33Z</time>
      </trkpt>
      <trkpt lat="45.71102" lon="6.25165">
        <ele>961.5334</ele>
        <time>2013-08-11T14:53:37Z</time>
      </trkpt>
      <trkpt lat="45.71103" lon="6.25173">
        <ele>961.48083</ele>
        <time>2013-08-11T14:53:42Z</time>
      </trkpt>
      <trkpt lat="45.71102" lon="6.25175">
        <ele>961.48083</ele>
        <time>2013-08-11T14:53:48Z</time>
      </trkpt>
      <trkpt lat="45.71103" lon="6.25202">
        <ele>961.429</ele>
        <time>2013-08-11T14:53:52Z</time>
      </trkpt>
      <trkpt lat="45.71106" lon="6.25215">
        <ele>961.6715</ele>
        <time>2013-08-11T14:53:57Z</time>
      </trkpt>
      <trkpt lat="45.71111" lon="6.25223">
        <ele>961.6715</ele>
        <time>2013-08-11T14:54:03Z</time>
      </trkpt>
      <trkpt lat="45.71114" lon="6.25227">
        <ele>962.1628</ele>
        <time>2013-08-11T14:54:07Z</time>
      </trkpt>
      <trkpt lat="45.71119" lon="6.25236">
        <ele>962.1628</ele>
        <time>2013-08-11T14:54:12Z</time>
      </trkpt>
      <trkpt lat="45.71122" lon="6.25237">
        <ele>962.94653</ele>
        <time>2013-08-11T14:54:18Z</time>
      </trkpt>
      <trkpt lat="45.71123" lon="6.25238">
        <ele>962.94653</ele>
        <time>2013-08-11T14:54:22Z</time>
      </trkpt>
      <trkpt lat="45.71125" lon="6.2524">
        <ele>962.94653</ele>
        <time>2013-08-11T14:54:27Z</time>
      </trkpt>
      <trkpt lat="45.71126" lon="6.25239">
        <ele>962.94653</ele>
        <time>2013-08-11T14:54:33Z</time>
      </trkpt>
      <trkpt lat="45.7113" lon="6.25239">
        <ele>963.97614</ele>
        <time>2013-08-11T14:54:37Z</time>
      </trkpt>
      <trkpt lat="45.71133" lon="6.25237">
        <ele>963.97614</ele>
        <time>2013-08-11T14:54:42Z</time>
      </trkpt>
      <trkpt lat="45.71132" lon="6.25238">
        <ele>963.97614</ele>
        <time>2013-08-11T14:54:49Z</time>
      </trkpt>
      <trkpt lat="45.71129" lon="6.25242">
        <ele>963.97614</ele>
        <time>2013-08-11T14:54:52Z</time>
      </trkpt>
      <trkpt lat="45.71129" lon="6.25248">
        <ele>964.93414</ele>
        <time>2013-08-11T14:54:57Z</time>
      </trkpt>
      <trkpt lat="45.71128" lon="6.25256">
        <ele>964.93414</ele>
        <time>2013-08-11T14:55:03Z</time>
      </trkpt>
      <trkpt lat="45.71132" lon="6.2527">
        <ele>965.93036</ele>
        <time>2013-08-11T14:55:07Z</time>
      </trkpt>
      <trkpt lat="45.71136" lon="6.25279">
        <ele>965.93036</ele>
        <time>2013-08-11T14:55:12Z</time>
      </trkpt>
      <trkpt lat="45.71143" lon="6.2529">
        <ele>966.98016</ele>
        <time>2013-08-11T14:55:18Z</time>
      </trkpt>
      <trkpt lat="45.71146" lon="6.25291">
        <ele>966.98016</ele>
        <time>2013-08-11T14:55:22Z</time>
      </trkpt>
      <trkpt lat="45.71149" lon="6.25298">
        <ele>968.19885</ele>
        <time>2013-08-11T14:55:27Z</time>
      </trkpt>
      <trkpt lat="45.7115" lon="6.253">
        <ele>968.19885</ele>
        <time>2013-08-11T14:55:33Z</time>
      </trkpt>
      <trkpt lat="45.71155" lon="6.25315">
        <ele>969.3327</ele>
        <time>2013-08-11T14:55:37Z</time>
      </trkpt>
      <trkpt lat="45.7116" lon="6.25319">
        <ele>969.3327</ele>
        <time>2013-08-11T14:55:42Z</time>
      </trkpt>
      <trkpt lat="45.7116" lon="6.25319">
        <ele>969.3327</ele>
        <time>2013-08-11T14:55:48Z</time>
      </trkpt>
      <trkpt lat="45.71167" lon="6.25329">
        <ele>970.50745</ele>
        <time>2013-08-11T14:55:52Z</time>
      </trkpt>
      <trkpt lat="45.71171" lon="6.25333">
        <ele>970.50745</ele>
        <time>2013-08-11T14:55:57Z</time>
      </trkpt>
      <trkpt lat="45.71176" lon="6.25339">
        <ele>971.5803</ele>
        <time>2013-08-11T14:56:03Z</time>
      </trkpt>
      <trkpt lat="45.7118" lon="6.2534">
        <ele>971.5803</ele>
        <time>2013-08-11T14:56:07Z</time>
      </trkpt>
      <trkpt lat="45.71186" lon="6.25341">
        <ele>973.0394</ele>
        <time>2013-08-11T14:56:12Z</time>
      </trkpt>
      <trkpt lat="45.71188" lon="6.25345">
        <ele>973.0394</ele>
        <time>2013-08-11T14:56:18Z</time>
      </trkpt>
      <trkpt lat="45.71193" lon="6.25346">
        <ele>973.0394</ele>
        <time>2013-08-11T14:56:22Z</time>
      </trkpt>
      <trkpt lat="45.712" lon="6.25348">
        <ele>974.0535</ele>
        <time>2013-08-11T14:56:27Z</time>
      </trkpt>
      <trkpt lat="45.71206" lon="6.25347">
        <ele>974.0535</ele>
        <time>2013-08-11T14:56:33Z</time>
      </trkpt>
      <trkpt lat="45.71209" lon="6.25349">
        <ele>975.3384</ele>
        <time>2013-08-11T14:56:37Z</time>
      </trkpt>
      <trkpt lat="45.71216" lon="6.25349">
        <ele>975.3384</ele>
        <time>2013-08-11T14:56:42Z</time>
      </trkpt>
      <trkpt lat="45.7122" lon="6.25348">
        <ele>976.59125</ele>
        <time>2013-08-11T14:56:48Z</time>
      </trkpt>
      <trkpt lat="45.71229" lon="6.25347">
        <ele>976.59125</ele>
        <time>2013-08-11T14:56:52Z</time>
      </trkpt>
      <trkpt lat="45.71235" lon="6.25346">
        <ele>977.7625</ele>
        <time>2013-08-11T14:56:57Z</time>
      </trkpt>
      <trkpt lat="45.7124" lon="6.25345">
        <ele>977.7625</ele>
        <time>2013-08-11T14:57:03Z</time>
      </trkpt>
      <trkpt lat="45.71247" lon="6.25345">
        <ele>978.7923</ele>
        <time>2013-08-11T14:57:07Z</time>
      </trkpt>
      <trkpt lat="45.71252" lon="6.25345">
        <ele>978.7923</ele>
        <time>2013-08-11T14:57:12Z</time>
      </trkpt>
      <trkpt lat="45.71254" lon="6.25346">
        <ele>978.7923</ele>
        <time>2013-08-11T14:57:18Z</time>
      </trkpt>
      <trkpt lat="45.71266" lon="6.25351">
        <ele>977.01764</ele>
        <time>2013-08-11T14:57:22Z</time>
      </trkpt>
      <trkpt lat="45.71272" lon="6.25354">
        <ele>977.01764</ele>
        <time>2013-08-11T14:57:27Z</time>
      </trkpt>
      <trkpt lat="45.71274" lon="6.25355">
        <ele>975.09515</ele>
        <time>2013-08-11T14:57:33Z</time>
      </trkpt>
      <trkpt lat="45.7128" lon="6.25363">
        <ele>975.09515</ele>
        <time>2013-08-11T14:57:37Z</time>
      </trkpt>
      <trkpt lat="45.71284" lon="6.25368">
        <ele>972.84973</ele>
        <time>2013-08-11T14:57:42Z</time>
      </trkpt>
      <trkpt lat="45.71288" lon="6.25372">
        <ele>972.84973</ele>
        <time>2013-08-11T14:57:48Z</time>
      </trkpt>
      <trkpt lat="45.71289" lon="6.25386">
        <ele>970.35095</ele>
        <time>2013-08-11T14:57:52Z</time>
      </trkpt>
      <trkpt lat="45.71292" lon="6.25392">
        <ele>970.35095</ele>
        <time>2013-08-11T14:57:57Z</time>
      </trkpt>
      <trkpt lat="45.7129" lon="6.25401">
        <ele>967.3617</ele>
        <time>2013-08-11T14:58:02Z</time>
      </trkpt>
      <trkpt lat="45.71292" lon="6.25408">
        <ele>967.3617</ele>
        <time>2013-08-11T14:58:07Z</time>
      </trkpt>
      <trkpt lat="45.71295" lon="6.25414">
        <ele>964.2544</ele>
        <time>2013-08-11T14:58:12Z</time>
      </trkpt>
      <trkpt lat="45.71299" lon="6.25425">
        <ele>964.2544</ele>
        <time>2013-08-11T14:58:18Z</time>
      </trkpt>
      <trkpt lat="45.71299" lon="6.25433">
        <ele>961.4615</ele>
        <time>2013-08-11T14:58:22Z</time>
      </trkpt>
      <trkpt lat="45.71297" lon="6.25444">
        <ele>961.4615</ele>
        <time>2013-08-11T14:58:27Z</time>
      </trkpt>
      <trkpt lat="45.713" lon="6.25452">
        <ele>959.10876</ele>
        <time>2013-08-11T14:58:33Z</time>
      </trkpt>
      <trkpt lat="45.71301" lon="6.25456">
        <ele>959.10876</ele>
        <time>2013-08-11T14:58:37Z</time>
      </trkpt>
      <trkpt lat="45.71304" lon="6.25462">
        <ele>959.10876</ele>
        <time>2013-08-11T14:58:42Z</time>
      </trkpt>
      <trkpt lat="45.7131" lon="6.25468">
        <ele>957.2687</ele>
        <time>2013-08-11T14:58:48Z</time>
      </trkpt>
      <trkpt lat="45.71314" lon="6.25473">
        <ele>957.2687</ele>
        <time>2013-08-11T14:58:52Z</time>
      </trkpt>
      <trkpt lat="45.71316" lon="6.25482">
        <ele>955.53125</ele>
        <time>2013-08-11T14:58:57Z</time>
      </trkpt>
      <trkpt lat="45.7132" lon="6.25494">
        <ele>953.53107</ele>
        <time>2013-08-11T14:59:02Z</time>
      </trkpt>
      <trkpt lat="45.71324" lon="6.25501">
        <ele>953.53107</ele>
        <time>2013-08-11T14:59:07Z</time>
      </trkpt>
      <trkpt lat="45.7133" lon="6.25508">
        <ele>951.52094</ele>
        <time>2013-08-11T14:59:12Z</time>
      </trkpt>
      <trkpt lat="45.71334" lon="6.25517">
        <ele>951.52094</ele>
        <time>2013-08-11T14:59:18Z</time>
      </trkpt>
      <trkpt lat="45.71336" lon="6.25522">
        <ele>950.1966</ele>
        <time>2013-08-11T14:59:22Z</time>
      </trkpt>
      <trkpt lat="45.7134" lon="6.25528">
        <ele>950.1966</ele>
        <time>2013-08-11T14:59:27Z</time>
      </trkpt>
      <trkpt lat="45.71346" lon="6.25533">
        <ele>948.8892</ele>
        <time>2013-08-11T14:59:33Z</time>
      </trkpt>
      <trkpt lat="45.7135" lon="6.25538">
        <ele>948.8892</ele>
        <time>2013-08-11T14:59:37Z</time>
      </trkpt>
      <trkpt lat="45.71356" lon="6.25542">
        <ele>947.78625</ele>
        <time>2013-08-11T14:59:42Z</time>
      </trkpt>
      <trkpt lat="45.71358" lon="6.25551">
        <ele>947.78625</ele>
        <time>2013-08-11T14:59:48Z</time>
      </trkpt>
      <trkpt lat="45.7136" lon="6.25561">
        <ele>947.0751</ele>
        <time>2013-08-11T14:59:52Z</time>
      </trkpt>
      <trkpt lat="45.71363" lon="6.25567">
        <ele>947.0751</ele>
        <time>2013-08-11T14:59:57Z</time>
      </trkpt>
      <trkpt lat="45.71364" lon="6.25572">
        <ele>946.75543</ele>
        <time>2013-08-11T15:00:02Z</time>
      </trkpt>
      <trkpt lat="45.71365" lon="6.25584">
        <ele>946.75543</ele>
        <time>2013-08-11T15:00:07Z</time>
      </trkpt>
      <trkpt lat="45.71366" lon="6.25595">
        <ele>946.2063</ele>
        <time>2013-08-11T15:00:13Z</time>
      </trkpt>
      <trkpt lat="45.71363" lon="6.25608">
        <ele>945.6455</ele>
        <time>2013-08-11T15:00:17Z</time>
      </trkpt>
      <trkpt lat="45.71364" lon="6.25617">
        <ele>945.6455</ele>
        <time>2013-08-11T15:00:22Z</time>
      </trkpt>
      <trkpt lat="45.71366" lon="6.25625">
        <ele>944.7706</ele>
        <time>2013-08-11T15:00:27Z</time>
      </trkpt>
      <trkpt lat="45.71373" lon="6.25632">
        <ele>944.7706</ele>
        <time>2013-08-11T15:00:32Z</time>
      </trkpt>
      <trkpt lat="45.71378" lon="6.2564">
        <ele>942.87006</ele>
        <time>2013-08-11T15:00:37Z</time>
      </trkpt>
      <trkpt lat="45.7138" lon="6.25649">
        <ele>942.87006</ele>
        <time>2013-08-11T15:00:42Z</time>
      </trkpt>
      <trkpt lat="45.71373" lon="6.25665">
        <ele>940.4112</ele>
        <time>2013-08-11T15:00:48Z</time>
      </trkpt>
      <trkpt lat="45.71374" lon="6.25671">
        <ele>940.4112</ele>
        <time>2013-08-11T15:00:52Z</time>
      </trkpt>
      <trkpt lat="45.7138" lon="6.25674">
        <ele>938.0163</ele>
        <time>2013-08-11T15:00:57Z</time>
      </trkpt>
      <trkpt lat="45.71383" lon="6.25675">
        <ele>938.0163</ele>
        <time>2013-08-11T15:01:03Z</time>
      </trkpt>
      <trkpt lat="45.71392" lon="6.25684">
        <ele>935.9878</ele>
        <time>2013-08-11T15:01:07Z</time>
      </trkpt>
      <trkpt lat="45.71395" lon="6.2569">
        <ele>935.9878</ele>
        <time>2013-08-11T15:01:12Z</time>
      </trkpt>
      <trkpt lat="45.71395" lon="6.25693">
        <ele>935.9878</ele>
        <time>2013-08-11T15:01:18Z</time>
      </trkpt>
      <trkpt lat="45.71399" lon="6.25706">
        <ele>934.3599</ele>
        <time>2013-08-11T15:01:22Z</time>
      </trkpt>
      <trkpt lat="45.71401" lon="6.25713">
        <ele>934.3599</ele>
        <time>2013-08-11T15:01:27Z</time>
      </trkpt>
      <trkpt lat="45.71402" lon="6.25717">
        <ele>934.3599</ele>
        <time>2013-08-11T15:01:33Z</time>
      </trkpt>
      <trkpt lat="45.71407" lon="6.25727">
        <ele>932.9902</ele>
        <time>2013-08-11T15:01:37Z</time>
      </trkpt>
      <trkpt lat="45.71409" lon="6.25736">
        <ele>932.9902</ele>
        <time>2013-08-11T15:01:42Z</time>
      </trkpt>
      <trkpt lat="45.71411" lon="6.25739">
        <ele>932.9902</ele>
        <time>2013-08-11T15:01:48Z</time>
      </trkpt>
      <trkpt lat="45.71418" lon="6.25749">
        <ele>932.1927</ele>
        <time>2013-08-11T15:01:52Z</time>
      </trkpt>
      <trkpt lat="45.7142" lon="6.25757">
        <ele>932.1927</ele>
        <time>2013-08-11T15:01:57Z</time>
      </trkpt>
      <trkpt lat="45.71421" lon="6.25763">
        <ele>931.81</ele>
        <time>2013-08-11T15:02:03Z</time>
      </trkpt>
      <trkpt lat="45.71424" lon="6.25778">
        <ele>931.5943</ele>
        <time>2013-08-11T15:02:07Z</time>
      </trkpt>
      <trkpt lat="45.71426" lon="6.25787">
        <ele>931.5943</ele>
        <time>2013-08-11T15:02:12Z</time>
      </trkpt>
      <trkpt lat="45.71426" lon="6.25789">
        <ele>931.5943</ele>
        <time>2013-08-11T15:02:18Z</time>
      </trkpt>
      <trkpt lat="45.71432" lon="6.25799">
        <ele>931.66125</ele>
        <time>2013-08-11T15:02:22Z</time>
      </trkpt>
      <trkpt lat="45.71438" lon="6.25805">
        <ele>931.66125</ele>
        <time>2013-08-11T15:02:27Z</time>
      </trkpt>
      <trkpt lat="45.71441" lon="6.25814">
        <ele>931.90106</ele>
        <time>2013-08-11T15:02:33Z</time>
      </trkpt>
      <trkpt lat="45.71443" lon="6.2582">
        <ele>931.90106</ele>
        <time>2013-08-11T15:02:37Z</time>
      </trkpt>
      <trkpt lat="45.71447" lon="6.25826">
        <ele>932.00977</ele>
        <time>2013-08-11T15:02:42Z</time>
      </trkpt>
      <trkpt lat="45.71451" lon="6.25828">
        <ele>932.00977</ele>
        <time>2013-08-11T15:02:48Z</time>
      </trkpt>
      <trkpt lat="45.71459" lon="6.25841">
        <ele>930.95667</ele>
        <time>2013-08-11T15:02:52Z</time>
      </trkpt>
      <trkpt lat="45.71464" lon="6.25849">
        <ele>930.95667</ele>
        <time>2013-08-11T15:02:57Z</time>
      </trkpt>
      <trkpt lat="45.71468" lon="6.2586">
        <ele>929.2313</ele>
        <time>2013-08-11T15:03:03Z</time>
      </trkpt>
      <trkpt lat="45.71469" lon="6.25867">
        <ele>929.2313</ele>
        <time>2013-08-11T15:03:07Z</time>
      </trkpt>
      <trkpt lat="45.7147" lon="6.25877">
        <ele>926.58276</ele>
        <time>2013-08-11T15:03:12Z</time>
      </trkpt>
      <trkpt lat="45.71472" lon="6.25882">
        <ele>926.58276</ele>
        <time>2013-08-11T15:03:19Z</time>
      </trkpt>
      <trkpt lat="45.71475" lon="6.25891">
        <ele>924.03516</ele>
        <time>2013-08-11T15:03:22Z</time>
      </trkpt>
      <trkpt lat="45.71479" lon="6.25897">
        <ele>924.03516</ele>
        <time>2013-08-11T15:03:27Z</time>
      </trkpt>
      <trkpt lat="45.71481" lon="6.25899">
        <ele>924.03516</ele>
        <time>2013-08-11T15:03:33Z</time>
      </trkpt>
      <trkpt lat="45.7149" lon="6.25905">
        <ele>921.91724</ele>
        <time>2013-08-11T15:03:37Z</time>
      </trkpt>
      <trkpt lat="45.71494" lon="6.25911">
        <ele>921.91724</ele>
        <time>2013-08-11T15:03:42Z</time>
      </trkpt>
      <trkpt lat="45.71496" lon="6.25917">
        <ele>920.0712</ele>
        <time>2013-08-11T15:03:49Z</time>
      </trkpt>
      <trkpt lat="45.715" lon="6.25925">
        <ele>920.0712</ele>
        <time>2013-08-11T15:03:52Z</time>
      </trkpt>
      <trkpt lat="45.71503" lon="6.25934">
        <ele>918.4944</ele>
        <time>2013-08-11T15:03:57Z</time>
      </trkpt>
      <trkpt lat="45.71504" lon="6.25939">
        <ele>918.4944</ele>
        <time>2013-08-11T15:04:03Z</time>
      </trkpt>
      <trkpt lat="45.71506" lon="6.25953">
        <ele>916.722</ele>
        <time>2013-08-11T15:04:07Z</time>
      </trkpt>
      <trkpt lat="45.71507" lon="6.25961">
        <ele>916.722</ele>
        <time>2013-08-11T15:04:12Z</time>
      </trkpt>
      <trkpt lat="45.71507" lon="6.25964">
        <ele>916.722</ele>
        <time>2013-08-11T15:04:18Z</time>
      </trkpt>
      <trkpt lat="45.71504" lon="6.25978">
        <ele>914.82855</ele>
        <time>2013-08-11T15:04:22Z</time>
      </trkpt>
      <trkpt lat="45.71503" lon="6.25987">
        <ele>914.82855</ele>
        <time>2013-08-11T15:04:27Z</time>
      </trkpt>
      <trkpt lat="45.71504" lon="6.2599">
        <ele>914.82855</ele>
        <time>2013-08-11T15:04:33Z</time>
      </trkpt>
      <trkpt lat="45.71508" lon="6.26007">
        <ele>913.90656</ele>
        <time>2013-08-11T15:04:37Z</time>
      </trkpt>
      <trkpt lat="45.71511" lon="6.26016">
        <ele>913.90656</ele>
        <time>2013-08-11T15:04:42Z</time>
      </trkpt>
      <trkpt lat="45.71513" lon="6.26023">
        <ele>912.9622</ele>
        <time>2013-08-11T15:04:48Z</time>
      </trkpt>
      <trkpt lat="45.71518" lon="6.26034">
        <ele>912.9622</ele>
        <time>2013-08-11T15:04:52Z</time>
      </trkpt>
      <trkpt lat="45.7152" lon="6.26041">
        <ele>912.2277</ele>
        <time>2013-08-11T15:04:57Z</time>
      </trkpt>
      <trkpt lat="45.71521" lon="6.26046">
        <ele>912.2277</ele>
        <time>2013-08-11T15:05:03Z</time>
      </trkpt>
      <trkpt lat="45.71524" lon="6.26058">
        <ele>911.4708</ele>
        <time>2013-08-11T15:05:07Z</time>
      </trkpt>
      <trkpt lat="45.71525" lon="6.26067">
        <ele>911.4708</ele>
        <time>2013-08-11T15:05:12Z</time>
      </trkpt>
      <trkpt lat="45.71525" lon="6.26074">
        <ele>910.82227</ele>
        <time>2013-08-11T15:05:18Z</time>
      </trkpt>
      <trkpt lat="45.71528" lon="6.26087">
        <ele>910.4748</ele>
        <time>2013-08-11T15:05:22Z</time>
      </trkpt>
      <trkpt lat="45.71532" lon="6.26097">
        <ele>910.4748</ele>
        <time>2013-08-11T15:05:27Z</time>
      </trkpt>
      <trkpt lat="45.71533" lon="6.26103">
        <ele>909.828</ele>
        <time>2013-08-11T15:05:33Z</time>
      </trkpt>
      <trkpt lat="45.71535" lon="6.26115">
        <ele>908.7443</ele>
        <time>2013-08-11T15:05:37Z</time>
      </trkpt>
      <trkpt lat="45.71538" lon="6.26124">
        <ele>908.7443</ele>
        <time>2013-08-11T15:05:42Z</time>
      </trkpt>
      <trkpt lat="45.71539" lon="6.26132">
        <ele>907.44336</ele>
        <time>2013-08-11T15:05:47Z</time>
      </trkpt>
      <trkpt lat="45.71543" lon="6.26139">
        <ele>907.44336</ele>
        <time>2013-08-11T15:05:52Z</time>
      </trkpt>
      <trkpt lat="45.71545" lon="6.26145">
        <ele>905.9851</ele>
        <time>2013-08-11T15:05:57Z</time>
      </trkpt>
      <trkpt lat="45.71546" lon="6.26149">
        <ele>905.9851</ele>
        <time>2013-08-11T15:06:03Z</time>
      </trkpt>
      <trkpt lat="45.71547" lon="6.26161">
        <ele>904.5551</ele>
        <time>2013-08-11T15:06:07Z</time>
      </trkpt>
      <trkpt lat="45.71549" lon="6.26169">
        <ele>904.5551</ele>
        <time>2013-08-11T15:06:12Z</time>
      </trkpt>
      <trkpt lat="45.7155" lon="6.26172">
        <ele>904.5551</ele>
        <time>2013-08-11T15:06:18Z</time>
      </trkpt>
      <trkpt lat="45.71553" lon="6.2618">
        <ele>903.80096</ele>
        <time>2013-08-11T15:06:22Z</time>
      </trkpt>
      <trkpt lat="45.71556" lon="6.26188">
        <ele>903.80096</ele>
        <time>2013-08-11T15:06:27Z</time>
      </trkpt>
      <trkpt lat="45.71558" lon="6.26191">
        <ele>903.2974</ele>
        <time>2013-08-11T15:06:33Z</time>
      </trkpt>
      <trkpt lat="45.71566" lon="6.26204">
        <ele>903.4281</ele>
        <time>2013-08-11T15:06:37Z</time>
      </trkpt>
      <trkpt lat="45.71571" lon="6.26211">
        <ele>903.4281</ele>
        <time>2013-08-11T15:06:42Z</time>
      </trkpt>
      <trkpt lat="45.71571" lon="6.26217">
        <ele>903.66754</ele>
        <time>2013-08-11T15:06:48Z</time>
      </trkpt>
      <trkpt lat="45.71574" lon="6.26231">
        <ele>903.62933</ele>
        <time>2013-08-11T15:06:52Z</time>
      </trkpt>
      <trkpt lat="45.71574" lon="6.26241">
        <ele>903.62933</ele>
        <time>2013-08-11T15:06:57Z</time>
      </trkpt>
      <trkpt lat="45.71574" lon="6.26249">
        <ele>903.48956</ele>
        <time>2013-08-11T15:07:03Z</time>
      </trkpt>
      <trkpt lat="45.71577" lon="6.26263">
        <ele>903.6999</ele>
        <time>2013-08-11T15:07:07Z</time>
      </trkpt>
      <trkpt lat="45.71578" lon="6.2627">
        <ele>903.6999</ele>
        <time>2013-08-11T15:07:12Z</time>
      </trkpt>
      <trkpt lat="45.71578" lon="6.26273">
        <ele>903.6999</ele>
        <time>2013-08-11T15:07:18Z</time>
      </trkpt>
      <trkpt lat="45.71583" lon="6.26284">
        <ele>904.13025</ele>
        <time>2013-08-11T15:07:22Z</time>
      </trkpt>
      <trkpt lat="45.71587" lon="6.26294">
        <ele>904.13025</ele>
        <time>2013-08-11T15:07:27Z</time>
      </trkpt>
      <trkpt lat="45.71589" lon="6.26298">
        <ele>904.3856</ele>
        <time>2013-08-11T15:07:33Z</time>
      </trkpt>
      <trkpt lat="45.71596" lon="6.26308">
        <ele>904.706</ele>
        <time>2013-08-11T15:07:37Z</time>
      </trkpt>
      <trkpt lat="45.71596" lon="6.26315">
        <ele>904.706</ele>
        <time>2013-08-11T15:07:42Z</time>
      </trkpt>
      <trkpt lat="45.71596" lon="6.26318">
        <ele>904.706</ele>
        <time>2013-08-11T15:07:48Z</time>
      </trkpt>
      <trkpt lat="45.71598" lon="6.26329">
        <ele>905.34216</ele>
        <time>2013-08-11T15:07:52Z</time>
      </trkpt>
      <trkpt lat="45.71602" lon="6.26337">
        <ele>905.34216</ele>
        <time>2013-08-11T15:07:57Z</time>
      </trkpt>
      <trkpt lat="45.71604" lon="6.26341">
        <ele>906.10803</ele>
        <time>2013-08-11T15:08:03Z</time>
      </trkpt>
      <trkpt lat="45.71608" lon="6.26352">
        <ele>906.10803</ele>
        <time>2013-08-11T15:08:07Z</time>
      </trkpt>
      <trkpt lat="45.7161" lon="6.26358">
        <ele>906.71533</ele>
        <time>2013-08-11T15:08:12Z</time>
      </trkpt>
      <trkpt lat="45.71611" lon="6.26361">
        <ele>906.71533</ele>
        <time>2013-08-11T15:08:18Z</time>
      </trkpt>
      <trkpt lat="45.71611" lon="6.26378">
        <ele>907.4886</ele>
        <time>2013-08-11T15:08:22Z</time>
      </trkpt>
      <trkpt lat="45.71613" lon="6.26388">
        <ele>907.4886</ele>
        <time>2013-08-11T15:08:27Z</time>
      </trkpt>
      <trkpt lat="45.71614" lon="6.26392">
        <ele>908.45404</ele>
        <time>2013-08-11T15:08:33Z</time>
      </trkpt>
      <trkpt lat="45.71618" lon="6.26404">
        <ele>909.1746</ele>
        <time>2013-08-11T15:08:37Z</time>
      </trkpt>
      <trkpt lat="45.71619" lon="6.26413">
        <ele>909.1746</ele>
        <time>2013-08-11T15:08:42Z</time>
      </trkpt>
      <trkpt lat="45.71619" lon="6.26418">
        <ele>909.40454</ele>
        <time>2013-08-11T15:08:48Z</time>
      </trkpt>
      <trkpt lat="45.71625" lon="6.2643">
        <ele>909.32117</ele>
        <time>2013-08-11T15:08:52Z</time>
      </trkpt>
      <trkpt lat="45.71627" lon="6.26436">
        <ele>909.32117</ele>
        <time>2013-08-11T15:08:57Z</time>
      </trkpt>
      <trkpt lat="45.71628" lon="6.26438">
        <ele>909.32117</ele>
        <time>2013-08-11T15:09:03Z</time>
      </trkpt>
      <trkpt lat="45.71631" lon="6.26452">
        <ele>908.38354</ele>
        <time>2013-08-11T15:09:07Z</time>
      </trkpt>
      <trkpt lat="45.71631" lon="6.2646">
        <ele>908.38354</ele>
        <time>2013-08-11T15:09:12Z</time>
      </trkpt>
      <trkpt lat="45.71631" lon="6.26461">
        <ele>908.38354</ele>
        <time>2013-08-11T15:09:18Z</time>
      </trkpt>
      <trkpt lat="45.71633" lon="6.26475">
        <ele>907.1306</ele>
        <time>2013-08-11T15:09:22Z</time>
      </trkpt>
      <trkpt lat="45.71633" lon="6.26476">
        <ele>907.1306</ele>
        <time>2013-08-11T15:09:27Z</time>
      </trkpt>
      <trkpt lat="45.71633" lon="6.26476">
        <ele>907.1306</ele>
        <time>2013-08-11T15:09:33Z</time>
      </trkpt>
      <trkpt lat="45.7163" lon="6.26479">
        <ele>907.1306</ele>
        <time>2013-08-11T15:09:37Z</time>
      </trkpt>
      <trkpt lat="45.7163" lon="6.2648">
        <ele>907.1306</ele>
        <time>2013-08-11T15:09:42Z</time>
      </trkpt>
      <trkpt lat="45.7163" lon="6.2648">
        <ele>907.1306</ele>
        <time>2013-08-11T15:09:48Z</time>
      </trkpt>
      <trkpt lat="45.7163" lon="6.2648">
        <ele>907.1306</ele>
        <time>2013-08-11T15:09:52Z</time>
      </trkpt>
      <trkpt lat="45.7163" lon="6.2648">
        <ele>907.1306</ele>
        <time>2013-08-11T15:09:57Z</time>
      </trkpt>
      <trkpt lat="45.7163" lon="6.26479">
        <ele>907.1306</ele>
        <time>2013-08-11T15:10:02Z</time>
      </trkpt>
      <trkpt lat="45.7163" lon="6.26479">
        <ele>907.1306</ele>
        <time>2013-08-11T15:10:07Z</time>
      </trkpt>
      <trkpt lat="45.7163" lon="6.26479">
        <ele>907.1306</ele>
        <time>2013-08-11T15:10:12Z</time>
      </trkpt>
      <trkpt lat="45.7163" lon="6.26479">
        <ele>907.1306</ele>
        <time>2013-08-11T15:10:17Z</time>
      </trkpt>
      <trkpt lat="45.7163" lon="6.26479">
        <ele>907.1306</ele>
        <time>2013-08-11T15:10:22Z</time>
      </trkpt>
      <trkpt lat="45.7163" lon="6.26479">
        <ele>907.1306</ele>
        <time>2013-08-11T15:10:27Z</time>
      </trkpt>
      <trkpt lat="45.7163" lon="6.26479">
        <ele>907.1306</ele>
        <time>2013-08-11T15:10:32Z</time>
      </trkpt>
      <trkpt lat="45.7163" lon="6.26479">
        <ele>907.1306</ele>
        <time>2013-08-11T15:10:37Z</time>
      </trkpt>
      <trkpt lat="45.7163" lon="6.26479">
        <ele>907.1306</ele>
        <time>2013-08-11T15:10:42Z</time>
      </trkpt>
      <trkpt lat="45.7163" lon="6.26479">
        <ele>907.1306</ele>
        <time>2013-08-11T15:10:48Z</time>
      </trkpt>
      <trkpt lat="45.7163" lon="6.26479">
        <ele>907.1306</ele>
        <time>2013-08-11T15:10:52Z</time>
      </trkpt>
      <trkpt lat="45.7163" lon="6.26479">
        <ele>907.1306</ele>
        <time>2013-08-11T15:10:57Z</time>
      </trkpt>
      <trkpt lat="45.7163" lon="6.26479">
        <ele>907.1306</ele>
        <time>2013-08-11T15:11:03Z</time>
      </trkpt>
      <trkpt lat="45.7163" lon="6.26479">
        <ele>907.1306</ele>
        <time>2013-08-11T15:11:07Z</time>
      </trkpt>
      <trkpt lat="45.71631" lon="6.2648">
        <ele>907.1306</ele>
        <time>2013-08-11T15:11:12Z</time>
      </trkpt>
      <trkpt lat="45.71632" lon="6.26483">
        <ele>906.26447</ele>
        <time>2013-08-11T15:11:18Z</time>
      </trkpt>
      <trkpt lat="45.71635" lon="6.26501">
        <ele>906.05994</ele>
        <time>2013-08-11T15:11:22Z</time>
      </trkpt>
      <trkpt lat="45.71638" lon="6.26508">
        <ele>906.05994</ele>
        <time>2013-08-11T15:11:27Z</time>
      </trkpt>
      <trkpt lat="45.71641" lon="6.26511">
        <ele>905.862</ele>
        <time>2013-08-11T15:11:32Z</time>
      </trkpt>
      <trkpt lat="45.71641" lon="6.26508">
        <ele>905.862</ele>
        <time>2013-08-11T15:11:37Z</time>
      </trkpt>
      <trkpt lat="45.7164" lon="6.26507">
        <ele>905.862</ele>
        <time>2013-08-11T15:11:42Z</time>
      </trkpt>
      <trkpt lat="45.7164" lon="6.26507">
        <ele>905.862</ele>
        <time>2013-08-11T15:11:47Z</time>
      </trkpt>
      <trkpt lat="45.71641" lon="6.26507">
        <ele>905.862</ele>
        <time>2013-08-11T15:11:52Z</time>
      </trkpt>
      <trkpt lat="45.71643" lon="6.26508">
        <ele>905.862</ele>
        <time>2013-08-11T15:11:57Z</time>
      </trkpt>
      <trkpt lat="45.71647" lon="6.26511">
        <ele>904.9052</ele>
        <time>2013-08-11T15:12:03Z</time>
      </trkpt>
      <trkpt lat="45.7165" lon="6.26516">
        <ele>904.9052</ele>
        <time>2013-08-11T15:12:07Z</time>
      </trkpt>
      <trkpt lat="45.71651" lon="6.26517">
        <ele>904.9052</ele>
        <time>2013-08-11T15:12:12Z</time>
      </trkpt>
      <trkpt lat="45.71651" lon="6.26518">
        <ele>904.9052</ele>
        <time>2013-08-11T15:12:18Z</time>
      </trkpt>
      <trkpt lat="45.71651" lon="6.26519">
        <ele>904.9052</ele>
        <time>2013-08-11T15:12:22Z</time>
      </trkpt>
      <trkpt lat="45.71651" lon="6.26519">
        <ele>904.9052</ele>
        <time>2013-08-11T15:12:27Z</time>
      </trkpt>
      <trkpt lat="45.71651" lon="6.26519">
        <ele>904.9052</ele>
        <time>2013-08-11T15:12:33Z</time>
      </trkpt>
      <trkpt lat="45.71657" lon="6.26525">
        <ele>903.4049</ele>
        <time>2013-08-11T15:12:37Z</time>
      </trkpt>
      <trkpt lat="45.71661" lon="6.26529">
        <ele>903.4049</ele>
        <time>2013-08-11T15:12:42Z</time>
      </trkpt>
      <trkpt lat="45.71662" lon="6.26536">
        <ele>901.86487</ele>
        <time>2013-08-11T15:12:47Z</time>
      </trkpt>
      <trkpt lat="45.71662" lon="6.26542">
        <ele>901.86487</ele>
        <time>2013-08-11T15:12:52Z</time>
      </trkpt>
      <trkpt lat="45.71662" lon="6.26542">
        <ele>901.86487</ele>
        <time>2013-08-11T15:12:57Z</time>
      </trkpt>
      <trkpt lat="45.71662" lon="6.26542">
        <ele>901.86487</ele>
        <time>2013-08-11T15:13:02Z</time>
      </trkpt>
      <trkpt lat="45.71666" lon="6.26545">
        <ele>900.14667</ele>
        <time>2013-08-11T15:13:07Z</time>
      </trkpt>
      <trkpt lat="45.71674" lon="6.26553">
        <ele>898.6703</ele>
        <time>2013-08-11T15:13:12Z</time>
      </trkpt>
      <trkpt lat="45.7168" lon="6.26563">
        <ele>897.7521</ele>
        <time>2013-08-11T15:13:17Z</time>
      </trkpt>
      <trkpt lat="45.71686" lon="6.26569">
        <ele>897.7521</ele>
        <time>2013-08-11T15:13:22Z</time>
      </trkpt>
      <trkpt lat="45.71689" lon="6.26574">
        <ele>896.58844</ele>
        <time>2013-08-11T15:13:27Z</time>
      </trkpt>
      <trkpt lat="45.71693" lon="6.26578">
        <ele>896.58844</ele>
        <time>2013-08-11T15:13:32Z</time>
      </trkpt>
      <trkpt lat="45.71696" lon="6.26588">
        <ele>895.6171</ele>
        <time>2013-08-11T15:13:37Z</time>
      </trkpt>
      <trkpt lat="45.71701" lon="6.26592">
        <ele>895.6171</ele>
        <time>2013-08-11T15:13:42Z</time>
      </trkpt>
      <trkpt lat="45.71705" lon="6.26597">
        <ele>894.3209</ele>
        <time>2013-08-11T15:13:48Z</time>
      </trkpt>
      <trkpt lat="45.71709" lon="6.26607">
        <ele>894.3209</ele>
        <time>2013-08-11T15:13:52Z</time>
      </trkpt>
      <trkpt lat="45.71712" lon="6.26617">
        <ele>893.56177</ele>
        <time>2013-08-11T15:13:57Z</time>
      </trkpt>
      <trkpt lat="45.71715" lon="6.26628">
        <ele>893.56177</ele>
        <time>2013-08-11T15:14:02Z</time>
      </trkpt>
      <trkpt lat="45.7172" lon="6.26635">
        <ele>893.3874</ele>
        <time>2013-08-11T15:14:07Z</time>
      </trkpt>
      <trkpt lat="45.71723" lon="6.2664">
        <ele>893.3874</ele>
        <time>2013-08-11T15:14:12Z</time>
      </trkpt>
      <trkpt lat="45.71724" lon="6.26648">
        <ele>893.6386</ele>
        <time>2013-08-11T15:14:18Z</time>
      </trkpt>
      <trkpt lat="45.71726" lon="6.26659">
        <ele>893.6386</ele>
        <time>2013-08-11T15:14:22Z</time>
      </trkpt>
      <trkpt lat="45.71728" lon="6.26667">
        <ele>893.8929</ele>
        <time>2013-08-11T15:14:27Z</time>
      </trkpt>
      <trkpt lat="45.7173" lon="6.26671">
        <ele>893.8929</ele>
        <time>2013-08-11T15:14:33Z</time>
      </trkpt>
      <trkpt lat="45.71733" lon="6.26681">
        <ele>894.292</ele>
        <time>2013-08-11T15:14:37Z</time>
      </trkpt>
      <trkpt lat="45.71736" lon="6.26691">
        <ele>894.292</ele>
        <time>2013-08-11T15:14:42Z</time>
      </trkpt>
      <trkpt lat="45.71739" lon="6.26697">
        <ele>894.63544</ele>
        <time>2013-08-11T15:14:48Z</time>
      </trkpt>
      <trkpt lat="45.71742" lon="6.26707">
        <ele>894.63544</ele>
        <time>2013-08-11T15:14:52Z</time>
      </trkpt>
      <trkpt lat="45.71744" lon="6.26717">
        <ele>895.0257</ele>
        <time>2013-08-11T15:14:57Z</time>
      </trkpt>
      <trkpt lat="45.71745" lon="6.26725">
        <ele>895.0257</ele>
        <time>2013-08-11T15:15:03Z</time>
      </trkpt>
      <trkpt lat="45.71746" lon="6.26735">
        <ele>895.29846</ele>
        <time>2013-08-11T15:15:07Z</time>
      </trkpt>
      <trkpt lat="45.71748" lon="6.26746">
        <ele>895.29846</ele>
        <time>2013-08-11T15:15:12Z</time>
      </trkpt>
      <trkpt lat="45.71751" lon="6.26753">
        <ele>894.98456</ele>
        <time>2013-08-11T15:15:18Z</time>
      </trkpt>
      <trkpt lat="45.71758" lon="6.26763">
        <ele>894.4149</ele>
        <time>2013-08-11T15:15:22Z</time>
      </trkpt>
      <trkpt lat="45.71762" lon="6.2677">
        <ele>894.4149</ele>
        <time>2013-08-11T15:15:27Z</time>
      </trkpt>
      <trkpt lat="45.71765" lon="6.26775">
        <ele>893.9977</ele>
        <time>2013-08-11T15:15:33Z</time>
      </trkpt>
      <trkpt lat="45.7177" lon="6.26783">
        <ele>893.9977</ele>
        <time>2013-08-11T15:15:37Z</time>
      </trkpt>
      <trkpt lat="45.71774" lon="6.26789">
        <ele>893.99536</ele>
        <time>2013-08-11T15:15:42Z</time>
      </trkpt>
      <trkpt lat="45.71775" lon="6.268">
        <ele>893.99536</ele>
        <time>2013-08-11T15:15:47Z</time>
      </trkpt>
      <trkpt lat="45.71773" lon="6.26811">
        <ele>894.4483</ele>
        <time>2013-08-11T15:15:52Z</time>
      </trkpt>
      <trkpt lat="45.71776" lon="6.26818">
        <ele>894.4483</ele>
        <time>2013-08-11T15:15:57Z</time>
      </trkpt>
      <trkpt lat="45.71781" lon="6.26824">
        <ele>895.43585</ele>
        <time>2013-08-11T15:16:02Z</time>
      </trkpt>
      <trkpt lat="45.71784" lon="6.2683">
        <ele>895.43585</ele>
        <time>2013-08-11T15:16:07Z</time>
      </trkpt>
      <trkpt lat="45.71791" lon="6.26835">
        <ele>896.45355</ele>
        <time>2013-08-11T15:16:12Z</time>
      </trkpt>
      <trkpt lat="45.71799" lon="6.26839">
        <ele>897.38</ele>
        <time>2013-08-11T15:16:17Z</time>
      </trkpt>
      <trkpt lat="45.71808" lon="6.26845">
        <ele>898.20374</ele>
        <time>2013-08-11T15:16:22Z</time>
      </trkpt>
      <trkpt lat="45.71813" lon="6.26851">
        <ele>898.20374</ele>
        <time>2013-08-11T15:16:27Z</time>
      </trkpt>
      <trkpt lat="45.71812" lon="6.26862">
        <ele>898.78485</ele>
        <time>2013-08-11T15:16:32Z</time>
      </trkpt>
      <trkpt lat="45.71815" lon="6.26871">
        <ele>898.78485</ele>
        <time>2013-08-11T15:16:37Z</time>
      </trkpt>
      <trkpt lat="45.71818" lon="6.26877">
        <ele>899.2683</ele>
        <time>2013-08-11T15:16:42Z</time>
      </trkpt>
      <trkpt lat="45.71822" lon="6.26882">
        <ele>899.2683</ele>
        <time>2013-08-11T15:16:47Z</time>
      </trkpt>
      <trkpt lat="45.71821" lon="6.2689">
        <ele>899.34186</ele>
        <time>2013-08-11T15:16:52Z</time>
      </trkpt>
      <trkpt lat="45.71825" lon="6.26898">
        <ele>899.34186</ele>
        <time>2013-08-11T15:16:57Z</time>
      </trkpt>
      <trkpt lat="45.7183" lon="6.26905">
        <ele>899.5679</ele>
        <time>2013-08-11T15:17:02Z</time>
      </trkpt>
      <trkpt lat="45.7183" lon="6.26911">
        <ele>899.5679</ele>
        <time>2013-08-11T15:17:07Z</time>
      </trkpt>
      <trkpt lat="45.71829" lon="6.26927">
        <ele>899.1411</ele>
        <time>2013-08-11T15:17:12Z</time>
      </trkpt>
      <trkpt lat="45.71829" lon="6.26937">
        <ele>899.1411</ele>
        <time>2013-08-11T15:17:17Z</time>
      </trkpt>
      <trkpt lat="45.71831" lon="6.26948">
        <ele>898.0379</ele>
        <time>2013-08-11T15:17:22Z</time>
      </trkpt>
      <trkpt lat="45.71835" lon="6.26957">
        <ele>898.0379</ele>
        <time>2013-08-11T15:17:27Z</time>
      </trkpt>
      <trkpt lat="45.71839" lon="6.26961">
        <ele>896.8436</ele>
        <time>2013-08-11T15:17:32Z</time>
      </trkpt>
      <trkpt lat="45.71837" lon="6.26972">
        <ele>896.8436</ele>
        <time>2013-08-11T15:17:37Z</time>
      </trkpt>
      <trkpt lat="45.71838" lon="6.2698">
        <ele>896.0144</ele>
        <time>2013-08-11T15:17:42Z</time>
      </trkpt>
      <trkpt lat="45.71841" lon="6.26988">
        <ele>896.0144</ele>
        <time>2013-08-11T15:17:47Z</time>
      </trkpt>
      <trkpt lat="45.71847" lon="6.26996">
        <ele>895.2947</ele>
        <time>2013-08-11T15:17:52Z</time>
      </trkpt>
      <trkpt lat="45.71852" lon="6.27004">
        <ele>895.2947</ele>
        <time>2013-08-11T15:17:57Z</time>
      </trkpt>
      <trkpt lat="45.71858" lon="6.27013">
        <ele>894.8075</ele>
        <time>2013-08-11T15:18:02Z</time>
      </trkpt>
      <trkpt lat="45.71862" lon="6.27019">
        <ele>894.8075</ele>
        <time>2013-08-11T15:18:07Z</time>
      </trkpt>
      <trkpt lat="45.71867" lon="6.27026">
        <ele>894.306</ele>
        <time>2013-08-11T15:18:12Z</time>
      </trkpt>
      <trkpt lat="45.71869" lon="6.2703">
        <ele>894.306</ele>
        <time>2013-08-11T15:18:17Z</time>
      </trkpt>
      <trkpt lat="45.71874" lon="6.27034">
        <ele>893.8643</ele>
        <time>2013-08-11T15:18:23Z</time>
      </trkpt>
      <trkpt lat="45.71875" lon="6.27033">
        <ele>893.8643</ele>
        <time>2013-08-11T15:18:27Z</time>
      </trkpt>
      <trkpt lat="45.71876" lon="6.27032">
        <ele>893.8643</ele>
        <time>2013-08-11T15:18:32Z</time>
      </trkpt>
      <trkpt lat="45.71876" lon="6.27032">
        <ele>893.8643</ele>
        <time>2013-08-11T15:18:38Z</time>
      </trkpt>
      <trkpt lat="45.71877" lon="6.27034">
        <ele>893.8643</ele>
        <time>2013-08-11T15:18:42Z</time>
      </trkpt>
      <trkpt lat="45.71882" lon="6.27044">
        <ele>893.36346</ele>
        <time>2013-08-11T15:18:47Z</time>
      </trkpt>
      <trkpt lat="45.71888" lon="6.27055">
        <ele>893.06805</ele>
        <time>2013-08-11T15:18:53Z</time>
      </trkpt>
      <trkpt lat="45.71889" lon="6.27061">
        <ele>893.06805</ele>
        <time>2013-08-11T15:18:57Z</time>
      </trkpt>
      <trkpt lat="45.7189" lon="6.27072">
        <ele>893.0643</ele>
        <time>2013-08-11T15:19:02Z</time>
      </trkpt>
      <trkpt lat="45.71896" lon="6.27083">
        <ele>893.0276</ele>
        <time>2013-08-11T15:19:08Z</time>
      </trkpt>
      <trkpt lat="45.71896" lon="6.27087">
        <ele>893.0276</ele>
        <time>2013-08-11T15:19:12Z</time>
      </trkpt>
      <trkpt lat="45.71896" lon="6.27094">
        <ele>893.0276</ele>
        <time>2013-08-11T15:19:17Z</time>
      </trkpt>
      <trkpt lat="45.71903" lon="6.27103">
        <ele>892.9601</ele>
        <time>2013-08-11T15:19:23Z</time>
      </trkpt>
      <trkpt lat="45.71908" lon="6.2711">
        <ele>892.9601</ele>
        <time>2013-08-11T15:19:27Z</time>
      </trkpt>
      <trkpt lat="45.71909" lon="6.2712">
        <ele>892.9069</ele>
        <time>2013-08-11T15:19:32Z</time>
      </trkpt>
      <trkpt lat="45.71906" lon="6.27128">
        <ele>892.9069</ele>
        <time>2013-08-11T15:19:38Z</time>
      </trkpt>
      <trkpt lat="45.71906" lon="6.27133">
        <ele>893.18384</ele>
        <time>2013-08-11T15:19:42Z</time>
      </trkpt>
      <trkpt lat="45.7191" lon="6.27144">
        <ele>893.18384</ele>
        <time>2013-08-11T15:19:47Z</time>
      </trkpt>
      <trkpt lat="45.7191" lon="6.27154">
        <ele>893.1889</ele>
        <time>2013-08-11T15:19:53Z</time>
      </trkpt>
      <trkpt lat="45.71909" lon="6.27165">
        <ele>893.1889</ele>
        <time>2013-08-11T15:19:57Z</time>
      </trkpt>
      <trkpt lat="45.7191" lon="6.27172">
        <ele>893.07135</ele>
        <time>2013-08-11T15:20:02Z</time>
      </trkpt>
      <trkpt lat="45.7191" lon="6.27173">
        <ele>893.07135</ele>
        <time>2013-08-11T15:20:08Z</time>
      </trkpt>
      <trkpt lat="45.71911" lon="6.27185">
        <ele>892.9697</ele>
        <time>2013-08-11T15:20:12Z</time>
      </trkpt>
      <trkpt lat="45.71911" lon="6.27196">
        <ele>892.9697</ele>
        <time>2013-08-11T15:20:17Z</time>
      </trkpt>
      <trkpt lat="45.71912" lon="6.27199">
        <ele>893.0702</ele>
        <time>2013-08-11T15:20:23Z</time>
      </trkpt>
      <trkpt lat="45.71914" lon="6.27215">
        <ele>893.6022</ele>
        <time>2013-08-11T15:20:27Z</time>
      </trkpt>
      <trkpt lat="45.71917" lon="6.27224">
        <ele>893.6022</ele>
        <time>2013-08-11T15:20:32Z</time>
      </trkpt>
      <trkpt lat="45.7192" lon="6.27234">
        <ele>894.21497</ele>
        <time>2013-08-11T15:20:38Z</time>
      </trkpt>
      <trkpt lat="45.71919" lon="6.27242">
        <ele>894.21497</ele>
        <time>2013-08-11T15:20:42Z</time>
      </trkpt>
      <trkpt lat="45.71917" lon="6.27251">
        <ele>894.915</ele>
        <time>2013-08-11T15:20:47Z</time>
      </trkpt>
      <trkpt lat="45.71918" lon="6.2726">
        <ele>894.915</ele>
        <time>2013-08-11T15:20:52Z</time>
      </trkpt>
      <trkpt lat="45.71921" lon="6.27269">
        <ele>896.11145</ele>
        <time>2013-08-11T15:20:58Z</time>
      </trkpt>
      <trkpt lat="45.7192" lon="6.27275">
        <ele>896.11145</ele>
        <time>2013-08-11T15:21:02Z</time>
      </trkpt>
      <trkpt lat="45.71918" lon="6.27284">
        <ele>896.8852</ele>
        <time>2013-08-11T15:21:08Z</time>
      </trkpt>
      <trkpt lat="45.71922" lon="6.2731">
        <ele>897.9276</ele>
        <time>2013-08-11T15:21:17Z</time>
      </trkpt>
      <trkpt lat="45.71924" lon="6.27321">
        <ele>897.9276</ele>
        <time>2013-08-11T15:21:22Z</time>
      </trkpt>
      <trkpt lat="45.71922" lon="6.27335">
        <ele>898.942</ele>
        <time>2013-08-11T15:21:28Z</time>
      </trkpt>
      <trkpt lat="45.71923" lon="6.27343">
        <ele>898.942</ele>
        <time>2013-08-11T15:21:32Z</time>
      </trkpt>
      <trkpt lat="45.71926" lon="6.27354">
        <ele>899.8554</ele>
        <time>2013-08-11T15:21:37Z</time>
      </trkpt>
      <trkpt lat="45.71931" lon="6.27362">
        <ele>899.8554</ele>
        <time>2013-08-11T15:21:42Z</time>
      </trkpt>
      <trkpt lat="45.71934" lon="6.27367">
        <ele>900.6868</ele>
        <time>2013-08-11T15:21:47Z</time>
      </trkpt>
      <trkpt lat="45.71936" lon="6.27373">
        <ele>900.6868</ele>
        <time>2013-08-11T15:21:52Z</time>
      </trkpt>
      <trkpt lat="45.71938" lon="6.27377">
        <ele>900.6868</ele>
        <time>2013-08-11T15:21:58Z</time>
      </trkpt>
      <trkpt lat="45.71938" lon="6.27384">
        <ele>901.45435</ele>
        <time>2013-08-11T15:22:02Z</time>
      </trkpt>
      <trkpt lat="45.71938" lon="6.27388">
        <ele>901.45435</ele>
        <time>2013-08-11T15:22:07Z</time>
      </trkpt>
      <trkpt lat="45.71941" lon="6.27391">
        <ele>901.45435</ele>
        <time>2013-08-11T15:22:13Z</time>
      </trkpt>
      <trkpt lat="45.71946" lon="6.274">
        <ele>902.41986</ele>
        <time>2013-08-11T15:22:17Z</time>
      </trkpt>
      <trkpt lat="45.71946" lon="6.27418">
        <ele>902.8168</ele>
        <time>2013-08-11T15:22:22Z</time>
      </trkpt>
      <trkpt lat="45.71943" lon="6.27431">
        <ele>902.8587</ele>
        <time>2013-08-11T15:22:28Z</time>
      </trkpt>
      <trkpt lat="45.71942" lon="6.27446">
        <ele>902.6439</ele>
        <time>2013-08-11T15:22:32Z</time>
      </trkpt>
      <trkpt lat="45.71943" lon="6.27455">
        <ele>902.6439</ele>
        <time>2013-08-11T15:22:37Z</time>
      </trkpt>
      <trkpt lat="45.71945" lon="6.2746">
        <ele>902.26404</ele>
        <time>2013-08-11T15:22:42Z</time>
      </trkpt>
      <trkpt lat="45.71946" lon="6.27462">
        <ele>902.26404</ele>
        <time>2013-08-11T15:22:49Z</time>
      </trkpt>
      <trkpt lat="45.7195" lon="6.27469">
        <ele>902.26404</ele>
        <time>2013-08-11T15:22:52Z</time>
      </trkpt>
      <trkpt lat="45.71955" lon="6.27478">
        <ele>902.26575</ele>
        <time>2013-08-11T15:22:57Z</time>
      </trkpt>
      <trkpt lat="45.71959" lon="6.27485">
        <ele>902.26575</ele>
        <time>2013-08-11T15:23:04Z</time>
      </trkpt>
      <trkpt lat="45.71963" lon="6.27489">
        <ele>902.14575</ele>
        <time>2013-08-11T15:23:07Z</time>
      </trkpt>
      <trkpt lat="45.71963" lon="6.2749">
        <ele>902.14575</ele>
        <time>2013-08-11T15:23:12Z</time>
      </trkpt>
      <trkpt lat="45.71963" lon="6.2749">
        <ele>902.14575</ele>
        <time>2013-08-11T15:23:18Z</time>
      </trkpt>
      <trkpt lat="45.71963" lon="6.27491">
        <ele>902.14575</ele>
        <time>2013-08-11T15:23:22Z</time>
      </trkpt>
      <trkpt lat="45.71966" lon="6.27494">
        <ele>902.14575</ele>
        <time>2013-08-11T15:23:27Z</time>
      </trkpt>
      <trkpt lat="45.71966" lon="6.27495">
        <ele>902.14575</ele>
        <time>2013-08-11T15:23:32Z</time>
      </trkpt>
      <trkpt lat="45.71966" lon="6.27496">
        <ele>902.14575</ele>
        <time>2013-08-11T15:23:37Z</time>
      </trkpt>
      <trkpt lat="45.71966" lon="6.27496">
        <ele>902.14575</ele>
        <time>2013-08-11T15:23:42Z</time>
      </trkpt>
      <trkpt lat="45.71966" lon="6.27496">
        <ele>902.14575</ele>
        <time>2013-08-11T15:23:48Z</time>
      </trkpt>
      <trkpt lat="45.71966" lon="6.27496">
        <ele>902.14575</ele>
        <time>2013-08-11T15:23:52Z</time>
      </trkpt>
      <trkpt lat="45.71966" lon="6.27496">
        <ele>902.14575</ele>
        <time>2013-08-11T15:23:57Z</time>
      </trkpt>
      <trkpt lat="45.71966" lon="6.27496">
        <ele>902.14575</ele>
        <time>2013-08-11T15:24:03Z</time>
      </trkpt>
      <trkpt lat="45.71968" lon="6.27497">
        <ele>902.14575</ele>
        <time>2013-08-11T15:24:07Z</time>
      </trkpt>
      <trkpt lat="45.7197" lon="6.27496">
        <ele>902.0866</ele>
        <time>2013-08-11T15:24:12Z</time>
      </trkpt>
      <trkpt lat="45.71973" lon="6.27496">
        <ele>902.0866</ele>
        <time>2013-08-11T15:24:17Z</time>
      </trkpt>
      <trkpt lat="45.71974" lon="6.27498">
        <ele>902.0866</ele>
        <time>2013-08-11T15:24:22Z</time>
      </trkpt>
      <trkpt lat="45.71976" lon="6.27494">
        <ele>902.0866</ele>
        <time>2013-08-11T15:24:27Z</time>
      </trkpt>
      <trkpt lat="45.71976" lon="6.2749">
        <ele>902.0989</ele>
        <time>2013-08-11T15:24:33Z</time>
      </trkpt>
      <trkpt lat="45.71976" lon="6.27493">
        <ele>902.0989</ele>
        <time>2013-08-11T15:24:37Z</time>
      </trkpt>
      <trkpt lat="45.71974" lon="6.27501">
        <ele>902.0989</ele>
        <time>2013-08-11T15:24:42Z</time>
      </trkpt>
      <trkpt lat="45.71974" lon="6.27501">
        <ele>902.0989</ele>
        <time>2013-08-11T15:24:48Z</time>
      </trkpt>
      <trkpt lat="45.71974" lon="6.27502">
        <ele>902.0989</ele>
        <time>2013-08-11T15:24:52Z</time>
      </trkpt>
      <trkpt lat="45.71974" lon="6.27501">
        <ele>902.3793</ele>
        <time>2013-08-11T15:24:57Z</time>
      </trkpt>
      <trkpt lat="45.71974" lon="6.27501">
        <ele>902.3793</ele>
        <time>2013-08-11T15:25:03Z</time>
      </trkpt>
      <trkpt lat="45.71974" lon="6.27501">
        <ele>902.3793</ele>
        <time>2013-08-11T15:25:07Z</time>
      </trkpt>
      <trkpt lat="45.71974" lon="6.27501">
        <ele>902.3793</ele>
        <time>2013-08-11T15:25:12Z</time>
      </trkpt>
      <trkpt lat="45.71974" lon="6.27501">
        <ele>902.3793</ele>
        <time>2013-08-11T15:25:18Z</time>
      </trkpt>
      <trkpt lat="45.71974" lon="6.27501">
        <ele>902.3793</ele>
        <time>2013-08-11T15:25:22Z</time>
      </trkpt>
      <trkpt lat="45.71974" lon="6.27501">
        <ele>902.3793</ele>
        <time>2013-08-11T15:25:27Z</time>
      </trkpt>
      <trkpt lat="45.71974" lon="6.27501">
        <ele>902.3793</ele>
        <time>2013-08-11T15:25:32Z</time>
      </trkpt>
      <trkpt lat="45.71974" lon="6.27501">
        <ele>902.3793</ele>
        <time>2013-08-11T15:25:37Z</time>
      </trkpt>
      <trkpt lat="45.71974" lon="6.27501">
        <ele>902.3793</ele>
        <time>2013-08-11T15:25:42Z</time>
      </trkpt>
      <trkpt lat="45.71974" lon="6.27501">
        <ele>902.3793</ele>
        <time>2013-08-11T15:25:47Z</time>
      </trkpt>
      <trkpt lat="45.71974" lon="6.27501">
        <ele>902.3793</ele>
        <time>2013-08-11T15:25:47Z</time>
      </trkpt>
    </trkseg>
  </trk>
</gpx>